<?xml version="1.0" encoding="UTF-8" standalone="no" ?>
<gpx xmlns="http://www.topografix.com/GPX/1/1" xmlns:xsi="http://www.w3.org/2001/XMLSchema-instance" xsi:schemaLocation="http://www.topografix.com/GPX/1/1 http://www.topografix.com/GPX/1/1/gpx.xsd" version="1.1" creator="VisuGPX - https://www.visugpx.com">
  <metadata>
    <name>Paradiski J3-2016 (JLo)</name>
    <desc><![CDATA[La Plagne et le glacier
Troisième jour]]></desc>
  </metadata>
  <trk>
    <name><![CDATA[2016-03-22 09:06]]></name>
    <desc><![CDATA[<p>Temps de départ: 03/22/2016 09:06</p><p>Temps d'arrivée: 03/22/2016 17:11</p><p>Distance: 91 km (08:05)</p><p>Temps déplacement: 06:22</p><p>Vitesse moyenne: 11,2 km/h</p><p>Vitesse moyenne mouvement: 14,3 km/h</p><p>Vitess Max.: 66,8km/h</p><p>Altitude minimale: 1368 m</p><p>Altitude maximale: 3168 m</p><p>Vitesse d'élévation: 2317 m/h</p><p>Vitesse de descente: -2885,2 m/h</p><p>Gain Altitude: 9206 m</p><p>Perte Altitude: -9174 m</p><p>Temps d'élévation: 03:58</p><p>Temps de descente: 03:10</p><hr align="center" width="480" style="height: 2px; width: 517px"/>]]></desc>
    <trkseg>
      <trkpt lat="45.51205" lon="6.66684">
        <ele>2052.37</ele>
        <time>2016-03-22T08:06:07Z</time>
      </trkpt>
      <trkpt lat="45.51223" lon="6.66693">
        <ele>2053.33</ele>
        <time>2016-03-22T08:06:58Z</time>
      </trkpt>
      <trkpt lat="45.51247" lon="6.66695">
        <ele>2048.79</ele>
        <time>2016-03-22T08:07:03Z</time>
      </trkpt>
      <trkpt lat="45.51265" lon="6.66696">
        <ele>2044.86</ele>
        <time>2016-03-22T08:07:05Z</time>
      </trkpt>
      <trkpt lat="45.51285" lon="6.66694">
        <ele>2044.38</ele>
        <time>2016-03-22T08:07:07Z</time>
      </trkpt>
      <trkpt lat="45.51305" lon="6.66699">
        <ele>2044.53</ele>
        <time>2016-03-22T08:07:09Z</time>
      </trkpt>
      <trkpt lat="45.51325" lon="6.66702">
        <ele>2041.97</ele>
        <time>2016-03-22T08:07:11Z</time>
      </trkpt>
      <trkpt lat="45.51348" lon="6.66701">
        <ele>2041.53</ele>
        <time>2016-03-22T08:07:14Z</time>
      </trkpt>
      <trkpt lat="45.51366" lon="6.66703">
        <ele>2040.89</ele>
        <time>2016-03-22T08:07:18Z</time>
      </trkpt>
      <trkpt lat="45.51386" lon="6.66709">
        <ele>2037.97</ele>
        <time>2016-03-22T08:07:22Z</time>
      </trkpt>
      <trkpt lat="45.51408" lon="6.66723">
        <ele>2036.57</ele>
        <time>2016-03-22T08:07:25Z</time>
      </trkpt>
      <trkpt lat="45.51428" lon="6.66733">
        <ele>2035.57</ele>
        <time>2016-03-22T08:07:27Z</time>
      </trkpt>
      <trkpt lat="45.51447" lon="6.66748">
        <ele>2034.73</ele>
        <time>2016-03-22T08:07:29Z</time>
      </trkpt>
      <trkpt lat="45.51466" lon="6.66761">
        <ele>2027.97</ele>
        <time>2016-03-22T08:07:32Z</time>
      </trkpt>
      <trkpt lat="45.51482" lon="6.66781">
        <ele>2025.79</ele>
        <time>2016-03-22T08:07:34Z</time>
      </trkpt>
      <trkpt lat="45.51502" lon="6.6679">
        <ele>2024.58</ele>
        <time>2016-03-22T08:07:36Z</time>
      </trkpt>
      <trkpt lat="45.51517" lon="6.66814">
        <ele>2021.97</ele>
        <time>2016-03-22T08:07:38Z</time>
      </trkpt>
      <trkpt lat="45.51536" lon="6.66826">
        <ele>2019.15</ele>
        <time>2016-03-22T08:07:40Z</time>
      </trkpt>
      <trkpt lat="45.51555" lon="6.66824">
        <ele>2012.84</ele>
        <time>2016-03-22T08:07:43Z</time>
      </trkpt>
      <trkpt lat="45.51574" lon="6.66835">
        <ele>2010.78</ele>
        <time>2016-03-22T08:07:45Z</time>
      </trkpt>
      <trkpt lat="45.51595" lon="6.66827">
        <ele>2007.82</ele>
        <time>2016-03-22T08:07:47Z</time>
      </trkpt>
      <trkpt lat="45.5159" lon="6.66802">
        <ele>2001.62</ele>
        <time>2016-03-22T08:07:49Z</time>
      </trkpt>
      <trkpt lat="45.51602" lon="6.66777">
        <ele>1995</ele>
        <time>2016-03-22T08:07:52Z</time>
      </trkpt>
      <trkpt lat="45.51616" lon="6.66757">
        <ele>1985.91</ele>
        <time>2016-03-22T08:07:54Z</time>
      </trkpt>
      <trkpt lat="45.51618" lon="6.6673">
        <ele>1981.07</ele>
        <time>2016-03-22T08:07:56Z</time>
      </trkpt>
      <trkpt lat="45.5163" lon="6.66704">
        <ele>1977.35</ele>
        <time>2016-03-22T08:07:58Z</time>
      </trkpt>
      <trkpt lat="45.51644" lon="6.66675">
        <ele>1974.8</ele>
        <time>2016-03-22T08:08:00Z</time>
      </trkpt>
      <trkpt lat="45.51657" lon="6.66653">
        <ele>1969.9</ele>
        <time>2016-03-22T08:08:02Z</time>
      </trkpt>
      <trkpt lat="45.51656" lon="6.66626">
        <ele>1962.43</ele>
        <time>2016-03-22T08:08:05Z</time>
      </trkpt>
      <trkpt lat="45.51676" lon="6.6661">
        <ele>1942.18</ele>
        <time>2016-03-22T08:08:23Z</time>
      </trkpt>
      <trkpt lat="45.51693" lon="6.66586">
        <ele>1939.74</ele>
        <time>2016-03-22T08:08:26Z</time>
      </trkpt>
      <trkpt lat="45.51716" lon="6.66579">
        <ele>1927.83</ele>
        <time>2016-03-22T08:08:30Z</time>
      </trkpt>
      <trkpt lat="45.51734" lon="6.66563">
        <ele>1914.57</ele>
        <time>2016-03-22T08:08:33Z</time>
      </trkpt>
      <trkpt lat="45.51755" lon="6.66559">
        <ele>1913.57</ele>
        <time>2016-03-22T08:08:35Z</time>
      </trkpt>
      <trkpt lat="45.51778" lon="6.66565">
        <ele>1911.77</ele>
        <time>2016-03-22T08:08:37Z</time>
      </trkpt>
      <trkpt lat="45.51807" lon="6.66567">
        <ele>1909.78</ele>
        <time>2016-03-22T08:08:39Z</time>
      </trkpt>
      <trkpt lat="45.51825" lon="6.66584">
        <ele>1908.78</ele>
        <time>2016-03-22T08:08:40Z</time>
      </trkpt>
      <trkpt lat="45.51854" lon="6.66598">
        <ele>1906.94</ele>
        <time>2016-03-22T08:08:42Z</time>
      </trkpt>
      <trkpt lat="45.51884" lon="6.66609">
        <ele>1904.79</ele>
        <time>2016-03-22T08:08:44Z</time>
      </trkpt>
      <trkpt lat="45.51905" lon="6.66619">
        <ele>1901.98</ele>
        <time>2016-03-22T08:08:46Z</time>
      </trkpt>
      <trkpt lat="45.51928" lon="6.66637">
        <ele>1898.99</ele>
        <time>2016-03-22T08:08:48Z</time>
      </trkpt>
      <trkpt lat="45.5195" lon="6.66653">
        <ele>1895.83</ele>
        <time>2016-03-22T08:08:50Z</time>
      </trkpt>
      <trkpt lat="45.5196" lon="6.66676">
        <ele>1894.79</ele>
        <time>2016-03-22T08:08:51Z</time>
      </trkpt>
      <trkpt lat="45.51985" lon="6.66709">
        <ele>1891.02</ele>
        <time>2016-03-22T08:08:53Z</time>
      </trkpt>
      <trkpt lat="45.52013" lon="6.66731">
        <ele>1888.79</ele>
        <time>2016-03-22T08:08:55Z</time>
      </trkpt>
      <trkpt lat="45.52032" lon="6.66745">
        <ele>1886.98</ele>
        <time>2016-03-22T08:08:56Z</time>
      </trkpt>
      <trkpt lat="45.52058" lon="6.66761">
        <ele>1883.83</ele>
        <time>2016-03-22T08:08:58Z</time>
      </trkpt>
      <trkpt lat="45.5208" lon="6.66762">
        <ele>1875.06</ele>
        <time>2016-03-22T08:09:00Z</time>
      </trkpt>
      <trkpt lat="45.52097" lon="6.66777">
        <ele>1864.31</ele>
        <time>2016-03-22T08:09:02Z</time>
      </trkpt>
      <trkpt lat="45.52118" lon="6.66802">
        <ele>1858.6</ele>
        <time>2016-03-22T08:09:04Z</time>
      </trkpt>
      <trkpt lat="45.52104" lon="6.66831">
        <ele>1829.32</ele>
        <time>2016-03-22T08:09:07Z</time>
      </trkpt>
      <trkpt lat="45.52101" lon="6.66876">
        <ele>1821.04</ele>
        <time>2016-03-22T08:09:09Z</time>
      </trkpt>
      <trkpt lat="45.52115" lon="6.669">
        <ele>1812.39</ele>
        <time>2016-03-22T08:09:11Z</time>
      </trkpt>
      <trkpt lat="45.52117" lon="6.66928">
        <ele>1800.85</ele>
        <time>2016-03-22T08:09:13Z</time>
      </trkpt>
      <trkpt lat="45.52121" lon="6.66958">
        <ele>1792.22</ele>
        <time>2016-03-22T08:09:15Z</time>
      </trkpt>
      <trkpt lat="45.52133" lon="6.66989">
        <ele>1787.24</ele>
        <time>2016-03-22T08:09:17Z</time>
      </trkpt>
      <trkpt lat="45.52136" lon="6.67024">
        <ele>1781.28</ele>
        <time>2016-03-22T08:09:19Z</time>
      </trkpt>
      <trkpt lat="45.52151" lon="6.6705">
        <ele>1776.24</ele>
        <time>2016-03-22T08:09:21Z</time>
      </trkpt>
      <trkpt lat="45.52142" lon="6.67079">
        <ele>1765.8</ele>
        <time>2016-03-22T08:09:23Z</time>
      </trkpt>
      <trkpt lat="45.52141" lon="6.67113">
        <ele>1759.04</ele>
        <time>2016-03-22T08:09:26Z</time>
      </trkpt>
      <trkpt lat="45.5216" lon="6.67117">
        <ele>1755.03</ele>
        <time>2016-03-22T08:09:28Z</time>
      </trkpt>
      <trkpt lat="45.5218" lon="6.67125">
        <ele>1749.91</ele>
        <time>2016-03-22T08:09:30Z</time>
      </trkpt>
      <trkpt lat="45.522" lon="6.67123">
        <ele>1742.19</ele>
        <time>2016-03-22T08:09:32Z</time>
      </trkpt>
      <trkpt lat="45.52224" lon="6.67134">
        <ele>1736.03</ele>
        <time>2016-03-22T08:09:35Z</time>
      </trkpt>
      <trkpt lat="45.52238" lon="6.67151">
        <ele>1730.59</ele>
        <time>2016-03-22T08:09:37Z</time>
      </trkpt>
      <trkpt lat="45.52255" lon="6.67176">
        <ele>1725</ele>
        <time>2016-03-22T08:09:40Z</time>
      </trkpt>
      <trkpt lat="45.5227" lon="6.67201">
        <ele>1722.79</ele>
        <time>2016-03-22T08:09:42Z</time>
      </trkpt>
      <trkpt lat="45.52281" lon="6.67238">
        <ele>1709.29</ele>
        <time>2016-03-22T08:09:45Z</time>
      </trkpt>
      <trkpt lat="45.52299" lon="6.67252">
        <ele>1675.78</ele>
        <time>2016-03-22T08:09:57Z</time>
      </trkpt>
      <trkpt lat="45.52317" lon="6.67248">
        <ele>1670.1</ele>
        <time>2016-03-22T08:09:59Z</time>
      </trkpt>
      <trkpt lat="45.52338" lon="6.67255">
        <ele>1666.83</ele>
        <time>2016-03-22T08:10:01Z</time>
      </trkpt>
      <trkpt lat="45.52359" lon="6.67257">
        <ele>1662.22</ele>
        <time>2016-03-22T08:10:03Z</time>
      </trkpt>
      <trkpt lat="45.52385" lon="6.67268">
        <ele>1659.8</ele>
        <time>2016-03-22T08:10:05Z</time>
      </trkpt>
      <trkpt lat="45.52413" lon="6.67284">
        <ele>1657.78</ele>
        <time>2016-03-22T08:10:07Z</time>
      </trkpt>
      <trkpt lat="45.52437" lon="6.67281">
        <ele>1649.7</ele>
        <time>2016-03-22T08:10:09Z</time>
      </trkpt>
      <trkpt lat="45.52458" lon="6.67292">
        <ele>1646.82</ele>
        <time>2016-03-22T08:10:11Z</time>
      </trkpt>
      <trkpt lat="45.52477" lon="6.673">
        <ele>1643.82</ele>
        <time>2016-03-22T08:10:13Z</time>
      </trkpt>
      <trkpt lat="45.52496" lon="6.67299">
        <ele>1630.35</ele>
        <time>2016-03-22T08:10:16Z</time>
      </trkpt>
      <trkpt lat="45.52513" lon="6.67321">
        <ele>1627</ele>
        <time>2016-03-22T08:10:18Z</time>
      </trkpt>
      <trkpt lat="45.52533" lon="6.67325">
        <ele>1623.35</ele>
        <time>2016-03-22T08:10:20Z</time>
      </trkpt>
      <trkpt lat="45.52559" lon="6.6733">
        <ele>1620.8</ele>
        <time>2016-03-22T08:10:22Z</time>
      </trkpt>
      <trkpt lat="45.52582" lon="6.67339">
        <ele>1606.3</ele>
        <time>2016-03-22T08:10:24Z</time>
      </trkpt>
      <trkpt lat="45.52603" lon="6.67328">
        <ele>1601.08</ele>
        <time>2016-03-22T08:10:26Z</time>
      </trkpt>
      <trkpt lat="45.52593" lon="6.67304">
        <ele>1588.87</ele>
        <time>2016-03-22T08:10:33Z</time>
      </trkpt>
      <trkpt lat="45.52577" lon="6.67294">
        <ele>1563</ele>
        <time>2016-03-22T08:10:47Z</time>
      </trkpt>
      <trkpt lat="45.52558" lon="6.67292">
        <ele>1535.78</ele>
        <time>2016-03-22T08:11:12Z</time>
      </trkpt>
      <trkpt lat="45.52539" lon="6.67278">
        <ele>1535.49</ele>
        <time>2016-03-22T08:11:19Z</time>
      </trkpt>
      <trkpt lat="45.52522" lon="6.6727">
        <ele>1542.47</ele>
        <time>2016-03-22T08:11:23Z</time>
      </trkpt>
      <trkpt lat="45.52505" lon="6.67262">
        <ele>1541.76</ele>
        <time>2016-03-22T08:11:27Z</time>
      </trkpt>
      <trkpt lat="45.52484" lon="6.67251">
        <ele>1544.49</ele>
        <time>2016-03-22T08:11:32Z</time>
      </trkpt>
      <trkpt lat="45.52464" lon="6.67242">
        <ele>1548.09</ele>
        <time>2016-03-22T08:11:37Z</time>
      </trkpt>
      <trkpt lat="45.52445" lon="6.67229">
        <ele>1553.44</ele>
        <time>2016-03-22T08:11:42Z</time>
      </trkpt>
      <trkpt lat="45.52427" lon="6.67215">
        <ele>1564.55</ele>
        <time>2016-03-22T08:11:47Z</time>
      </trkpt>
      <trkpt lat="45.52408" lon="6.67205">
        <ele>1574</ele>
        <time>2016-03-22T08:11:52Z</time>
      </trkpt>
      <trkpt lat="45.52389" lon="6.67191">
        <ele>1580.23</ele>
        <time>2016-03-22T08:11:57Z</time>
      </trkpt>
      <trkpt lat="45.52372" lon="6.67177">
        <ele>1590.64</ele>
        <time>2016-03-22T08:12:02Z</time>
      </trkpt>
      <trkpt lat="45.52355" lon="6.67163">
        <ele>1598.08</ele>
        <time>2016-03-22T08:12:06Z</time>
      </trkpt>
      <trkpt lat="45.52337" lon="6.6715">
        <ele>1610.27</ele>
        <time>2016-03-22T08:12:11Z</time>
      </trkpt>
      <trkpt lat="45.52316" lon="6.67143">
        <ele>1624.82</ele>
        <time>2016-03-22T08:12:17Z</time>
      </trkpt>
      <trkpt lat="45.52299" lon="6.67133">
        <ele>1638.74</ele>
        <time>2016-03-22T08:12:22Z</time>
      </trkpt>
      <trkpt lat="45.5228" lon="6.67124">
        <ele>1648.08</ele>
        <time>2016-03-22T08:12:27Z</time>
      </trkpt>
      <trkpt lat="45.52263" lon="6.67113">
        <ele>1655.99</ele>
        <time>2016-03-22T08:12:31Z</time>
      </trkpt>
      <trkpt lat="45.52247" lon="6.67098">
        <ele>1662.27</ele>
        <time>2016-03-22T08:12:35Z</time>
      </trkpt>
      <trkpt lat="45.52228" lon="6.67085">
        <ele>1671.24</ele>
        <time>2016-03-22T08:12:40Z</time>
      </trkpt>
      <trkpt lat="45.52208" lon="6.67077">
        <ele>1678.48</ele>
        <time>2016-03-22T08:12:45Z</time>
      </trkpt>
      <trkpt lat="45.5219" lon="6.67064">
        <ele>1688.26</ele>
        <time>2016-03-22T08:12:50Z</time>
      </trkpt>
      <trkpt lat="45.52171" lon="6.67053">
        <ele>1700.1</ele>
        <time>2016-03-22T08:12:55Z</time>
      </trkpt>
      <trkpt lat="45.52151" lon="6.67042">
        <ele>1706.01</ele>
        <time>2016-03-22T08:13:00Z</time>
      </trkpt>
      <trkpt lat="45.52135" lon="6.67031">
        <ele>1711.08</ele>
        <time>2016-03-22T08:13:04Z</time>
      </trkpt>
      <trkpt lat="45.52115" lon="6.67017">
        <ele>1718.27</ele>
        <time>2016-03-22T08:13:09Z</time>
      </trkpt>
      <trkpt lat="45.52099" lon="6.67004">
        <ele>1724.11</ele>
        <time>2016-03-22T08:13:13Z</time>
      </trkpt>
      <trkpt lat="45.52082" lon="6.66994">
        <ele>1727.09</ele>
        <time>2016-03-22T08:13:17Z</time>
      </trkpt>
      <trkpt lat="45.52062" lon="6.66985">
        <ele>1733.28</ele>
        <time>2016-03-22T08:13:22Z</time>
      </trkpt>
      <trkpt lat="45.52043" lon="6.66973">
        <ele>1742.06</ele>
        <time>2016-03-22T08:13:27Z</time>
      </trkpt>
      <trkpt lat="45.52026" lon="6.66963">
        <ele>1747.25</ele>
        <time>2016-03-22T08:13:31Z</time>
      </trkpt>
      <trkpt lat="45.52009" lon="6.66951">
        <ele>1750.28</ele>
        <time>2016-03-22T08:13:35Z</time>
      </trkpt>
      <trkpt lat="45.5199" lon="6.66943">
        <ele>1757.28</ele>
        <time>2016-03-22T08:13:40Z</time>
      </trkpt>
      <trkpt lat="45.5197" lon="6.66928">
        <ele>1765.23</ele>
        <time>2016-03-22T08:13:45Z</time>
      </trkpt>
      <trkpt lat="45.51952" lon="6.66915">
        <ele>1769.28</ele>
        <time>2016-03-22T08:13:49Z</time>
      </trkpt>
      <trkpt lat="45.51935" lon="6.66903">
        <ele>1771.45</ele>
        <time>2016-03-22T08:13:53Z</time>
      </trkpt>
      <trkpt lat="45.51917" lon="6.6689">
        <ele>1791.67</ele>
        <time>2016-03-22T08:14:00Z</time>
      </trkpt>
      <trkpt lat="45.519" lon="6.66875">
        <ele>1794.49</ele>
        <time>2016-03-22T08:14:04Z</time>
      </trkpt>
      <trkpt lat="45.51881" lon="6.66864">
        <ele>1794.69</ele>
        <time>2016-03-22T08:14:08Z</time>
      </trkpt>
      <trkpt lat="45.51859" lon="6.66858">
        <ele>1799.46</ele>
        <time>2016-03-22T08:14:13Z</time>
      </trkpt>
      <trkpt lat="45.51842" lon="6.66845">
        <ele>1804.24</ele>
        <time>2016-03-22T08:14:17Z</time>
      </trkpt>
      <trkpt lat="45.51824" lon="6.66835">
        <ele>1815.27</ele>
        <time>2016-03-22T08:14:23Z</time>
      </trkpt>
      <trkpt lat="45.51805" lon="6.66825">
        <ele>1822.85</ele>
        <time>2016-03-22T08:14:27Z</time>
      </trkpt>
      <trkpt lat="45.51786" lon="6.66813">
        <ele>1832.83</ele>
        <time>2016-03-22T08:14:32Z</time>
      </trkpt>
      <trkpt lat="45.51767" lon="6.66801">
        <ele>1837.33</ele>
        <time>2016-03-22T08:14:37Z</time>
      </trkpt>
      <trkpt lat="45.51747" lon="6.66791">
        <ele>1846.27</ele>
        <time>2016-03-22T08:14:42Z</time>
      </trkpt>
      <trkpt lat="45.51729" lon="6.66784">
        <ele>1851.24</ele>
        <time>2016-03-22T08:14:46Z</time>
      </trkpt>
      <trkpt lat="45.5171" lon="6.66778">
        <ele>1859.66</ele>
        <time>2016-03-22T08:14:51Z</time>
      </trkpt>
      <trkpt lat="45.51693" lon="6.66766">
        <ele>1870.46</ele>
        <time>2016-03-22T08:14:56Z</time>
      </trkpt>
      <trkpt lat="45.51677" lon="6.66757">
        <ele>1895.4</ele>
        <time>2016-03-22T08:15:02Z</time>
      </trkpt>
      <trkpt lat="45.51657" lon="6.66741">
        <ele>1906.24</ele>
        <time>2016-03-22T08:15:08Z</time>
      </trkpt>
      <trkpt lat="45.5164" lon="6.6673">
        <ele>1912.84</ele>
        <time>2016-03-22T08:15:12Z</time>
      </trkpt>
      <trkpt lat="45.51622" lon="6.6672">
        <ele>1919.04</ele>
        <time>2016-03-22T08:15:16Z</time>
      </trkpt>
      <trkpt lat="45.51604" lon="6.66711">
        <ele>1926.23</ele>
        <time>2016-03-22T08:15:20Z</time>
      </trkpt>
      <trkpt lat="45.51586" lon="6.66702">
        <ele>1930.25</ele>
        <time>2016-03-22T08:15:24Z</time>
      </trkpt>
      <trkpt lat="45.51569" lon="6.66691">
        <ele>1934.85</ele>
        <time>2016-03-22T08:15:28Z</time>
      </trkpt>
      <trkpt lat="45.51551" lon="6.66682">
        <ele>1936.49</ele>
        <time>2016-03-22T08:15:32Z</time>
      </trkpt>
      <trkpt lat="45.51534" lon="6.66672">
        <ele>1938.49</ele>
        <time>2016-03-22T08:15:36Z</time>
      </trkpt>
      <trkpt lat="45.51514" lon="6.66662">
        <ele>1942.29</ele>
        <time>2016-03-22T08:15:41Z</time>
      </trkpt>
      <trkpt lat="45.51495" lon="6.6665">
        <ele>1964.02</ele>
        <time>2016-03-22T08:15:47Z</time>
      </trkpt>
      <trkpt lat="45.51476" lon="6.66637">
        <ele>1974.04</ele>
        <time>2016-03-22T08:15:52Z</time>
      </trkpt>
      <trkpt lat="45.51456" lon="6.66629">
        <ele>1980.12</ele>
        <time>2016-03-22T08:15:57Z</time>
      </trkpt>
      <trkpt lat="45.51437" lon="6.66618">
        <ele>2003.54</ele>
        <time>2016-03-22T08:16:03Z</time>
      </trkpt>
      <trkpt lat="45.51419" lon="6.66605">
        <ele>2018.03</ele>
        <time>2016-03-22T08:16:08Z</time>
      </trkpt>
      <trkpt lat="45.514" lon="6.66591">
        <ele>2031.99</ele>
        <time>2016-03-22T08:16:13Z</time>
      </trkpt>
      <trkpt lat="45.51382" lon="6.66581">
        <ele>2041.21</ele>
        <time>2016-03-22T08:16:18Z</time>
      </trkpt>
      <trkpt lat="45.51361" lon="6.66569">
        <ele>2047.28</ele>
        <time>2016-03-22T08:16:23Z</time>
      </trkpt>
      <trkpt lat="45.51341" lon="6.66557">
        <ele>2054.24</ele>
        <time>2016-03-22T08:16:28Z</time>
      </trkpt>
      <trkpt lat="45.51321" lon="6.66546">
        <ele>2062.07</ele>
        <time>2016-03-22T08:16:33Z</time>
      </trkpt>
      <trkpt lat="45.51301" lon="6.66534">
        <ele>2070.04</ele>
        <time>2016-03-22T08:16:38Z</time>
      </trkpt>
      <trkpt lat="45.51282" lon="6.66522">
        <ele>2078.23</ele>
        <time>2016-03-22T08:16:43Z</time>
      </trkpt>
      <trkpt lat="45.51263" lon="6.66512">
        <ele>2086.24</ele>
        <time>2016-03-22T08:16:48Z</time>
      </trkpt>
      <trkpt lat="45.51243" lon="6.665">
        <ele>2092.28</ele>
        <time>2016-03-22T08:16:53Z</time>
      </trkpt>
      <trkpt lat="45.51223" lon="6.66488">
        <ele>2098.24</ele>
        <time>2016-03-22T08:16:58Z</time>
      </trkpt>
      <trkpt lat="45.51203" lon="6.66475">
        <ele>2103.32</ele>
        <time>2016-03-22T08:17:03Z</time>
      </trkpt>
      <trkpt lat="45.51187" lon="6.66464">
        <ele>2108.27</ele>
        <time>2016-03-22T08:17:07Z</time>
      </trkpt>
      <trkpt lat="45.51171" lon="6.66453">
        <ele>2113.27</ele>
        <time>2016-03-22T08:17:11Z</time>
      </trkpt>
      <trkpt lat="45.51154" lon="6.66443">
        <ele>2115.48</ele>
        <time>2016-03-22T08:17:15Z</time>
      </trkpt>
      <trkpt lat="45.51135" lon="6.6643">
        <ele>2119.33</ele>
        <time>2016-03-22T08:17:20Z</time>
      </trkpt>
      <trkpt lat="45.51118" lon="6.66422">
        <ele>2120.88</ele>
        <time>2016-03-22T08:17:24Z</time>
      </trkpt>
      <trkpt lat="45.511" lon="6.66412">
        <ele>2115.62</ele>
        <time>2016-03-22T08:17:31Z</time>
      </trkpt>
      <trkpt lat="45.51082" lon="6.66416">
        <ele>2117.57</ele>
        <time>2016-03-22T08:17:39Z</time>
      </trkpt>
      <trkpt lat="45.51073" lon="6.66439">
        <ele>2118.56</ele>
        <time>2016-03-22T08:18:06Z</time>
      </trkpt>
      <trkpt lat="45.51057" lon="6.6646">
        <ele>2117.54</ele>
        <time>2016-03-22T08:18:14Z</time>
      </trkpt>
      <trkpt lat="45.5104" lon="6.66481">
        <ele>2113.98</ele>
        <time>2016-03-22T08:18:18Z</time>
      </trkpt>
      <trkpt lat="45.51027" lon="6.66499">
        <ele>2113.14</ele>
        <time>2016-03-22T08:18:22Z</time>
      </trkpt>
      <trkpt lat="45.51015" lon="6.6652">
        <ele>2113.53</ele>
        <time>2016-03-22T08:18:29Z</time>
      </trkpt>
      <trkpt lat="45.51006" lon="6.66543">
        <ele>2114.49</ele>
        <time>2016-03-22T08:18:38Z</time>
      </trkpt>
      <trkpt lat="45.50992" lon="6.66567">
        <ele>2110.78</ele>
        <time>2016-03-22T08:18:44Z</time>
      </trkpt>
      <trkpt lat="45.5098" lon="6.66588">
        <ele>2107.73</ele>
        <time>2016-03-22T08:18:48Z</time>
      </trkpt>
      <trkpt lat="45.50965" lon="6.66604">
        <ele>2106.73</ele>
        <time>2016-03-22T08:18:51Z</time>
      </trkpt>
      <trkpt lat="45.50949" lon="6.66622">
        <ele>2104.74</ele>
        <time>2016-03-22T08:18:54Z</time>
      </trkpt>
      <trkpt lat="45.50931" lon="6.6665">
        <ele>2102.74</ele>
        <time>2016-03-22T08:18:57Z</time>
      </trkpt>
      <trkpt lat="45.50912" lon="6.66679">
        <ele>2100.77</ele>
        <time>2016-03-22T08:19:00Z</time>
      </trkpt>
      <trkpt lat="45.50902" lon="6.66712">
        <ele>2099.54</ele>
        <time>2016-03-22T08:19:03Z</time>
      </trkpt>
      <trkpt lat="45.50891" lon="6.66739">
        <ele>2095.59</ele>
        <time>2016-03-22T08:19:06Z</time>
      </trkpt>
      <trkpt lat="45.50882" lon="6.66774">
        <ele>2091.79</ele>
        <time>2016-03-22T08:19:09Z</time>
      </trkpt>
      <trkpt lat="45.50872" lon="6.66798">
        <ele>2090.57</ele>
        <time>2016-03-22T08:19:12Z</time>
      </trkpt>
      <trkpt lat="45.50861" lon="6.6682">
        <ele>2089.57</ele>
        <time>2016-03-22T08:19:15Z</time>
      </trkpt>
      <trkpt lat="45.50845" lon="6.66834">
        <ele>2087.77</ele>
        <time>2016-03-22T08:19:18Z</time>
      </trkpt>
      <trkpt lat="45.50828" lon="6.66849">
        <ele>2085.77</ele>
        <time>2016-03-22T08:19:21Z</time>
      </trkpt>
      <trkpt lat="45.50807" lon="6.6687">
        <ele>2083.74</ele>
        <time>2016-03-22T08:19:24Z</time>
      </trkpt>
      <trkpt lat="45.50789" lon="6.66895">
        <ele>2082.54</ele>
        <time>2016-03-22T08:19:27Z</time>
      </trkpt>
      <trkpt lat="45.50769" lon="6.66921">
        <ele>2080.93</ele>
        <time>2016-03-22T08:19:30Z</time>
      </trkpt>
      <trkpt lat="45.50753" lon="6.66947">
        <ele>2080.55</ele>
        <time>2016-03-22T08:19:32Z</time>
      </trkpt>
      <trkpt lat="45.50735" lon="6.66963">
        <ele>2077.01</ele>
        <time>2016-03-22T08:19:34Z</time>
      </trkpt>
      <trkpt lat="45.50717" lon="6.6697">
        <ele>2072.55</ele>
        <time>2016-03-22T08:19:36Z</time>
      </trkpt>
      <trkpt lat="45.50697" lon="6.66967">
        <ele>2069.97</ele>
        <time>2016-03-22T08:19:38Z</time>
      </trkpt>
      <trkpt lat="45.50677" lon="6.66967">
        <ele>2065.23</ele>
        <time>2016-03-22T08:19:40Z</time>
      </trkpt>
      <trkpt lat="45.50658" lon="6.6697">
        <ele>2062.96</ele>
        <time>2016-03-22T08:19:42Z</time>
      </trkpt>
      <trkpt lat="45.50642" lon="6.6698">
        <ele>2063.19</ele>
        <time>2016-03-22T08:19:44Z</time>
      </trkpt>
      <trkpt lat="45.50619" lon="6.66997">
        <ele>2057.83</ele>
        <time>2016-03-22T08:19:47Z</time>
      </trkpt>
      <trkpt lat="45.50594" lon="6.67009">
        <ele>2056.57</ele>
        <time>2016-03-22T08:19:50Z</time>
      </trkpt>
      <trkpt lat="45.50579" lon="6.67033">
        <ele>2051.83</ele>
        <time>2016-03-22T08:19:53Z</time>
      </trkpt>
      <trkpt lat="45.50564" lon="6.67063">
        <ele>2042.74</ele>
        <time>2016-03-22T08:19:55Z</time>
      </trkpt>
      <trkpt lat="45.50554" lon="6.67096">
        <ele>2036.14</ele>
        <time>2016-03-22T08:19:57Z</time>
      </trkpt>
      <trkpt lat="45.50544" lon="6.6713">
        <ele>2030.92</ele>
        <time>2016-03-22T08:19:59Z</time>
      </trkpt>
      <trkpt lat="45.50531" lon="6.67168">
        <ele>2024.31</ele>
        <time>2016-03-22T08:20:01Z</time>
      </trkpt>
      <trkpt lat="45.50514" lon="6.67198">
        <ele>2020.2</ele>
        <time>2016-03-22T08:20:03Z</time>
      </trkpt>
      <trkpt lat="45.505" lon="6.67229">
        <ele>2015.08</ele>
        <time>2016-03-22T08:20:05Z</time>
      </trkpt>
      <trkpt lat="45.50496" lon="6.67263">
        <ele>2008.31</ele>
        <time>2016-03-22T08:20:07Z</time>
      </trkpt>
      <trkpt lat="45.5049" lon="6.67301">
        <ele>2005.8</ele>
        <time>2016-03-22T08:20:09Z</time>
      </trkpt>
      <trkpt lat="45.50483" lon="6.6734">
        <ele>2002.98</ele>
        <time>2016-03-22T08:20:11Z</time>
      </trkpt>
      <trkpt lat="45.50479" lon="6.67372">
        <ele>1999.83</ele>
        <time>2016-03-22T08:20:13Z</time>
      </trkpt>
      <trkpt lat="45.50476" lon="6.67402">
        <ele>1997.14</ele>
        <time>2016-03-22T08:20:15Z</time>
      </trkpt>
      <trkpt lat="45.50473" lon="6.67429">
        <ele>1993.84</ele>
        <time>2016-03-22T08:20:17Z</time>
      </trkpt>
      <trkpt lat="45.50474" lon="6.6746">
        <ele>1989.82</ele>
        <time>2016-03-22T08:20:20Z</time>
      </trkpt>
      <trkpt lat="45.50478" lon="6.67487">
        <ele>1987.61</ele>
        <time>2016-03-22T08:20:23Z</time>
      </trkpt>
      <trkpt lat="45.50481" lon="6.67513">
        <ele>1990.32</ele>
        <time>2016-03-22T08:20:26Z</time>
      </trkpt>
      <trkpt lat="45.50486" lon="6.67538">
        <ele>1989.57</ele>
        <time>2016-03-22T08:20:30Z</time>
      </trkpt>
      <trkpt lat="45.50494" lon="6.67566">
        <ele>1991.33</ele>
        <time>2016-03-22T08:20:36Z</time>
      </trkpt>
      <trkpt lat="45.505" lon="6.67594">
        <ele>1990.77</ele>
        <time>2016-03-22T08:20:42Z</time>
      </trkpt>
      <trkpt lat="45.50507" lon="6.67621">
        <ele>1991.53</ele>
        <time>2016-03-22T08:20:49Z</time>
      </trkpt>
      <trkpt lat="45.50513" lon="6.67647">
        <ele>1990.49</ele>
        <time>2016-03-22T08:20:56Z</time>
      </trkpt>
      <trkpt lat="45.50522" lon="6.67671">
        <ele>1989.56</ele>
        <time>2016-03-22T08:21:04Z</time>
      </trkpt>
      <trkpt lat="45.50531" lon="6.67695">
        <ele>1989.49</ele>
        <time>2016-03-22T08:21:13Z</time>
      </trkpt>
      <trkpt lat="45.50538" lon="6.67719">
        <ele>1987.77</ele>
        <time>2016-03-22T08:21:25Z</time>
      </trkpt>
      <trkpt lat="45.50526" lon="6.67741">
        <ele>1987.53</ele>
        <time>2016-03-22T08:21:42Z</time>
      </trkpt>
      <trkpt lat="45.505" lon="6.67737">
        <ele>1985</ele>
        <time>2016-03-22T08:24:14Z</time>
      </trkpt>
      <trkpt lat="45.50476" lon="6.67746">
        <ele>1989.69</ele>
        <time>2016-03-22T08:24:17Z</time>
      </trkpt>
      <trkpt lat="45.50452" lon="6.67754">
        <ele>1988.92</ele>
        <time>2016-03-22T08:24:21Z</time>
      </trkpt>
      <trkpt lat="45.50431" lon="6.67764">
        <ele>1993.44</ele>
        <time>2016-03-22T08:24:25Z</time>
      </trkpt>
      <trkpt lat="45.50411" lon="6.67773">
        <ele>1996.45</ele>
        <time>2016-03-22T08:24:29Z</time>
      </trkpt>
      <trkpt lat="45.5039" lon="6.67783">
        <ele>2006.18</ele>
        <time>2016-03-22T08:24:33Z</time>
      </trkpt>
      <trkpt lat="45.50371" lon="6.67794">
        <ele>2013.19</ele>
        <time>2016-03-22T08:24:37Z</time>
      </trkpt>
      <trkpt lat="45.50351" lon="6.67807">
        <ele>2021.82</ele>
        <time>2016-03-22T08:24:41Z</time>
      </trkpt>
      <trkpt lat="45.50331" lon="6.67818">
        <ele>2030.83</ele>
        <time>2016-03-22T08:24:45Z</time>
      </trkpt>
      <trkpt lat="45.50312" lon="6.67829">
        <ele>2039.07</ele>
        <time>2016-03-22T08:24:49Z</time>
      </trkpt>
      <trkpt lat="45.50293" lon="6.6784">
        <ele>2046.26</ele>
        <time>2016-03-22T08:24:53Z</time>
      </trkpt>
      <trkpt lat="45.50273" lon="6.6785">
        <ele>2052.26</ele>
        <time>2016-03-22T08:24:57Z</time>
      </trkpt>
      <trkpt lat="45.50253" lon="6.67862">
        <ele>2056.32</ele>
        <time>2016-03-22T08:25:01Z</time>
      </trkpt>
      <trkpt lat="45.50233" lon="6.67871">
        <ele>2059.57</ele>
        <time>2016-03-22T08:25:05Z</time>
      </trkpt>
      <trkpt lat="45.50212" lon="6.67883">
        <ele>2063.12</ele>
        <time>2016-03-22T08:25:09Z</time>
      </trkpt>
      <trkpt lat="45.50192" lon="6.67892">
        <ele>2064.93</ele>
        <time>2016-03-22T08:25:13Z</time>
      </trkpt>
      <trkpt lat="45.50173" lon="6.67903">
        <ele>2070.88</ele>
        <time>2016-03-22T08:25:17Z</time>
      </trkpt>
      <trkpt lat="45.50152" lon="6.67912">
        <ele>2078.22</ele>
        <time>2016-03-22T08:25:21Z</time>
      </trkpt>
      <trkpt lat="45.50133" lon="6.67921">
        <ele>2086.92</ele>
        <time>2016-03-22T08:25:25Z</time>
      </trkpt>
      <trkpt lat="45.50112" lon="6.67931">
        <ele>2094.12</ele>
        <time>2016-03-22T08:25:30Z</time>
      </trkpt>
      <trkpt lat="45.50094" lon="6.67941">
        <ele>2099.24</ele>
        <time>2016-03-22T08:25:34Z</time>
      </trkpt>
      <trkpt lat="45.50075" lon="6.67954">
        <ele>2104.25</ele>
        <time>2016-03-22T08:25:38Z</time>
      </trkpt>
      <trkpt lat="45.50056" lon="6.67963">
        <ele>2108.31</ele>
        <time>2016-03-22T08:25:42Z</time>
      </trkpt>
      <trkpt lat="45.50036" lon="6.67973">
        <ele>2116.06</ele>
        <time>2016-03-22T08:25:46Z</time>
      </trkpt>
      <trkpt lat="45.50017" lon="6.67983">
        <ele>2123.84</ele>
        <time>2016-03-22T08:25:50Z</time>
      </trkpt>
      <trkpt lat="45.49995" lon="6.67994">
        <ele>2126.55</ele>
        <time>2016-03-22T08:25:54Z</time>
      </trkpt>
      <trkpt lat="45.49975" lon="6.68003">
        <ele>2130.09</ele>
        <time>2016-03-22T08:25:58Z</time>
      </trkpt>
      <trkpt lat="45.49955" lon="6.68014">
        <ele>2132.68</ele>
        <time>2016-03-22T08:26:02Z</time>
      </trkpt>
      <trkpt lat="45.49936" lon="6.68026">
        <ele>2134.13</ele>
        <time>2016-03-22T08:26:06Z</time>
      </trkpt>
      <trkpt lat="45.49916" lon="6.68034">
        <ele>2142.27</ele>
        <time>2016-03-22T08:26:10Z</time>
      </trkpt>
      <trkpt lat="45.49898" lon="6.68041">
        <ele>2143.33</ele>
        <time>2016-03-22T08:26:13Z</time>
      </trkpt>
      <trkpt lat="45.49879" lon="6.68051">
        <ele>2151.1</ele>
        <time>2016-03-22T08:26:17Z</time>
      </trkpt>
      <trkpt lat="45.4986" lon="6.68063">
        <ele>2163.95</ele>
        <time>2016-03-22T08:26:21Z</time>
      </trkpt>
      <trkpt lat="45.49842" lon="6.68074">
        <ele>2174.65</ele>
        <time>2016-03-22T08:26:25Z</time>
      </trkpt>
      <trkpt lat="45.49824" lon="6.68083">
        <ele>2183.83</ele>
        <time>2016-03-22T08:26:29Z</time>
      </trkpt>
      <trkpt lat="45.49805" lon="6.68093">
        <ele>2190.4</ele>
        <time>2016-03-22T08:26:33Z</time>
      </trkpt>
      <trkpt lat="45.49786" lon="6.68104">
        <ele>2197.01</ele>
        <time>2016-03-22T08:26:37Z</time>
      </trkpt>
      <trkpt lat="45.49765" lon="6.68115">
        <ele>2202.89</ele>
        <time>2016-03-22T08:26:41Z</time>
      </trkpt>
      <trkpt lat="45.49747" lon="6.68125">
        <ele>2207.93</ele>
        <time>2016-03-22T08:26:45Z</time>
      </trkpt>
      <trkpt lat="45.49728" lon="6.68134">
        <ele>2214.92</ele>
        <time>2016-03-22T08:26:49Z</time>
      </trkpt>
      <trkpt lat="45.49707" lon="6.68145">
        <ele>2219.12</ele>
        <time>2016-03-22T08:26:53Z</time>
      </trkpt>
      <trkpt lat="45.49686" lon="6.68155">
        <ele>2226.23</ele>
        <time>2016-03-22T08:26:57Z</time>
      </trkpt>
      <trkpt lat="45.49668" lon="6.68165">
        <ele>2236.74</ele>
        <time>2016-03-22T08:27:01Z</time>
      </trkpt>
      <trkpt lat="45.49649" lon="6.68174">
        <ele>2239.49</ele>
        <time>2016-03-22T08:27:05Z</time>
      </trkpt>
      <trkpt lat="45.49629" lon="6.68184">
        <ele>2244.08</ele>
        <time>2016-03-22T08:27:09Z</time>
      </trkpt>
      <trkpt lat="45.49611" lon="6.68194">
        <ele>2256.11</ele>
        <time>2016-03-22T08:27:13Z</time>
      </trkpt>
      <trkpt lat="45.49591" lon="6.68204">
        <ele>2264.83</ele>
        <time>2016-03-22T08:27:17Z</time>
      </trkpt>
      <trkpt lat="45.49573" lon="6.68216">
        <ele>2276.77</ele>
        <time>2016-03-22T08:27:21Z</time>
      </trkpt>
      <trkpt lat="45.49552" lon="6.68225">
        <ele>2284.42</ele>
        <time>2016-03-22T08:27:25Z</time>
      </trkpt>
      <trkpt lat="45.49532" lon="6.68236">
        <ele>2288.69</ele>
        <time>2016-03-22T08:27:29Z</time>
      </trkpt>
      <trkpt lat="45.49512" lon="6.68245">
        <ele>2298.75</ele>
        <time>2016-03-22T08:27:33Z</time>
      </trkpt>
      <trkpt lat="45.49492" lon="6.68256">
        <ele>2312.76</ele>
        <time>2016-03-22T08:27:37Z</time>
      </trkpt>
      <trkpt lat="45.49473" lon="6.68266">
        <ele>2322.19</ele>
        <time>2016-03-22T08:27:41Z</time>
      </trkpt>
      <trkpt lat="45.49453" lon="6.68276">
        <ele>2326.24</ele>
        <time>2016-03-22T08:27:45Z</time>
      </trkpt>
      <trkpt lat="45.49434" lon="6.68285">
        <ele>2335.59</ele>
        <time>2016-03-22T08:27:49Z</time>
      </trkpt>
      <trkpt lat="45.49416" lon="6.68296">
        <ele>2352.47</ele>
        <time>2016-03-22T08:27:53Z</time>
      </trkpt>
      <trkpt lat="45.49399" lon="6.68305">
        <ele>2366.94</ele>
        <time>2016-03-22T08:27:57Z</time>
      </trkpt>
      <trkpt lat="45.49379" lon="6.68313">
        <ele>2382.33</ele>
        <time>2016-03-22T08:28:01Z</time>
      </trkpt>
      <trkpt lat="45.49362" lon="6.68321">
        <ele>2395.75</ele>
        <time>2016-03-22T08:28:05Z</time>
      </trkpt>
      <trkpt lat="45.49342" lon="6.68331">
        <ele>2412.72</ele>
        <time>2016-03-22T08:28:10Z</time>
      </trkpt>
      <trkpt lat="45.49321" lon="6.68344">
        <ele>2431.54</ele>
        <time>2016-03-22T08:28:15Z</time>
      </trkpt>
      <trkpt lat="45.49301" lon="6.68356">
        <ele>2449.42</ele>
        <time>2016-03-22T08:28:20Z</time>
      </trkpt>
      <trkpt lat="45.49281" lon="6.68365">
        <ele>2456.24</ele>
        <time>2016-03-22T08:28:24Z</time>
      </trkpt>
      <trkpt lat="45.49262" lon="6.68376">
        <ele>2465.76</ele>
        <time>2016-03-22T08:28:28Z</time>
      </trkpt>
      <trkpt lat="45.49243" lon="6.68386">
        <ele>2475.44</ele>
        <time>2016-03-22T08:28:32Z</time>
      </trkpt>
      <trkpt lat="45.49223" lon="6.68398">
        <ele>2485.82</ele>
        <time>2016-03-22T08:28:36Z</time>
      </trkpt>
      <trkpt lat="45.49204" lon="6.6841">
        <ele>2490.32</ele>
        <time>2016-03-22T08:28:40Z</time>
      </trkpt>
      <trkpt lat="45.49185" lon="6.68419">
        <ele>2493.49</ele>
        <time>2016-03-22T08:28:45Z</time>
      </trkpt>
      <trkpt lat="45.49166" lon="6.6842">
        <ele>2490.73</ele>
        <time>2016-03-22T08:29:30Z</time>
      </trkpt>
      <trkpt lat="45.49156" lon="6.68441">
        <ele>2496.34</ele>
        <time>2016-03-22T08:30:22Z</time>
      </trkpt>
      <trkpt lat="45.49159" lon="6.6847">
        <ele>2499.53</ele>
        <time>2016-03-22T08:30:47Z</time>
      </trkpt>
      <trkpt lat="45.49166" lon="6.68495">
        <ele>2493.98</ele>
        <time>2016-03-22T08:30:51Z</time>
      </trkpt>
      <trkpt lat="45.49168" lon="6.6853">
        <ele>2489.82</ele>
        <time>2016-03-22T08:30:54Z</time>
      </trkpt>
      <trkpt lat="45.49164" lon="6.6856">
        <ele>2480.45</ele>
        <time>2016-03-22T08:30:57Z</time>
      </trkpt>
      <trkpt lat="45.49168" lon="6.68598">
        <ele>2474.03</ele>
        <time>2016-03-22T08:31:00Z</time>
      </trkpt>
      <trkpt lat="45.49168" lon="6.68631">
        <ele>2469.07</ele>
        <time>2016-03-22T08:31:02Z</time>
      </trkpt>
      <trkpt lat="45.49166" lon="6.68659">
        <ele>2467.59</ele>
        <time>2016-03-22T08:31:04Z</time>
      </trkpt>
      <trkpt lat="45.49163" lon="6.68689">
        <ele>2460.33</ele>
        <time>2016-03-22T08:31:06Z</time>
      </trkpt>
      <trkpt lat="45.49163" lon="6.68716">
        <ele>2456.84</ele>
        <time>2016-03-22T08:31:08Z</time>
      </trkpt>
      <trkpt lat="45.49162" lon="6.68752">
        <ele>2449.27</ele>
        <time>2016-03-22T08:31:11Z</time>
      </trkpt>
      <trkpt lat="45.49158" lon="6.68786">
        <ele>2442.07</ele>
        <time>2016-03-22T08:31:14Z</time>
      </trkpt>
      <trkpt lat="45.49158" lon="6.6882">
        <ele>2436.38</ele>
        <time>2016-03-22T08:31:17Z</time>
      </trkpt>
      <trkpt lat="45.49165" lon="6.68856">
        <ele>2427.15</ele>
        <time>2016-03-22T08:31:20Z</time>
      </trkpt>
      <trkpt lat="45.49166" lon="6.6889">
        <ele>2418.12</ele>
        <time>2016-03-22T08:31:23Z</time>
      </trkpt>
      <trkpt lat="45.49182" lon="6.68905">
        <ele>2413.74</ele>
        <time>2016-03-22T08:31:45Z</time>
      </trkpt>
      <trkpt lat="45.49197" lon="6.6893">
        <ele>2409.82</ele>
        <time>2016-03-22T08:31:48Z</time>
      </trkpt>
      <trkpt lat="45.49219" lon="6.68935">
        <ele>2407.78</ele>
        <time>2016-03-22T08:31:50Z</time>
      </trkpt>
      <trkpt lat="45.4923" lon="6.68958">
        <ele>2404.38</ele>
        <time>2016-03-22T08:31:51Z</time>
      </trkpt>
      <trkpt lat="45.49245" lon="6.68989">
        <ele>2392.04</ele>
        <time>2016-03-22T08:31:53Z</time>
      </trkpt>
      <trkpt lat="45.49259" lon="6.69015">
        <ele>2378.27</ele>
        <time>2016-03-22T08:31:55Z</time>
      </trkpt>
      <trkpt lat="45.49284" lon="6.69018">
        <ele>2357.72</ele>
        <time>2016-03-22T08:31:57Z</time>
      </trkpt>
      <trkpt lat="45.49307" lon="6.69033">
        <ele>2340.58</ele>
        <time>2016-03-22T08:31:59Z</time>
      </trkpt>
      <trkpt lat="45.49331" lon="6.69048">
        <ele>2321.81</ele>
        <time>2016-03-22T08:32:01Z</time>
      </trkpt>
      <trkpt lat="45.49362" lon="6.69047">
        <ele>2300.58</ele>
        <time>2016-03-22T08:32:03Z</time>
      </trkpt>
      <trkpt lat="45.4938" lon="6.69053">
        <ele>2293.34</ele>
        <time>2016-03-22T08:32:04Z</time>
      </trkpt>
      <trkpt lat="45.49411" lon="6.69066">
        <ele>2290.96</ele>
        <time>2016-03-22T08:32:06Z</time>
      </trkpt>
      <trkpt lat="45.49429" lon="6.69071">
        <ele>2294.62</ele>
        <time>2016-03-22T08:32:07Z</time>
      </trkpt>
      <trkpt lat="45.49455" lon="6.6907">
        <ele>2296.29</ele>
        <time>2016-03-22T08:32:09Z</time>
      </trkpt>
      <trkpt lat="45.4948" lon="6.69087">
        <ele>2291.63</ele>
        <time>2016-03-22T08:32:12Z</time>
      </trkpt>
      <trkpt lat="45.495" lon="6.69103">
        <ele>2289.78</ele>
        <time>2016-03-22T08:32:14Z</time>
      </trkpt>
      <trkpt lat="45.49519" lon="6.69118">
        <ele>2287.94</ele>
        <time>2016-03-22T08:32:16Z</time>
      </trkpt>
      <trkpt lat="45.4954" lon="6.6913">
        <ele>2286.59</ele>
        <time>2016-03-22T08:32:18Z</time>
      </trkpt>
      <trkpt lat="45.4956" lon="6.6914">
        <ele>2286.85</ele>
        <time>2016-03-22T08:32:20Z</time>
      </trkpt>
      <trkpt lat="45.49579" lon="6.69151">
        <ele>2284.78</ele>
        <time>2016-03-22T08:32:22Z</time>
      </trkpt>
      <trkpt lat="45.496" lon="6.69158">
        <ele>2282.62</ele>
        <time>2016-03-22T08:32:24Z</time>
      </trkpt>
      <trkpt lat="45.4962" lon="6.69161">
        <ele>2278.85</ele>
        <time>2016-03-22T08:32:26Z</time>
      </trkpt>
      <trkpt lat="45.49646" lon="6.69175">
        <ele>2277.58</ele>
        <time>2016-03-22T08:32:28Z</time>
      </trkpt>
      <trkpt lat="45.49664" lon="6.6919">
        <ele>2276.74</ele>
        <time>2016-03-22T08:32:29Z</time>
      </trkpt>
      <trkpt lat="45.49694" lon="6.69211">
        <ele>2273.98</ele>
        <time>2016-03-22T08:32:31Z</time>
      </trkpt>
      <trkpt lat="45.49724" lon="6.69234">
        <ele>2270.03</ele>
        <time>2016-03-22T08:32:33Z</time>
      </trkpt>
      <trkpt lat="45.49756" lon="6.69249">
        <ele>2268.75</ele>
        <time>2016-03-22T08:32:35Z</time>
      </trkpt>
      <trkpt lat="45.49783" lon="6.69252">
        <ele>2266.78</ele>
        <time>2016-03-22T08:32:37Z</time>
      </trkpt>
      <trkpt lat="45.49802" lon="6.69232">
        <ele>2264.62</ele>
        <time>2016-03-22T08:32:39Z</time>
      </trkpt>
      <trkpt lat="45.49821" lon="6.69216">
        <ele>2260.85</ele>
        <time>2016-03-22T08:32:41Z</time>
      </trkpt>
      <trkpt lat="45.49836" lon="6.69187">
        <ele>2252.38</ele>
        <time>2016-03-22T08:32:43Z</time>
      </trkpt>
      <trkpt lat="45.49851" lon="6.69165">
        <ele>2245.33</ele>
        <time>2016-03-22T08:32:45Z</time>
      </trkpt>
      <trkpt lat="45.49869" lon="6.69154">
        <ele>2242</ele>
        <time>2016-03-22T08:32:47Z</time>
      </trkpt>
      <trkpt lat="45.49886" lon="6.69142">
        <ele>2239.63</ele>
        <time>2016-03-22T08:32:49Z</time>
      </trkpt>
      <trkpt lat="45.49902" lon="6.69129">
        <ele>2238.57</ele>
        <time>2016-03-22T08:32:51Z</time>
      </trkpt>
      <trkpt lat="45.49925" lon="6.69109">
        <ele>2235.59</ele>
        <time>2016-03-22T08:32:54Z</time>
      </trkpt>
      <trkpt lat="45.49945" lon="6.6909">
        <ele>2230.03</ele>
        <time>2016-03-22T08:32:57Z</time>
      </trkpt>
      <trkpt lat="45.49963" lon="6.69082">
        <ele>2226.99</ele>
        <time>2016-03-22T08:32:59Z</time>
      </trkpt>
      <trkpt lat="45.49984" lon="6.69084">
        <ele>2223.99</ele>
        <time>2016-03-22T08:33:01Z</time>
      </trkpt>
      <trkpt lat="45.50005" lon="6.69092">
        <ele>2221.63</ele>
        <time>2016-03-22T08:33:03Z</time>
      </trkpt>
      <trkpt lat="45.50023" lon="6.69109">
        <ele>2213.4</ele>
        <time>2016-03-22T08:33:06Z</time>
      </trkpt>
      <trkpt lat="45.50039" lon="6.69129">
        <ele>2211.57</ele>
        <time>2016-03-22T08:33:10Z</time>
      </trkpt>
      <trkpt lat="45.50051" lon="6.69154">
        <ele>2207.38</ele>
        <time>2016-03-22T08:33:14Z</time>
      </trkpt>
      <trkpt lat="45.50061" lon="6.69176">
        <ele>2202.63</ele>
        <time>2016-03-22T08:33:18Z</time>
      </trkpt>
      <trkpt lat="45.5007" lon="6.69207">
        <ele>2197.78</ele>
        <time>2016-03-22T08:33:22Z</time>
      </trkpt>
      <trkpt lat="45.50089" lon="6.69225">
        <ele>2194.78</ele>
        <time>2016-03-22T08:33:25Z</time>
      </trkpt>
      <trkpt lat="45.50114" lon="6.69234">
        <ele>2190.79</ele>
        <time>2016-03-22T08:33:28Z</time>
      </trkpt>
      <trkpt lat="45.5014" lon="6.6924">
        <ele>2188.77</ele>
        <time>2016-03-22T08:33:31Z</time>
      </trkpt>
      <trkpt lat="45.50159" lon="6.69246">
        <ele>2187.58</ele>
        <time>2016-03-22T08:33:33Z</time>
      </trkpt>
      <trkpt lat="45.50177" lon="6.69256">
        <ele>2185.77</ele>
        <time>2016-03-22T08:33:35Z</time>
      </trkpt>
      <trkpt lat="45.50193" lon="6.69284">
        <ele>2181.63</ele>
        <time>2016-03-22T08:33:38Z</time>
      </trkpt>
      <trkpt lat="45.50209" lon="6.69303">
        <ele>2180.57</ele>
        <time>2016-03-22T08:33:40Z</time>
      </trkpt>
      <trkpt lat="45.50222" lon="6.69324">
        <ele>2177.81</ele>
        <time>2016-03-22T08:33:42Z</time>
      </trkpt>
      <trkpt lat="45.50244" lon="6.69343">
        <ele>2175.93</ele>
        <time>2016-03-22T08:33:45Z</time>
      </trkpt>
      <trkpt lat="45.5026" lon="6.69358">
        <ele>2175.55</ele>
        <time>2016-03-22T08:33:47Z</time>
      </trkpt>
      <trkpt lat="45.50278" lon="6.69367">
        <ele>2172.97</ele>
        <time>2016-03-22T08:33:49Z</time>
      </trkpt>
      <trkpt lat="45.50299" lon="6.69368">
        <ele>2170.79</ele>
        <time>2016-03-22T08:33:51Z</time>
      </trkpt>
      <trkpt lat="45.5032" lon="6.69365">
        <ele>2167.82</ele>
        <time>2016-03-22T08:33:53Z</time>
      </trkpt>
      <trkpt lat="45.50343" lon="6.69369">
        <ele>2163.38</ele>
        <time>2016-03-22T08:33:55Z</time>
      </trkpt>
      <trkpt lat="45.50366" lon="6.69383">
        <ele>2160.81</ele>
        <time>2016-03-22T08:33:57Z</time>
      </trkpt>
      <trkpt lat="45.50382" lon="6.69404">
        <ele>2156.22</ele>
        <time>2016-03-22T08:33:59Z</time>
      </trkpt>
      <trkpt lat="45.50392" lon="6.69444">
        <ele>2152.04</ele>
        <time>2016-03-22T08:34:01Z</time>
      </trkpt>
      <trkpt lat="45.50407" lon="6.69469">
        <ele>2148.83</ele>
        <time>2016-03-22T08:34:03Z</time>
      </trkpt>
      <trkpt lat="45.50423" lon="6.69488">
        <ele>2145.82</ele>
        <time>2016-03-22T08:34:05Z</time>
      </trkpt>
      <trkpt lat="45.50439" lon="6.69501">
        <ele>2142.18</ele>
        <time>2016-03-22T08:34:07Z</time>
      </trkpt>
      <trkpt lat="45.50458" lon="6.69517">
        <ele>2138.84</ele>
        <time>2016-03-22T08:34:09Z</time>
      </trkpt>
      <trkpt lat="45.50477" lon="6.69528">
        <ele>2134.86</ele>
        <time>2016-03-22T08:34:11Z</time>
      </trkpt>
      <trkpt lat="45.50497" lon="6.69538">
        <ele>2131.82</ele>
        <time>2016-03-22T08:34:13Z</time>
      </trkpt>
      <trkpt lat="45.50516" lon="6.69541">
        <ele>2129.94</ele>
        <time>2016-03-22T08:34:15Z</time>
      </trkpt>
      <trkpt lat="45.50534" lon="6.69548">
        <ele>2128.75</ele>
        <time>2016-03-22T08:34:17Z</time>
      </trkpt>
      <trkpt lat="45.50555" lon="6.6956">
        <ele>2124.18</ele>
        <time>2016-03-22T08:34:20Z</time>
      </trkpt>
      <trkpt lat="45.50571" lon="6.69575">
        <ele>2123.38</ele>
        <time>2016-03-22T08:34:23Z</time>
      </trkpt>
      <trkpt lat="45.50589" lon="6.69592">
        <ele>2121.58</ele>
        <time>2016-03-22T08:34:27Z</time>
      </trkpt>
      <trkpt lat="45.50601" lon="6.69611">
        <ele>2121.53</ele>
        <time>2016-03-22T08:34:30Z</time>
      </trkpt>
      <trkpt lat="45.50611" lon="6.69634">
        <ele>2120.73</ele>
        <time>2016-03-22T08:34:33Z</time>
      </trkpt>
      <trkpt lat="45.50621" lon="6.69659">
        <ele>2117.94</ele>
        <time>2016-03-22T08:34:36Z</time>
      </trkpt>
      <trkpt lat="45.50634" lon="6.69677">
        <ele>2115.77</ele>
        <time>2016-03-22T08:34:39Z</time>
      </trkpt>
      <trkpt lat="45.50644" lon="6.697">
        <ele>2109.74</ele>
        <time>2016-03-22T08:34:42Z</time>
      </trkpt>
      <trkpt lat="45.50654" lon="6.69724">
        <ele>2106.97</ele>
        <time>2016-03-22T08:34:45Z</time>
      </trkpt>
      <trkpt lat="45.50671" lon="6.69739">
        <ele>2101.86</ele>
        <time>2016-03-22T08:34:48Z</time>
      </trkpt>
      <trkpt lat="45.50682" lon="6.69764">
        <ele>2096.8</ele>
        <time>2016-03-22T08:34:51Z</time>
      </trkpt>
      <trkpt lat="45.50703" lon="6.69775">
        <ele>2097.3</ele>
        <time>2016-03-22T08:34:54Z</time>
      </trkpt>
      <trkpt lat="45.50717" lon="6.698">
        <ele>2092.74</ele>
        <time>2016-03-22T08:35:15Z</time>
      </trkpt>
      <trkpt lat="45.50721" lon="6.69826">
        <ele>2085.11</ele>
        <time>2016-03-22T08:35:18Z</time>
      </trkpt>
      <trkpt lat="45.50731" lon="6.69855">
        <ele>2079.58</ele>
        <time>2016-03-22T08:35:21Z</time>
      </trkpt>
      <trkpt lat="45.50737" lon="6.6988">
        <ele>2073.93</ele>
        <time>2016-03-22T08:35:23Z</time>
      </trkpt>
      <trkpt lat="45.50757" lon="6.69894">
        <ele>2068.43</ele>
        <time>2016-03-22T08:35:25Z</time>
      </trkpt>
      <trkpt lat="45.50766" lon="6.69925">
        <ele>2065.01</ele>
        <time>2016-03-22T08:35:27Z</time>
      </trkpt>
      <trkpt lat="45.50786" lon="6.69952">
        <ele>2060.87</ele>
        <time>2016-03-22T08:35:29Z</time>
      </trkpt>
      <trkpt lat="45.50807" lon="6.69956">
        <ele>2056.86</ele>
        <time>2016-03-22T08:35:31Z</time>
      </trkpt>
      <trkpt lat="45.50826" lon="6.6994">
        <ele>2053.82</ele>
        <time>2016-03-22T08:35:33Z</time>
      </trkpt>
      <trkpt lat="45.50847" lon="6.69919">
        <ele>2048.83</ele>
        <time>2016-03-22T08:35:36Z</time>
      </trkpt>
      <trkpt lat="45.50867" lon="6.69912">
        <ele>2048.7</ele>
        <time>2016-03-22T08:35:38Z</time>
      </trkpt>
      <trkpt lat="45.50891" lon="6.6991">
        <ele>2043.06</ele>
        <time>2016-03-22T08:35:41Z</time>
      </trkpt>
      <trkpt lat="45.5091" lon="6.69922">
        <ele>2039.83</ele>
        <time>2016-03-22T08:35:43Z</time>
      </trkpt>
      <trkpt lat="45.50928" lon="6.69936">
        <ele>2038.79</ele>
        <time>2016-03-22T08:35:44Z</time>
      </trkpt>
      <trkpt lat="45.50952" lon="6.69954">
        <ele>2035.82</ele>
        <time>2016-03-22T08:35:46Z</time>
      </trkpt>
      <trkpt lat="45.50974" lon="6.69944">
        <ele>2029.62</ele>
        <time>2016-03-22T08:35:48Z</time>
      </trkpt>
      <trkpt lat="45.50994" lon="6.69958">
        <ele>2018.84</ele>
        <time>2016-03-22T08:35:51Z</time>
      </trkpt>
      <trkpt lat="45.51021" lon="6.69954">
        <ele>2012.04</ele>
        <time>2016-03-22T08:35:54Z</time>
      </trkpt>
      <trkpt lat="45.5104" lon="6.69948">
        <ele>2008.03</ele>
        <time>2016-03-22T08:35:56Z</time>
      </trkpt>
      <trkpt lat="45.51062" lon="6.69943">
        <ele>2004.03</ele>
        <time>2016-03-22T08:35:58Z</time>
      </trkpt>
      <trkpt lat="45.51091" lon="6.69938">
        <ele>2001.79</ele>
        <time>2016-03-22T08:36:00Z</time>
      </trkpt>
      <trkpt lat="45.5114" lon="6.69932">
        <ele>1998.02</ele>
        <time>2016-03-22T08:36:02Z</time>
      </trkpt>
      <trkpt lat="45.51161" lon="6.69931">
        <ele>1996.83</ele>
        <time>2016-03-22T08:36:03Z</time>
      </trkpt>
      <trkpt lat="45.51181" lon="6.69931">
        <ele>1995.79</ele>
        <time>2016-03-22T08:36:04Z</time>
      </trkpt>
      <trkpt lat="45.51206" lon="6.69926">
        <ele>1990.26</ele>
        <time>2016-03-22T08:36:06Z</time>
      </trkpt>
      <trkpt lat="45.51238" lon="6.69923">
        <ele>1986.04</ele>
        <time>2016-03-22T08:36:08Z</time>
      </trkpt>
      <trkpt lat="45.51237" lon="6.69894">
        <ele>1971.24</ele>
        <time>2016-03-22T08:36:12Z</time>
      </trkpt>
      <trkpt lat="45.51225" lon="6.69864">
        <ele>1959.11</ele>
        <time>2016-03-22T08:36:15Z</time>
      </trkpt>
      <trkpt lat="45.51218" lon="6.69834">
        <ele>1950.39</ele>
        <time>2016-03-22T08:36:19Z</time>
      </trkpt>
      <trkpt lat="45.5122" lon="6.69806">
        <ele>1945.99</ele>
        <time>2016-03-22T08:36:22Z</time>
      </trkpt>
      <trkpt lat="45.51223" lon="6.69778">
        <ele>1939.18</ele>
        <time>2016-03-22T08:36:26Z</time>
      </trkpt>
      <trkpt lat="45.51233" lon="6.69756">
        <ele>1925.54</ele>
        <time>2016-03-22T08:37:04Z</time>
      </trkpt>
      <trkpt lat="45.51243" lon="6.69734">
        <ele>1921.48</ele>
        <time>2016-03-22T08:42:45Z</time>
      </trkpt>
      <trkpt lat="45.51227" lon="6.6975">
        <ele>1931.77</ele>
        <time>2016-03-22T08:44:24Z</time>
      </trkpt>
      <trkpt lat="45.51215" lon="6.6977">
        <ele>1936.27</ele>
        <time>2016-03-22T08:44:27Z</time>
      </trkpt>
      <trkpt lat="45.51201" lon="6.6979">
        <ele>1933.79</ele>
        <time>2016-03-22T08:44:32Z</time>
      </trkpt>
      <trkpt lat="45.5119" lon="6.69812">
        <ele>1935.5</ele>
        <time>2016-03-22T08:44:37Z</time>
      </trkpt>
      <trkpt lat="45.51181" lon="6.69835">
        <ele>1937.33</ele>
        <time>2016-03-22T08:44:42Z</time>
      </trkpt>
      <trkpt lat="45.51169" lon="6.6986">
        <ele>1937.68</ele>
        <time>2016-03-22T08:44:48Z</time>
      </trkpt>
      <trkpt lat="45.51158" lon="6.69881">
        <ele>1937.72</ele>
        <time>2016-03-22T08:44:53Z</time>
      </trkpt>
      <trkpt lat="45.51148" lon="6.69903">
        <ele>1937.58</ele>
        <time>2016-03-22T08:44:58Z</time>
      </trkpt>
      <trkpt lat="45.51136" lon="6.69925">
        <ele>1940.33</ele>
        <time>2016-03-22T08:45:03Z</time>
      </trkpt>
      <trkpt lat="45.51125" lon="6.69946">
        <ele>1943.24</ele>
        <time>2016-03-22T08:45:08Z</time>
      </trkpt>
      <trkpt lat="45.51114" lon="6.69972">
        <ele>1946.29</ele>
        <time>2016-03-22T08:45:14Z</time>
      </trkpt>
      <trkpt lat="45.51102" lon="6.69996">
        <ele>1949.09</ele>
        <time>2016-03-22T08:45:20Z</time>
      </trkpt>
      <trkpt lat="45.5109" lon="6.70022">
        <ele>1948.77</ele>
        <time>2016-03-22T08:45:26Z</time>
      </trkpt>
      <trkpt lat="45.51079" lon="6.70046">
        <ele>1951.13</ele>
        <time>2016-03-22T08:45:32Z</time>
      </trkpt>
      <trkpt lat="45.51067" lon="6.70068">
        <ele>1953.52</ele>
        <time>2016-03-22T08:45:37Z</time>
      </trkpt>
      <trkpt lat="45.51055" lon="6.70089">
        <ele>1956.32</ele>
        <time>2016-03-22T08:45:42Z</time>
      </trkpt>
      <trkpt lat="45.51044" lon="6.7011">
        <ele>1956.7</ele>
        <time>2016-03-22T08:45:47Z</time>
      </trkpt>
      <trkpt lat="45.51034" lon="6.70132">
        <ele>1954.57</ele>
        <time>2016-03-22T08:45:52Z</time>
      </trkpt>
      <trkpt lat="45.51023" lon="6.70156">
        <ele>1958.12</ele>
        <time>2016-03-22T08:45:58Z</time>
      </trkpt>
      <trkpt lat="45.5101" lon="6.70181">
        <ele>1964.47</ele>
        <time>2016-03-22T08:46:04Z</time>
      </trkpt>
      <trkpt lat="45.50999" lon="6.70202">
        <ele>1967.25</ele>
        <time>2016-03-22T08:46:09Z</time>
      </trkpt>
      <trkpt lat="45.50989" lon="6.70223">
        <ele>1967.74</ele>
        <time>2016-03-22T08:46:14Z</time>
      </trkpt>
      <trkpt lat="45.50979" lon="6.70245">
        <ele>1965.55</ele>
        <time>2016-03-22T08:46:19Z</time>
      </trkpt>
      <trkpt lat="45.50968" lon="6.70267">
        <ele>1962.54</ele>
        <time>2016-03-22T08:46:24Z</time>
      </trkpt>
      <trkpt lat="45.50957" lon="6.70289">
        <ele>1961.37</ele>
        <time>2016-03-22T08:46:29Z</time>
      </trkpt>
      <trkpt lat="45.50945" lon="6.70314">
        <ele>1962.53</ele>
        <time>2016-03-22T08:46:35Z</time>
      </trkpt>
      <trkpt lat="45.50933" lon="6.70336">
        <ele>1963.52</ele>
        <time>2016-03-22T08:46:40Z</time>
      </trkpt>
      <trkpt lat="45.50923" lon="6.70362">
        <ele>1969.49</ele>
        <time>2016-03-22T08:46:46Z</time>
      </trkpt>
      <trkpt lat="45.50911" lon="6.70386">
        <ele>1972.29</ele>
        <time>2016-03-22T08:46:52Z</time>
      </trkpt>
      <trkpt lat="45.50901" lon="6.70412">
        <ele>1976.48</ele>
        <time>2016-03-22T08:46:58Z</time>
      </trkpt>
      <trkpt lat="45.5089" lon="6.70435">
        <ele>1983.24</ele>
        <time>2016-03-22T08:47:04Z</time>
      </trkpt>
      <trkpt lat="45.50878" lon="6.7046">
        <ele>1990.08</ele>
        <time>2016-03-22T08:47:10Z</time>
      </trkpt>
      <trkpt lat="45.50866" lon="6.70485">
        <ele>1996.48</ele>
        <time>2016-03-22T08:47:16Z</time>
      </trkpt>
      <trkpt lat="45.50855" lon="6.70509">
        <ele>2001.29</ele>
        <time>2016-03-22T08:47:22Z</time>
      </trkpt>
      <trkpt lat="45.50843" lon="6.7053">
        <ele>2006.13</ele>
        <time>2016-03-22T08:47:27Z</time>
      </trkpt>
      <trkpt lat="45.50832" lon="6.70554">
        <ele>2013.29</ele>
        <time>2016-03-22T08:47:33Z</time>
      </trkpt>
      <trkpt lat="45.5082" lon="6.70578">
        <ele>2020.28</ele>
        <time>2016-03-22T08:47:39Z</time>
      </trkpt>
      <trkpt lat="45.50809" lon="6.70599">
        <ele>2025.51</ele>
        <time>2016-03-22T08:47:44Z</time>
      </trkpt>
      <trkpt lat="45.50798" lon="6.70624">
        <ele>2027.49</ele>
        <time>2016-03-22T08:47:50Z</time>
      </trkpt>
      <trkpt lat="45.50787" lon="6.70648">
        <ele>2032.28</ele>
        <time>2016-03-22T08:47:56Z</time>
      </trkpt>
      <trkpt lat="45.50775" lon="6.70672">
        <ele>2038.28</ele>
        <time>2016-03-22T08:48:02Z</time>
      </trkpt>
      <trkpt lat="45.50763" lon="6.70696">
        <ele>2040.52</ele>
        <time>2016-03-22T08:48:08Z</time>
      </trkpt>
      <trkpt lat="45.5075" lon="6.7072">
        <ele>2043.49</ele>
        <time>2016-03-22T08:48:14Z</time>
      </trkpt>
      <trkpt lat="45.50738" lon="6.70744">
        <ele>2046.49</ele>
        <time>2016-03-22T08:48:20Z</time>
      </trkpt>
      <trkpt lat="45.5074" lon="6.7077">
        <ele>2045.88</ele>
        <time>2016-03-22T08:48:33Z</time>
      </trkpt>
      <trkpt lat="45.50723" lon="6.70784">
        <ele>2043.53</ele>
        <time>2016-03-22T08:50:26Z</time>
      </trkpt>
      <trkpt lat="45.50705" lon="6.70804">
        <ele>2053.13</ele>
        <time>2016-03-22T08:50:29Z</time>
      </trkpt>
      <trkpt lat="45.50696" lon="6.70826">
        <ele>2058.26</ele>
        <time>2016-03-22T08:50:34Z</time>
      </trkpt>
      <trkpt lat="45.50684" lon="6.70851">
        <ele>2068.17</ele>
        <time>2016-03-22T08:50:40Z</time>
      </trkpt>
      <trkpt lat="45.50675" lon="6.70874">
        <ele>2074.07</ele>
        <time>2016-03-22T08:50:45Z</time>
      </trkpt>
      <trkpt lat="45.50664" lon="6.70898">
        <ele>2083.43</ele>
        <time>2016-03-22T08:50:51Z</time>
      </trkpt>
      <trkpt lat="45.50651" lon="6.70922">
        <ele>2081.57</ele>
        <time>2016-03-22T08:50:57Z</time>
      </trkpt>
      <trkpt lat="45.50639" lon="6.70948">
        <ele>2081.69</ele>
        <time>2016-03-22T08:51:03Z</time>
      </trkpt>
      <trkpt lat="45.50629" lon="6.70969">
        <ele>2084.32</ele>
        <time>2016-03-22T08:51:08Z</time>
      </trkpt>
      <trkpt lat="45.50618" lon="6.7099">
        <ele>2087.33</ele>
        <time>2016-03-22T08:51:13Z</time>
      </trkpt>
      <trkpt lat="45.50608" lon="6.71012">
        <ele>2090.29</ele>
        <time>2016-03-22T08:51:18Z</time>
      </trkpt>
      <trkpt lat="45.50598" lon="6.71035">
        <ele>2092.48</ele>
        <time>2016-03-22T08:51:23Z</time>
      </trkpt>
      <trkpt lat="45.50586" lon="6.71059">
        <ele>2098.32</ele>
        <time>2016-03-22T08:51:29Z</time>
      </trkpt>
      <trkpt lat="45.50575" lon="6.71082">
        <ele>2106.28</ele>
        <time>2016-03-22T08:51:35Z</time>
      </trkpt>
      <trkpt lat="45.50563" lon="6.71106">
        <ele>2110.5</ele>
        <time>2016-03-22T08:51:41Z</time>
      </trkpt>
      <trkpt lat="45.50551" lon="6.71129">
        <ele>2114.09</ele>
        <time>2016-03-22T08:51:47Z</time>
      </trkpt>
      <trkpt lat="45.50542" lon="6.71152">
        <ele>2118.29</ele>
        <time>2016-03-22T08:51:52Z</time>
      </trkpt>
      <trkpt lat="45.50531" lon="6.71177">
        <ele>2128.07</ele>
        <time>2016-03-22T08:51:58Z</time>
      </trkpt>
      <trkpt lat="45.50519" lon="6.712">
        <ele>2133.29</ele>
        <time>2016-03-22T08:52:04Z</time>
      </trkpt>
      <trkpt lat="45.50509" lon="6.71224">
        <ele>2140.27</ele>
        <time>2016-03-22T08:52:10Z</time>
      </trkpt>
      <trkpt lat="45.50495" lon="6.71246">
        <ele>2153.07</ele>
        <time>2016-03-22T08:52:17Z</time>
      </trkpt>
      <trkpt lat="45.50486" lon="6.71268">
        <ele>2163.02</ele>
        <time>2016-03-22T08:52:22Z</time>
      </trkpt>
      <trkpt lat="45.50475" lon="6.7129">
        <ele>2173.07</ele>
        <time>2016-03-22T08:52:28Z</time>
      </trkpt>
      <trkpt lat="45.50462" lon="6.71313">
        <ele>2184.22</ele>
        <time>2016-03-22T08:52:34Z</time>
      </trkpt>
      <trkpt lat="45.50452" lon="6.71336">
        <ele>2197.22</ele>
        <time>2016-03-22T08:52:40Z</time>
      </trkpt>
      <trkpt lat="45.5044" lon="6.7136">
        <ele>2210.96</ele>
        <time>2016-03-22T08:52:47Z</time>
      </trkpt>
      <trkpt lat="45.50429" lon="6.71384">
        <ele>2228.79</ele>
        <time>2016-03-22T08:52:54Z</time>
      </trkpt>
      <trkpt lat="45.50416" lon="6.71407">
        <ele>2243.08</ele>
        <time>2016-03-22T08:53:01Z</time>
      </trkpt>
      <trkpt lat="45.50406" lon="6.71431">
        <ele>2251.2</ele>
        <time>2016-03-22T08:53:07Z</time>
      </trkpt>
      <trkpt lat="45.50395" lon="6.71453">
        <ele>2257.28</ele>
        <time>2016-03-22T08:53:12Z</time>
      </trkpt>
      <trkpt lat="45.50384" lon="6.71475">
        <ele>2267.84</ele>
        <time>2016-03-22T08:53:18Z</time>
      </trkpt>
      <trkpt lat="45.50373" lon="6.71498">
        <ele>2278.64</ele>
        <time>2016-03-22T08:53:24Z</time>
      </trkpt>
      <trkpt lat="45.50362" lon="6.71519">
        <ele>2283.25</ele>
        <time>2016-03-22T08:53:29Z</time>
      </trkpt>
      <trkpt lat="45.5035" lon="6.71544">
        <ele>2291.24</ele>
        <time>2016-03-22T08:53:35Z</time>
      </trkpt>
      <trkpt lat="45.5034" lon="6.71566">
        <ele>2299.04</ele>
        <time>2016-03-22T08:53:41Z</time>
      </trkpt>
      <trkpt lat="45.50327" lon="6.71589">
        <ele>2311.23</ele>
        <time>2016-03-22T08:53:48Z</time>
      </trkpt>
      <trkpt lat="45.50315" lon="6.71611">
        <ele>2321.08</ele>
        <time>2016-03-22T08:53:54Z</time>
      </trkpt>
      <trkpt lat="45.50305" lon="6.71634">
        <ele>2326.28</ele>
        <time>2016-03-22T08:54:00Z</time>
      </trkpt>
      <trkpt lat="45.50292" lon="6.71655">
        <ele>2335.23</ele>
        <time>2016-03-22T08:54:06Z</time>
      </trkpt>
      <trkpt lat="45.50282" lon="6.71681">
        <ele>2340.45</ele>
        <time>2016-03-22T08:54:12Z</time>
      </trkpt>
      <trkpt lat="45.5027" lon="6.71706">
        <ele>2349.28</ele>
        <time>2016-03-22T08:54:18Z</time>
      </trkpt>
      <trkpt lat="45.50259" lon="6.71731">
        <ele>2359.08</ele>
        <time>2016-03-22T08:54:24Z</time>
      </trkpt>
      <trkpt lat="45.50249" lon="6.71753">
        <ele>2367.08</ele>
        <time>2016-03-22T08:54:29Z</time>
      </trkpt>
      <trkpt lat="45.50238" lon="6.71776">
        <ele>2377.28</ele>
        <time>2016-03-22T08:54:35Z</time>
      </trkpt>
      <trkpt lat="45.50225" lon="6.71799">
        <ele>2388.02</ele>
        <time>2016-03-22T08:54:41Z</time>
      </trkpt>
      <trkpt lat="45.50212" lon="6.71822">
        <ele>2399.43</ele>
        <time>2016-03-22T08:54:48Z</time>
      </trkpt>
      <trkpt lat="45.50202" lon="6.71844">
        <ele>2406.24</ele>
        <time>2016-03-22T08:54:53Z</time>
      </trkpt>
      <trkpt lat="45.5019" lon="6.71869">
        <ele>2419.04</ele>
        <time>2016-03-22T08:55:00Z</time>
      </trkpt>
      <trkpt lat="45.50178" lon="6.71895">
        <ele>2429.03</ele>
        <time>2016-03-22T08:55:06Z</time>
      </trkpt>
      <trkpt lat="45.50167" lon="6.71918">
        <ele>2438.23</ele>
        <time>2016-03-22T08:55:12Z</time>
      </trkpt>
      <trkpt lat="45.50156" lon="6.71944">
        <ele>2449.23</ele>
        <time>2016-03-22T08:55:18Z</time>
      </trkpt>
      <trkpt lat="45.50145" lon="6.71967">
        <ele>2460.99</ele>
        <time>2016-03-22T08:55:24Z</time>
      </trkpt>
      <trkpt lat="45.50136" lon="6.7199">
        <ele>2470.88</ele>
        <time>2016-03-22T08:55:30Z</time>
      </trkpt>
      <trkpt lat="45.50123" lon="6.72011">
        <ele>2485.99</ele>
        <time>2016-03-22T08:55:37Z</time>
      </trkpt>
      <trkpt lat="45.50112" lon="6.72036">
        <ele>2495.24</ele>
        <time>2016-03-22T08:55:43Z</time>
      </trkpt>
      <trkpt lat="45.50099" lon="6.72056">
        <ele>2508.23</ele>
        <time>2016-03-22T08:55:49Z</time>
      </trkpt>
      <trkpt lat="45.50086" lon="6.72078">
        <ele>2512.32</ele>
        <time>2016-03-22T08:55:55Z</time>
      </trkpt>
      <trkpt lat="45.50073" lon="6.721">
        <ele>2508.58</ele>
        <time>2016-03-22T08:56:01Z</time>
      </trkpt>
      <trkpt lat="45.5006" lon="6.72122">
        <ele>2502.74</ele>
        <time>2016-03-22T08:56:07Z</time>
      </trkpt>
      <trkpt lat="45.50049" lon="6.72146">
        <ele>2501.53</ele>
        <time>2016-03-22T08:56:13Z</time>
      </trkpt>
      <trkpt lat="45.50037" lon="6.72169">
        <ele>2497.78</ele>
        <time>2016-03-22T08:56:19Z</time>
      </trkpt>
      <trkpt lat="45.50024" lon="6.72193">
        <ele>2494.61</ele>
        <time>2016-03-22T08:56:25Z</time>
      </trkpt>
      <trkpt lat="45.50013" lon="6.72213">
        <ele>2493.54</ele>
        <time>2016-03-22T08:56:30Z</time>
      </trkpt>
      <trkpt lat="45.50002" lon="6.72236">
        <ele>2493.53</ele>
        <time>2016-03-22T08:56:35Z</time>
      </trkpt>
      <trkpt lat="45.49991" lon="6.72261">
        <ele>2493.53</ele>
        <time>2016-03-22T08:56:41Z</time>
      </trkpt>
      <trkpt lat="45.49981" lon="6.72283">
        <ele>2496.48</ele>
        <time>2016-03-22T08:56:46Z</time>
      </trkpt>
      <trkpt lat="45.49971" lon="6.72305">
        <ele>2498.53</ele>
        <time>2016-03-22T08:56:51Z</time>
      </trkpt>
      <trkpt lat="45.4996" lon="6.72327">
        <ele>2499.29</ele>
        <time>2016-03-22T08:56:56Z</time>
      </trkpt>
      <trkpt lat="45.4995" lon="6.72349">
        <ele>2500.37</ele>
        <time>2016-03-22T08:57:01Z</time>
      </trkpt>
      <trkpt lat="45.49939" lon="6.72369">
        <ele>2502.49</ele>
        <time>2016-03-22T08:57:06Z</time>
      </trkpt>
      <trkpt lat="45.49926" lon="6.72393">
        <ele>2504.29</ele>
        <time>2016-03-22T08:57:12Z</time>
      </trkpt>
      <trkpt lat="45.49915" lon="6.72415">
        <ele>2503.57</ele>
        <time>2016-03-22T08:57:17Z</time>
      </trkpt>
      <trkpt lat="45.49902" lon="6.7244">
        <ele>2504.32</ele>
        <time>2016-03-22T08:57:23Z</time>
      </trkpt>
      <trkpt lat="45.4989" lon="6.72464">
        <ele>2510.11</ele>
        <time>2016-03-22T08:57:29Z</time>
      </trkpt>
      <trkpt lat="45.49878" lon="6.72488">
        <ele>2515.08</ele>
        <time>2016-03-22T08:57:35Z</time>
      </trkpt>
      <trkpt lat="45.49866" lon="6.72512">
        <ele>2522.25</ele>
        <time>2016-03-22T08:57:41Z</time>
      </trkpt>
      <trkpt lat="45.49854" lon="6.72536">
        <ele>2526.24</ele>
        <time>2016-03-22T08:57:47Z</time>
      </trkpt>
      <trkpt lat="45.49843" lon="6.72561">
        <ele>2532.28</ele>
        <time>2016-03-22T08:57:53Z</time>
      </trkpt>
      <trkpt lat="45.4983" lon="6.72585">
        <ele>2540.24</ele>
        <time>2016-03-22T08:57:59Z</time>
      </trkpt>
      <trkpt lat="45.49819" lon="6.72609">
        <ele>2547.28</ele>
        <time>2016-03-22T08:58:05Z</time>
      </trkpt>
      <trkpt lat="45.49808" lon="6.72634">
        <ele>2554.27</ele>
        <time>2016-03-22T08:58:11Z</time>
      </trkpt>
      <trkpt lat="45.49795" lon="6.72658">
        <ele>2563.24</ele>
        <time>2016-03-22T08:58:17Z</time>
      </trkpt>
      <trkpt lat="45.49783" lon="6.72681">
        <ele>2567.53</ele>
        <time>2016-03-22T08:58:23Z</time>
      </trkpt>
      <trkpt lat="45.49772" lon="6.72705">
        <ele>2574.32</ele>
        <time>2016-03-22T08:58:29Z</time>
      </trkpt>
      <trkpt lat="45.49761" lon="6.72727">
        <ele>2579.52</ele>
        <time>2016-03-22T08:58:34Z</time>
      </trkpt>
      <trkpt lat="45.4975" lon="6.72751">
        <ele>2584.25</ele>
        <time>2016-03-22T08:58:40Z</time>
      </trkpt>
      <trkpt lat="45.4974" lon="6.72775">
        <ele>2590.28</ele>
        <time>2016-03-22T08:58:46Z</time>
      </trkpt>
      <trkpt lat="45.49729" lon="6.72796">
        <ele>2594.32</ele>
        <time>2016-03-22T08:58:51Z</time>
      </trkpt>
      <trkpt lat="45.49717" lon="6.72821">
        <ele>2600.29</ele>
        <time>2016-03-22T08:58:57Z</time>
      </trkpt>
      <trkpt lat="45.49707" lon="6.72843">
        <ele>2607.43</ele>
        <time>2016-03-22T08:59:02Z</time>
      </trkpt>
      <trkpt lat="45.49696" lon="6.72868">
        <ele>2611.49</ele>
        <time>2016-03-22T08:59:08Z</time>
      </trkpt>
      <trkpt lat="45.49685" lon="6.72889">
        <ele>2614.48</ele>
        <time>2016-03-22T08:59:13Z</time>
      </trkpt>
      <trkpt lat="45.49673" lon="6.72914">
        <ele>2614.57</ele>
        <time>2016-03-22T08:59:19Z</time>
      </trkpt>
      <trkpt lat="45.49662" lon="6.72938">
        <ele>2613.53</ele>
        <time>2016-03-22T08:59:25Z</time>
      </trkpt>
      <trkpt lat="45.49651" lon="6.72962">
        <ele>2610.78</ele>
        <time>2016-03-22T08:59:31Z</time>
      </trkpt>
      <trkpt lat="45.49641" lon="6.72984">
        <ele>2610.72</ele>
        <time>2016-03-22T08:59:36Z</time>
      </trkpt>
      <trkpt lat="45.4963" lon="6.73009">
        <ele>2609.54</ele>
        <time>2016-03-22T08:59:42Z</time>
      </trkpt>
      <trkpt lat="45.49618" lon="6.73034">
        <ele>2605.57</ele>
        <time>2016-03-22T08:59:48Z</time>
      </trkpt>
      <trkpt lat="45.49608" lon="6.73055">
        <ele>2603.57</ele>
        <time>2016-03-22T08:59:53Z</time>
      </trkpt>
      <trkpt lat="45.49597" lon="6.73077">
        <ele>2601.77</ele>
        <time>2016-03-22T08:59:58Z</time>
      </trkpt>
      <trkpt lat="45.49585" lon="6.73102">
        <ele>2599.57</ele>
        <time>2016-03-22T09:00:04Z</time>
      </trkpt>
      <trkpt lat="45.49574" lon="6.73124">
        <ele>2598.53</ele>
        <time>2016-03-22T09:00:09Z</time>
      </trkpt>
      <trkpt lat="45.49562" lon="6.73147">
        <ele>2600.29</ele>
        <time>2016-03-22T09:00:15Z</time>
      </trkpt>
      <trkpt lat="45.49553" lon="6.7317">
        <ele>2602.49</ele>
        <time>2016-03-22T09:00:20Z</time>
      </trkpt>
      <trkpt lat="45.49542" lon="6.73191">
        <ele>2609.27</ele>
        <time>2016-03-22T09:00:25Z</time>
      </trkpt>
      <trkpt lat="45.49532" lon="6.73213">
        <ele>2616.05</ele>
        <time>2016-03-22T09:00:30Z</time>
      </trkpt>
      <trkpt lat="45.49522" lon="6.73235">
        <ele>2627.04</ele>
        <time>2016-03-22T09:00:36Z</time>
      </trkpt>
      <trkpt lat="45.4951" lon="6.73258">
        <ele>2639.86</ele>
        <time>2016-03-22T09:00:42Z</time>
      </trkpt>
      <trkpt lat="45.49498" lon="6.73281">
        <ele>2649.28</ele>
        <time>2016-03-22T09:00:48Z</time>
      </trkpt>
      <trkpt lat="45.49487" lon="6.73304">
        <ele>2658.27</ele>
        <time>2016-03-22T09:00:54Z</time>
      </trkpt>
      <trkpt lat="45.49477" lon="6.73327">
        <ele>2667.08</ele>
        <time>2016-03-22T09:01:00Z</time>
      </trkpt>
      <trkpt lat="45.49465" lon="6.73351">
        <ele>2677.03</ele>
        <time>2016-03-22T09:01:06Z</time>
      </trkpt>
      <trkpt lat="45.49454" lon="6.73373">
        <ele>2688.23</ele>
        <time>2016-03-22T09:01:12Z</time>
      </trkpt>
      <trkpt lat="45.49442" lon="6.73395">
        <ele>2700.83</ele>
        <time>2016-03-22T09:01:18Z</time>
      </trkpt>
      <trkpt lat="45.4943" lon="6.73418">
        <ele>2707.27</ele>
        <time>2016-03-22T09:01:24Z</time>
      </trkpt>
      <trkpt lat="45.49418" lon="6.7344">
        <ele>2709.53</ele>
        <time>2016-03-22T09:01:30Z</time>
      </trkpt>
      <trkpt lat="45.49406" lon="6.73463">
        <ele>2714.29</ele>
        <time>2016-03-22T09:01:36Z</time>
      </trkpt>
      <trkpt lat="45.49394" lon="6.73486">
        <ele>2715.56</ele>
        <time>2016-03-22T09:01:42Z</time>
      </trkpt>
      <trkpt lat="45.49381" lon="6.7351">
        <ele>2713.73</ele>
        <time>2016-03-22T09:01:48Z</time>
      </trkpt>
      <trkpt lat="45.4937" lon="6.73534">
        <ele>2712.69</ele>
        <time>2016-03-22T09:01:54Z</time>
      </trkpt>
      <trkpt lat="45.49356" lon="6.73551">
        <ele>2714.54</ele>
        <time>2016-03-22T09:02:08Z</time>
      </trkpt>
      <trkpt lat="45.49364" lon="6.73575">
        <ele>2719.09</ele>
        <time>2016-03-22T09:02:34Z</time>
      </trkpt>
      <trkpt lat="45.49369" lon="6.73601">
        <ele>2721.54</ele>
        <time>2016-03-22T09:02:57Z</time>
      </trkpt>
      <trkpt lat="45.49365" lon="6.73576">
        <ele>2714.53</ele>
        <time>2016-03-22T09:10:32Z</time>
      </trkpt>
      <trkpt lat="45.49353" lon="6.73595">
        <ele>2719.54</ele>
        <time>2016-03-22T09:16:18Z</time>
      </trkpt>
      <trkpt lat="45.49345" lon="6.73621">
        <ele>2720.32</ele>
        <time>2016-03-22T09:16:22Z</time>
      </trkpt>
      <trkpt lat="45.49338" lon="6.73646">
        <ele>2723.29</ele>
        <time>2016-03-22T09:16:27Z</time>
      </trkpt>
      <trkpt lat="45.49329" lon="6.73672">
        <ele>2721.77</ele>
        <time>2016-03-22T09:16:33Z</time>
      </trkpt>
      <trkpt lat="45.49322" lon="6.73699">
        <ele>2710.04</ele>
        <time>2016-03-22T09:16:39Z</time>
      </trkpt>
      <trkpt lat="45.49316" lon="6.73726">
        <ele>2698.8</ele>
        <time>2016-03-22T09:16:45Z</time>
      </trkpt>
      <trkpt lat="45.49311" lon="6.73755">
        <ele>2684.02</ele>
        <time>2016-03-22T09:16:52Z</time>
      </trkpt>
      <trkpt lat="45.49307" lon="6.73783">
        <ele>2676.79</ele>
        <time>2016-03-22T09:16:58Z</time>
      </trkpt>
      <trkpt lat="45.49302" lon="6.73809">
        <ele>2668.83</ele>
        <time>2016-03-22T09:17:04Z</time>
      </trkpt>
      <trkpt lat="45.49298" lon="6.73835">
        <ele>2661.02</ele>
        <time>2016-03-22T09:17:10Z</time>
      </trkpt>
      <trkpt lat="45.49288" lon="6.7386">
        <ele>2643.7</ele>
        <time>2016-03-22T09:17:16Z</time>
      </trkpt>
      <trkpt lat="45.49282" lon="6.73887">
        <ele>2633.27</ele>
        <time>2016-03-22T09:17:22Z</time>
      </trkpt>
      <trkpt lat="45.49277" lon="6.73917">
        <ele>2616.84</ele>
        <time>2016-03-22T09:17:29Z</time>
      </trkpt>
      <trkpt lat="45.49272" lon="6.73942">
        <ele>2606.04</ele>
        <time>2016-03-22T09:17:35Z</time>
      </trkpt>
      <trkpt lat="45.4927" lon="6.73969">
        <ele>2595.75</ele>
        <time>2016-03-22T09:17:42Z</time>
      </trkpt>
      <trkpt lat="45.49269" lon="6.73999">
        <ele>2589.18</ele>
        <time>2016-03-22T09:17:49Z</time>
      </trkpt>
      <trkpt lat="45.49264" lon="6.74025">
        <ele>2581.78</ele>
        <time>2016-03-22T09:17:55Z</time>
      </trkpt>
      <trkpt lat="45.49264" lon="6.74053">
        <ele>2572.86</ele>
        <time>2016-03-22T09:18:03Z</time>
      </trkpt>
      <trkpt lat="45.49255" lon="6.74078">
        <ele>2563.19</ele>
        <time>2016-03-22T09:18:08Z</time>
      </trkpt>
      <trkpt lat="45.49249" lon="6.74105">
        <ele>2554.79</ele>
        <time>2016-03-22T09:18:13Z</time>
      </trkpt>
      <trkpt lat="45.49239" lon="6.74131">
        <ele>2541.07</ele>
        <time>2016-03-22T09:18:20Z</time>
      </trkpt>
      <trkpt lat="45.49228" lon="6.74154">
        <ele>2532.67</ele>
        <time>2016-03-22T09:18:25Z</time>
      </trkpt>
      <trkpt lat="45.49221" lon="6.74178">
        <ele>2525.67</ele>
        <time>2016-03-22T09:18:30Z</time>
      </trkpt>
      <trkpt lat="45.49214" lon="6.74207">
        <ele>2520.71</ele>
        <time>2016-03-22T09:18:36Z</time>
      </trkpt>
      <trkpt lat="45.49207" lon="6.74237">
        <ele>2517.34</ele>
        <time>2016-03-22T09:18:42Z</time>
      </trkpt>
      <trkpt lat="45.492" lon="6.74266">
        <ele>2514.72</ele>
        <time>2016-03-22T09:18:48Z</time>
      </trkpt>
      <trkpt lat="45.49194" lon="6.74296">
        <ele>2508.58</ele>
        <time>2016-03-22T09:18:54Z</time>
      </trkpt>
      <trkpt lat="45.4919" lon="6.74323">
        <ele>2509.74</ele>
        <time>2016-03-22T09:18:59Z</time>
      </trkpt>
      <trkpt lat="45.49187" lon="6.74349">
        <ele>2512.32</ele>
        <time>2016-03-22T09:19:04Z</time>
      </trkpt>
      <trkpt lat="45.49181" lon="6.74374">
        <ele>2511.61</ele>
        <time>2016-03-22T09:19:09Z</time>
      </trkpt>
      <trkpt lat="45.49176" lon="6.74403">
        <ele>2515.48</ele>
        <time>2016-03-22T09:19:15Z</time>
      </trkpt>
      <trkpt lat="45.49171" lon="6.74432">
        <ele>2517.48</ele>
        <time>2016-03-22T09:19:21Z</time>
      </trkpt>
      <trkpt lat="45.49166" lon="6.74458">
        <ele>2515.56</ele>
        <time>2016-03-22T09:19:27Z</time>
      </trkpt>
      <trkpt lat="45.49161" lon="6.74485">
        <ele>2515.53</ele>
        <time>2016-03-22T09:19:32Z</time>
      </trkpt>
      <trkpt lat="45.49157" lon="6.74513">
        <ele>2513.76</ele>
        <time>2016-03-22T09:19:38Z</time>
      </trkpt>
      <trkpt lat="45.49152" lon="6.74543">
        <ele>2510.41</ele>
        <time>2016-03-22T09:19:44Z</time>
      </trkpt>
      <trkpt lat="45.49145" lon="6.74572">
        <ele>2513.55</ele>
        <time>2016-03-22T09:19:50Z</time>
      </trkpt>
      <trkpt lat="45.49141" lon="6.74598">
        <ele>2511.54</ele>
        <time>2016-03-22T09:19:55Z</time>
      </trkpt>
      <trkpt lat="45.49136" lon="6.74627">
        <ele>2507.61</ele>
        <time>2016-03-22T09:20:01Z</time>
      </trkpt>
      <trkpt lat="45.49129" lon="6.74653">
        <ele>2508.53</ele>
        <time>2016-03-22T09:20:06Z</time>
      </trkpt>
      <trkpt lat="45.49123" lon="6.74681">
        <ele>2506.61</ele>
        <time>2016-03-22T09:20:12Z</time>
      </trkpt>
      <trkpt lat="45.49117" lon="6.74708">
        <ele>2506.33</ele>
        <time>2016-03-22T09:20:17Z</time>
      </trkpt>
      <trkpt lat="45.49112" lon="6.74732">
        <ele>2507.37</ele>
        <time>2016-03-22T09:20:22Z</time>
      </trkpt>
      <trkpt lat="45.49106" lon="6.74762">
        <ele>2509.29</ele>
        <time>2016-03-22T09:20:28Z</time>
      </trkpt>
      <trkpt lat="45.49099" lon="6.7479">
        <ele>2513.3</ele>
        <time>2016-03-22T09:20:34Z</time>
      </trkpt>
      <trkpt lat="45.49095" lon="6.7482">
        <ele>2511.13</ele>
        <time>2016-03-22T09:20:40Z</time>
      </trkpt>
      <trkpt lat="45.49094" lon="6.74847">
        <ele>2508.77</ele>
        <time>2016-03-22T09:22:04Z</time>
      </trkpt>
      <trkpt lat="45.49087" lon="6.74879">
        <ele>2510.81</ele>
        <time>2016-03-22T09:22:12Z</time>
      </trkpt>
      <trkpt lat="45.49083" lon="6.74907">
        <ele>2517.84</ele>
        <time>2016-03-22T09:22:16Z</time>
      </trkpt>
      <trkpt lat="45.49084" lon="6.74937">
        <ele>2517.5</ele>
        <time>2016-03-22T09:22:22Z</time>
      </trkpt>
      <trkpt lat="45.49085" lon="6.74965">
        <ele>2520.52</ele>
        <time>2016-03-22T09:22:27Z</time>
      </trkpt>
      <trkpt lat="45.49084" lon="6.74997">
        <ele>2524.54</ele>
        <time>2016-03-22T09:22:33Z</time>
      </trkpt>
      <trkpt lat="45.49084" lon="6.75026">
        <ele>2526.49</ele>
        <time>2016-03-22T09:22:39Z</time>
      </trkpt>
      <trkpt lat="45.49083" lon="6.75055">
        <ele>2527.34</ele>
        <time>2016-03-22T09:22:44Z</time>
      </trkpt>
      <trkpt lat="45.49084" lon="6.75085">
        <ele>2528.53</ele>
        <time>2016-03-22T09:22:51Z</time>
      </trkpt>
      <trkpt lat="45.49085" lon="6.75112">
        <ele>2531.29</ele>
        <time>2016-03-22T09:22:57Z</time>
      </trkpt>
      <trkpt lat="45.49085" lon="6.75139">
        <ele>2535.72</ele>
        <time>2016-03-22T09:23:03Z</time>
      </trkpt>
      <trkpt lat="45.49083" lon="6.75167">
        <ele>2538.92</ele>
        <time>2016-03-22T09:23:07Z</time>
      </trkpt>
      <trkpt lat="45.49082" lon="6.75194">
        <ele>2542.32</ele>
        <time>2016-03-22T09:23:12Z</time>
      </trkpt>
      <trkpt lat="45.49082" lon="6.75222">
        <ele>2546.33</ele>
        <time>2016-03-22T09:23:18Z</time>
      </trkpt>
      <trkpt lat="45.49079" lon="6.75252">
        <ele>2551.88</ele>
        <time>2016-03-22T09:23:24Z</time>
      </trkpt>
      <trkpt lat="45.49079" lon="6.75278">
        <ele>2554.53</ele>
        <time>2016-03-22T09:23:30Z</time>
      </trkpt>
      <trkpt lat="45.49079" lon="6.75307">
        <ele>2555.32</ele>
        <time>2016-03-22T09:23:36Z</time>
      </trkpt>
      <trkpt lat="45.49075" lon="6.75338">
        <ele>2559.92</ele>
        <time>2016-03-22T09:23:41Z</time>
      </trkpt>
      <trkpt lat="45.49075" lon="6.75366">
        <ele>2563.33</ele>
        <time>2016-03-22T09:23:46Z</time>
      </trkpt>
      <trkpt lat="45.49074" lon="6.75391">
        <ele>2563.53</ele>
        <time>2016-03-22T09:23:51Z</time>
      </trkpt>
      <trkpt lat="45.49074" lon="6.75419">
        <ele>2567.47</ele>
        <time>2016-03-22T09:23:57Z</time>
      </trkpt>
      <trkpt lat="45.49076" lon="6.75446">
        <ele>2567.56</ele>
        <time>2016-03-22T09:24:03Z</time>
      </trkpt>
      <trkpt lat="45.49074" lon="6.75475">
        <ele>2568.76</ele>
        <time>2016-03-22T09:24:08Z</time>
      </trkpt>
      <trkpt lat="45.49074" lon="6.75503">
        <ele>2574.23</ele>
        <time>2016-03-22T09:24:16Z</time>
      </trkpt>
      <trkpt lat="45.49071" lon="6.75531">
        <ele>2583.07</ele>
        <time>2016-03-22T09:24:22Z</time>
      </trkpt>
      <trkpt lat="45.49068" lon="6.75565">
        <ele>2589.13</ele>
        <time>2016-03-22T09:24:28Z</time>
      </trkpt>
      <trkpt lat="45.49073" lon="6.75594">
        <ele>2585.58</ele>
        <time>2016-03-22T09:24:35Z</time>
      </trkpt>
      <trkpt lat="45.49076" lon="6.75623">
        <ele>2581.58</ele>
        <time>2016-03-22T09:24:42Z</time>
      </trkpt>
      <trkpt lat="45.49069" lon="6.75648">
        <ele>2592.51</ele>
        <time>2016-03-22T09:24:45Z</time>
      </trkpt>
      <trkpt lat="45.49066" lon="6.75678">
        <ele>2596.51</ele>
        <time>2016-03-22T09:24:50Z</time>
      </trkpt>
      <trkpt lat="45.49063" lon="6.75708">
        <ele>2601.51</ele>
        <time>2016-03-22T09:24:55Z</time>
      </trkpt>
      <trkpt lat="45.49063" lon="6.75736">
        <ele>2601.34</ele>
        <time>2016-03-22T09:25:01Z</time>
      </trkpt>
      <trkpt lat="45.49061" lon="6.75768">
        <ele>2604.69</ele>
        <time>2016-03-22T09:25:07Z</time>
      </trkpt>
      <trkpt lat="45.49061" lon="6.75797">
        <ele>2607.25</ele>
        <time>2016-03-22T09:25:13Z</time>
      </trkpt>
      <trkpt lat="45.49063" lon="6.75823">
        <ele>2605.38</ele>
        <time>2016-03-22T09:25:19Z</time>
      </trkpt>
      <trkpt lat="45.49061" lon="6.75855">
        <ele>2606.93</ele>
        <time>2016-03-22T09:25:25Z</time>
      </trkpt>
      <trkpt lat="45.49055" lon="6.75884">
        <ele>2616.63</ele>
        <time>2016-03-22T09:25:29Z</time>
      </trkpt>
      <trkpt lat="45.49053" lon="6.75909">
        <ele>2621.44</ele>
        <time>2016-03-22T09:25:34Z</time>
      </trkpt>
      <trkpt lat="45.49051" lon="6.75938">
        <ele>2627.14</ele>
        <time>2016-03-22T09:25:39Z</time>
      </trkpt>
      <trkpt lat="45.49047" lon="6.75967">
        <ele>2633.68</ele>
        <time>2016-03-22T09:25:44Z</time>
      </trkpt>
      <trkpt lat="45.4905" lon="6.75994">
        <ele>2631.56</ele>
        <time>2016-03-22T09:25:50Z</time>
      </trkpt>
      <trkpt lat="45.49054" lon="6.76022">
        <ele>2635.26</ele>
        <time>2016-03-22T09:25:58Z</time>
      </trkpt>
      <trkpt lat="45.4905" lon="6.76054">
        <ele>2647.56</ele>
        <time>2016-03-22T09:26:04Z</time>
      </trkpt>
      <trkpt lat="45.4905" lon="6.76082">
        <ele>2660.26</ele>
        <time>2016-03-22T09:26:10Z</time>
      </trkpt>
      <trkpt lat="45.49049" lon="6.76109">
        <ele>2671.07</ele>
        <time>2016-03-22T09:26:16Z</time>
      </trkpt>
      <trkpt lat="45.49051" lon="6.76137">
        <ele>2678.04</ele>
        <time>2016-03-22T09:26:23Z</time>
      </trkpt>
      <trkpt lat="45.4905" lon="6.76162">
        <ele>2681.52</ele>
        <time>2016-03-22T09:26:28Z</time>
      </trkpt>
      <trkpt lat="45.49049" lon="6.7619">
        <ele>2685.11</ele>
        <time>2016-03-22T09:26:34Z</time>
      </trkpt>
      <trkpt lat="45.49045" lon="6.76226">
        <ele>2696.04</ele>
        <time>2016-03-22T09:26:40Z</time>
      </trkpt>
      <trkpt lat="45.49038" lon="6.76252">
        <ele>2709.71</ele>
        <time>2016-03-22T09:26:44Z</time>
      </trkpt>
      <trkpt lat="45.49039" lon="6.76282">
        <ele>2717.32</ele>
        <time>2016-03-22T09:26:51Z</time>
      </trkpt>
      <trkpt lat="45.49038" lon="6.76311">
        <ele>2720.96</ele>
        <time>2016-03-22T09:26:57Z</time>
      </trkpt>
      <trkpt lat="45.49034" lon="6.76339">
        <ele>2730.42</ele>
        <time>2016-03-22T09:27:01Z</time>
      </trkpt>
      <trkpt lat="45.49035" lon="6.76365">
        <ele>2736.19</ele>
        <time>2016-03-22T09:27:07Z</time>
      </trkpt>
      <trkpt lat="45.49037" lon="6.76393">
        <ele>2739.25</ele>
        <time>2016-03-22T09:27:14Z</time>
      </trkpt>
      <trkpt lat="45.49036" lon="6.76421">
        <ele>2748.07</ele>
        <time>2016-03-22T09:27:20Z</time>
      </trkpt>
      <trkpt lat="45.49033" lon="6.76451">
        <ele>2754.17</ele>
        <time>2016-03-22T09:27:28Z</time>
      </trkpt>
      <trkpt lat="45.49024" lon="6.76475">
        <ele>2760.8</ele>
        <time>2016-03-22T09:27:32Z</time>
      </trkpt>
      <trkpt lat="45.49016" lon="6.76505">
        <ele>2770.99</ele>
        <time>2016-03-22T09:27:38Z</time>
      </trkpt>
      <trkpt lat="45.49014" lon="6.76532">
        <ele>2780.24</ele>
        <time>2016-03-22T09:27:44Z</time>
      </trkpt>
      <trkpt lat="45.49011" lon="6.76559">
        <ele>2786.49</ele>
        <time>2016-03-22T09:27:49Z</time>
      </trkpt>
      <trkpt lat="45.49008" lon="6.76586">
        <ele>2798.34</ele>
        <time>2016-03-22T09:27:55Z</time>
      </trkpt>
      <trkpt lat="45.49015" lon="6.76613">
        <ele>2818.68</ele>
        <time>2016-03-22T09:28:05Z</time>
      </trkpt>
      <trkpt lat="45.49023" lon="6.7664">
        <ele>2833.28</ele>
        <time>2016-03-22T09:28:13Z</time>
      </trkpt>
      <trkpt lat="45.49028" lon="6.76665">
        <ele>2855.23</ele>
        <time>2016-03-22T09:28:21Z</time>
      </trkpt>
      <trkpt lat="45.49032" lon="6.76692">
        <ele>2868.7</ele>
        <time>2016-03-22T09:28:28Z</time>
      </trkpt>
      <trkpt lat="45.49027" lon="6.76719">
        <ele>2883.74</ele>
        <time>2016-03-22T09:28:32Z</time>
      </trkpt>
      <trkpt lat="45.49026" lon="6.76745">
        <ele>2899.68</ele>
        <time>2016-03-22T09:28:38Z</time>
      </trkpt>
      <trkpt lat="45.49024" lon="6.76772">
        <ele>2913.47</ele>
        <time>2016-03-22T09:28:44Z</time>
      </trkpt>
      <trkpt lat="45.49021" lon="6.76799">
        <ele>2923.71</ele>
        <time>2016-03-22T09:28:49Z</time>
      </trkpt>
      <trkpt lat="45.49021" lon="6.76829">
        <ele>2932.01</ele>
        <time>2016-03-22T09:28:56Z</time>
      </trkpt>
      <trkpt lat="45.49019" lon="6.76857">
        <ele>2940.08</ele>
        <time>2016-03-22T09:29:02Z</time>
      </trkpt>
      <trkpt lat="45.49018" lon="6.76884">
        <ele>2947.31</ele>
        <time>2016-03-22T09:29:08Z</time>
      </trkpt>
      <trkpt lat="45.49017" lon="6.7691">
        <ele>2951.29</ele>
        <time>2016-03-22T09:29:13Z</time>
      </trkpt>
      <trkpt lat="45.49017" lon="6.76939">
        <ele>2953.17</ele>
        <time>2016-03-22T09:29:19Z</time>
      </trkpt>
      <trkpt lat="45.49014" lon="6.76968">
        <ele>2960.44</ele>
        <time>2016-03-22T09:29:24Z</time>
      </trkpt>
      <trkpt lat="45.4901" lon="6.76997">
        <ele>2970.75</ele>
        <time>2016-03-22T09:29:29Z</time>
      </trkpt>
      <trkpt lat="45.49008" lon="6.77024">
        <ele>2978.93</ele>
        <time>2016-03-22T09:29:34Z</time>
      </trkpt>
      <trkpt lat="45.49002" lon="6.77049">
        <ele>2985.52</ele>
        <time>2016-03-22T09:29:45Z</time>
      </trkpt>
      <trkpt lat="45.49001" lon="6.77078">
        <ele>2985.97</ele>
        <time>2016-03-22T09:30:25Z</time>
      </trkpt>
      <trkpt lat="45.48992" lon="6.77101">
        <ele>2991.24</ele>
        <time>2016-03-22T09:30:41Z</time>
      </trkpt>
      <trkpt lat="45.48975" lon="6.77115">
        <ele>2998.5</ele>
        <time>2016-03-22T09:31:37Z</time>
      </trkpt>
      <trkpt lat="45.48957" lon="6.77111">
        <ele>2995.8</ele>
        <time>2016-03-22T09:31:56Z</time>
      </trkpt>
      <trkpt lat="45.48933" lon="6.77099">
        <ele>3012.93</ele>
        <time>2016-03-22T09:35:10Z</time>
      </trkpt>
      <trkpt lat="45.48931" lon="6.77126">
        <ele>3001.12</ele>
        <time>2016-03-22T09:35:47Z</time>
      </trkpt>
      <trkpt lat="45.48917" lon="6.77142">
        <ele>2997.54</ele>
        <time>2016-03-22T09:36:00Z</time>
      </trkpt>
      <trkpt lat="45.489" lon="6.77155">
        <ele>2992.58</ele>
        <time>2016-03-22T09:36:10Z</time>
      </trkpt>
      <trkpt lat="45.48882" lon="6.77168">
        <ele>2993.96</ele>
        <time>2016-03-22T09:36:19Z</time>
      </trkpt>
      <trkpt lat="45.48865" lon="6.77177">
        <ele>2993.7</ele>
        <time>2016-03-22T09:36:29Z</time>
      </trkpt>
      <trkpt lat="45.48848" lon="6.77187">
        <ele>2990.53</ele>
        <time>2016-03-22T09:36:38Z</time>
      </trkpt>
      <trkpt lat="45.4883" lon="6.77196">
        <ele>2989.5</ele>
        <time>2016-03-22T09:36:49Z</time>
      </trkpt>
      <trkpt lat="45.48811" lon="6.77201">
        <ele>2988.54</ele>
        <time>2016-03-22T09:36:57Z</time>
      </trkpt>
      <trkpt lat="45.48791" lon="6.77199">
        <ele>2987.53</ele>
        <time>2016-03-22T09:37:03Z</time>
      </trkpt>
      <trkpt lat="45.4877" lon="6.77193">
        <ele>2989.49</ele>
        <time>2016-03-22T09:37:08Z</time>
      </trkpt>
      <trkpt lat="45.48752" lon="6.77185">
        <ele>2988.57</ele>
        <time>2016-03-22T09:37:13Z</time>
      </trkpt>
      <trkpt lat="45.48736" lon="6.77172">
        <ele>2987.54</ele>
        <time>2016-03-22T09:37:18Z</time>
      </trkpt>
      <trkpt lat="45.48716" lon="6.77156">
        <ele>2982.79</ele>
        <time>2016-03-22T09:37:23Z</time>
      </trkpt>
      <trkpt lat="45.48698" lon="6.77144">
        <ele>2979.77</ele>
        <time>2016-03-22T09:37:34Z</time>
      </trkpt>
      <trkpt lat="45.48681" lon="6.77157">
        <ele>2979.29</ele>
        <time>2016-03-22T09:38:10Z</time>
      </trkpt>
      <trkpt lat="45.4868" lon="6.77184">
        <ele>2985.49</ele>
        <time>2016-03-22T09:38:21Z</time>
      </trkpt>
      <trkpt lat="45.48679" lon="6.7721">
        <ele>2992.49</ele>
        <time>2016-03-22T09:38:32Z</time>
      </trkpt>
      <trkpt lat="45.48678" lon="6.77237">
        <ele>3000.33</ele>
        <time>2016-03-22T09:38:44Z</time>
      </trkpt>
      <trkpt lat="45.48677" lon="6.77263">
        <ele>3007.29</ele>
        <time>2016-03-22T09:38:56Z</time>
      </trkpt>
      <trkpt lat="45.48676" lon="6.77289">
        <ele>3013.33</ele>
        <time>2016-03-22T09:39:08Z</time>
      </trkpt>
      <trkpt lat="45.48675" lon="6.77315">
        <ele>3019.33</ele>
        <time>2016-03-22T09:39:20Z</time>
      </trkpt>
      <trkpt lat="45.48674" lon="6.77341">
        <ele>3024.48</ele>
        <time>2016-03-22T09:39:32Z</time>
      </trkpt>
      <trkpt lat="45.48673" lon="6.77368">
        <ele>3033.32</ele>
        <time>2016-03-22T09:39:46Z</time>
      </trkpt>
      <trkpt lat="45.48672" lon="6.77394">
        <ele>3043.12</ele>
        <time>2016-03-22T09:39:58Z</time>
      </trkpt>
      <trkpt lat="45.48672" lon="6.7742">
        <ele>3052.32</ele>
        <time>2016-03-22T09:40:12Z</time>
      </trkpt>
      <trkpt lat="45.48672" lon="6.77446">
        <ele>3058.49</ele>
        <time>2016-03-22T09:40:25Z</time>
      </trkpt>
      <trkpt lat="45.48672" lon="6.77473">
        <ele>3067.32</ele>
        <time>2016-03-22T09:40:37Z</time>
      </trkpt>
      <trkpt lat="45.48671" lon="6.77499">
        <ele>3074.29</ele>
        <time>2016-03-22T09:40:50Z</time>
      </trkpt>
      <trkpt lat="45.4867" lon="6.77525">
        <ele>3081.45</ele>
        <time>2016-03-22T09:41:03Z</time>
      </trkpt>
      <trkpt lat="45.48669" lon="6.77552">
        <ele>3091.48</ele>
        <time>2016-03-22T09:41:16Z</time>
      </trkpt>
      <trkpt lat="45.48669" lon="6.77579">
        <ele>3099.32</ele>
        <time>2016-03-22T09:41:30Z</time>
      </trkpt>
      <trkpt lat="45.48668" lon="6.77606">
        <ele>3107.52</ele>
        <time>2016-03-22T09:41:43Z</time>
      </trkpt>
      <trkpt lat="45.48665" lon="6.77631">
        <ele>3115.48</ele>
        <time>2016-03-22T09:41:55Z</time>
      </trkpt>
      <trkpt lat="45.48664" lon="6.77657">
        <ele>3125.28</ele>
        <time>2016-03-22T09:42:07Z</time>
      </trkpt>
      <trkpt lat="45.48664" lon="6.77684">
        <ele>3132.31</ele>
        <time>2016-03-22T09:42:19Z</time>
      </trkpt>
      <trkpt lat="45.48665" lon="6.7771">
        <ele>3139.49</ele>
        <time>2016-03-22T09:42:32Z</time>
      </trkpt>
      <trkpt lat="45.48663" lon="6.77736">
        <ele>3149.49</ele>
        <time>2016-03-22T09:42:47Z</time>
      </trkpt>
      <trkpt lat="45.48663" lon="6.77762">
        <ele>3159.49</ele>
        <time>2016-03-22T09:43:00Z</time>
      </trkpt>
      <trkpt lat="45.4866" lon="6.77788">
        <ele>3165.13</ele>
        <time>2016-03-22T09:43:16Z</time>
      </trkpt>
      <trkpt lat="45.48665" lon="6.77813">
        <ele>3168.49</ele>
        <time>2016-03-22T09:44:07Z</time>
      </trkpt>
      <trkpt lat="45.48674" lon="6.77836">
        <ele>3162.56</ele>
        <time>2016-03-22T09:45:09Z</time>
      </trkpt>
      <trkpt lat="45.48691" lon="6.77855">
        <ele>3159.94</ele>
        <time>2016-03-22T09:45:21Z</time>
      </trkpt>
      <trkpt lat="45.48712" lon="6.77861">
        <ele>3155.98</ele>
        <time>2016-03-22T09:45:25Z</time>
      </trkpt>
      <trkpt lat="45.48726" lon="6.77844">
        <ele>3148.8</ele>
        <time>2016-03-22T09:45:32Z</time>
      </trkpt>
      <trkpt lat="45.48729" lon="6.77816">
        <ele>3146.6</ele>
        <time>2016-03-22T09:45:37Z</time>
      </trkpt>
      <trkpt lat="45.48729" lon="6.77789">
        <ele>3141.02</ele>
        <time>2016-03-22T09:45:41Z</time>
      </trkpt>
      <trkpt lat="45.48731" lon="6.77757">
        <ele>3128.71</ele>
        <time>2016-03-22T09:45:47Z</time>
      </trkpt>
      <trkpt lat="45.48725" lon="6.77731">
        <ele>3125.78</ele>
        <time>2016-03-22T09:45:50Z</time>
      </trkpt>
      <trkpt lat="45.48737" lon="6.77711">
        <ele>3116.23</ele>
        <time>2016-03-22T09:45:54Z</time>
      </trkpt>
      <trkpt lat="45.4874" lon="6.77684">
        <ele>3110.73</ele>
        <time>2016-03-22T09:45:58Z</time>
      </trkpt>
      <trkpt lat="45.48733" lon="6.77651">
        <ele>3091.06</ele>
        <time>2016-03-22T09:46:14Z</time>
      </trkpt>
      <trkpt lat="45.48733" lon="6.77614">
        <ele>3084.5</ele>
        <time>2016-03-22T09:46:18Z</time>
      </trkpt>
      <trkpt lat="45.48721" lon="6.77588">
        <ele>3083.7</ele>
        <time>2016-03-22T09:46:21Z</time>
      </trkpt>
      <trkpt lat="45.48727" lon="6.77559">
        <ele>3078</ele>
        <time>2016-03-22T09:46:24Z</time>
      </trkpt>
      <trkpt lat="45.48724" lon="6.77529">
        <ele>3074.03</ele>
        <time>2016-03-22T09:46:26Z</time>
      </trkpt>
      <trkpt lat="45.48713" lon="6.77498">
        <ele>3069.87</ele>
        <time>2016-03-22T09:46:28Z</time>
      </trkpt>
      <trkpt lat="45.48705" lon="6.77468">
        <ele>3063.94</ele>
        <time>2016-03-22T09:46:30Z</time>
      </trkpt>
      <trkpt lat="45.48708" lon="6.77437">
        <ele>3059.07</ele>
        <time>2016-03-22T09:46:32Z</time>
      </trkpt>
      <trkpt lat="45.48701" lon="6.77409">
        <ele>3051.3</ele>
        <time>2016-03-22T09:46:36Z</time>
      </trkpt>
      <trkpt lat="45.48706" lon="6.77383">
        <ele>3048.59</ele>
        <time>2016-03-22T09:46:39Z</time>
      </trkpt>
      <trkpt lat="45.48708" lon="6.7735">
        <ele>3028.82</ele>
        <time>2016-03-22T09:47:38Z</time>
      </trkpt>
      <trkpt lat="45.48715" lon="6.77316">
        <ele>3025.01</ele>
        <time>2016-03-22T09:47:41Z</time>
      </trkpt>
      <trkpt lat="45.48709" lon="6.77285">
        <ele>3014.49</ele>
        <time>2016-03-22T09:47:44Z</time>
      </trkpt>
      <trkpt lat="45.48718" lon="6.77263">
        <ele>3010.85</ele>
        <time>2016-03-22T09:47:46Z</time>
      </trkpt>
      <trkpt lat="45.4872" lon="6.77236">
        <ele>3011.34</ele>
        <time>2016-03-22T09:47:48Z</time>
      </trkpt>
      <trkpt lat="45.48726" lon="6.77196">
        <ele>3006.4</ele>
        <time>2016-03-22T09:47:50Z</time>
      </trkpt>
      <trkpt lat="45.48719" lon="6.77158">
        <ele>3000.83</ele>
        <time>2016-03-22T09:47:53Z</time>
      </trkpt>
      <trkpt lat="45.48706" lon="6.77139">
        <ele>2993.91</ele>
        <time>2016-03-22T09:47:56Z</time>
      </trkpt>
      <trkpt lat="45.48687" lon="6.77146">
        <ele>2987.55</ele>
        <time>2016-03-22T09:48:01Z</time>
      </trkpt>
      <trkpt lat="45.4868" lon="6.77171">
        <ele>2982.3</ele>
        <time>2016-03-22T09:48:39Z</time>
      </trkpt>
      <trkpt lat="45.48678" lon="6.77198">
        <ele>2988.31</ele>
        <time>2016-03-22T09:48:50Z</time>
      </trkpt>
      <trkpt lat="45.48678" lon="6.77225">
        <ele>2996.31</ele>
        <time>2016-03-22T09:49:01Z</time>
      </trkpt>
      <trkpt lat="45.48678" lon="6.77251">
        <ele>3004.48</ele>
        <time>2016-03-22T09:49:15Z</time>
      </trkpt>
      <trkpt lat="45.48677" lon="6.77278">
        <ele>3008.33</ele>
        <time>2016-03-22T09:49:27Z</time>
      </trkpt>
      <trkpt lat="45.48677" lon="6.77305">
        <ele>3010.29</ele>
        <time>2016-03-22T09:49:39Z</time>
      </trkpt>
      <trkpt lat="45.48674" lon="6.77332">
        <ele>3017.54</ele>
        <time>2016-03-22T09:49:53Z</time>
      </trkpt>
      <trkpt lat="45.48674" lon="6.77359">
        <ele>3026.28</ele>
        <time>2016-03-22T09:50:05Z</time>
      </trkpt>
      <trkpt lat="45.48677" lon="6.77385">
        <ele>3029.59</ele>
        <time>2016-03-22T09:50:17Z</time>
      </trkpt>
      <trkpt lat="45.48672" lon="6.77411">
        <ele>3039.22</ele>
        <time>2016-03-22T09:50:30Z</time>
      </trkpt>
      <trkpt lat="45.48669" lon="6.77437">
        <ele>3054.48</ele>
        <time>2016-03-22T09:50:43Z</time>
      </trkpt>
      <trkpt lat="45.48671" lon="6.77464">
        <ele>3064.54</ele>
        <time>2016-03-22T09:50:57Z</time>
      </trkpt>
      <trkpt lat="45.48672" lon="6.7749">
        <ele>3070.32</ele>
        <time>2016-03-22T09:51:14Z</time>
      </trkpt>
      <trkpt lat="45.48669" lon="6.77516">
        <ele>3078.32</ele>
        <time>2016-03-22T09:51:26Z</time>
      </trkpt>
      <trkpt lat="45.48669" lon="6.77542">
        <ele>3087.49</ele>
        <time>2016-03-22T09:51:38Z</time>
      </trkpt>
      <trkpt lat="45.48667" lon="6.77568">
        <ele>3097.12</ele>
        <time>2016-03-22T09:51:52Z</time>
      </trkpt>
      <trkpt lat="45.48667" lon="6.77595">
        <ele>3101.32</ele>
        <time>2016-03-22T09:52:06Z</time>
      </trkpt>
      <trkpt lat="45.48666" lon="6.77621">
        <ele>3108.31</ele>
        <time>2016-03-22T09:52:18Z</time>
      </trkpt>
      <trkpt lat="45.48665" lon="6.77648">
        <ele>3117.49</ele>
        <time>2016-03-22T09:52:31Z</time>
      </trkpt>
      <trkpt lat="45.48665" lon="6.77676">
        <ele>3125.33</ele>
        <time>2016-03-22T09:52:44Z</time>
      </trkpt>
      <trkpt lat="45.48664" lon="6.77702">
        <ele>3135.29</ele>
        <time>2016-03-22T09:52:57Z</time>
      </trkpt>
      <trkpt lat="45.48663" lon="6.77729">
        <ele>3146.48</ele>
        <time>2016-03-22T09:53:11Z</time>
      </trkpt>
      <trkpt lat="45.4866" lon="6.77756">
        <ele>3158.52</ele>
        <time>2016-03-22T09:53:26Z</time>
      </trkpt>
      <trkpt lat="45.48661" lon="6.77783">
        <ele>3164.7</ele>
        <time>2016-03-22T09:53:39Z</time>
      </trkpt>
      <trkpt lat="45.48664" lon="6.77809">
        <ele>3166.33</ele>
        <time>2016-03-22T09:54:57Z</time>
      </trkpt>
      <trkpt lat="45.48671" lon="6.77833">
        <ele>3168.74</ele>
        <time>2016-03-22T09:55:18Z</time>
      </trkpt>
      <trkpt lat="45.48685" lon="6.77854">
        <ele>3165.23</ele>
        <time>2016-03-22T09:55:46Z</time>
      </trkpt>
      <trkpt lat="45.48701" lon="6.77865">
        <ele>3165.37</ele>
        <time>2016-03-22T09:55:52Z</time>
      </trkpt>
      <trkpt lat="45.4872" lon="6.77866">
        <ele>3153.69</ele>
        <time>2016-03-22T09:56:10Z</time>
      </trkpt>
      <trkpt lat="45.48734" lon="6.77845">
        <ele>3146.83</ele>
        <time>2016-03-22T09:56:15Z</time>
      </trkpt>
      <trkpt lat="45.48753" lon="6.77842">
        <ele>3144.36</ele>
        <time>2016-03-22T09:56:18Z</time>
      </trkpt>
      <trkpt lat="45.48769" lon="6.77812">
        <ele>3143.73</ele>
        <time>2016-03-22T09:56:21Z</time>
      </trkpt>
      <trkpt lat="45.48786" lon="6.77796">
        <ele>3138.26</ele>
        <time>2016-03-22T09:56:23Z</time>
      </trkpt>
      <trkpt lat="45.48808" lon="6.77774">
        <ele>3135</ele>
        <time>2016-03-22T09:56:25Z</time>
      </trkpt>
      <trkpt lat="45.4883" lon="6.77759">
        <ele>3131.67</ele>
        <time>2016-03-22T09:56:27Z</time>
      </trkpt>
      <trkpt lat="45.48851" lon="6.77761">
        <ele>3128.98</ele>
        <time>2016-03-22T09:56:29Z</time>
      </trkpt>
      <trkpt lat="45.48869" lon="6.77759">
        <ele>3127.75</ele>
        <time>2016-03-22T09:56:31Z</time>
      </trkpt>
      <trkpt lat="45.48893" lon="6.77748">
        <ele>3109.09</ele>
        <time>2016-03-22T09:56:36Z</time>
      </trkpt>
      <trkpt lat="45.48914" lon="6.77738">
        <ele>3106.58</ele>
        <time>2016-03-22T09:56:39Z</time>
      </trkpt>
      <trkpt lat="45.48931" lon="6.77726">
        <ele>3099.24</ele>
        <time>2016-03-22T09:56:42Z</time>
      </trkpt>
      <trkpt lat="45.48948" lon="6.77716">
        <ele>3098.56</ele>
        <time>2016-03-22T09:56:44Z</time>
      </trkpt>
      <trkpt lat="45.48955" lon="6.77689">
        <ele>3091.91</ele>
        <time>2016-03-22T09:56:47Z</time>
      </trkpt>
      <trkpt lat="45.48972" lon="6.77676">
        <ele>3084.51</ele>
        <time>2016-03-22T09:56:49Z</time>
      </trkpt>
      <trkpt lat="45.48987" lon="6.77641">
        <ele>3080.15</ele>
        <time>2016-03-22T09:56:52Z</time>
      </trkpt>
      <trkpt lat="45.49" lon="6.77619">
        <ele>3073.48</ele>
        <time>2016-03-22T09:56:54Z</time>
      </trkpt>
      <trkpt lat="45.49003" lon="6.77586">
        <ele>3065.08</ele>
        <time>2016-03-22T09:56:57Z</time>
      </trkpt>
      <trkpt lat="45.48992" lon="6.7755">
        <ele>3061.78</ele>
        <time>2016-03-22T09:57:00Z</time>
      </trkpt>
      <trkpt lat="45.49003" lon="6.77511">
        <ele>3058.98</ele>
        <time>2016-03-22T09:57:02Z</time>
      </trkpt>
      <trkpt lat="45.49" lon="6.77477">
        <ele>3054.87</ele>
        <time>2016-03-22T09:57:04Z</time>
      </trkpt>
      <trkpt lat="45.4899" lon="6.77437">
        <ele>3051.82</ele>
        <time>2016-03-22T09:57:06Z</time>
      </trkpt>
      <trkpt lat="45.48989" lon="6.77403">
        <ele>3049.78</ele>
        <time>2016-03-22T09:57:08Z</time>
      </trkpt>
      <trkpt lat="45.48988" lon="6.77367">
        <ele>3047.78</ele>
        <time>2016-03-22T09:57:10Z</time>
      </trkpt>
      <trkpt lat="45.4898" lon="6.77332">
        <ele>3044.81</ele>
        <time>2016-03-22T09:57:13Z</time>
      </trkpt>
      <trkpt lat="45.48971" lon="6.77307">
        <ele>3040.98</ele>
        <time>2016-03-22T09:57:16Z</time>
      </trkpt>
      <trkpt lat="45.48973" lon="6.7728">
        <ele>3035.94</ele>
        <time>2016-03-22T09:58:01Z</time>
      </trkpt>
      <trkpt lat="45.48976" lon="6.7725">
        <ele>3029.93</ele>
        <time>2016-03-22T09:58:05Z</time>
      </trkpt>
      <trkpt lat="45.48985" lon="6.77207">
        <ele>3021.92</ele>
        <time>2016-03-22T09:58:08Z</time>
      </trkpt>
      <trkpt lat="45.48996" lon="6.77165">
        <ele>3015.04</ele>
        <time>2016-03-22T09:58:11Z</time>
      </trkpt>
      <trkpt lat="45.49006" lon="6.77142">
        <ele>3007.35</ele>
        <time>2016-03-22T09:58:13Z</time>
      </trkpt>
      <trkpt lat="45.49025" lon="6.7713">
        <ele>3005.55</ele>
        <time>2016-03-22T09:58:16Z</time>
      </trkpt>
      <trkpt lat="45.49047" lon="6.7714">
        <ele>2997.98</ele>
        <time>2016-03-22T09:58:21Z</time>
      </trkpt>
      <trkpt lat="45.49052" lon="6.77165">
        <ele>2993.69</ele>
        <time>2016-03-22T09:58:31Z</time>
      </trkpt>
      <trkpt lat="45.4907" lon="6.77179">
        <ele>2990.58</ele>
        <time>2016-03-22T09:59:02Z</time>
      </trkpt>
      <trkpt lat="45.49087" lon="6.77189">
        <ele>2994.68</ele>
        <time>2016-03-22T09:59:13Z</time>
      </trkpt>
      <trkpt lat="45.49103" lon="6.77203">
        <ele>2996.5</ele>
        <time>2016-03-22T09:59:25Z</time>
      </trkpt>
      <trkpt lat="45.4912" lon="6.77215">
        <ele>3003.3</ele>
        <time>2016-03-22T09:59:36Z</time>
      </trkpt>
      <trkpt lat="45.49135" lon="6.77232">
        <ele>3009.33</ele>
        <time>2016-03-22T09:59:50Z</time>
      </trkpt>
      <trkpt lat="45.49151" lon="6.77246">
        <ele>3015.92</ele>
        <time>2016-03-22T10:00:02Z</time>
      </trkpt>
      <trkpt lat="45.49167" lon="6.77259">
        <ele>3027.05</ele>
        <time>2016-03-22T10:00:14Z</time>
      </trkpt>
      <trkpt lat="45.49184" lon="6.77267">
        <ele>3039.04</ele>
        <time>2016-03-22T10:00:25Z</time>
      </trkpt>
      <trkpt lat="45.49202" lon="6.77281">
        <ele>3048.31</ele>
        <time>2016-03-22T10:00:38Z</time>
      </trkpt>
      <trkpt lat="45.49218" lon="6.77294">
        <ele>3055.13</ele>
        <time>2016-03-22T10:00:49Z</time>
      </trkpt>
      <trkpt lat="45.49235" lon="6.77305">
        <ele>3063.28</ele>
        <time>2016-03-22T10:00:59Z</time>
      </trkpt>
      <trkpt lat="45.49254" lon="6.77317">
        <ele>3068.32</ele>
        <time>2016-03-22T10:01:09Z</time>
      </trkpt>
      <trkpt lat="45.49271" lon="6.77328">
        <ele>3072.29</ele>
        <time>2016-03-22T10:01:19Z</time>
      </trkpt>
      <trkpt lat="45.49286" lon="6.77343">
        <ele>3069.76</ele>
        <time>2016-03-22T10:01:32Z</time>
      </trkpt>
      <trkpt lat="45.49302" lon="6.77356">
        <ele>3074.56</ele>
        <time>2016-03-22T10:01:43Z</time>
      </trkpt>
      <trkpt lat="45.49319" lon="6.77365">
        <ele>3080.49</ele>
        <time>2016-03-22T10:01:53Z</time>
      </trkpt>
      <trkpt lat="45.49335" lon="6.77377">
        <ele>3085.31</ele>
        <time>2016-03-22T10:02:03Z</time>
      </trkpt>
      <trkpt lat="45.49351" lon="6.77391">
        <ele>3091.33</ele>
        <time>2016-03-22T10:02:16Z</time>
      </trkpt>
      <trkpt lat="45.49369" lon="6.77402">
        <ele>3096.33</ele>
        <time>2016-03-22T10:02:27Z</time>
      </trkpt>
      <trkpt lat="45.49384" lon="6.77416">
        <ele>3096.53</ele>
        <time>2016-03-22T10:02:38Z</time>
      </trkpt>
      <trkpt lat="45.49407" lon="6.77413">
        <ele>3112.77</ele>
        <time>2016-03-22T10:04:34Z</time>
      </trkpt>
      <trkpt lat="45.49405" lon="6.77439">
        <ele>3107.38</ele>
        <time>2016-03-22T10:06:11Z</time>
      </trkpt>
      <trkpt lat="45.494" lon="6.77464">
        <ele>3100.78</ele>
        <time>2016-03-22T10:06:21Z</time>
      </trkpt>
      <trkpt lat="45.49413" lon="6.7749">
        <ele>3099.86</ele>
        <time>2016-03-22T10:06:30Z</time>
      </trkpt>
      <trkpt lat="45.49428" lon="6.77518">
        <ele>3097.77</ele>
        <time>2016-03-22T10:06:33Z</time>
      </trkpt>
      <trkpt lat="45.4945" lon="6.77537">
        <ele>3094.75</ele>
        <time>2016-03-22T10:06:36Z</time>
      </trkpt>
      <trkpt lat="45.49473" lon="6.77554">
        <ele>3094.53</ele>
        <time>2016-03-22T10:06:39Z</time>
      </trkpt>
      <trkpt lat="45.49492" lon="6.77558">
        <ele>3092.77</ele>
        <time>2016-03-22T10:06:41Z</time>
      </trkpt>
      <trkpt lat="45.4951" lon="6.77561">
        <ele>3091.74</ele>
        <time>2016-03-22T10:06:43Z</time>
      </trkpt>
      <trkpt lat="45.49528" lon="6.7756">
        <ele>3087.06</ele>
        <time>2016-03-22T10:06:45Z</time>
      </trkpt>
      <trkpt lat="45.49517" lon="6.77527">
        <ele>3073.05</ele>
        <time>2016-03-22T10:06:50Z</time>
      </trkpt>
      <trkpt lat="45.49517" lon="6.77496">
        <ele>3067.06</ele>
        <time>2016-03-22T10:06:53Z</time>
      </trkpt>
      <trkpt lat="45.49512" lon="6.77468">
        <ele>3063.99</ele>
        <time>2016-03-22T10:06:55Z</time>
      </trkpt>
      <trkpt lat="45.49512" lon="6.77425">
        <ele>3059.02</ele>
        <time>2016-03-22T10:06:58Z</time>
      </trkpt>
      <trkpt lat="45.49507" lon="6.77398">
        <ele>3055.03</ele>
        <time>2016-03-22T10:07:00Z</time>
      </trkpt>
      <trkpt lat="45.49507" lon="6.77372">
        <ele>3051.03</ele>
        <time>2016-03-22T10:07:02Z</time>
      </trkpt>
      <trkpt lat="45.49513" lon="6.77337">
        <ele>3047.83</ele>
        <time>2016-03-22T10:07:04Z</time>
      </trkpt>
      <trkpt lat="45.49522" lon="6.77305">
        <ele>3044.82</ele>
        <time>2016-03-22T10:07:06Z</time>
      </trkpt>
      <trkpt lat="45.49533" lon="6.77276">
        <ele>3041.98</ele>
        <time>2016-03-22T10:07:08Z</time>
      </trkpt>
      <trkpt lat="45.49547" lon="6.77255">
        <ele>3039.79</ele>
        <time>2016-03-22T10:07:10Z</time>
      </trkpt>
      <trkpt lat="45.49557" lon="6.77229">
        <ele>3038.74</ele>
        <time>2016-03-22T10:07:12Z</time>
      </trkpt>
      <trkpt lat="45.49578" lon="6.77205">
        <ele>3036.78</ele>
        <time>2016-03-22T10:07:14Z</time>
      </trkpt>
      <trkpt lat="45.49595" lon="6.77181">
        <ele>3028.18</ele>
        <time>2016-03-22T10:07:17Z</time>
      </trkpt>
      <trkpt lat="45.49613" lon="6.77168">
        <ele>3024.82</ele>
        <time>2016-03-22T10:07:20Z</time>
      </trkpt>
      <trkpt lat="45.49633" lon="6.77159">
        <ele>3022.89</ele>
        <time>2016-03-22T10:07:24Z</time>
      </trkpt>
      <trkpt lat="45.4965" lon="6.77148">
        <ele>3019.57</ele>
        <time>2016-03-22T10:07:29Z</time>
      </trkpt>
      <trkpt lat="45.49665" lon="6.77133">
        <ele>3008.78</ele>
        <time>2016-03-22T10:07:37Z</time>
      </trkpt>
      <trkpt lat="45.49679" lon="6.77115">
        <ele>3009.37</ele>
        <time>2016-03-22T10:07:42Z</time>
      </trkpt>
      <trkpt lat="45.4969" lon="6.77092">
        <ele>3006.74</ele>
        <time>2016-03-22T10:07:46Z</time>
      </trkpt>
      <trkpt lat="45.49697" lon="6.77066">
        <ele>3004.74</ele>
        <time>2016-03-22T10:07:49Z</time>
      </trkpt>
      <trkpt lat="45.49705" lon="6.77042">
        <ele>3005.52</ele>
        <time>2016-03-22T10:07:52Z</time>
      </trkpt>
      <trkpt lat="45.49706" lon="6.77014">
        <ele>3006.36</ele>
        <time>2016-03-22T10:07:55Z</time>
      </trkpt>
      <trkpt lat="45.49698" lon="6.76989">
        <ele>3003.49</ele>
        <time>2016-03-22T10:08:20Z</time>
      </trkpt>
      <trkpt lat="45.4968" lon="6.76983">
        <ele>2998.5</ele>
        <time>2016-03-22T10:08:29Z</time>
      </trkpt>
      <trkpt lat="45.4967" lon="6.77008">
        <ele>2997.53</ele>
        <time>2016-03-22T10:08:33Z</time>
      </trkpt>
      <trkpt lat="45.49659" lon="6.77031">
        <ele>2996.54</ele>
        <time>2016-03-22T10:08:36Z</time>
      </trkpt>
      <trkpt lat="45.49642" lon="6.77055">
        <ele>2995.57</ele>
        <time>2016-03-22T10:08:39Z</time>
      </trkpt>
      <trkpt lat="45.49619" lon="6.77059">
        <ele>2993.77</ele>
        <time>2016-03-22T10:08:41Z</time>
      </trkpt>
      <trkpt lat="45.496" lon="6.77067">
        <ele>2993.34</ele>
        <time>2016-03-22T10:08:44Z</time>
      </trkpt>
      <trkpt lat="45.49578" lon="6.77069">
        <ele>2992.72</ele>
        <time>2016-03-22T10:08:46Z</time>
      </trkpt>
      <trkpt lat="45.49556" lon="6.77071">
        <ele>2991.74</ele>
        <time>2016-03-22T10:08:48Z</time>
      </trkpt>
      <trkpt lat="45.49535" lon="6.77081">
        <ele>2989.94</ele>
        <time>2016-03-22T10:08:50Z</time>
      </trkpt>
      <trkpt lat="45.49515" lon="6.77086">
        <ele>2986.99</ele>
        <time>2016-03-22T10:08:52Z</time>
      </trkpt>
      <trkpt lat="45.49496" lon="6.7709">
        <ele>2984.47</ele>
        <time>2016-03-22T10:08:54Z</time>
      </trkpt>
      <trkpt lat="45.49477" lon="6.77096">
        <ele>2983.73</ele>
        <time>2016-03-22T10:08:56Z</time>
      </trkpt>
      <trkpt lat="45.49456" lon="6.77107">
        <ele>2975.98</ele>
        <time>2016-03-22T10:08:59Z</time>
      </trkpt>
      <trkpt lat="45.49438" lon="6.77111">
        <ele>2974.59</ele>
        <time>2016-03-22T10:09:01Z</time>
      </trkpt>
      <trkpt lat="45.4942" lon="6.77123">
        <ele>2971.81</ele>
        <time>2016-03-22T10:09:03Z</time>
      </trkpt>
      <trkpt lat="45.49402" lon="6.7713">
        <ele>2969.14</ele>
        <time>2016-03-22T10:09:05Z</time>
      </trkpt>
      <trkpt lat="45.49374" lon="6.77149">
        <ele>2964.63</ele>
        <time>2016-03-22T10:09:08Z</time>
      </trkpt>
      <trkpt lat="45.4935" lon="6.77162">
        <ele>2963.57</ele>
        <time>2016-03-22T10:09:10Z</time>
      </trkpt>
      <trkpt lat="45.49328" lon="6.77172">
        <ele>2955.31</ele>
        <time>2016-03-22T10:09:13Z</time>
      </trkpt>
      <trkpt lat="45.4931" lon="6.77162">
        <ele>2953.6</ele>
        <time>2016-03-22T10:09:15Z</time>
      </trkpt>
      <trkpt lat="45.49295" lon="6.77129">
        <ele>2953.53</ele>
        <time>2016-03-22T10:09:17Z</time>
      </trkpt>
      <trkpt lat="45.49304" lon="6.77106">
        <ele>2943.58</ele>
        <time>2016-03-22T10:09:24Z</time>
      </trkpt>
      <trkpt lat="45.49322" lon="6.77117">
        <ele>2938.54</ele>
        <time>2016-03-22T10:09:32Z</time>
      </trkpt>
      <trkpt lat="45.49346" lon="6.77113">
        <ele>2936.57</ele>
        <time>2016-03-22T10:09:36Z</time>
      </trkpt>
      <trkpt lat="45.49363" lon="6.77088">
        <ele>2933.2</ele>
        <time>2016-03-22T10:09:39Z</time>
      </trkpt>
      <trkpt lat="45.49375" lon="6.77057">
        <ele>2931.9</ele>
        <time>2016-03-22T10:09:42Z</time>
      </trkpt>
      <trkpt lat="45.49386" lon="6.7703">
        <ele>2925.04</ele>
        <time>2016-03-22T10:09:45Z</time>
      </trkpt>
      <trkpt lat="45.49402" lon="6.77001">
        <ele>2920.98</ele>
        <time>2016-03-22T10:09:48Z</time>
      </trkpt>
      <trkpt lat="45.49415" lon="6.76973">
        <ele>2914.2</ele>
        <time>2016-03-22T10:09:51Z</time>
      </trkpt>
      <trkpt lat="45.49429" lon="6.76954">
        <ele>2909.88</ele>
        <time>2016-03-22T10:09:53Z</time>
      </trkpt>
      <trkpt lat="45.49439" lon="6.76934">
        <ele>2905.86</ele>
        <time>2016-03-22T10:09:55Z</time>
      </trkpt>
      <trkpt lat="45.49455" lon="6.76908">
        <ele>2903.93</ele>
        <time>2016-03-22T10:09:58Z</time>
      </trkpt>
      <trkpt lat="45.49468" lon="6.76877">
        <ele>2899.6</ele>
        <time>2016-03-22T10:10:01Z</time>
      </trkpt>
      <trkpt lat="45.49479" lon="6.76853">
        <ele>2896.59</ele>
        <time>2016-03-22T10:10:04Z</time>
      </trkpt>
      <trkpt lat="45.49465" lon="6.76828">
        <ele>2882.98</ele>
        <time>2016-03-22T10:10:26Z</time>
      </trkpt>
      <trkpt lat="45.49459" lon="6.76796">
        <ele>2877.8</ele>
        <time>2016-03-22T10:10:30Z</time>
      </trkpt>
      <trkpt lat="45.49447" lon="6.76764">
        <ele>2871.04</ele>
        <time>2016-03-22T10:10:33Z</time>
      </trkpt>
      <trkpt lat="45.49443" lon="6.76721">
        <ele>2865.83</ele>
        <time>2016-03-22T10:10:36Z</time>
      </trkpt>
      <trkpt lat="45.49441" lon="6.76686">
        <ele>2862.02</ele>
        <time>2016-03-22T10:10:38Z</time>
      </trkpt>
      <trkpt lat="45.49437" lon="6.7666">
        <ele>2858.03</ele>
        <time>2016-03-22T10:10:40Z</time>
      </trkpt>
      <trkpt lat="45.4943" lon="6.76633">
        <ele>2852.43</ele>
        <time>2016-03-22T10:10:42Z</time>
      </trkpt>
      <trkpt lat="45.49422" lon="6.76599">
        <ele>2846.83</ele>
        <time>2016-03-22T10:10:45Z</time>
      </trkpt>
      <trkpt lat="45.49408" lon="6.76563">
        <ele>2839.88</ele>
        <time>2016-03-22T10:10:48Z</time>
      </trkpt>
      <trkpt lat="45.49388" lon="6.76532">
        <ele>2833.04</ele>
        <time>2016-03-22T10:10:51Z</time>
      </trkpt>
      <trkpt lat="45.49367" lon="6.76509">
        <ele>2830.79</ele>
        <time>2016-03-22T10:10:53Z</time>
      </trkpt>
      <trkpt lat="45.49342" lon="6.76499">
        <ele>2828.94</ele>
        <time>2016-03-22T10:10:55Z</time>
      </trkpt>
      <trkpt lat="45.49321" lon="6.76485">
        <ele>2825.83</ele>
        <time>2016-03-22T10:10:57Z</time>
      </trkpt>
      <trkpt lat="45.49299" lon="6.76493">
        <ele>2822.82</ele>
        <time>2016-03-22T10:10:59Z</time>
      </trkpt>
      <trkpt lat="45.49278" lon="6.76476">
        <ele>2820.14</ele>
        <time>2016-03-22T10:11:01Z</time>
      </trkpt>
      <trkpt lat="45.49259" lon="6.76468">
        <ele>2817.16</ele>
        <time>2016-03-22T10:11:03Z</time>
      </trkpt>
      <trkpt lat="45.49236" lon="6.76449">
        <ele>2809.27</ele>
        <time>2016-03-22T10:11:06Z</time>
      </trkpt>
      <trkpt lat="45.49215" lon="6.76436">
        <ele>2805.04</ele>
        <time>2016-03-22T10:11:08Z</time>
      </trkpt>
      <trkpt lat="45.49191" lon="6.76415">
        <ele>2798.26</ele>
        <time>2016-03-22T10:11:11Z</time>
      </trkpt>
      <trkpt lat="45.49169" lon="6.76404">
        <ele>2793.4</ele>
        <time>2016-03-22T10:11:13Z</time>
      </trkpt>
      <trkpt lat="45.4915" lon="6.76385">
        <ele>2787.61</ele>
        <time>2016-03-22T10:11:15Z</time>
      </trkpt>
      <trkpt lat="45.49126" lon="6.76365">
        <ele>2782.25</ele>
        <time>2016-03-22T10:11:17Z</time>
      </trkpt>
      <trkpt lat="45.49103" lon="6.76369">
        <ele>2775.32</ele>
        <time>2016-03-22T10:11:19Z</time>
      </trkpt>
      <trkpt lat="45.49086" lon="6.76358">
        <ele>2768.64</ele>
        <time>2016-03-22T10:11:21Z</time>
      </trkpt>
      <trkpt lat="45.49069" lon="6.7634">
        <ele>2759.16</ele>
        <time>2016-03-22T10:11:24Z</time>
      </trkpt>
      <trkpt lat="45.49076" lon="6.76309">
        <ele>2746.57</ele>
        <time>2016-03-22T10:11:41Z</time>
      </trkpt>
      <trkpt lat="45.4909" lon="6.76278">
        <ele>2741.74</ele>
        <time>2016-03-22T10:11:45Z</time>
      </trkpt>
      <trkpt lat="45.49109" lon="6.76268">
        <ele>2738.98</ele>
        <time>2016-03-22T10:11:47Z</time>
      </trkpt>
      <trkpt lat="45.49132" lon="6.76256">
        <ele>2736.79</ele>
        <time>2016-03-22T10:11:49Z</time>
      </trkpt>
      <trkpt lat="45.49146" lon="6.76241">
        <ele>2737.5</ele>
        <time>2016-03-22T10:11:51Z</time>
      </trkpt>
      <trkpt lat="45.49151" lon="6.762">
        <ele>2727.84</ele>
        <time>2016-03-22T10:11:55Z</time>
      </trkpt>
      <trkpt lat="45.49162" lon="6.76176">
        <ele>2724.82</ele>
        <time>2016-03-22T10:11:57Z</time>
      </trkpt>
      <trkpt lat="45.49168" lon="6.76141">
        <ele>2720.02</ele>
        <time>2016-03-22T10:12:00Z</time>
      </trkpt>
      <trkpt lat="45.49181" lon="6.76121">
        <ele>2715.07</ele>
        <time>2016-03-22T10:12:02Z</time>
      </trkpt>
      <trkpt lat="45.49189" lon="6.76094">
        <ele>2712.79</ele>
        <time>2016-03-22T10:12:04Z</time>
      </trkpt>
      <trkpt lat="45.49202" lon="6.76064">
        <ele>2709.98</ele>
        <time>2016-03-22T10:12:06Z</time>
      </trkpt>
      <trkpt lat="45.49207" lon="6.7603">
        <ele>2707.79</ele>
        <time>2016-03-22T10:12:08Z</time>
      </trkpt>
      <trkpt lat="45.4921" lon="6.75995">
        <ele>2704.98</ele>
        <time>2016-03-22T10:12:10Z</time>
      </trkpt>
      <trkpt lat="45.49207" lon="6.75965">
        <ele>2703.02</ele>
        <time>2016-03-22T10:12:11Z</time>
      </trkpt>
      <trkpt lat="45.492" lon="6.75922">
        <ele>2699.99</ele>
        <time>2016-03-22T10:12:13Z</time>
      </trkpt>
      <trkpt lat="45.49194" lon="6.75893">
        <ele>2694.27</ele>
        <time>2016-03-22T10:12:15Z</time>
      </trkpt>
      <trkpt lat="45.4919" lon="6.75863">
        <ele>2689.24</ele>
        <time>2016-03-22T10:12:17Z</time>
      </trkpt>
      <trkpt lat="45.49191" lon="6.75835">
        <ele>2685.84</ele>
        <time>2016-03-22T10:12:19Z</time>
      </trkpt>
      <trkpt lat="45.4919" lon="6.75795">
        <ele>2676.35</ele>
        <time>2016-03-22T10:12:22Z</time>
      </trkpt>
      <trkpt lat="45.49188" lon="6.75757">
        <ele>2671.99</ele>
        <time>2016-03-22T10:12:25Z</time>
      </trkpt>
      <trkpt lat="45.49192" lon="6.75724">
        <ele>2662.22</ele>
        <time>2016-03-22T10:12:28Z</time>
      </trkpt>
      <trkpt lat="45.49195" lon="6.75694">
        <ele>2656.28</ele>
        <time>2016-03-22T10:12:30Z</time>
      </trkpt>
      <trkpt lat="45.49196" lon="6.75667">
        <ele>2652.2</ele>
        <time>2016-03-22T10:12:32Z</time>
      </trkpt>
      <trkpt lat="45.49191" lon="6.75638">
        <ele>2648.04</ele>
        <time>2016-03-22T10:12:34Z</time>
      </trkpt>
      <trkpt lat="45.49189" lon="6.75604">
        <ele>2638.48</ele>
        <time>2016-03-22T10:12:37Z</time>
      </trkpt>
      <trkpt lat="45.49185" lon="6.75569">
        <ele>2635.01</ele>
        <time>2016-03-22T10:12:39Z</time>
      </trkpt>
      <trkpt lat="45.49182" lon="6.7553">
        <ele>2631.99</ele>
        <time>2016-03-22T10:12:41Z</time>
      </trkpt>
      <trkpt lat="45.49172" lon="6.75502">
        <ele>2627.39</ele>
        <time>2016-03-22T10:12:43Z</time>
      </trkpt>
      <trkpt lat="45.49162" lon="6.75462">
        <ele>2621.45</ele>
        <time>2016-03-22T10:12:45Z</time>
      </trkpt>
      <trkpt lat="45.49148" lon="6.7543">
        <ele>2617.21</ele>
        <time>2016-03-22T10:12:47Z</time>
      </trkpt>
      <trkpt lat="45.49141" lon="6.75404">
        <ele>2613.04</ele>
        <time>2016-03-22T10:12:49Z</time>
      </trkpt>
      <trkpt lat="45.49141" lon="6.75375">
        <ele>2609.03</ele>
        <time>2016-03-22T10:12:51Z</time>
      </trkpt>
      <trkpt lat="45.49145" lon="6.75342">
        <ele>2606.95</ele>
        <time>2016-03-22T10:12:53Z</time>
      </trkpt>
      <trkpt lat="45.49145" lon="6.75314">
        <ele>2603.19</ele>
        <time>2016-03-22T10:12:55Z</time>
      </trkpt>
      <trkpt lat="45.49145" lon="6.75279">
        <ele>2598.92</ele>
        <time>2016-03-22T10:12:58Z</time>
      </trkpt>
      <trkpt lat="45.49148" lon="6.75245">
        <ele>2591.4</ele>
        <time>2016-03-22T10:13:01Z</time>
      </trkpt>
      <trkpt lat="45.49154" lon="6.75207">
        <ele>2588.59</ele>
        <time>2016-03-22T10:13:04Z</time>
      </trkpt>
      <trkpt lat="45.49164" lon="6.75171">
        <ele>2582.07</ele>
        <time>2016-03-22T10:13:07Z</time>
      </trkpt>
      <trkpt lat="45.49172" lon="6.7513">
        <ele>2576.11</ele>
        <time>2016-03-22T10:13:09Z</time>
      </trkpt>
      <trkpt lat="45.49175" lon="6.75093">
        <ele>2570.91</ele>
        <time>2016-03-22T10:13:11Z</time>
      </trkpt>
      <trkpt lat="45.49168" lon="6.75057">
        <ele>2563.19</ele>
        <time>2016-03-22T10:13:13Z</time>
      </trkpt>
      <trkpt lat="45.49166" lon="6.75024">
        <ele>2560</ele>
        <time>2016-03-22T10:13:15Z</time>
      </trkpt>
      <trkpt lat="45.49161" lon="6.74994">
        <ele>2556.19</ele>
        <time>2016-03-22T10:13:17Z</time>
      </trkpt>
      <trkpt lat="45.49149" lon="6.74963">
        <ele>2551.08</ele>
        <time>2016-03-22T10:13:19Z</time>
      </trkpt>
      <trkpt lat="45.49134" lon="6.74943">
        <ele>2547.83</ele>
        <time>2016-03-22T10:13:21Z</time>
      </trkpt>
      <trkpt lat="45.49122" lon="6.74919">
        <ele>2541.3</ele>
        <time>2016-03-22T10:13:23Z</time>
      </trkpt>
      <trkpt lat="45.49117" lon="6.74889">
        <ele>2536.83</ele>
        <time>2016-03-22T10:13:26Z</time>
      </trkpt>
      <trkpt lat="45.4911" lon="6.74863">
        <ele>2527.82</ele>
        <time>2016-03-22T10:13:43Z</time>
      </trkpt>
      <trkpt lat="45.49118" lon="6.74831">
        <ele>2524.62</ele>
        <time>2016-03-22T10:13:49Z</time>
      </trkpt>
      <trkpt lat="45.49123" lon="6.74797">
        <ele>2520.76</ele>
        <time>2016-03-22T10:13:52Z</time>
      </trkpt>
      <trkpt lat="45.49129" lon="6.74762">
        <ele>2514.87</ele>
        <time>2016-03-22T10:13:55Z</time>
      </trkpt>
      <trkpt lat="45.49136" lon="6.74727">
        <ele>2513.73</ele>
        <time>2016-03-22T10:13:58Z</time>
      </trkpt>
      <trkpt lat="45.49147" lon="6.74696">
        <ele>2508.83</ele>
        <time>2016-03-22T10:14:01Z</time>
      </trkpt>
      <trkpt lat="45.49163" lon="6.74671">
        <ele>2504.18</ele>
        <time>2016-03-22T10:14:04Z</time>
      </trkpt>
      <trkpt lat="45.49181" lon="6.74647">
        <ele>2499.18</ele>
        <time>2016-03-22T10:14:07Z</time>
      </trkpt>
      <trkpt lat="45.49197" lon="6.74632">
        <ele>2495.84</ele>
        <time>2016-03-22T10:14:09Z</time>
      </trkpt>
      <trkpt lat="45.49217" lon="6.74616">
        <ele>2493.78</ele>
        <time>2016-03-22T10:14:11Z</time>
      </trkpt>
      <trkpt lat="45.49236" lon="6.7459">
        <ele>2491.94</ele>
        <time>2016-03-22T10:14:13Z</time>
      </trkpt>
      <trkpt lat="45.49255" lon="6.74564">
        <ele>2489.79</ele>
        <time>2016-03-22T10:14:15Z</time>
      </trkpt>
      <trkpt lat="45.49269" lon="6.7454">
        <ele>2487.78</ele>
        <time>2016-03-22T10:14:17Z</time>
      </trkpt>
      <trkpt lat="45.49281" lon="6.74513">
        <ele>2486.74</ele>
        <time>2016-03-22T10:14:19Z</time>
      </trkpt>
      <trkpt lat="45.49294" lon="6.74485">
        <ele>2477.28</ele>
        <time>2016-03-22T10:14:22Z</time>
      </trkpt>
      <trkpt lat="45.49305" lon="6.74462">
        <ele>2475.76</ele>
        <time>2016-03-22T10:14:24Z</time>
      </trkpt>
      <trkpt lat="45.49317" lon="6.74441">
        <ele>2472.82</ele>
        <time>2016-03-22T10:14:26Z</time>
      </trkpt>
      <trkpt lat="45.49331" lon="6.74419">
        <ele>2471.58</ele>
        <time>2016-03-22T10:14:28Z</time>
      </trkpt>
      <trkpt lat="45.49346" lon="6.74401">
        <ele>2469.77</ele>
        <time>2016-03-22T10:14:30Z</time>
      </trkpt>
      <trkpt lat="45.49358" lon="6.74375">
        <ele>2468.58</ele>
        <time>2016-03-22T10:14:32Z</time>
      </trkpt>
      <trkpt lat="45.49374" lon="6.7435">
        <ele>2467.73</ele>
        <time>2016-03-22T10:14:34Z</time>
      </trkpt>
      <trkpt lat="45.49388" lon="6.74314">
        <ele>2465.78</ele>
        <time>2016-03-22T10:14:36Z</time>
      </trkpt>
      <trkpt lat="45.49402" lon="6.74282">
        <ele>2464.74</ele>
        <time>2016-03-22T10:14:38Z</time>
      </trkpt>
      <trkpt lat="45.49413" lon="6.7425">
        <ele>2463.58</ele>
        <time>2016-03-22T10:14:40Z</time>
      </trkpt>
      <trkpt lat="45.49427" lon="6.74227">
        <ele>2462.54</ele>
        <time>2016-03-22T10:14:43Z</time>
      </trkpt>
      <trkpt lat="45.49446" lon="6.74199">
        <ele>2449.01</ele>
        <time>2016-03-22T10:14:47Z</time>
      </trkpt>
      <trkpt lat="45.49471" lon="6.74187">
        <ele>2446.79</ele>
        <time>2016-03-22T10:14:49Z</time>
      </trkpt>
      <trkpt lat="45.4949" lon="6.74181">
        <ele>2445.78</ele>
        <time>2016-03-22T10:14:50Z</time>
      </trkpt>
      <trkpt lat="45.4951" lon="6.74172">
        <ele>2444.78</ele>
        <time>2016-03-22T10:14:51Z</time>
      </trkpt>
      <trkpt lat="45.49529" lon="6.74168">
        <ele>2424.82</ele>
        <time>2016-03-22T10:14:54Z</time>
      </trkpt>
      <trkpt lat="45.4956" lon="6.74162">
        <ele>2420.06</ele>
        <time>2016-03-22T10:14:56Z</time>
      </trkpt>
      <trkpt lat="45.49585" lon="6.74156">
        <ele>2414.59</ele>
        <time>2016-03-22T10:14:58Z</time>
      </trkpt>
      <trkpt lat="45.49614" lon="6.74153">
        <ele>2412.61</ele>
        <time>2016-03-22T10:15:00Z</time>
      </trkpt>
      <trkpt lat="45.49642" lon="6.74149">
        <ele>2383.16</ele>
        <time>2016-03-22T10:15:04Z</time>
      </trkpt>
      <trkpt lat="45.49665" lon="6.74148">
        <ele>2378.24</ele>
        <time>2016-03-22T10:15:06Z</time>
      </trkpt>
      <trkpt lat="45.49683" lon="6.74143">
        <ele>2371.96</ele>
        <time>2016-03-22T10:15:08Z</time>
      </trkpt>
      <trkpt lat="45.49703" lon="6.74145">
        <ele>2368.83</ele>
        <time>2016-03-22T10:15:10Z</time>
      </trkpt>
      <trkpt lat="45.49726" lon="6.74148">
        <ele>2355.96</ele>
        <time>2016-03-22T10:15:14Z</time>
      </trkpt>
      <trkpt lat="45.49748" lon="6.7416">
        <ele>2349.01</ele>
        <time>2016-03-22T10:15:17Z</time>
      </trkpt>
      <trkpt lat="45.49766" lon="6.74173">
        <ele>2343.7</ele>
        <time>2016-03-22T10:15:20Z</time>
      </trkpt>
      <trkpt lat="45.49789" lon="6.74185">
        <ele>2340.78</ele>
        <time>2016-03-22T10:15:23Z</time>
      </trkpt>
      <trkpt lat="45.49802" lon="6.74205">
        <ele>2332.06</ele>
        <time>2016-03-22T10:15:25Z</time>
      </trkpt>
      <trkpt lat="45.49818" lon="6.74219">
        <ele>2326.27</ele>
        <time>2016-03-22T10:15:27Z</time>
      </trkpt>
      <trkpt lat="45.4984" lon="6.74222">
        <ele>2322.04</ele>
        <time>2016-03-22T10:15:29Z</time>
      </trkpt>
      <trkpt lat="45.49865" lon="6.7421">
        <ele>2319.63</ele>
        <time>2016-03-22T10:15:31Z</time>
      </trkpt>
      <trkpt lat="45.49889" lon="6.7421">
        <ele>2315.85</ele>
        <time>2016-03-22T10:15:33Z</time>
      </trkpt>
      <trkpt lat="45.49909" lon="6.74206">
        <ele>2310.26</ele>
        <time>2016-03-22T10:15:35Z</time>
      </trkpt>
      <trkpt lat="45.49929" lon="6.74209">
        <ele>2306.78</ele>
        <time>2016-03-22T10:15:38Z</time>
      </trkpt>
      <trkpt lat="45.49937" lon="6.74232">
        <ele>2304.49</ele>
        <time>2016-03-22T10:15:46Z</time>
      </trkpt>
      <trkpt lat="45.49924" lon="6.74251">
        <ele>2281.58</ele>
        <time>2016-03-22T10:16:46Z</time>
      </trkpt>
      <trkpt lat="45.49907" lon="6.74267">
        <ele>2281.13</ele>
        <time>2016-03-22T10:16:59Z</time>
      </trkpt>
      <trkpt lat="45.49894" lon="6.7429">
        <ele>2284.49</ele>
        <time>2016-03-22T10:17:09Z</time>
      </trkpt>
      <trkpt lat="45.49879" lon="6.74306">
        <ele>2287.75</ele>
        <time>2016-03-22T10:17:18Z</time>
      </trkpt>
      <trkpt lat="45.49864" lon="6.7432">
        <ele>2290.49</ele>
        <time>2016-03-22T10:17:26Z</time>
      </trkpt>
      <trkpt lat="45.49849" lon="6.74335">
        <ele>2291.36</ele>
        <time>2016-03-22T10:17:35Z</time>
      </trkpt>
      <trkpt lat="45.49835" lon="6.74354">
        <ele>2292.49</ele>
        <time>2016-03-22T10:17:45Z</time>
      </trkpt>
      <trkpt lat="45.4982" lon="6.7437">
        <ele>2294.29</ele>
        <time>2016-03-22T10:17:54Z</time>
      </trkpt>
      <trkpt lat="45.49805" lon="6.74385">
        <ele>2301.25</ele>
        <time>2016-03-22T10:18:03Z</time>
      </trkpt>
      <trkpt lat="45.49791" lon="6.74405">
        <ele>2310.32</ele>
        <time>2016-03-22T10:18:12Z</time>
      </trkpt>
      <trkpt lat="45.49775" lon="6.7442">
        <ele>2322.66</ele>
        <time>2016-03-22T10:18:21Z</time>
      </trkpt>
      <trkpt lat="45.49762" lon="6.74438">
        <ele>2335.26</ele>
        <time>2016-03-22T10:18:31Z</time>
      </trkpt>
      <trkpt lat="45.4975" lon="6.74456">
        <ele>2344.51</ele>
        <time>2016-03-22T10:18:42Z</time>
      </trkpt>
      <trkpt lat="45.49737" lon="6.74475">
        <ele>2354.12</ele>
        <time>2016-03-22T10:18:53Z</time>
      </trkpt>
      <trkpt lat="45.49725" lon="6.74497">
        <ele>2367.13</ele>
        <time>2016-03-22T10:19:04Z</time>
      </trkpt>
      <trkpt lat="45.49713" lon="6.74517">
        <ele>2383.85</ele>
        <time>2016-03-22T10:19:14Z</time>
      </trkpt>
      <trkpt lat="45.49698" lon="6.74534">
        <ele>2390.32</ele>
        <time>2016-03-22T10:19:26Z</time>
      </trkpt>
      <trkpt lat="45.49685" lon="6.74554">
        <ele>2396.49</ele>
        <time>2016-03-22T10:19:37Z</time>
      </trkpt>
      <trkpt lat="45.49669" lon="6.7457">
        <ele>2403.29</ele>
        <time>2016-03-22T10:19:47Z</time>
      </trkpt>
      <trkpt lat="45.49652" lon="6.74587">
        <ele>2417.03</ele>
        <time>2016-03-22T10:19:57Z</time>
      </trkpt>
      <trkpt lat="45.49639" lon="6.74608">
        <ele>2430.2</ele>
        <time>2016-03-22T10:20:07Z</time>
      </trkpt>
      <trkpt lat="45.49624" lon="6.74625">
        <ele>2441.05</ele>
        <time>2016-03-22T10:20:17Z</time>
      </trkpt>
      <trkpt lat="45.4961" lon="6.74644">
        <ele>2454.07</ele>
        <time>2016-03-22T10:20:27Z</time>
      </trkpt>
      <trkpt lat="45.49598" lon="6.74665">
        <ele>2469.27</ele>
        <time>2016-03-22T10:20:39Z</time>
      </trkpt>
      <trkpt lat="45.49585" lon="6.74685">
        <ele>2478.27</ele>
        <time>2016-03-22T10:20:48Z</time>
      </trkpt>
      <trkpt lat="45.4957" lon="6.74702">
        <ele>2487.28</ele>
        <time>2016-03-22T10:20:57Z</time>
      </trkpt>
      <trkpt lat="45.49556" lon="6.7472">
        <ele>2492.34</ele>
        <time>2016-03-22T10:21:07Z</time>
      </trkpt>
      <trkpt lat="45.49541" lon="6.74739">
        <ele>2498.28</ele>
        <time>2016-03-22T10:21:16Z</time>
      </trkpt>
      <trkpt lat="45.49528" lon="6.74757">
        <ele>2505.48</ele>
        <time>2016-03-22T10:21:25Z</time>
      </trkpt>
      <trkpt lat="45.49514" lon="6.74774">
        <ele>2511.51</ele>
        <time>2016-03-22T10:21:34Z</time>
      </trkpt>
      <trkpt lat="45.49501" lon="6.74793">
        <ele>2517.09</ele>
        <time>2016-03-22T10:21:43Z</time>
      </trkpt>
      <trkpt lat="45.49487" lon="6.74811">
        <ele>2524.32</ele>
        <time>2016-03-22T10:21:53Z</time>
      </trkpt>
      <trkpt lat="45.49473" lon="6.74828">
        <ele>2530.33</ele>
        <time>2016-03-22T10:22:02Z</time>
      </trkpt>
      <trkpt lat="45.49461" lon="6.74848">
        <ele>2529.48</ele>
        <time>2016-03-22T10:22:12Z</time>
      </trkpt>
      <trkpt lat="45.49446" lon="6.74867">
        <ele>2536.47</ele>
        <time>2016-03-22T10:22:22Z</time>
      </trkpt>
      <trkpt lat="45.49433" lon="6.74884">
        <ele>2541.48</ele>
        <time>2016-03-22T10:22:31Z</time>
      </trkpt>
      <trkpt lat="45.49418" lon="6.74903">
        <ele>2548.32</ele>
        <time>2016-03-22T10:22:41Z</time>
      </trkpt>
      <trkpt lat="45.49403" lon="6.74918">
        <ele>2557.28</ele>
        <time>2016-03-22T10:22:50Z</time>
      </trkpt>
      <trkpt lat="45.49388" lon="6.74937">
        <ele>2565.33</ele>
        <time>2016-03-22T10:23:00Z</time>
      </trkpt>
      <trkpt lat="45.49376" lon="6.74956">
        <ele>2570.32</ele>
        <time>2016-03-22T10:23:08Z</time>
      </trkpt>
      <trkpt lat="45.49362" lon="6.74973">
        <ele>2573.33</ele>
        <time>2016-03-22T10:23:17Z</time>
      </trkpt>
      <trkpt lat="45.49342" lon="6.74975">
        <ele>2569.53</ele>
        <time>2016-03-22T10:24:09Z</time>
      </trkpt>
      <trkpt lat="45.49325" lon="6.74979">
        <ele>2565.61</ele>
        <time>2016-03-22T10:24:15Z</time>
      </trkpt>
      <trkpt lat="45.49304" lon="6.74976">
        <ele>2557.78</ele>
        <time>2016-03-22T10:24:28Z</time>
      </trkpt>
      <trkpt lat="45.49281" lon="6.74976">
        <ele>2557.54</ele>
        <time>2016-03-22T10:24:32Z</time>
      </trkpt>
      <trkpt lat="45.49261" lon="6.7497">
        <ele>2557.53</ele>
        <time>2016-03-22T10:24:35Z</time>
      </trkpt>
      <trkpt lat="45.49236" lon="6.74974">
        <ele>2557.5</ele>
        <time>2016-03-22T10:24:38Z</time>
      </trkpt>
      <trkpt lat="45.49213" lon="6.74974">
        <ele>2557.5</ele>
        <time>2016-03-22T10:24:41Z</time>
      </trkpt>
      <trkpt lat="45.49192" lon="6.74982">
        <ele>2556.15</ele>
        <time>2016-03-22T10:24:44Z</time>
      </trkpt>
      <trkpt lat="45.49174" lon="6.74988">
        <ele>2552.02</ele>
        <time>2016-03-22T10:24:47Z</time>
      </trkpt>
      <trkpt lat="45.49153" lon="6.74982">
        <ele>2548.03</ele>
        <time>2016-03-22T10:24:49Z</time>
      </trkpt>
      <trkpt lat="45.49133" lon="6.74966">
        <ele>2545.79</ele>
        <time>2016-03-22T10:24:51Z</time>
      </trkpt>
      <trkpt lat="45.49123" lon="6.7494">
        <ele>2543.78</ele>
        <time>2016-03-22T10:24:53Z</time>
      </trkpt>
      <trkpt lat="45.49115" lon="6.74915">
        <ele>2540.02</ele>
        <time>2016-03-22T10:24:55Z</time>
      </trkpt>
      <trkpt lat="45.49106" lon="6.74885">
        <ele>2536.78</ele>
        <time>2016-03-22T10:24:58Z</time>
      </trkpt>
      <trkpt lat="45.491" lon="6.74856">
        <ele>2530.2</ele>
        <time>2016-03-22T10:25:02Z</time>
      </trkpt>
      <trkpt lat="45.49092" lon="6.74885">
        <ele>2521.49</ele>
        <time>2016-03-22T10:27:29Z</time>
      </trkpt>
      <trkpt lat="45.49089" lon="6.74913">
        <ele>2525.52</ele>
        <time>2016-03-22T10:27:33Z</time>
      </trkpt>
      <trkpt lat="45.49087" lon="6.74943">
        <ele>2525.33</ele>
        <time>2016-03-22T10:27:38Z</time>
      </trkpt>
      <trkpt lat="45.49085" lon="6.74974">
        <ele>2522.57</ele>
        <time>2016-03-22T10:27:43Z</time>
      </trkpt>
      <trkpt lat="45.49083" lon="6.75003">
        <ele>2518.63</ele>
        <time>2016-03-22T10:27:48Z</time>
      </trkpt>
      <trkpt lat="45.49082" lon="6.75033">
        <ele>2516.73</ele>
        <time>2016-03-22T10:27:53Z</time>
      </trkpt>
      <trkpt lat="45.49079" lon="6.75063">
        <ele>2520.27</ele>
        <time>2016-03-22T10:27:59Z</time>
      </trkpt>
      <trkpt lat="45.49077" lon="6.75093">
        <ele>2523.29</ele>
        <time>2016-03-22T10:28:05Z</time>
      </trkpt>
      <trkpt lat="45.49079" lon="6.75122">
        <ele>2529.88</ele>
        <time>2016-03-22T10:28:11Z</time>
      </trkpt>
      <trkpt lat="45.49077" lon="6.75153">
        <ele>2537.28</ele>
        <time>2016-03-22T10:28:17Z</time>
      </trkpt>
      <trkpt lat="45.49077" lon="6.75182">
        <ele>2540.94</ele>
        <time>2016-03-22T10:28:23Z</time>
      </trkpt>
      <trkpt lat="45.49071" lon="6.75209">
        <ele>2540.54</ele>
        <time>2016-03-22T10:28:28Z</time>
      </trkpt>
      <trkpt lat="45.49071" lon="6.75239">
        <ele>2544.36</ele>
        <time>2016-03-22T10:28:34Z</time>
      </trkpt>
      <trkpt lat="45.49069" lon="6.75269">
        <ele>2546.33</ele>
        <time>2016-03-22T10:28:40Z</time>
      </trkpt>
      <trkpt lat="45.49066" lon="6.75297">
        <ele>2547.53</ele>
        <time>2016-03-22T10:28:45Z</time>
      </trkpt>
      <trkpt lat="45.49062" lon="6.75324">
        <ele>2550.49</ele>
        <time>2016-03-22T10:28:50Z</time>
      </trkpt>
      <trkpt lat="45.49061" lon="6.75354">
        <ele>2553.32</ele>
        <time>2016-03-22T10:28:56Z</time>
      </trkpt>
      <trkpt lat="45.49058" lon="6.75382">
        <ele>2557.32</ele>
        <time>2016-03-22T10:29:01Z</time>
      </trkpt>
      <trkpt lat="45.49058" lon="6.75411">
        <ele>2558.33</ele>
        <time>2016-03-22T10:29:06Z</time>
      </trkpt>
      <trkpt lat="45.49057" lon="6.75439">
        <ele>2562.32</ele>
        <time>2016-03-22T10:29:11Z</time>
      </trkpt>
      <trkpt lat="45.49055" lon="6.7547">
        <ele>2568.29</ele>
        <time>2016-03-22T10:29:17Z</time>
      </trkpt>
      <trkpt lat="45.49052" lon="6.75501">
        <ele>2572.33</ele>
        <time>2016-03-22T10:29:24Z</time>
      </trkpt>
      <trkpt lat="45.49059" lon="6.75531">
        <ele>2574.53</ele>
        <time>2016-03-22T10:29:32Z</time>
      </trkpt>
      <trkpt lat="45.49057" lon="6.7556">
        <ele>2576.5</ele>
        <time>2016-03-22T10:29:38Z</time>
      </trkpt>
      <trkpt lat="45.49056" lon="6.75589">
        <ele>2575.56</ele>
        <time>2016-03-22T10:29:43Z</time>
      </trkpt>
      <trkpt lat="45.49059" lon="6.75618">
        <ele>2579.32</ele>
        <time>2016-03-22T10:29:49Z</time>
      </trkpt>
      <trkpt lat="45.49056" lon="6.75649">
        <ele>2581.56</ele>
        <time>2016-03-22T10:29:54Z</time>
      </trkpt>
      <trkpt lat="45.49051" lon="6.75677">
        <ele>2582.69</ele>
        <time>2016-03-22T10:29:59Z</time>
      </trkpt>
      <trkpt lat="45.49054" lon="6.75703">
        <ele>2592.28</ele>
        <time>2016-03-22T10:30:05Z</time>
      </trkpt>
      <trkpt lat="45.49054" lon="6.75731">
        <ele>2598.84</ele>
        <time>2016-03-22T10:30:11Z</time>
      </trkpt>
      <trkpt lat="45.49054" lon="6.75759">
        <ele>2606.04</ele>
        <time>2016-03-22T10:30:17Z</time>
      </trkpt>
      <trkpt lat="45.49053" lon="6.75785">
        <ele>2610.12</ele>
        <time>2016-03-22T10:30:22Z</time>
      </trkpt>
      <trkpt lat="45.49051" lon="6.75813">
        <ele>2616.27</ele>
        <time>2016-03-22T10:30:28Z</time>
      </trkpt>
      <trkpt lat="45.49051" lon="6.7584">
        <ele>2618.52</ele>
        <time>2016-03-22T10:30:33Z</time>
      </trkpt>
      <trkpt lat="45.49049" lon="6.7587">
        <ele>2621.49</ele>
        <time>2016-03-22T10:30:39Z</time>
      </trkpt>
      <trkpt lat="45.49047" lon="6.75898">
        <ele>2623.55</ele>
        <time>2016-03-22T10:30:44Z</time>
      </trkpt>
      <trkpt lat="45.49047" lon="6.75928">
        <ele>2620.73</ele>
        <time>2016-03-22T10:30:50Z</time>
      </trkpt>
      <trkpt lat="45.49046" lon="6.75958">
        <ele>2620.5</ele>
        <time>2016-03-22T10:30:56Z</time>
      </trkpt>
      <trkpt lat="45.49046" lon="6.75987">
        <ele>2624.24</ele>
        <time>2016-03-22T10:31:02Z</time>
      </trkpt>
      <trkpt lat="45.49044" lon="6.76019">
        <ele>2625.55</ele>
        <time>2016-03-22T10:31:08Z</time>
      </trkpt>
      <trkpt lat="45.49041" lon="6.76046">
        <ele>2628.49</ele>
        <time>2016-03-22T10:31:13Z</time>
      </trkpt>
      <trkpt lat="45.49037" lon="6.7608">
        <ele>2632.22</ele>
        <time>2016-03-22T10:31:18Z</time>
      </trkpt>
      <trkpt lat="45.49034" lon="6.76109">
        <ele>2630.53</ele>
        <time>2016-03-22T10:31:22Z</time>
      </trkpt>
      <trkpt lat="45.49031" lon="6.76139">
        <ele>2628.57</ele>
        <time>2016-03-22T10:31:26Z</time>
      </trkpt>
      <trkpt lat="45.49028" lon="6.76168">
        <ele>2630.33</ele>
        <time>2016-03-22T10:31:30Z</time>
      </trkpt>
      <trkpt lat="45.49024" lon="6.76197">
        <ele>2637.28</ele>
        <time>2016-03-22T10:31:36Z</time>
      </trkpt>
      <trkpt lat="45.4902" lon="6.76226">
        <ele>2645.27</ele>
        <time>2016-03-22T10:31:42Z</time>
      </trkpt>
      <trkpt lat="45.49024" lon="6.76252">
        <ele>2649.32</ele>
        <time>2016-03-22T10:31:47Z</time>
      </trkpt>
      <trkpt lat="45.49023" lon="6.7628">
        <ele>2658.04</ele>
        <time>2016-03-22T10:31:53Z</time>
      </trkpt>
      <trkpt lat="45.49019" lon="6.76306">
        <ele>2670.03</ele>
        <time>2016-03-22T10:31:59Z</time>
      </trkpt>
      <trkpt lat="45.49017" lon="6.76336">
        <ele>2682.23</ele>
        <time>2016-03-22T10:32:06Z</time>
      </trkpt>
      <trkpt lat="45.49017" lon="6.76364">
        <ele>2691.24</ele>
        <time>2016-03-22T10:32:12Z</time>
      </trkpt>
      <trkpt lat="45.49016" lon="6.76394">
        <ele>2703.23</ele>
        <time>2016-03-22T10:32:19Z</time>
      </trkpt>
      <trkpt lat="45.49015" lon="6.76421">
        <ele>2713.04</ele>
        <time>2016-03-22T10:32:25Z</time>
      </trkpt>
      <trkpt lat="45.49015" lon="6.76449">
        <ele>2722.07</ele>
        <time>2016-03-22T10:32:31Z</time>
      </trkpt>
      <trkpt lat="45.49019" lon="6.76481">
        <ele>2726.09</ele>
        <time>2016-03-22T10:32:35Z</time>
      </trkpt>
      <trkpt lat="45.49016" lon="6.76508">
        <ele>2734.04</ele>
        <time>2016-03-22T10:32:41Z</time>
      </trkpt>
      <trkpt lat="45.49017" lon="6.76537">
        <ele>2741.27</ele>
        <time>2016-03-22T10:32:47Z</time>
      </trkpt>
      <trkpt lat="45.49017" lon="6.76569">
        <ele>2750.44</ele>
        <time>2016-03-22T10:32:53Z</time>
      </trkpt>
      <trkpt lat="45.49017" lon="6.76596">
        <ele>2757.21</ele>
        <time>2016-03-22T10:32:58Z</time>
      </trkpt>
      <trkpt lat="45.49015" lon="6.76624">
        <ele>2779.01</ele>
        <time>2016-03-22T10:33:06Z</time>
      </trkpt>
      <trkpt lat="45.49017" lon="6.76657">
        <ele>2785.44</ele>
        <time>2016-03-22T10:33:11Z</time>
      </trkpt>
      <trkpt lat="45.49018" lon="6.76683">
        <ele>2791.88</ele>
        <time>2016-03-22T10:33:15Z</time>
      </trkpt>
      <trkpt lat="45.4902" lon="6.76711">
        <ele>2800.19</ele>
        <time>2016-03-22T10:33:20Z</time>
      </trkpt>
      <trkpt lat="45.49021" lon="6.76736">
        <ele>2807.23</ele>
        <time>2016-03-22T10:33:24Z</time>
      </trkpt>
      <trkpt lat="45.49015" lon="6.76761">
        <ele>2861.76</ele>
        <time>2016-03-22T10:33:39Z</time>
      </trkpt>
      <trkpt lat="45.49014" lon="6.76787">
        <ele>2893.78</ele>
        <time>2016-03-22T10:33:49Z</time>
      </trkpt>
      <trkpt lat="45.49014" lon="6.76824">
        <ele>2910.4</ele>
        <time>2016-03-22T10:33:57Z</time>
      </trkpt>
      <trkpt lat="45.49017" lon="6.76852">
        <ele>2915.23</ele>
        <time>2016-03-22T10:34:01Z</time>
      </trkpt>
      <trkpt lat="45.49018" lon="6.76878">
        <ele>2922.31</ele>
        <time>2016-03-22T10:34:06Z</time>
      </trkpt>
      <trkpt lat="45.49013" lon="6.76905">
        <ele>2933.03</ele>
        <time>2016-03-22T10:34:13Z</time>
      </trkpt>
      <trkpt lat="45.49012" lon="6.76931">
        <ele>2941.47</ele>
        <time>2016-03-22T10:34:20Z</time>
      </trkpt>
      <trkpt lat="45.49013" lon="6.76957">
        <ele>2951.27</ele>
        <time>2016-03-22T10:34:26Z</time>
      </trkpt>
      <trkpt lat="45.49012" lon="6.76985">
        <ele>2958.28</ele>
        <time>2016-03-22T10:34:32Z</time>
      </trkpt>
      <trkpt lat="45.4901" lon="6.77013">
        <ele>2964.28</ele>
        <time>2016-03-22T10:34:38Z</time>
      </trkpt>
      <trkpt lat="45.49008" lon="6.7704">
        <ele>2971.08</ele>
        <time>2016-03-22T10:34:44Z</time>
      </trkpt>
      <trkpt lat="45.49007" lon="6.7707">
        <ele>2973.52</ele>
        <time>2016-03-22T10:34:49Z</time>
      </trkpt>
      <trkpt lat="45.49004" lon="6.77099">
        <ele>2977.29</ele>
        <time>2016-03-22T10:34:56Z</time>
      </trkpt>
      <trkpt lat="45.48987" lon="6.77112">
        <ele>2987.36</ele>
        <time>2016-03-22T10:36:05Z</time>
      </trkpt>
      <trkpt lat="45.4897" lon="6.77123">
        <ele>2994.92</ele>
        <time>2016-03-22T10:37:52Z</time>
      </trkpt>
      <trkpt lat="45.48953" lon="6.77113">
        <ele>2997.33</ele>
        <time>2016-03-22T10:38:04Z</time>
      </trkpt>
      <trkpt lat="45.48935" lon="6.77125">
        <ele>2991.73</ele>
        <time>2016-03-22T10:38:21Z</time>
      </trkpt>
      <trkpt lat="45.48918" lon="6.77137">
        <ele>2994.34</ele>
        <time>2016-03-22T10:38:32Z</time>
      </trkpt>
      <trkpt lat="45.48899" lon="6.77143">
        <ele>2993.54</ele>
        <time>2016-03-22T10:39:14Z</time>
      </trkpt>
      <trkpt lat="45.4888" lon="6.77139">
        <ele>2989.58</ele>
        <time>2016-03-22T10:39:24Z</time>
      </trkpt>
      <trkpt lat="45.48862" lon="6.7715">
        <ele>2989.53</ele>
        <time>2016-03-22T10:39:38Z</time>
      </trkpt>
      <trkpt lat="45.48837" lon="6.77159">
        <ele>2984.79</ele>
        <time>2016-03-22T10:39:43Z</time>
      </trkpt>
      <trkpt lat="45.48816" lon="6.77164">
        <ele>2986.32</ele>
        <time>2016-03-22T10:39:46Z</time>
      </trkpt>
      <trkpt lat="45.48797" lon="6.77159">
        <ele>2984.74</ele>
        <time>2016-03-22T10:39:49Z</time>
      </trkpt>
      <trkpt lat="45.48781" lon="6.77138">
        <ele>2981.59</ele>
        <time>2016-03-22T10:39:56Z</time>
      </trkpt>
      <trkpt lat="45.48797" lon="6.77126">
        <ele>2975.73</ele>
        <time>2016-03-22T10:40:03Z</time>
      </trkpt>
      <trkpt lat="45.48815" lon="6.77116">
        <ele>2975.72</ele>
        <time>2016-03-22T10:40:06Z</time>
      </trkpt>
      <trkpt lat="45.48832" lon="6.77101">
        <ele>2975.34</ele>
        <time>2016-03-22T10:40:10Z</time>
      </trkpt>
      <trkpt lat="45.48818" lon="6.77084">
        <ele>2969.82</ele>
        <time>2016-03-22T10:40:16Z</time>
      </trkpt>
      <trkpt lat="45.48813" lon="6.77057">
        <ele>2964.94</ele>
        <time>2016-03-22T10:40:23Z</time>
      </trkpt>
      <trkpt lat="45.48814" lon="6.77028">
        <ele>2954.78</ele>
        <time>2016-03-22T10:40:33Z</time>
      </trkpt>
      <trkpt lat="45.48819" lon="6.77003">
        <ele>2947.82</ele>
        <time>2016-03-22T10:40:42Z</time>
      </trkpt>
      <trkpt lat="45.48837" lon="6.76985">
        <ele>2942.59</ele>
        <time>2016-03-22T10:40:50Z</time>
      </trkpt>
      <trkpt lat="45.48854" lon="6.76975">
        <ele>2938.57</ele>
        <time>2016-03-22T10:40:55Z</time>
      </trkpt>
      <trkpt lat="45.4885" lon="6.76949">
        <ele>2923.57</ele>
        <time>2016-03-22T10:41:21Z</time>
      </trkpt>
      <trkpt lat="45.48862" lon="6.76929">
        <ele>2912.73</ele>
        <time>2016-03-22T10:41:38Z</time>
      </trkpt>
      <trkpt lat="45.48845" lon="6.76916">
        <ele>2911.94</ele>
        <time>2016-03-22T10:41:49Z</time>
      </trkpt>
      <trkpt lat="45.48862" lon="6.76905">
        <ele>2903.14</ele>
        <time>2016-03-22T10:42:02Z</time>
      </trkpt>
      <trkpt lat="45.48877" lon="6.7689">
        <ele>2902.52</ele>
        <time>2016-03-22T10:42:10Z</time>
      </trkpt>
      <trkpt lat="45.4887" lon="6.76865">
        <ele>2900.73</ele>
        <time>2016-03-22T10:42:29Z</time>
      </trkpt>
      <trkpt lat="45.48852" lon="6.76859">
        <ele>2895.37</ele>
        <time>2016-03-22T10:42:35Z</time>
      </trkpt>
      <trkpt lat="45.48828" lon="6.76841">
        <ele>2896.33</ele>
        <time>2016-03-22T10:42:43Z</time>
      </trkpt>
      <trkpt lat="45.48813" lon="6.76819">
        <ele>2902.51</ele>
        <time>2016-03-22T10:42:48Z</time>
      </trkpt>
      <trkpt lat="45.48828" lon="6.76836">
        <ele>2903.77</ele>
        <time>2016-03-22T10:43:03Z</time>
      </trkpt>
      <trkpt lat="45.48847" lon="6.76833">
        <ele>2892.82</ele>
        <time>2016-03-22T10:43:11Z</time>
      </trkpt>
      <trkpt lat="45.48835" lon="6.76813">
        <ele>2872.73</ele>
        <time>2016-03-22T10:44:08Z</time>
      </trkpt>
      <trkpt lat="45.48849" lon="6.76795">
        <ele>2857.98</ele>
        <time>2016-03-22T10:44:43Z</time>
      </trkpt>
      <trkpt lat="45.4885" lon="6.76769">
        <ele>2850.73</ele>
        <time>2016-03-22T10:44:50Z</time>
      </trkpt>
      <trkpt lat="45.48844" lon="6.76744">
        <ele>2845.58</ele>
        <time>2016-03-22T10:44:58Z</time>
      </trkpt>
      <trkpt lat="45.48854" lon="6.76721">
        <ele>2831.82</ele>
        <time>2016-03-22T10:45:24Z</time>
      </trkpt>
      <trkpt lat="45.48846" lon="6.76696">
        <ele>2821.59</ele>
        <time>2016-03-22T10:46:06Z</time>
      </trkpt>
      <trkpt lat="45.48845" lon="6.7667">
        <ele>2812.75</ele>
        <time>2016-03-22T10:46:21Z</time>
      </trkpt>
      <trkpt lat="45.48859" lon="6.76652">
        <ele>2809.6</ele>
        <time>2016-03-22T10:46:32Z</time>
      </trkpt>
      <trkpt lat="45.48867" lon="6.76626">
        <ele>2804.55</ele>
        <time>2016-03-22T10:46:45Z</time>
      </trkpt>
      <trkpt lat="45.48849" lon="6.76621">
        <ele>2800.78</ele>
        <time>2016-03-22T10:46:50Z</time>
      </trkpt>
      <trkpt lat="45.48853" lon="6.76592">
        <ele>2786.98</ele>
        <time>2016-03-22T10:47:01Z</time>
      </trkpt>
      <trkpt lat="45.48866" lon="6.76568">
        <ele>2784.16</ele>
        <time>2016-03-22T10:47:05Z</time>
      </trkpt>
      <trkpt lat="45.48878" lon="6.76548">
        <ele>2775.93</ele>
        <time>2016-03-22T10:47:32Z</time>
      </trkpt>
      <trkpt lat="45.48892" lon="6.76526">
        <ele>2773.1</ele>
        <time>2016-03-22T10:47:35Z</time>
      </trkpt>
      <trkpt lat="45.48908" lon="6.76506">
        <ele>2767.8</ele>
        <time>2016-03-22T10:47:38Z</time>
      </trkpt>
      <trkpt lat="45.48927" lon="6.76487">
        <ele>2765.74</ele>
        <time>2016-03-22T10:47:41Z</time>
      </trkpt>
      <trkpt lat="45.48951" lon="6.76466">
        <ele>2761.88</ele>
        <time>2016-03-22T10:47:44Z</time>
      </trkpt>
      <trkpt lat="45.48966" lon="6.76449">
        <ele>2759.79</ele>
        <time>2016-03-22T10:47:46Z</time>
      </trkpt>
      <trkpt lat="45.48987" lon="6.76423">
        <ele>2753.26</ele>
        <time>2016-03-22T10:47:49Z</time>
      </trkpt>
      <trkpt lat="45.49007" lon="6.76412">
        <ele>2749.84</ele>
        <time>2016-03-22T10:47:51Z</time>
      </trkpt>
      <trkpt lat="45.49022" lon="6.76392">
        <ele>2743.39</ele>
        <time>2016-03-22T10:47:54Z</time>
      </trkpt>
      <trkpt lat="45.49038" lon="6.76376">
        <ele>2737.29</ele>
        <time>2016-03-22T10:47:56Z</time>
      </trkpt>
      <trkpt lat="45.49057" lon="6.7635">
        <ele>2732.79</ele>
        <time>2016-03-22T10:47:59Z</time>
      </trkpt>
      <trkpt lat="45.49075" lon="6.76328">
        <ele>2730.74</ele>
        <time>2016-03-22T10:48:02Z</time>
      </trkpt>
      <trkpt lat="45.49093" lon="6.763">
        <ele>2729.7</ele>
        <time>2016-03-22T10:48:05Z</time>
      </trkpt>
      <trkpt lat="45.49113" lon="6.76282">
        <ele>2726.82</ele>
        <time>2016-03-22T10:48:07Z</time>
      </trkpt>
      <trkpt lat="45.49132" lon="6.76267">
        <ele>2723.98</ele>
        <time>2016-03-22T10:48:09Z</time>
      </trkpt>
      <trkpt lat="45.4915" lon="6.76243">
        <ele>2716.24</ele>
        <time>2016-03-22T10:48:12Z</time>
      </trkpt>
      <trkpt lat="45.49164" lon="6.7622">
        <ele>2713.64</ele>
        <time>2016-03-22T10:48:14Z</time>
      </trkpt>
      <trkpt lat="45.49181" lon="6.76184">
        <ele>2710.59</ele>
        <time>2016-03-22T10:48:17Z</time>
      </trkpt>
      <trkpt lat="45.49187" lon="6.76156">
        <ele>2707.65</ele>
        <time>2016-03-22T10:48:19Z</time>
      </trkpt>
      <trkpt lat="45.49197" lon="6.76134">
        <ele>2706.58</ele>
        <time>2016-03-22T10:48:21Z</time>
      </trkpt>
      <trkpt lat="45.4921" lon="6.76105">
        <ele>2704.93</ele>
        <time>2016-03-22T10:48:23Z</time>
      </trkpt>
      <trkpt lat="45.49217" lon="6.76076">
        <ele>2703.59</ele>
        <time>2016-03-22T10:48:25Z</time>
      </trkpt>
      <trkpt lat="45.49218" lon="6.76036">
        <ele>2700.97</ele>
        <time>2016-03-22T10:48:27Z</time>
      </trkpt>
      <trkpt lat="45.49221" lon="6.76011">
        <ele>2700.62</ele>
        <time>2016-03-22T10:48:28Z</time>
      </trkpt>
      <trkpt lat="45.49221" lon="6.75984">
        <ele>2698.95</ele>
        <time>2016-03-22T10:48:29Z</time>
      </trkpt>
      <trkpt lat="45.49222" lon="6.75937">
        <ele>2696.79</ele>
        <time>2016-03-22T10:48:31Z</time>
      </trkpt>
      <trkpt lat="45.49229" lon="6.75893">
        <ele>2693.02</ele>
        <time>2016-03-22T10:48:33Z</time>
      </trkpt>
      <trkpt lat="45.49218" lon="6.75867">
        <ele>2688.87</ele>
        <time>2016-03-22T10:48:35Z</time>
      </trkpt>
      <trkpt lat="45.49214" lon="6.75841">
        <ele>2685.02</ele>
        <time>2016-03-22T10:48:37Z</time>
      </trkpt>
      <trkpt lat="45.49211" lon="6.75808">
        <ele>2679.8</ele>
        <time>2016-03-22T10:48:40Z</time>
      </trkpt>
      <trkpt lat="45.49205" lon="6.75777">
        <ele>2671.02</ele>
        <time>2016-03-22T10:48:43Z</time>
      </trkpt>
      <trkpt lat="45.49204" lon="6.75748">
        <ele>2660.04</ele>
        <time>2016-03-22T10:48:46Z</time>
      </trkpt>
      <trkpt lat="45.49202" lon="6.75719">
        <ele>2656.99</ele>
        <time>2016-03-22T10:48:48Z</time>
      </trkpt>
      <trkpt lat="45.492" lon="6.75683">
        <ele>2653.78</ele>
        <time>2016-03-22T10:48:51Z</time>
      </trkpt>
      <trkpt lat="45.49198" lon="6.75646">
        <ele>2652.7</ele>
        <time>2016-03-22T10:48:54Z</time>
      </trkpt>
      <trkpt lat="45.49191" lon="6.7562">
        <ele>2633.18</ele>
        <time>2016-03-22T10:48:58Z</time>
      </trkpt>
      <trkpt lat="45.49183" lon="6.75592">
        <ele>2628.88</ele>
        <time>2016-03-22T10:49:00Z</time>
      </trkpt>
      <trkpt lat="45.4918" lon="6.75557">
        <ele>2622.46</ele>
        <time>2016-03-22T10:49:02Z</time>
      </trkpt>
      <trkpt lat="45.49174" lon="6.75516">
        <ele>2619.97</ele>
        <time>2016-03-22T10:49:04Z</time>
      </trkpt>
      <trkpt lat="45.49166" lon="6.75472">
        <ele>2617.63</ele>
        <time>2016-03-22T10:49:06Z</time>
      </trkpt>
      <trkpt lat="45.49157" lon="6.75429">
        <ele>2614.81</ele>
        <time>2016-03-22T10:49:08Z</time>
      </trkpt>
      <trkpt lat="45.49146" lon="6.75393">
        <ele>2612.78</ele>
        <time>2016-03-22T10:49:10Z</time>
      </trkpt>
      <trkpt lat="45.49144" lon="6.75362">
        <ele>2600.85</ele>
        <time>2016-03-22T10:49:13Z</time>
      </trkpt>
      <trkpt lat="45.49144" lon="6.75328">
        <ele>2598.78</ele>
        <time>2016-03-22T10:49:15Z</time>
      </trkpt>
      <trkpt lat="45.49143" lon="6.75295">
        <ele>2596.62</ele>
        <time>2016-03-22T10:49:17Z</time>
      </trkpt>
      <trkpt lat="45.49153" lon="6.75265">
        <ele>2585.46</ele>
        <time>2016-03-22T10:49:20Z</time>
      </trkpt>
      <trkpt lat="45.49157" lon="6.7524">
        <ele>2584.41</ele>
        <time>2016-03-22T10:49:22Z</time>
      </trkpt>
      <trkpt lat="45.49165" lon="6.75212">
        <ele>2583.73</ele>
        <time>2016-03-22T10:49:24Z</time>
      </trkpt>
      <trkpt lat="45.49171" lon="6.75183">
        <ele>2580.82</ele>
        <time>2016-03-22T10:49:26Z</time>
      </trkpt>
      <trkpt lat="45.49182" lon="6.75148">
        <ele>2577.98</ele>
        <time>2016-03-22T10:49:28Z</time>
      </trkpt>
      <trkpt lat="45.49195" lon="6.75103">
        <ele>2574.83</ele>
        <time>2016-03-22T10:49:30Z</time>
      </trkpt>
      <trkpt lat="45.49207" lon="6.75065">
        <ele>2571.98</ele>
        <time>2016-03-22T10:49:32Z</time>
      </trkpt>
      <trkpt lat="45.49193" lon="6.75026">
        <ele>2568.99</ele>
        <time>2016-03-22T10:49:34Z</time>
      </trkpt>
      <trkpt lat="45.49179" lon="6.74985">
        <ele>2565.99</ele>
        <time>2016-03-22T10:49:36Z</time>
      </trkpt>
      <trkpt lat="45.49163" lon="6.74968">
        <ele>2565.62</ele>
        <time>2016-03-22T10:49:37Z</time>
      </trkpt>
      <trkpt lat="45.49137" lon="6.74972">
        <ele>2554.35</ele>
        <time>2016-03-22T10:49:38Z</time>
      </trkpt>
      <trkpt lat="45.49126" lon="6.74943">
        <ele>2549.08</ele>
        <time>2016-03-22T10:49:40Z</time>
      </trkpt>
      <trkpt lat="45.49123" lon="6.74908">
        <ele>2544.79</ele>
        <time>2016-03-22T10:49:43Z</time>
      </trkpt>
      <trkpt lat="45.49109" lon="6.74888">
        <ele>2533.8</ele>
        <time>2016-03-22T10:49:47Z</time>
      </trkpt>
      <trkpt lat="45.49092" lon="6.749">
        <ele>2522.34</ele>
        <time>2016-03-22T10:49:57Z</time>
      </trkpt>
      <trkpt lat="45.4908" lon="6.7488">
        <ele>2515.33</ele>
        <time>2016-03-22T10:50:34Z</time>
      </trkpt>
      <trkpt lat="45.49084" lon="6.74855">
        <ele>2514.53</ele>
        <time>2016-03-22T10:51:17Z</time>
      </trkpt>
      <trkpt lat="45.4909" lon="6.74826">
        <ele>2510.37</ele>
        <time>2016-03-22T10:53:16Z</time>
      </trkpt>
      <trkpt lat="45.49096" lon="6.74801">
        <ele>2509.89</ele>
        <time>2016-03-22T10:53:20Z</time>
      </trkpt>
      <trkpt lat="45.49103" lon="6.74775">
        <ele>2511.53</ele>
        <time>2016-03-22T10:53:25Z</time>
      </trkpt>
      <trkpt lat="45.49109" lon="6.74747">
        <ele>2512.49</ele>
        <time>2016-03-22T10:53:30Z</time>
      </trkpt>
      <trkpt lat="45.49115" lon="6.74721">
        <ele>2513.49</ele>
        <time>2016-03-22T10:53:35Z</time>
      </trkpt>
      <trkpt lat="45.49121" lon="6.74695">
        <ele>2513.56</ele>
        <time>2016-03-22T10:53:40Z</time>
      </trkpt>
      <trkpt lat="45.49126" lon="6.74668">
        <ele>2512.57</ele>
        <time>2016-03-22T10:53:45Z</time>
      </trkpt>
      <trkpt lat="45.49132" lon="6.74644">
        <ele>2512.49</ele>
        <time>2016-03-22T10:53:50Z</time>
      </trkpt>
      <trkpt lat="45.49137" lon="6.74616">
        <ele>2514.49</ele>
        <time>2016-03-22T10:53:55Z</time>
      </trkpt>
      <trkpt lat="45.49141" lon="6.74591">
        <ele>2516.32</ele>
        <time>2016-03-22T10:54:00Z</time>
      </trkpt>
      <trkpt lat="45.49145" lon="6.74565">
        <ele>2517.52</ele>
        <time>2016-03-22T10:54:05Z</time>
      </trkpt>
      <trkpt lat="45.49151" lon="6.74536">
        <ele>2520.32</ele>
        <time>2016-03-22T10:54:11Z</time>
      </trkpt>
      <trkpt lat="45.49157" lon="6.74511">
        <ele>2521.49</ele>
        <time>2016-03-22T10:54:16Z</time>
      </trkpt>
      <trkpt lat="45.49162" lon="6.74482">
        <ele>2522.33</ele>
        <time>2016-03-22T10:54:22Z</time>
      </trkpt>
      <trkpt lat="45.49167" lon="6.74455">
        <ele>2523.33</ele>
        <time>2016-03-22T10:54:27Z</time>
      </trkpt>
      <trkpt lat="45.49173" lon="6.74427">
        <ele>2523.53</ele>
        <time>2016-03-22T10:54:33Z</time>
      </trkpt>
      <trkpt lat="45.49179" lon="6.744">
        <ele>2521.74</ele>
        <time>2016-03-22T10:54:39Z</time>
      </trkpt>
      <trkpt lat="45.49183" lon="6.7437">
        <ele>2517.58</ele>
        <time>2016-03-22T10:54:45Z</time>
      </trkpt>
      <trkpt lat="45.49188" lon="6.74346">
        <ele>2514.81</ele>
        <time>2016-03-22T10:54:50Z</time>
      </trkpt>
      <trkpt lat="45.49194" lon="6.74317">
        <ele>2513.74</ele>
        <time>2016-03-22T10:54:56Z</time>
      </trkpt>
      <trkpt lat="45.492" lon="6.74288">
        <ele>2512.57</ele>
        <time>2016-03-22T10:55:02Z</time>
      </trkpt>
      <trkpt lat="45.49205" lon="6.74258">
        <ele>2511.54</ele>
        <time>2016-03-22T10:55:08Z</time>
      </trkpt>
      <trkpt lat="45.49209" lon="6.74232">
        <ele>2511.56</ele>
        <time>2016-03-22T10:55:13Z</time>
      </trkpt>
      <trkpt lat="45.49213" lon="6.74206">
        <ele>2510.52</ele>
        <time>2016-03-22T10:55:18Z</time>
      </trkpt>
      <trkpt lat="45.49219" lon="6.7418">
        <ele>2513.48</ele>
        <time>2016-03-22T10:55:23Z</time>
      </trkpt>
      <trkpt lat="45.49226" lon="6.74156">
        <ele>2513.53</ele>
        <time>2016-03-22T10:55:28Z</time>
      </trkpt>
      <trkpt lat="45.49232" lon="6.7413">
        <ele>2514.5</ele>
        <time>2016-03-22T10:55:33Z</time>
      </trkpt>
      <trkpt lat="45.49236" lon="6.74103">
        <ele>2518.09</ele>
        <time>2016-03-22T10:55:39Z</time>
      </trkpt>
      <trkpt lat="45.4924" lon="6.74075">
        <ele>2525.97</ele>
        <time>2016-03-22T10:55:45Z</time>
      </trkpt>
      <trkpt lat="45.49245" lon="6.74048">
        <ele>2533.67</ele>
        <time>2016-03-22T10:55:51Z</time>
      </trkpt>
      <trkpt lat="45.49251" lon="6.74019">
        <ele>2543.23</ele>
        <time>2016-03-22T10:55:57Z</time>
      </trkpt>
      <trkpt lat="45.49258" lon="6.73993">
        <ele>2556.19</ele>
        <time>2016-03-22T10:56:03Z</time>
      </trkpt>
      <trkpt lat="45.49263" lon="6.73967">
        <ele>2570.03</ele>
        <time>2016-03-22T10:56:09Z</time>
      </trkpt>
      <trkpt lat="45.49269" lon="6.73942">
        <ele>2583.82</ele>
        <time>2016-03-22T10:56:15Z</time>
      </trkpt>
      <trkpt lat="45.49275" lon="6.73914">
        <ele>2599.79</ele>
        <time>2016-03-22T10:56:22Z</time>
      </trkpt>
      <trkpt lat="45.49282" lon="6.73888">
        <ele>2618.94</ele>
        <time>2016-03-22T10:56:29Z</time>
      </trkpt>
      <trkpt lat="45.49287" lon="6.7386">
        <ele>2635.03</ele>
        <time>2016-03-22T10:56:36Z</time>
      </trkpt>
      <trkpt lat="45.49293" lon="6.73833">
        <ele>2645.23</ele>
        <time>2016-03-22T10:56:42Z</time>
      </trkpt>
      <trkpt lat="45.49299" lon="6.73808">
        <ele>2657.03</ele>
        <time>2016-03-22T10:56:48Z</time>
      </trkpt>
      <trkpt lat="45.49305" lon="6.73783">
        <ele>2669.03</ele>
        <time>2016-03-22T10:56:54Z</time>
      </trkpt>
      <trkpt lat="45.49309" lon="6.73756">
        <ele>2680.03</ele>
        <time>2016-03-22T10:57:00Z</time>
      </trkpt>
      <trkpt lat="45.49315" lon="6.73732">
        <ele>2692.86</ele>
        <time>2016-03-22T10:57:06Z</time>
      </trkpt>
      <trkpt lat="45.49321" lon="6.73707">
        <ele>2705.07</ele>
        <time>2016-03-22T10:57:12Z</time>
      </trkpt>
      <trkpt lat="45.49325" lon="6.73681">
        <ele>2716.2</ele>
        <time>2016-03-22T10:57:18Z</time>
      </trkpt>
      <trkpt lat="45.49331" lon="6.73653">
        <ele>2719.52</ele>
        <time>2016-03-22T10:57:24Z</time>
      </trkpt>
      <trkpt lat="45.49335" lon="6.73628">
        <ele>2717.58</ele>
        <time>2016-03-22T10:57:29Z</time>
      </trkpt>
      <trkpt lat="45.49342" lon="6.736">
        <ele>2712.73</ele>
        <time>2016-03-22T10:57:35Z</time>
      </trkpt>
      <trkpt lat="45.49349" lon="6.73572">
        <ele>2712.53</ele>
        <time>2016-03-22T10:58:26Z</time>
      </trkpt>
      <trkpt lat="45.49345" lon="6.73547">
        <ele>2715.29</ele>
        <time>2016-03-22T10:58:40Z</time>
      </trkpt>
      <trkpt lat="45.49351" lon="6.73519">
        <ele>2713.61</ele>
        <time>2016-03-22T10:59:12Z</time>
      </trkpt>
      <trkpt lat="45.49368" lon="6.7351">
        <ele>2712.73</ele>
        <time>2016-03-22T10:59:18Z</time>
      </trkpt>
      <trkpt lat="45.4938" lon="6.73531">
        <ele>2716.34</ele>
        <time>2016-03-22T10:59:37Z</time>
      </trkpt>
      <trkpt lat="45.49381" lon="6.7356">
        <ele>2721.52</ele>
        <time>2016-03-22T11:00:00Z</time>
      </trkpt>
      <trkpt lat="45.4939" lon="6.73583">
        <ele>2722.33</ele>
        <time>2016-03-22T11:00:50Z</time>
      </trkpt>
      <trkpt lat="45.49391" lon="6.7358">
        <ele>2717.45</ele>
        <time>2016-03-22T11:41:56Z</time>
      </trkpt>
      <trkpt lat="45.49393" lon="6.73553">
        <ele>2723.52</ele>
        <time>2016-03-22T11:42:52Z</time>
      </trkpt>
      <trkpt lat="45.49395" lon="6.73526">
        <ele>2722.58</ele>
        <time>2016-03-22T11:43:02Z</time>
      </trkpt>
      <trkpt lat="45.49407" lon="6.73507">
        <ele>2724.49</ele>
        <time>2016-03-22T11:43:14Z</time>
      </trkpt>
      <trkpt lat="45.49424" lon="6.73495">
        <ele>2722.57</ele>
        <time>2016-03-22T11:43:22Z</time>
      </trkpt>
      <trkpt lat="45.49442" lon="6.73486">
        <ele>2720.54</ele>
        <time>2016-03-22T11:43:37Z</time>
      </trkpt>
      <trkpt lat="45.49454" lon="6.73467">
        <ele>2720.89</ele>
        <time>2016-03-22T11:43:43Z</time>
      </trkpt>
      <trkpt lat="45.49465" lon="6.73442">
        <ele>2714.75</ele>
        <time>2016-03-22T11:43:48Z</time>
      </trkpt>
      <trkpt lat="45.49479" lon="6.73416">
        <ele>2711.58</ele>
        <time>2016-03-22T11:43:52Z</time>
      </trkpt>
      <trkpt lat="45.49493" lon="6.734">
        <ele>2709.77</ele>
        <time>2016-03-22T11:43:55Z</time>
      </trkpt>
      <trkpt lat="45.49513" lon="6.7339">
        <ele>2706.75</ele>
        <time>2016-03-22T11:43:58Z</time>
      </trkpt>
      <trkpt lat="45.49532" lon="6.73382">
        <ele>2702.98</ele>
        <time>2016-03-22T11:44:01Z</time>
      </trkpt>
      <trkpt lat="45.49554" lon="6.73383">
        <ele>2698.82</ele>
        <time>2016-03-22T11:44:04Z</time>
      </trkpt>
      <trkpt lat="45.49575" lon="6.73384">
        <ele>2695.78</ele>
        <time>2016-03-22T11:44:07Z</time>
      </trkpt>
      <trkpt lat="45.49596" lon="6.73381">
        <ele>2693.74</ele>
        <time>2016-03-22T11:44:10Z</time>
      </trkpt>
      <trkpt lat="45.49617" lon="6.73369">
        <ele>2689.79</ele>
        <time>2016-03-22T11:44:13Z</time>
      </trkpt>
      <trkpt lat="45.49638" lon="6.73359">
        <ele>2686.78</ele>
        <time>2016-03-22T11:44:16Z</time>
      </trkpt>
      <trkpt lat="45.4966" lon="6.73339">
        <ele>2683.78</ele>
        <time>2016-03-22T11:44:19Z</time>
      </trkpt>
      <trkpt lat="45.49671" lon="6.73318">
        <ele>2678.9</ele>
        <time>2016-03-22T11:44:21Z</time>
      </trkpt>
      <trkpt lat="45.49687" lon="6.73297">
        <ele>2676.79</ele>
        <time>2016-03-22T11:44:23Z</time>
      </trkpt>
      <trkpt lat="45.49695" lon="6.73265">
        <ele>2672.05</ele>
        <time>2016-03-22T11:44:26Z</time>
      </trkpt>
      <trkpt lat="45.49695" lon="6.73237">
        <ele>2666.59</ele>
        <time>2016-03-22T11:44:28Z</time>
      </trkpt>
      <trkpt lat="45.49705" lon="6.73212">
        <ele>2663.97</ele>
        <time>2016-03-22T11:44:30Z</time>
      </trkpt>
      <trkpt lat="45.49702" lon="6.73175">
        <ele>2658.86</ele>
        <time>2016-03-22T11:44:33Z</time>
      </trkpt>
      <trkpt lat="45.49704" lon="6.73146">
        <ele>2653.8</ele>
        <time>2016-03-22T11:44:36Z</time>
      </trkpt>
      <trkpt lat="45.49706" lon="6.7312">
        <ele>2650.62</ele>
        <time>2016-03-22T11:44:39Z</time>
      </trkpt>
      <trkpt lat="45.49709" lon="6.73094">
        <ele>2645.99</ele>
        <time>2016-03-22T11:44:42Z</time>
      </trkpt>
      <trkpt lat="45.49725" lon="6.7308">
        <ele>2642.54</ele>
        <time>2016-03-22T11:44:49Z</time>
      </trkpt>
      <trkpt lat="45.49739" lon="6.73061">
        <ele>2635.62</ele>
        <time>2016-03-22T11:44:55Z</time>
      </trkpt>
      <trkpt lat="45.49757" lon="6.7306">
        <ele>2630.86</ele>
        <time>2016-03-22T11:44:59Z</time>
      </trkpt>
      <trkpt lat="45.49776" lon="6.73044">
        <ele>2622.06</ele>
        <time>2016-03-22T11:45:04Z</time>
      </trkpt>
      <trkpt lat="45.49777" lon="6.73018">
        <ele>2616.06</ele>
        <time>2016-03-22T11:45:07Z</time>
      </trkpt>
      <trkpt lat="45.49795" lon="6.73008">
        <ele>2610.85</ele>
        <time>2016-03-22T11:45:12Z</time>
      </trkpt>
      <trkpt lat="45.49817" lon="6.72988">
        <ele>2598.86</ele>
        <time>2016-03-22T11:45:17Z</time>
      </trkpt>
      <trkpt lat="45.49838" lon="6.72984">
        <ele>2592.87</ele>
        <time>2016-03-22T11:45:20Z</time>
      </trkpt>
      <trkpt lat="45.49857" lon="6.72971">
        <ele>2586.81</ele>
        <time>2016-03-22T11:45:23Z</time>
      </trkpt>
      <trkpt lat="45.49874" lon="6.7296">
        <ele>2584.78</ele>
        <time>2016-03-22T11:45:25Z</time>
      </trkpt>
      <trkpt lat="45.49899" lon="6.72947">
        <ele>2580.82</ele>
        <time>2016-03-22T11:45:28Z</time>
      </trkpt>
      <trkpt lat="45.49917" lon="6.72937">
        <ele>2572.38</ele>
        <time>2016-03-22T11:45:30Z</time>
      </trkpt>
      <trkpt lat="45.49936" lon="6.72932">
        <ele>2569.65</ele>
        <time>2016-03-22T11:45:32Z</time>
      </trkpt>
      <trkpt lat="45.49954" lon="6.72916">
        <ele>2567.74</ele>
        <time>2016-03-22T11:45:35Z</time>
      </trkpt>
      <trkpt lat="45.49958" lon="6.72885">
        <ele>2526.93</ele>
        <time>2016-03-22T11:46:27Z</time>
      </trkpt>
      <trkpt lat="45.49971" lon="6.72862">
        <ele>2523.63</ele>
        <time>2016-03-22T11:46:31Z</time>
      </trkpt>
      <trkpt lat="45.49985" lon="6.72844">
        <ele>2521.13</ele>
        <time>2016-03-22T11:46:33Z</time>
      </trkpt>
      <trkpt lat="45.50005" lon="6.72826">
        <ele>2514.55</ele>
        <time>2016-03-22T11:46:36Z</time>
      </trkpt>
      <trkpt lat="45.50023" lon="6.72807">
        <ele>2509.89</ele>
        <time>2016-03-22T11:46:38Z</time>
      </trkpt>
      <trkpt lat="45.50049" lon="6.72801">
        <ele>2506.83</ele>
        <time>2016-03-22T11:46:40Z</time>
      </trkpt>
      <trkpt lat="45.50073" lon="6.72801">
        <ele>2502.06</ele>
        <time>2016-03-22T11:46:42Z</time>
      </trkpt>
      <trkpt lat="45.50098" lon="6.72799">
        <ele>2500.59</ele>
        <time>2016-03-22T11:46:44Z</time>
      </trkpt>
      <trkpt lat="45.50123" lon="6.72795">
        <ele>2496.85</ele>
        <time>2016-03-22T11:46:46Z</time>
      </trkpt>
      <trkpt lat="45.50144" lon="6.72793">
        <ele>2493.34</ele>
        <time>2016-03-22T11:46:48Z</time>
      </trkpt>
      <trkpt lat="45.50164" lon="6.72792">
        <ele>2490.8</ele>
        <time>2016-03-22T11:46:50Z</time>
      </trkpt>
      <trkpt lat="45.50186" lon="6.72793">
        <ele>2488.77</ele>
        <time>2016-03-22T11:46:53Z</time>
      </trkpt>
      <trkpt lat="45.50206" lon="6.72771">
        <ele>2481.75</ele>
        <time>2016-03-22T11:46:57Z</time>
      </trkpt>
      <trkpt lat="45.50227" lon="6.72758">
        <ele>2476.8</ele>
        <time>2016-03-22T11:47:00Z</time>
      </trkpt>
      <trkpt lat="45.50248" lon="6.72756">
        <ele>2474.78</ele>
        <time>2016-03-22T11:47:02Z</time>
      </trkpt>
      <trkpt lat="45.50269" lon="6.72753">
        <ele>2470.22</ele>
        <time>2016-03-22T11:47:04Z</time>
      </trkpt>
      <trkpt lat="45.50291" lon="6.72752">
        <ele>2466.04</ele>
        <time>2016-03-22T11:47:06Z</time>
      </trkpt>
      <trkpt lat="45.50313" lon="6.72744">
        <ele>2462.83</ele>
        <time>2016-03-22T11:47:08Z</time>
      </trkpt>
      <trkpt lat="45.50325" lon="6.72719">
        <ele>2459.18</ele>
        <time>2016-03-22T11:47:10Z</time>
      </trkpt>
      <trkpt lat="45.50342" lon="6.72706">
        <ele>2457.6</ele>
        <time>2016-03-22T11:47:12Z</time>
      </trkpt>
      <trkpt lat="45.50358" lon="6.72695">
        <ele>2452.41</ele>
        <time>2016-03-22T11:47:14Z</time>
      </trkpt>
      <trkpt lat="45.50379" lon="6.72667">
        <ele>2444.88</ele>
        <time>2016-03-22T11:47:17Z</time>
      </trkpt>
      <trkpt lat="45.5039" lon="6.72641">
        <ele>2443.75</ele>
        <time>2016-03-22T11:47:19Z</time>
      </trkpt>
      <trkpt lat="45.50411" lon="6.72634">
        <ele>2436.43</ele>
        <time>2016-03-22T11:47:22Z</time>
      </trkpt>
      <trkpt lat="45.50437" lon="6.72624">
        <ele>2431.06</ele>
        <time>2016-03-22T11:47:25Z</time>
      </trkpt>
      <trkpt lat="45.50455" lon="6.72631">
        <ele>2425.43</ele>
        <time>2016-03-22T11:47:27Z</time>
      </trkpt>
      <trkpt lat="45.50473" lon="6.72627">
        <ele>2420.73</ele>
        <time>2016-03-22T11:47:29Z</time>
      </trkpt>
      <trkpt lat="45.50484" lon="6.72606">
        <ele>2411.32</ele>
        <time>2016-03-22T11:47:32Z</time>
      </trkpt>
      <trkpt lat="45.50503" lon="6.72599">
        <ele>2404.04</ele>
        <time>2016-03-22T11:47:35Z</time>
      </trkpt>
      <trkpt lat="45.5053" lon="6.72592">
        <ele>2397.84</ele>
        <time>2016-03-22T11:47:38Z</time>
      </trkpt>
      <trkpt lat="45.50548" lon="6.72584">
        <ele>2384.07</ele>
        <time>2016-03-22T11:47:42Z</time>
      </trkpt>
      <trkpt lat="45.50572" lon="6.72571">
        <ele>2372.63</ele>
        <time>2016-03-22T11:47:46Z</time>
      </trkpt>
      <trkpt lat="45.50588" lon="6.72548">
        <ele>2362.32</ele>
        <time>2016-03-22T11:47:49Z</time>
      </trkpt>
      <trkpt lat="45.50606" lon="6.7254">
        <ele>2358.04</ele>
        <time>2016-03-22T11:47:51Z</time>
      </trkpt>
      <trkpt lat="45.50628" lon="6.72534">
        <ele>2353.07</ele>
        <time>2016-03-22T11:47:53Z</time>
      </trkpt>
      <trkpt lat="45.50646" lon="6.72532">
        <ele>2348.07</ele>
        <time>2016-03-22T11:47:55Z</time>
      </trkpt>
      <trkpt lat="45.5067" lon="6.72535">
        <ele>2342.91</ele>
        <time>2016-03-22T11:47:57Z</time>
      </trkpt>
      <trkpt lat="45.50689" lon="6.7254">
        <ele>2336.31</ele>
        <time>2016-03-22T11:47:59Z</time>
      </trkpt>
      <trkpt lat="45.50713" lon="6.72545">
        <ele>2331.24</ele>
        <time>2016-03-22T11:48:01Z</time>
      </trkpt>
      <trkpt lat="45.50738" lon="6.72554">
        <ele>2325.28</ele>
        <time>2016-03-22T11:48:03Z</time>
      </trkpt>
      <trkpt lat="45.50767" lon="6.72549">
        <ele>2319.06</ele>
        <time>2016-03-22T11:48:06Z</time>
      </trkpt>
      <trkpt lat="45.50793" lon="6.72555">
        <ele>2317.75</ele>
        <time>2016-03-22T11:48:08Z</time>
      </trkpt>
      <trkpt lat="45.50814" lon="6.72551">
        <ele>2314.82</ele>
        <time>2016-03-22T11:48:10Z</time>
      </trkpt>
      <trkpt lat="45.50842" lon="6.72549">
        <ele>2309.7</ele>
        <time>2016-03-22T11:48:13Z</time>
      </trkpt>
      <trkpt lat="45.50861" lon="6.72549">
        <ele>2307.78</ele>
        <time>2016-03-22T11:48:15Z</time>
      </trkpt>
      <trkpt lat="45.5088" lon="6.72543">
        <ele>2303.53</ele>
        <time>2016-03-22T11:48:18Z</time>
      </trkpt>
      <trkpt lat="45.50902" lon="6.72533">
        <ele>2287.65</ele>
        <time>2016-03-22T11:48:22Z</time>
      </trkpt>
      <trkpt lat="45.50921" lon="6.7252">
        <ele>2278.22</ele>
        <time>2016-03-22T11:48:25Z</time>
      </trkpt>
      <trkpt lat="45.50943" lon="6.72518">
        <ele>2272.86</ele>
        <time>2016-03-22T11:48:28Z</time>
      </trkpt>
      <trkpt lat="45.50963" lon="6.72501">
        <ele>2270.55</ele>
        <time>2016-03-22T11:48:31Z</time>
      </trkpt>
      <trkpt lat="45.50989" lon="6.72499">
        <ele>2262.85</ele>
        <time>2016-03-22T11:48:34Z</time>
      </trkpt>
      <trkpt lat="45.5101" lon="6.72493">
        <ele>2256.46</ele>
        <time>2016-03-22T11:48:36Z</time>
      </trkpt>
      <trkpt lat="45.51035" lon="6.7248">
        <ele>2245.17</ele>
        <time>2016-03-22T11:48:39Z</time>
      </trkpt>
      <trkpt lat="45.51056" lon="6.72482">
        <ele>2228.79</ele>
        <time>2016-03-22T11:48:44Z</time>
      </trkpt>
      <trkpt lat="45.51076" lon="6.72478">
        <ele>2223.78</ele>
        <time>2016-03-22T11:48:48Z</time>
      </trkpt>
      <trkpt lat="45.51077" lon="6.72506">
        <ele>2212.73</ele>
        <time>2016-03-22T11:49:18Z</time>
      </trkpt>
      <trkpt lat="45.51094" lon="6.72532">
        <ele>2202.04</ele>
        <time>2016-03-22T11:49:23Z</time>
      </trkpt>
      <trkpt lat="45.51109" lon="6.72555">
        <ele>2195.23</ele>
        <time>2016-03-22T11:49:26Z</time>
      </trkpt>
      <trkpt lat="45.51127" lon="6.7257">
        <ele>2191.78</ele>
        <time>2016-03-22T11:49:29Z</time>
      </trkpt>
      <trkpt lat="45.51141" lon="6.72595">
        <ele>2188.78</ele>
        <time>2016-03-22T11:49:33Z</time>
      </trkpt>
      <trkpt lat="45.51159" lon="6.72611">
        <ele>2182.86</ele>
        <time>2016-03-22T11:49:37Z</time>
      </trkpt>
      <trkpt lat="45.51173" lon="6.72633">
        <ele>2176.82</ele>
        <time>2016-03-22T11:49:41Z</time>
      </trkpt>
      <trkpt lat="45.51183" lon="6.72662">
        <ele>2172.6</ele>
        <time>2016-03-22T11:49:44Z</time>
      </trkpt>
      <trkpt lat="45.51194" lon="6.72691">
        <ele>2169.97</ele>
        <time>2016-03-22T11:49:47Z</time>
      </trkpt>
      <trkpt lat="45.51198" lon="6.72718">
        <ele>2163.23</ele>
        <time>2016-03-22T11:49:50Z</time>
      </trkpt>
      <trkpt lat="45.51199" lon="6.72746">
        <ele>2159.78</ele>
        <time>2016-03-22T11:49:53Z</time>
      </trkpt>
      <trkpt lat="45.51197" lon="6.72778">
        <ele>2154.06</ele>
        <time>2016-03-22T11:49:56Z</time>
      </trkpt>
      <trkpt lat="45.51209" lon="6.72807">
        <ele>2147.23</ele>
        <time>2016-03-22T11:49:59Z</time>
      </trkpt>
      <trkpt lat="45.51224" lon="6.72822">
        <ele>2144</ele>
        <time>2016-03-22T11:50:01Z</time>
      </trkpt>
      <trkpt lat="45.51234" lon="6.72845">
        <ele>2136.24</ele>
        <time>2016-03-22T11:50:04Z</time>
      </trkpt>
      <trkpt lat="45.51253" lon="6.72857">
        <ele>2129.14</ele>
        <time>2016-03-22T11:50:07Z</time>
      </trkpt>
      <trkpt lat="45.5127" lon="6.72872">
        <ele>2122.23</ele>
        <time>2016-03-22T11:50:10Z</time>
      </trkpt>
      <trkpt lat="45.51286" lon="6.72889">
        <ele>2119</ele>
        <time>2016-03-22T11:50:12Z</time>
      </trkpt>
      <trkpt lat="45.51309" lon="6.7288">
        <ele>2113.86</ele>
        <time>2016-03-22T11:50:15Z</time>
      </trkpt>
      <trkpt lat="45.51333" lon="6.72883">
        <ele>2111.41</ele>
        <time>2016-03-22T11:50:19Z</time>
      </trkpt>
      <trkpt lat="45.51355" lon="6.72884">
        <ele>2107.95</ele>
        <time>2016-03-22T11:50:22Z</time>
      </trkpt>
      <trkpt lat="45.51374" lon="6.72891">
        <ele>2104.03</ele>
        <time>2016-03-22T11:50:24Z</time>
      </trkpt>
      <trkpt lat="45.5139" lon="6.72905">
        <ele>2101.15</ele>
        <time>2016-03-22T11:50:26Z</time>
      </trkpt>
      <trkpt lat="45.51404" lon="6.72921">
        <ele>2096.4</ele>
        <time>2016-03-22T11:50:28Z</time>
      </trkpt>
      <trkpt lat="45.51423" lon="6.72938">
        <ele>2093.81</ele>
        <time>2016-03-22T11:50:30Z</time>
      </trkpt>
      <trkpt lat="45.5144" lon="6.72952">
        <ele>2092.74</ele>
        <time>2016-03-22T11:50:32Z</time>
      </trkpt>
      <trkpt lat="45.51459" lon="6.72972">
        <ele>2087.03</ele>
        <time>2016-03-22T11:50:35Z</time>
      </trkpt>
      <trkpt lat="45.51473" lon="6.72994">
        <ele>2084.01</ele>
        <time>2016-03-22T11:50:38Z</time>
      </trkpt>
      <trkpt lat="45.51485" lon="6.73014">
        <ele>2082.54</ele>
        <time>2016-03-22T11:50:41Z</time>
      </trkpt>
      <trkpt lat="45.515" lon="6.73038">
        <ele>2081.53</ele>
        <time>2016-03-22T11:50:45Z</time>
      </trkpt>
      <trkpt lat="45.51518" lon="6.73049">
        <ele>2080.73</ele>
        <time>2016-03-22T11:50:49Z</time>
      </trkpt>
      <trkpt lat="45.51537" lon="6.7306">
        <ele>2080.37</ele>
        <time>2016-03-22T11:50:53Z</time>
      </trkpt>
      <trkpt lat="45.51557" lon="6.73066">
        <ele>2077.74</ele>
        <time>2016-03-22T11:50:57Z</time>
      </trkpt>
      <trkpt lat="45.51575" lon="6.73074">
        <ele>2076.57</ele>
        <time>2016-03-22T11:51:00Z</time>
      </trkpt>
      <trkpt lat="45.51595" lon="6.73092">
        <ele>2069.03</ele>
        <time>2016-03-22T11:51:04Z</time>
      </trkpt>
      <trkpt lat="45.51593" lon="6.73117">
        <ele>2061.53</ele>
        <time>2016-03-22T11:51:42Z</time>
      </trkpt>
      <trkpt lat="45.5159" lon="6.73145">
        <ele>2047.5</ele>
        <time>2016-03-22T11:52:17Z</time>
      </trkpt>
      <trkpt lat="45.51573" lon="6.73162">
        <ele>2043.96</ele>
        <time>2016-03-22T11:52:24Z</time>
      </trkpt>
      <trkpt lat="45.51555" lon="6.73173">
        <ele>2034.77</ele>
        <time>2016-03-22T11:52:34Z</time>
      </trkpt>
      <trkpt lat="45.51538" lon="6.73185">
        <ele>2032.53</ele>
        <time>2016-03-22T11:52:43Z</time>
      </trkpt>
      <trkpt lat="45.51524" lon="6.73201">
        <ele>2024.63</ele>
        <time>2016-03-22T11:52:49Z</time>
      </trkpt>
      <trkpt lat="45.51518" lon="6.73227">
        <ele>2015.65</ele>
        <time>2016-03-22T11:52:58Z</time>
      </trkpt>
      <trkpt lat="45.51504" lon="6.73248">
        <ele>2008.36</ele>
        <time>2016-03-22T11:53:08Z</time>
      </trkpt>
      <trkpt lat="45.51507" lon="6.73278">
        <ele>1997.73</ele>
        <time>2016-03-22T11:53:29Z</time>
      </trkpt>
      <trkpt lat="45.51528" lon="6.7329">
        <ele>1993.58</ele>
        <time>2016-03-22T11:53:34Z</time>
      </trkpt>
      <trkpt lat="45.51516" lon="6.7332">
        <ele>1977.55</ele>
        <time>2016-03-22T11:53:42Z</time>
      </trkpt>
      <trkpt lat="45.51517" lon="6.73346">
        <ele>1968.76</ele>
        <time>2016-03-22T11:53:48Z</time>
      </trkpt>
      <trkpt lat="45.51514" lon="6.73374">
        <ele>1963.75</ele>
        <time>2016-03-22T11:53:54Z</time>
      </trkpt>
      <trkpt lat="45.51532" lon="6.73379">
        <ele>1946.86</ele>
        <time>2016-03-22T11:54:02Z</time>
      </trkpt>
      <trkpt lat="45.51537" lon="6.73405">
        <ele>1934.77</ele>
        <time>2016-03-22T11:54:14Z</time>
      </trkpt>
      <trkpt lat="45.51541" lon="6.73432">
        <ele>1925.18</ele>
        <time>2016-03-22T11:54:21Z</time>
      </trkpt>
      <trkpt lat="45.51552" lon="6.73454">
        <ele>1915.78</ele>
        <time>2016-03-22T11:54:29Z</time>
      </trkpt>
      <trkpt lat="45.51564" lon="6.7348">
        <ele>1910.63</ele>
        <time>2016-03-22T11:54:33Z</time>
      </trkpt>
      <trkpt lat="45.51578" lon="6.73497">
        <ele>1903.07</ele>
        <time>2016-03-22T11:54:38Z</time>
      </trkpt>
      <trkpt lat="45.5158" lon="6.73531">
        <ele>1890.99</ele>
        <time>2016-03-22T11:54:44Z</time>
      </trkpt>
      <trkpt lat="45.51572" lon="6.73555">
        <ele>1884.68</ele>
        <time>2016-03-22T11:54:55Z</time>
      </trkpt>
      <trkpt lat="45.51583" lon="6.73575">
        <ele>1871.55</ele>
        <time>2016-03-22T11:55:24Z</time>
      </trkpt>
      <trkpt lat="45.51598" lon="6.73612">
        <ele>1866.97</ele>
        <time>2016-03-22T11:55:28Z</time>
      </trkpt>
      <trkpt lat="45.51635" lon="6.73648">
        <ele>1865.75</ele>
        <time>2016-03-22T11:55:30Z</time>
      </trkpt>
      <trkpt lat="45.51656" lon="6.73656">
        <ele>1865.57</ele>
        <time>2016-03-22T11:55:31Z</time>
      </trkpt>
      <trkpt lat="45.51673" lon="6.73668">
        <ele>1863.94</ele>
        <time>2016-03-22T11:55:32Z</time>
      </trkpt>
      <trkpt lat="45.51698" lon="6.73681">
        <ele>1860.83</ele>
        <time>2016-03-22T11:55:34Z</time>
      </trkpt>
      <trkpt lat="45.5172" lon="6.73692">
        <ele>1857.82</ele>
        <time>2016-03-22T11:55:36Z</time>
      </trkpt>
      <trkpt lat="45.51738" lon="6.73706">
        <ele>1854.98</ele>
        <time>2016-03-22T11:55:38Z</time>
      </trkpt>
      <trkpt lat="45.51756" lon="6.73714">
        <ele>1851.03</ele>
        <time>2016-03-22T11:55:40Z</time>
      </trkpt>
      <trkpt lat="45.51779" lon="6.73721">
        <ele>1848.58</ele>
        <time>2016-03-22T11:55:43Z</time>
      </trkpt>
      <trkpt lat="45.518" lon="6.73727">
        <ele>1848.56</ele>
        <time>2016-03-22T11:55:46Z</time>
      </trkpt>
      <trkpt lat="45.51823" lon="6.73732">
        <ele>1852.29</ele>
        <time>2016-03-22T11:55:50Z</time>
      </trkpt>
      <trkpt lat="45.51837" lon="6.73713">
        <ele>1829.44</ele>
        <time>2016-03-22T11:56:01Z</time>
      </trkpt>
      <trkpt lat="45.51858" lon="6.73708">
        <ele>1830.53</ele>
        <time>2016-03-22T11:56:06Z</time>
      </trkpt>
      <trkpt lat="45.51879" lon="6.73712">
        <ele>1826.52</ele>
        <time>2016-03-22T11:56:12Z</time>
      </trkpt>
      <trkpt lat="45.51898" lon="6.73718">
        <ele>1828.32</ele>
        <time>2016-03-22T11:56:17Z</time>
      </trkpt>
      <trkpt lat="45.51921" lon="6.73722">
        <ele>1830.32</ele>
        <time>2016-03-22T11:56:21Z</time>
      </trkpt>
      <trkpt lat="45.5194" lon="6.73722">
        <ele>1833.31</ele>
        <time>2016-03-22T11:56:24Z</time>
      </trkpt>
      <trkpt lat="45.51963" lon="6.7373">
        <ele>1833.56</ele>
        <time>2016-03-22T11:56:28Z</time>
      </trkpt>
      <trkpt lat="45.51988" lon="6.73739">
        <ele>1835.13</ele>
        <time>2016-03-22T11:56:31Z</time>
      </trkpt>
      <trkpt lat="45.52009" lon="6.73738">
        <ele>1836.49</ele>
        <time>2016-03-22T11:56:34Z</time>
      </trkpt>
      <trkpt lat="45.52031" lon="6.73737">
        <ele>1820.5</ele>
        <time>2016-03-22T11:56:38Z</time>
      </trkpt>
      <trkpt lat="45.5205" lon="6.73724">
        <ele>1819.54</ele>
        <time>2016-03-22T11:56:41Z</time>
      </trkpt>
      <trkpt lat="45.52064" lon="6.73704">
        <ele>1818.57</ele>
        <time>2016-03-22T11:56:44Z</time>
      </trkpt>
      <trkpt lat="45.52089" lon="6.73694">
        <ele>1818.72</ele>
        <time>2016-03-22T11:56:47Z</time>
      </trkpt>
      <trkpt lat="45.52114" lon="6.73699">
        <ele>1816.77</ele>
        <time>2016-03-22T11:56:50Z</time>
      </trkpt>
      <trkpt lat="45.52128" lon="6.73724">
        <ele>1812.72</ele>
        <time>2016-03-22T11:56:53Z</time>
      </trkpt>
      <trkpt lat="45.52144" lon="6.73755">
        <ele>1809.75</ele>
        <time>2016-03-22T11:56:56Z</time>
      </trkpt>
      <trkpt lat="45.52153" lon="6.73779">
        <ele>1804.58</ele>
        <time>2016-03-22T11:56:58Z</time>
      </trkpt>
      <trkpt lat="45.52165" lon="6.738">
        <ele>1800.21</ele>
        <time>2016-03-22T11:57:00Z</time>
      </trkpt>
      <trkpt lat="45.52187" lon="6.73816">
        <ele>1797.58</ele>
        <time>2016-03-22T11:57:03Z</time>
      </trkpt>
      <trkpt lat="45.5221" lon="6.7383">
        <ele>1797.18</ele>
        <time>2016-03-22T11:57:06Z</time>
      </trkpt>
      <trkpt lat="45.52223" lon="6.73847">
        <ele>1787.74</ele>
        <time>2016-03-22T11:57:17Z</time>
      </trkpt>
      <trkpt lat="45.52235" lon="6.73867">
        <ele>1773.77</ele>
        <time>2016-03-22T11:58:00Z</time>
      </trkpt>
      <trkpt lat="45.52257" lon="6.73865">
        <ele>1775.32</ele>
        <time>2016-03-22T11:58:19Z</time>
      </trkpt>
      <trkpt lat="45.52274" lon="6.73875">
        <ele>1776.33</ele>
        <time>2016-03-22T11:58:23Z</time>
      </trkpt>
      <trkpt lat="45.52293" lon="6.73895">
        <ele>1776.53</ele>
        <time>2016-03-22T11:58:26Z</time>
      </trkpt>
      <trkpt lat="45.5231" lon="6.7392">
        <ele>1768.63</ele>
        <time>2016-03-22T11:58:30Z</time>
      </trkpt>
      <trkpt lat="45.52326" lon="6.73936">
        <ele>1769.49</ele>
        <time>2016-03-22T11:58:32Z</time>
      </trkpt>
      <trkpt lat="45.5234" lon="6.7396">
        <ele>1764.47</ele>
        <time>2016-03-22T11:58:35Z</time>
      </trkpt>
      <trkpt lat="45.52362" lon="6.73974">
        <ele>1765.3</ele>
        <time>2016-03-22T11:58:38Z</time>
      </trkpt>
      <trkpt lat="45.5238" lon="6.73981">
        <ele>1764.72</ele>
        <time>2016-03-22T11:58:40Z</time>
      </trkpt>
      <trkpt lat="45.524" lon="6.73984">
        <ele>1765.5</ele>
        <time>2016-03-22T11:58:42Z</time>
      </trkpt>
      <trkpt lat="45.52422" lon="6.73982">
        <ele>1766.33</ele>
        <time>2016-03-22T11:58:45Z</time>
      </trkpt>
      <trkpt lat="45.52444" lon="6.73982">
        <ele>1766.72</ele>
        <time>2016-03-22T11:58:48Z</time>
      </trkpt>
      <trkpt lat="45.52464" lon="6.73987">
        <ele>1767.33</ele>
        <time>2016-03-22T11:58:51Z</time>
      </trkpt>
      <trkpt lat="45.52485" lon="6.7399">
        <ele>1768.33</ele>
        <time>2016-03-22T11:58:54Z</time>
      </trkpt>
      <trkpt lat="45.52515" lon="6.73987">
        <ele>1774.45</ele>
        <time>2016-03-22T11:58:57Z</time>
      </trkpt>
      <trkpt lat="45.52534" lon="6.73981">
        <ele>1774.31</ele>
        <time>2016-03-22T11:59:00Z</time>
      </trkpt>
      <trkpt lat="45.52555" lon="6.73975">
        <ele>1770.58</ele>
        <time>2016-03-22T11:59:04Z</time>
      </trkpt>
      <trkpt lat="45.52579" lon="6.73976">
        <ele>1773.28</ele>
        <time>2016-03-22T11:59:07Z</time>
      </trkpt>
      <trkpt lat="45.52604" lon="6.73974">
        <ele>1773.31</ele>
        <time>2016-03-22T11:59:10Z</time>
      </trkpt>
      <trkpt lat="45.52625" lon="6.73971">
        <ele>1767.8</ele>
        <time>2016-03-22T11:59:16Z</time>
      </trkpt>
      <trkpt lat="45.52641" lon="6.73984">
        <ele>1763.98</ele>
        <time>2016-03-22T11:59:22Z</time>
      </trkpt>
      <trkpt lat="45.52659" lon="6.73994">
        <ele>1760.97</ele>
        <time>2016-03-22T11:59:25Z</time>
      </trkpt>
      <trkpt lat="45.5268" lon="6.73999">
        <ele>1757.94</ele>
        <time>2016-03-22T11:59:29Z</time>
      </trkpt>
      <trkpt lat="45.52702" lon="6.74015">
        <ele>1756.54</ele>
        <time>2016-03-22T11:59:32Z</time>
      </trkpt>
      <trkpt lat="45.52722" lon="6.74035">
        <ele>1755.73</ele>
        <time>2016-03-22T11:59:35Z</time>
      </trkpt>
      <trkpt lat="45.52742" lon="6.74061">
        <ele>1751.6</ele>
        <time>2016-03-22T11:59:39Z</time>
      </trkpt>
      <trkpt lat="45.52759" lon="6.74086">
        <ele>1751.5</ele>
        <time>2016-03-22T11:59:42Z</time>
      </trkpt>
      <trkpt lat="45.52777" lon="6.74091">
        <ele>1752.91</ele>
        <time>2016-03-22T11:59:45Z</time>
      </trkpt>
      <trkpt lat="45.528" lon="6.74108">
        <ele>1750.49</ele>
        <time>2016-03-22T11:59:49Z</time>
      </trkpt>
      <trkpt lat="45.52821" lon="6.74105">
        <ele>1750.72</ele>
        <time>2016-03-22T11:59:52Z</time>
      </trkpt>
      <trkpt lat="45.52838" lon="6.74116">
        <ele>1750.53</ele>
        <time>2016-03-22T11:59:55Z</time>
      </trkpt>
      <trkpt lat="45.5286" lon="6.74121">
        <ele>1747.56</ele>
        <time>2016-03-22T12:00:00Z</time>
      </trkpt>
      <trkpt lat="45.5288" lon="6.74138">
        <ele>1747.33</ele>
        <time>2016-03-22T12:00:04Z</time>
      </trkpt>
      <trkpt lat="45.52897" lon="6.74154">
        <ele>1750.41</ele>
        <time>2016-03-22T12:00:07Z</time>
      </trkpt>
      <trkpt lat="45.52917" lon="6.74167">
        <ele>1753.44</ele>
        <time>2016-03-22T12:00:10Z</time>
      </trkpt>
      <trkpt lat="45.52936" lon="6.74174">
        <ele>1754.3</ele>
        <time>2016-03-22T12:00:13Z</time>
      </trkpt>
      <trkpt lat="45.52949" lon="6.74194">
        <ele>1754.53</ele>
        <time>2016-03-22T12:00:16Z</time>
      </trkpt>
      <trkpt lat="45.52971" lon="6.74204">
        <ele>1724.16</ele>
        <time>2016-03-22T12:00:24Z</time>
      </trkpt>
      <trkpt lat="45.52989" lon="6.74219">
        <ele>1716.82</ele>
        <time>2016-03-22T12:00:29Z</time>
      </trkpt>
      <trkpt lat="45.53005" lon="6.74235">
        <ele>1706.4</ele>
        <time>2016-03-22T12:00:35Z</time>
      </trkpt>
      <trkpt lat="45.53016" lon="6.74257">
        <ele>1701.74</ele>
        <time>2016-03-22T12:00:41Z</time>
      </trkpt>
      <trkpt lat="45.53032" lon="6.74268">
        <ele>1696.73</ele>
        <time>2016-03-22T12:00:48Z</time>
      </trkpt>
      <trkpt lat="45.53048" lon="6.74281">
        <ele>1695.53</ele>
        <time>2016-03-22T12:00:56Z</time>
      </trkpt>
      <trkpt lat="45.53071" lon="6.74287">
        <ele>1698.25</ele>
        <time>2016-03-22T12:01:00Z</time>
      </trkpt>
      <trkpt lat="45.5309" lon="6.74294">
        <ele>1701.31</ele>
        <time>2016-03-22T12:01:06Z</time>
      </trkpt>
      <trkpt lat="45.53108" lon="6.74301">
        <ele>1701.76</ele>
        <time>2016-03-22T12:01:12Z</time>
      </trkpt>
      <trkpt lat="45.53124" lon="6.74318">
        <ele>1695.58</ele>
        <time>2016-03-22T12:01:20Z</time>
      </trkpt>
      <trkpt lat="45.53138" lon="6.74333">
        <ele>1691.53</ele>
        <time>2016-03-22T12:01:27Z</time>
      </trkpt>
      <trkpt lat="45.53155" lon="6.74346">
        <ele>1692.52</ele>
        <time>2016-03-22T12:01:32Z</time>
      </trkpt>
      <trkpt lat="45.53166" lon="6.74367">
        <ele>1697.43</ele>
        <time>2016-03-22T12:01:37Z</time>
      </trkpt>
      <trkpt lat="45.53181" lon="6.74381">
        <ele>1701.11</ele>
        <time>2016-03-22T12:01:43Z</time>
      </trkpt>
      <trkpt lat="45.53198" lon="6.74397">
        <ele>1698.77</ele>
        <time>2016-03-22T12:01:52Z</time>
      </trkpt>
      <trkpt lat="45.53208" lon="6.74419">
        <ele>1697.53</ele>
        <time>2016-03-22T12:02:00Z</time>
      </trkpt>
      <trkpt lat="45.53223" lon="6.74435">
        <ele>1693.75</ele>
        <time>2016-03-22T12:02:08Z</time>
      </trkpt>
      <trkpt lat="45.53242" lon="6.74443">
        <ele>1692.37</ele>
        <time>2016-03-22T12:02:15Z</time>
      </trkpt>
      <trkpt lat="45.53261" lon="6.74451">
        <ele>1690.57</ele>
        <time>2016-03-22T12:02:22Z</time>
      </trkpt>
      <trkpt lat="45.5328" lon="6.74456">
        <ele>1696.42</ele>
        <time>2016-03-22T12:02:28Z</time>
      </trkpt>
      <trkpt lat="45.53298" lon="6.7446">
        <ele>1699.53</ele>
        <time>2016-03-22T12:02:33Z</time>
      </trkpt>
      <trkpt lat="45.53316" lon="6.74467">
        <ele>1703.08</ele>
        <time>2016-03-22T12:02:39Z</time>
      </trkpt>
      <trkpt lat="45.53336" lon="6.74474">
        <ele>1705.16</ele>
        <time>2016-03-22T12:02:46Z</time>
      </trkpt>
      <trkpt lat="45.53355" lon="6.74478">
        <ele>1706.01</ele>
        <time>2016-03-22T12:02:53Z</time>
      </trkpt>
      <trkpt lat="45.53374" lon="6.74484">
        <ele>1704.77</ele>
        <time>2016-03-22T12:03:01Z</time>
      </trkpt>
      <trkpt lat="45.53392" lon="6.74487">
        <ele>1699.82</ele>
        <time>2016-03-22T12:03:10Z</time>
      </trkpt>
      <trkpt lat="45.53412" lon="6.74491">
        <ele>1691.7</ele>
        <time>2016-03-22T12:03:21Z</time>
      </trkpt>
      <trkpt lat="45.5343" lon="6.74493">
        <ele>1690.37</ele>
        <time>2016-03-22T12:03:27Z</time>
      </trkpt>
      <trkpt lat="45.53448" lon="6.74504">
        <ele>1687.57</ele>
        <time>2016-03-22T12:03:37Z</time>
      </trkpt>
      <trkpt lat="45.53467" lon="6.74508">
        <ele>1688.52</ele>
        <time>2016-03-22T12:03:44Z</time>
      </trkpt>
      <trkpt lat="45.53481" lon="6.74528">
        <ele>1693.36</ele>
        <time>2016-03-22T12:03:50Z</time>
      </trkpt>
      <trkpt lat="45.53494" lon="6.74547">
        <ele>1690.53</ele>
        <time>2016-03-22T12:03:59Z</time>
      </trkpt>
      <trkpt lat="45.53514" lon="6.74555">
        <ele>1692.2</ele>
        <time>2016-03-22T12:04:07Z</time>
      </trkpt>
      <trkpt lat="45.53534" lon="6.74554">
        <ele>1692.57</ele>
        <time>2016-03-22T12:04:20Z</time>
      </trkpt>
      <trkpt lat="45.53552" lon="6.74553">
        <ele>1695.73</ele>
        <time>2016-03-22T12:04:30Z</time>
      </trkpt>
      <trkpt lat="45.53571" lon="6.74547">
        <ele>1697.3</ele>
        <time>2016-03-22T12:04:38Z</time>
      </trkpt>
      <trkpt lat="45.53589" lon="6.74556">
        <ele>1693.55</ele>
        <time>2016-03-22T12:04:46Z</time>
      </trkpt>
      <trkpt lat="45.53608" lon="6.74564">
        <ele>1692.77</ele>
        <time>2016-03-22T12:04:53Z</time>
      </trkpt>
      <trkpt lat="45.53626" lon="6.74576">
        <ele>1689.53</ele>
        <time>2016-03-22T12:05:00Z</time>
      </trkpt>
      <trkpt lat="45.53643" lon="6.7459">
        <ele>1690.58</ele>
        <time>2016-03-22T12:05:08Z</time>
      </trkpt>
      <trkpt lat="45.53661" lon="6.746">
        <ele>1688.53</ele>
        <time>2016-03-22T12:05:17Z</time>
      </trkpt>
      <trkpt lat="45.53678" lon="6.74606">
        <ele>1684.52</ele>
        <time>2016-03-22T12:05:26Z</time>
      </trkpt>
      <trkpt lat="45.53696" lon="6.74601">
        <ele>1687.29</ele>
        <time>2016-03-22T12:05:32Z</time>
      </trkpt>
      <trkpt lat="45.53715" lon="6.74611">
        <ele>1690.29</ele>
        <time>2016-03-22T12:05:39Z</time>
      </trkpt>
      <trkpt lat="45.53733" lon="6.74619">
        <ele>1688.57</ele>
        <time>2016-03-22T12:05:46Z</time>
      </trkpt>
      <trkpt lat="45.53752" lon="6.74621">
        <ele>1685.74</ele>
        <time>2016-03-22T12:05:53Z</time>
      </trkpt>
      <trkpt lat="45.53769" lon="6.74639">
        <ele>1685.34</ele>
        <time>2016-03-22T12:06:01Z</time>
      </trkpt>
      <trkpt lat="45.53784" lon="6.74657">
        <ele>1681.95</ele>
        <time>2016-03-22T12:06:11Z</time>
      </trkpt>
      <trkpt lat="45.53803" lon="6.74654">
        <ele>1675.55</ele>
        <time>2016-03-22T12:06:24Z</time>
      </trkpt>
      <trkpt lat="45.53819" lon="6.74638">
        <ele>1674.74</ele>
        <time>2016-03-22T12:06:35Z</time>
      </trkpt>
      <trkpt lat="45.53838" lon="6.74632">
        <ele>1672.57</ele>
        <time>2016-03-22T12:06:40Z</time>
      </trkpt>
      <trkpt lat="45.5386" lon="6.74638">
        <ele>1675.45</ele>
        <time>2016-03-22T12:06:44Z</time>
      </trkpt>
      <trkpt lat="45.53879" lon="6.74636">
        <ele>1672.81</ele>
        <time>2016-03-22T12:06:50Z</time>
      </trkpt>
      <trkpt lat="45.53896" lon="6.74624">
        <ele>1672.72</ele>
        <time>2016-03-22T12:06:57Z</time>
      </trkpt>
      <trkpt lat="45.53916" lon="6.7462">
        <ele>1673.56</ele>
        <time>2016-03-22T12:07:02Z</time>
      </trkpt>
      <trkpt lat="45.53935" lon="6.74608">
        <ele>1673.41</ele>
        <time>2016-03-22T12:07:10Z</time>
      </trkpt>
      <trkpt lat="45.53953" lon="6.74606">
        <ele>1672.54</ele>
        <time>2016-03-22T12:07:14Z</time>
      </trkpt>
      <trkpt lat="45.53973" lon="6.74611">
        <ele>1672.57</ele>
        <time>2016-03-22T12:07:18Z</time>
      </trkpt>
      <trkpt lat="45.5399" lon="6.74626">
        <ele>1673.37</ele>
        <time>2016-03-22T12:07:24Z</time>
      </trkpt>
      <trkpt lat="45.54007" lon="6.7464">
        <ele>1677.33</ele>
        <time>2016-03-22T12:07:31Z</time>
      </trkpt>
      <trkpt lat="45.54024" lon="6.74651">
        <ele>1676.73</ele>
        <time>2016-03-22T12:07:38Z</time>
      </trkpt>
      <trkpt lat="45.5404" lon="6.74663">
        <ele>1676.52</ele>
        <time>2016-03-22T12:07:45Z</time>
      </trkpt>
      <trkpt lat="45.54058" lon="6.74671">
        <ele>1671.75</ele>
        <time>2016-03-22T12:08:27Z</time>
      </trkpt>
      <trkpt lat="45.54078" lon="6.74651">
        <ele>1678.13</ele>
        <time>2016-03-22T12:09:11Z</time>
      </trkpt>
      <trkpt lat="45.5406" lon="6.74659">
        <ele>1679.48</ele>
        <time>2016-03-22T12:09:51Z</time>
      </trkpt>
      <trkpt lat="45.54075" lon="6.74644">
        <ele>1666.81</ele>
        <time>2016-03-22T12:13:19Z</time>
      </trkpt>
      <trkpt lat="45.5409" lon="6.74626">
        <ele>1666.34</ele>
        <time>2016-03-22T12:13:23Z</time>
      </trkpt>
      <trkpt lat="45.54108" lon="6.74613">
        <ele>1662.77</ele>
        <time>2016-03-22T12:13:29Z</time>
      </trkpt>
      <trkpt lat="45.54129" lon="6.74597">
        <ele>1660.53</ele>
        <time>2016-03-22T12:13:35Z</time>
      </trkpt>
      <trkpt lat="45.54153" lon="6.74588">
        <ele>1663.28</ele>
        <time>2016-03-22T12:13:38Z</time>
      </trkpt>
      <trkpt lat="45.54172" lon="6.74575">
        <ele>1662.76</ele>
        <time>2016-03-22T12:13:41Z</time>
      </trkpt>
      <trkpt lat="45.54188" lon="6.74555">
        <ele>1661.66</ele>
        <time>2016-03-22T12:13:45Z</time>
      </trkpt>
      <trkpt lat="45.54202" lon="6.74535">
        <ele>1664.32</ele>
        <time>2016-03-22T12:13:49Z</time>
      </trkpt>
      <trkpt lat="45.54223" lon="6.7452">
        <ele>1667.44</ele>
        <time>2016-03-22T12:13:52Z</time>
      </trkpt>
      <trkpt lat="45.54243" lon="6.74507">
        <ele>1669.35</ele>
        <time>2016-03-22T12:13:55Z</time>
      </trkpt>
      <trkpt lat="45.54263" lon="6.74494">
        <ele>1670.75</ele>
        <time>2016-03-22T12:13:58Z</time>
      </trkpt>
      <trkpt lat="45.54287" lon="6.74484">
        <ele>1670.69</ele>
        <time>2016-03-22T12:14:01Z</time>
      </trkpt>
      <trkpt lat="45.54309" lon="6.74473">
        <ele>1667.98</ele>
        <time>2016-03-22T12:14:05Z</time>
      </trkpt>
      <trkpt lat="45.54333" lon="6.74467">
        <ele>1667.37</ele>
        <time>2016-03-22T12:14:08Z</time>
      </trkpt>
      <trkpt lat="45.54355" lon="6.74458">
        <ele>1660.99</ele>
        <time>2016-03-22T12:14:12Z</time>
      </trkpt>
      <trkpt lat="45.5437" lon="6.7444">
        <ele>1659.61</ele>
        <time>2016-03-22T12:14:16Z</time>
      </trkpt>
      <trkpt lat="45.54385" lon="6.74422">
        <ele>1658.54</ele>
        <time>2016-03-22T12:14:20Z</time>
      </trkpt>
      <trkpt lat="45.54397" lon="6.74399">
        <ele>1660.32</ele>
        <time>2016-03-22T12:14:25Z</time>
      </trkpt>
      <trkpt lat="45.54407" lon="6.74374">
        <ele>1661.33</ele>
        <time>2016-03-22T12:14:29Z</time>
      </trkpt>
      <trkpt lat="45.54415" lon="6.74347">
        <ele>1661.54</ele>
        <time>2016-03-22T12:14:33Z</time>
      </trkpt>
      <trkpt lat="45.5443" lon="6.74331">
        <ele>1659.59</ele>
        <time>2016-03-22T12:14:38Z</time>
      </trkpt>
      <trkpt lat="45.54443" lon="6.74307">
        <ele>1651.92</ele>
        <time>2016-03-22T12:14:42Z</time>
      </trkpt>
      <trkpt lat="45.54457" lon="6.74283">
        <ele>1652.49</ele>
        <time>2016-03-22T12:14:45Z</time>
      </trkpt>
      <trkpt lat="45.54468" lon="6.74252">
        <ele>1654.32</ele>
        <time>2016-03-22T12:14:49Z</time>
      </trkpt>
      <trkpt lat="45.54474" lon="6.74223">
        <ele>1650.79</ele>
        <time>2016-03-22T12:14:52Z</time>
      </trkpt>
      <trkpt lat="45.54499" lon="6.74206">
        <ele>1650.72</ele>
        <time>2016-03-22T12:14:56Z</time>
      </trkpt>
      <trkpt lat="45.54519" lon="6.742">
        <ele>1648.94</ele>
        <time>2016-03-22T12:14:58Z</time>
      </trkpt>
      <trkpt lat="45.54541" lon="6.74189">
        <ele>1644.47</ele>
        <time>2016-03-22T12:15:01Z</time>
      </trkpt>
      <trkpt lat="45.54564" lon="6.74175">
        <ele>1642.77</ele>
        <time>2016-03-22T12:15:04Z</time>
      </trkpt>
      <trkpt lat="45.54582" lon="6.74163">
        <ele>1642.54</ele>
        <time>2016-03-22T12:15:06Z</time>
      </trkpt>
      <trkpt lat="45.54598" lon="6.74146">
        <ele>1642.69</ele>
        <time>2016-03-22T12:15:08Z</time>
      </trkpt>
      <trkpt lat="45.54613" lon="6.74119">
        <ele>1639.62</ele>
        <time>2016-03-22T12:15:11Z</time>
      </trkpt>
      <trkpt lat="45.54631" lon="6.74106">
        <ele>1637.77</ele>
        <time>2016-03-22T12:15:13Z</time>
      </trkpt>
      <trkpt lat="45.5465" lon="6.74082">
        <ele>1633.36</ele>
        <time>2016-03-22T12:15:17Z</time>
      </trkpt>
      <trkpt lat="45.54662" lon="6.74059">
        <ele>1631.96</ele>
        <time>2016-03-22T12:15:20Z</time>
      </trkpt>
      <trkpt lat="45.54681" lon="6.74041">
        <ele>1630.57</ele>
        <time>2016-03-22T12:15:23Z</time>
      </trkpt>
      <trkpt lat="45.54696" lon="6.74025">
        <ele>1629.38</ele>
        <time>2016-03-22T12:15:26Z</time>
      </trkpt>
      <trkpt lat="45.54716" lon="6.74012">
        <ele>1627.61</ele>
        <time>2016-03-22T12:15:29Z</time>
      </trkpt>
      <trkpt lat="45.54734" lon="6.74008">
        <ele>1624.78</ele>
        <time>2016-03-22T12:15:32Z</time>
      </trkpt>
      <trkpt lat="45.54758" lon="6.73995">
        <ele>1616.83</ele>
        <time>2016-03-22T12:15:37Z</time>
      </trkpt>
      <trkpt lat="45.54779" lon="6.73975">
        <ele>1614.58</ele>
        <time>2016-03-22T12:15:40Z</time>
      </trkpt>
      <trkpt lat="45.54795" lon="6.73956">
        <ele>1612.52</ele>
        <time>2016-03-22T12:15:43Z</time>
      </trkpt>
      <trkpt lat="45.54811" lon="6.73932">
        <ele>1608.09</ele>
        <time>2016-03-22T12:15:47Z</time>
      </trkpt>
      <trkpt lat="45.54823" lon="6.73912">
        <ele>1605.79</ele>
        <time>2016-03-22T12:15:49Z</time>
      </trkpt>
      <trkpt lat="45.54844" lon="6.73883">
        <ele>1603.42</ele>
        <time>2016-03-22T12:15:52Z</time>
      </trkpt>
      <trkpt lat="45.54864" lon="6.73864">
        <ele>1602.92</ele>
        <time>2016-03-22T12:15:55Z</time>
      </trkpt>
      <trkpt lat="45.5487" lon="6.73839">
        <ele>1590.78</ele>
        <time>2016-03-22T12:16:21Z</time>
      </trkpt>
      <trkpt lat="45.54864" lon="6.73811">
        <ele>1583.77</ele>
        <time>2016-03-22T12:16:28Z</time>
      </trkpt>
      <trkpt lat="45.54854" lon="6.73785">
        <ele>1582.89</ele>
        <time>2016-03-22T12:16:31Z</time>
      </trkpt>
      <trkpt lat="45.54852" lon="6.73756">
        <ele>1583.35</ele>
        <time>2016-03-22T12:16:33Z</time>
      </trkpt>
      <trkpt lat="45.54848" lon="6.73723">
        <ele>1584.55</ele>
        <time>2016-03-22T12:16:36Z</time>
      </trkpt>
      <trkpt lat="45.54845" lon="6.73693">
        <ele>1581.78</ele>
        <time>2016-03-22T12:16:39Z</time>
      </trkpt>
      <trkpt lat="45.54838" lon="6.73657">
        <ele>1581.53</ele>
        <time>2016-03-22T12:16:42Z</time>
      </trkpt>
      <trkpt lat="45.54853" lon="6.73677">
        <ele>1565.65</ele>
        <time>2016-03-22T12:16:52Z</time>
      </trkpt>
      <trkpt lat="45.54871" lon="6.73689">
        <ele>1562.82</ele>
        <time>2016-03-22T12:16:54Z</time>
      </trkpt>
      <trkpt lat="45.5488" lon="6.73712">
        <ele>1560.13</ele>
        <time>2016-03-22T12:16:57Z</time>
      </trkpt>
      <trkpt lat="45.54893" lon="6.73739">
        <ele>1556.02</ele>
        <time>2016-03-22T12:17:00Z</time>
      </trkpt>
      <trkpt lat="45.54903" lon="6.73772">
        <ele>1552.22</ele>
        <time>2016-03-22T12:17:04Z</time>
      </trkpt>
      <trkpt lat="45.54897" lon="6.73742">
        <ele>1548.89</ele>
        <time>2016-03-22T12:17:17Z</time>
      </trkpt>
      <trkpt lat="45.5489" lon="6.73713">
        <ele>1544.78</ele>
        <time>2016-03-22T12:17:21Z</time>
      </trkpt>
      <trkpt lat="45.54888" lon="6.73683">
        <ele>1545.14</ele>
        <time>2016-03-22T12:17:24Z</time>
      </trkpt>
      <trkpt lat="45.54889" lon="6.73653">
        <ele>1543.57</ele>
        <time>2016-03-22T12:17:28Z</time>
      </trkpt>
      <trkpt lat="45.54887" lon="6.73624">
        <ele>1541.74</ele>
        <time>2016-03-22T12:17:31Z</time>
      </trkpt>
      <trkpt lat="45.54882" lon="6.73599">
        <ele>1536.09</ele>
        <time>2016-03-22T12:17:35Z</time>
      </trkpt>
      <trkpt lat="45.54889" lon="6.73574">
        <ele>1534.13</ele>
        <time>2016-03-22T12:17:53Z</time>
      </trkpt>
      <trkpt lat="45.54902" lon="6.73554">
        <ele>1534.53</ele>
        <time>2016-03-22T12:18:05Z</time>
      </trkpt>
      <trkpt lat="45.54917" lon="6.73536">
        <ele>1532.57</ele>
        <time>2016-03-22T12:18:10Z</time>
      </trkpt>
      <trkpt lat="45.5493" lon="6.73517">
        <ele>1532.72</ele>
        <time>2016-03-22T12:18:13Z</time>
      </trkpt>
      <trkpt lat="45.54945" lon="6.73498">
        <ele>1535.28</ele>
        <time>2016-03-22T12:18:16Z</time>
      </trkpt>
      <trkpt lat="45.5495" lon="6.73468">
        <ele>1533.71</ele>
        <time>2016-03-22T12:18:20Z</time>
      </trkpt>
      <trkpt lat="45.54957" lon="6.73434">
        <ele>1528.67</ele>
        <time>2016-03-22T12:18:24Z</time>
      </trkpt>
      <trkpt lat="45.54969" lon="6.73411">
        <ele>1526.55</ele>
        <time>2016-03-22T12:18:28Z</time>
      </trkpt>
      <trkpt lat="45.5498" lon="6.73387">
        <ele>1526.52</ele>
        <time>2016-03-22T12:18:32Z</time>
      </trkpt>
      <trkpt lat="45.54992" lon="6.73367">
        <ele>1526.56</ele>
        <time>2016-03-22T12:18:35Z</time>
      </trkpt>
      <trkpt lat="45.55003" lon="6.73346">
        <ele>1519.2</ele>
        <time>2016-03-22T12:18:39Z</time>
      </trkpt>
      <trkpt lat="45.55017" lon="6.73325">
        <ele>1513.95</ele>
        <time>2016-03-22T12:18:43Z</time>
      </trkpt>
      <trkpt lat="45.55033" lon="6.7331">
        <ele>1508.98</ele>
        <time>2016-03-22T12:18:47Z</time>
      </trkpt>
      <trkpt lat="45.55049" lon="6.73295">
        <ele>1504.79</ele>
        <time>2016-03-22T12:18:50Z</time>
      </trkpt>
      <trkpt lat="45.55064" lon="6.73279">
        <ele>1500.85</ele>
        <time>2016-03-22T12:18:53Z</time>
      </trkpt>
      <trkpt lat="45.5508" lon="6.73265">
        <ele>1499.52</ele>
        <time>2016-03-22T12:18:58Z</time>
      </trkpt>
      <trkpt lat="45.5509" lon="6.73242">
        <ele>1495.57</ele>
        <time>2016-03-22T12:19:33Z</time>
      </trkpt>
      <trkpt lat="45.55099" lon="6.73217">
        <ele>1499.56</ele>
        <time>2016-03-22T12:19:43Z</time>
      </trkpt>
      <trkpt lat="45.55112" lon="6.73197">
        <ele>1498.53</ele>
        <time>2016-03-22T12:19:48Z</time>
      </trkpt>
      <trkpt lat="45.55122" lon="6.73175">
        <ele>1498.5</ele>
        <time>2016-03-22T12:19:52Z</time>
      </trkpt>
      <trkpt lat="45.55126" lon="6.73149">
        <ele>1495.62</ele>
        <time>2016-03-22T12:19:56Z</time>
      </trkpt>
      <trkpt lat="45.55133" lon="6.7312">
        <ele>1493.55</ele>
        <time>2016-03-22T12:20:00Z</time>
      </trkpt>
      <trkpt lat="45.55138" lon="6.73089">
        <ele>1495.33</ele>
        <time>2016-03-22T12:20:04Z</time>
      </trkpt>
      <trkpt lat="45.55143" lon="6.73055">
        <ele>1492.96</ele>
        <time>2016-03-22T12:20:08Z</time>
      </trkpt>
      <trkpt lat="45.55148" lon="6.73022">
        <ele>1489.73</ele>
        <time>2016-03-22T12:20:12Z</time>
      </trkpt>
      <trkpt lat="45.55155" lon="6.72992">
        <ele>1486.51</ele>
        <time>2016-03-22T12:20:16Z</time>
      </trkpt>
      <trkpt lat="45.55169" lon="6.72971">
        <ele>1483.74</ele>
        <time>2016-03-22T12:20:20Z</time>
      </trkpt>
      <trkpt lat="45.55184" lon="6.7295">
        <ele>1479.55</ele>
        <time>2016-03-22T12:20:24Z</time>
      </trkpt>
      <trkpt lat="45.55197" lon="6.7293">
        <ele>1477.7</ele>
        <time>2016-03-22T12:20:28Z</time>
      </trkpt>
      <trkpt lat="45.55205" lon="6.72902">
        <ele>1476.53</ele>
        <time>2016-03-22T12:20:33Z</time>
      </trkpt>
      <trkpt lat="45.55206" lon="6.72872">
        <ele>1476.72</ele>
        <time>2016-03-22T12:20:37Z</time>
      </trkpt>
      <trkpt lat="45.55205" lon="6.72846">
        <ele>1475.54</ele>
        <time>2016-03-22T12:20:41Z</time>
      </trkpt>
      <trkpt lat="45.552" lon="6.72814">
        <ele>1475.53</ele>
        <time>2016-03-22T12:20:44Z</time>
      </trkpt>
      <trkpt lat="45.55195" lon="6.72782">
        <ele>1471.71</ele>
        <time>2016-03-22T12:20:48Z</time>
      </trkpt>
      <trkpt lat="45.55187" lon="6.72754">
        <ele>1469.51</ele>
        <time>2016-03-22T12:20:53Z</time>
      </trkpt>
      <trkpt lat="45.55185" lon="6.72722">
        <ele>1465.78</ele>
        <time>2016-03-22T12:20:58Z</time>
      </trkpt>
      <trkpt lat="45.55192" lon="6.72697">
        <ele>1464.57</ele>
        <time>2016-03-22T12:21:01Z</time>
      </trkpt>
      <trkpt lat="45.55211" lon="6.72706">
        <ele>1455.74</ele>
        <time>2016-03-22T12:21:24Z</time>
      </trkpt>
      <trkpt lat="45.55233" lon="6.72727">
        <ele>1452.59</ele>
        <time>2016-03-22T12:21:27Z</time>
      </trkpt>
      <trkpt lat="45.55251" lon="6.72746">
        <ele>1450.77</ele>
        <time>2016-03-22T12:21:29Z</time>
      </trkpt>
      <trkpt lat="45.5527" lon="6.72769">
        <ele>1447.65</ele>
        <time>2016-03-22T12:21:32Z</time>
      </trkpt>
      <trkpt lat="45.55289" lon="6.72798">
        <ele>1443.74</ele>
        <time>2016-03-22T12:21:36Z</time>
      </trkpt>
      <trkpt lat="45.55308" lon="6.7282">
        <ele>1440.82</ele>
        <time>2016-03-22T12:21:38Z</time>
      </trkpt>
      <trkpt lat="45.55333" lon="6.72845">
        <ele>1435.86</ele>
        <time>2016-03-22T12:21:41Z</time>
      </trkpt>
      <trkpt lat="45.55349" lon="6.72864">
        <ele>1434.9</ele>
        <time>2016-03-22T12:21:43Z</time>
      </trkpt>
      <trkpt lat="45.5537" lon="6.72867">
        <ele>1424.63</ele>
        <time>2016-03-22T12:21:48Z</time>
      </trkpt>
      <trkpt lat="45.55386" lon="6.72895">
        <ele>1421.78</ele>
        <time>2016-03-22T12:21:51Z</time>
      </trkpt>
      <trkpt lat="45.55411" lon="6.72914">
        <ele>1419.78</ele>
        <time>2016-03-22T12:21:53Z</time>
      </trkpt>
      <trkpt lat="45.55431" lon="6.72929">
        <ele>1417.78</ele>
        <time>2016-03-22T12:21:55Z</time>
      </trkpt>
      <trkpt lat="45.55427" lon="6.72897">
        <ele>1400.63</ele>
        <time>2016-03-22T12:21:59Z</time>
      </trkpt>
      <trkpt lat="45.55445" lon="6.72882">
        <ele>1394.84</ele>
        <time>2016-03-22T12:22:02Z</time>
      </trkpt>
      <trkpt lat="45.55451" lon="6.72857">
        <ele>1374.53</ele>
        <time>2016-03-22T12:22:36Z</time>
      </trkpt>
      <trkpt lat="45.55449" lon="6.72829">
        <ele>1368.54</ele>
        <time>2016-03-22T12:24:01Z</time>
      </trkpt>
      <trkpt lat="45.55429" lon="6.72827">
        <ele>1370.13</ele>
        <time>2016-03-22T12:24:07Z</time>
      </trkpt>
      <trkpt lat="45.55409" lon="6.72817">
        <ele>1379.42</ele>
        <time>2016-03-22T12:24:12Z</time>
      </trkpt>
      <trkpt lat="45.55391" lon="6.72812">
        <ele>1382.32</ele>
        <time>2016-03-22T12:24:17Z</time>
      </trkpt>
      <trkpt lat="45.55372" lon="6.72807">
        <ele>1389.23</ele>
        <time>2016-03-22T12:24:22Z</time>
      </trkpt>
      <trkpt lat="45.55351" lon="6.72797">
        <ele>1398.87</ele>
        <time>2016-03-22T12:24:27Z</time>
      </trkpt>
      <trkpt lat="45.55333" lon="6.72789">
        <ele>1406.04</ele>
        <time>2016-03-22T12:24:32Z</time>
      </trkpt>
      <trkpt lat="45.55314" lon="6.72783">
        <ele>1410.28</ele>
        <time>2016-03-22T12:24:37Z</time>
      </trkpt>
      <trkpt lat="45.55292" lon="6.72775">
        <ele>1418.88</ele>
        <time>2016-03-22T12:24:42Z</time>
      </trkpt>
      <trkpt lat="45.55272" lon="6.72765">
        <ele>1426.44</ele>
        <time>2016-03-22T12:24:47Z</time>
      </trkpt>
      <trkpt lat="45.55251" lon="6.72759">
        <ele>1430.52</ele>
        <time>2016-03-22T12:24:53Z</time>
      </trkpt>
      <trkpt lat="45.5523" lon="6.72753">
        <ele>1440.03</ele>
        <time>2016-03-22T12:24:59Z</time>
      </trkpt>
      <trkpt lat="45.5521" lon="6.72747">
        <ele>1446.23</ele>
        <time>2016-03-22T12:25:04Z</time>
      </trkpt>
      <trkpt lat="45.55193" lon="6.72739">
        <ele>1452.07</ele>
        <time>2016-03-22T12:25:08Z</time>
      </trkpt>
      <trkpt lat="45.55171" lon="6.7273">
        <ele>1457.93</ele>
        <time>2016-03-22T12:25:13Z</time>
      </trkpt>
      <trkpt lat="45.55154" lon="6.7272">
        <ele>1464.11</ele>
        <time>2016-03-22T12:25:17Z</time>
      </trkpt>
      <trkpt lat="45.55133" lon="6.72714">
        <ele>1474.04</ele>
        <time>2016-03-22T12:25:23Z</time>
      </trkpt>
      <trkpt lat="45.55112" lon="6.72708">
        <ele>1483.04</ele>
        <time>2016-03-22T12:25:28Z</time>
      </trkpt>
      <trkpt lat="45.55092" lon="6.72702">
        <ele>1488.47</ele>
        <time>2016-03-22T12:25:33Z</time>
      </trkpt>
      <trkpt lat="45.5507" lon="6.72693">
        <ele>1493.25</ele>
        <time>2016-03-22T12:25:38Z</time>
      </trkpt>
      <trkpt lat="45.55052" lon="6.72688">
        <ele>1496.52</ele>
        <time>2016-03-22T12:25:43Z</time>
      </trkpt>
      <trkpt lat="45.55033" lon="6.72685">
        <ele>1503.07</ele>
        <time>2016-03-22T12:25:48Z</time>
      </trkpt>
      <trkpt lat="45.55014" lon="6.72679">
        <ele>1507.25</ele>
        <time>2016-03-22T12:25:53Z</time>
      </trkpt>
      <trkpt lat="45.54996" lon="6.72678">
        <ele>1511.48</ele>
        <time>2016-03-22T12:25:58Z</time>
      </trkpt>
      <trkpt lat="45.54978" lon="6.72671">
        <ele>1517.04</ele>
        <time>2016-03-22T12:26:03Z</time>
      </trkpt>
      <trkpt lat="45.54957" lon="6.72665">
        <ele>1523.27</ele>
        <time>2016-03-22T12:26:08Z</time>
      </trkpt>
      <trkpt lat="45.54939" lon="6.72656">
        <ele>1534.06</ele>
        <time>2016-03-22T12:26:13Z</time>
      </trkpt>
      <trkpt lat="45.54918" lon="6.72647">
        <ele>1540.47</ele>
        <time>2016-03-22T12:26:19Z</time>
      </trkpt>
      <trkpt lat="45.54897" lon="6.72638">
        <ele>1549.88</ele>
        <time>2016-03-22T12:26:25Z</time>
      </trkpt>
      <trkpt lat="45.54877" lon="6.72631">
        <ele>1565.9</ele>
        <time>2016-03-22T12:26:30Z</time>
      </trkpt>
      <trkpt lat="45.54857" lon="6.72625">
        <ele>1574.28</ele>
        <time>2016-03-22T12:26:36Z</time>
      </trkpt>
      <trkpt lat="45.54838" lon="6.72618">
        <ele>1584.02</ele>
        <time>2016-03-22T12:26:41Z</time>
      </trkpt>
      <trkpt lat="45.54818" lon="6.7261">
        <ele>1593.83</ele>
        <time>2016-03-22T12:26:46Z</time>
      </trkpt>
      <trkpt lat="45.54799" lon="6.726">
        <ele>1606.62</ele>
        <time>2016-03-22T12:26:51Z</time>
      </trkpt>
      <trkpt lat="45.54781" lon="6.72593">
        <ele>1612.92</ele>
        <time>2016-03-22T12:26:56Z</time>
      </trkpt>
      <trkpt lat="45.54762" lon="6.72589">
        <ele>1620.08</ele>
        <time>2016-03-22T12:27:02Z</time>
      </trkpt>
      <trkpt lat="45.54742" lon="6.72587">
        <ele>1629.28</ele>
        <time>2016-03-22T12:27:08Z</time>
      </trkpt>
      <trkpt lat="45.54724" lon="6.72582">
        <ele>1633.27</ele>
        <time>2016-03-22T12:27:13Z</time>
      </trkpt>
      <trkpt lat="45.54706" lon="6.72577">
        <ele>1641.05</ele>
        <time>2016-03-22T12:27:18Z</time>
      </trkpt>
      <trkpt lat="45.54688" lon="6.72569">
        <ele>1646.24</ele>
        <time>2016-03-22T12:27:22Z</time>
      </trkpt>
      <trkpt lat="45.5467" lon="6.72558">
        <ele>1653.26</ele>
        <time>2016-03-22T12:27:26Z</time>
      </trkpt>
      <trkpt lat="45.54651" lon="6.72551">
        <ele>1656.32</ele>
        <time>2016-03-22T12:27:31Z</time>
      </trkpt>
      <trkpt lat="45.54632" lon="6.72546">
        <ele>1662.29</ele>
        <time>2016-03-22T12:27:36Z</time>
      </trkpt>
      <trkpt lat="45.54611" lon="6.72539">
        <ele>1669.24</ele>
        <time>2016-03-22T12:27:41Z</time>
      </trkpt>
      <trkpt lat="45.54591" lon="6.72531">
        <ele>1677.27</ele>
        <time>2016-03-22T12:27:46Z</time>
      </trkpt>
      <trkpt lat="45.54573" lon="6.72527">
        <ele>1683.88</ele>
        <time>2016-03-22T12:27:51Z</time>
      </trkpt>
      <trkpt lat="45.54552" lon="6.72522">
        <ele>1690.31</ele>
        <time>2016-03-22T12:27:56Z</time>
      </trkpt>
      <trkpt lat="45.54534" lon="6.72512">
        <ele>1696.24</ele>
        <time>2016-03-22T12:28:00Z</time>
      </trkpt>
      <trkpt lat="45.54516" lon="6.72508">
        <ele>1701.47</ele>
        <time>2016-03-22T12:28:05Z</time>
      </trkpt>
      <trkpt lat="45.54495" lon="6.72501">
        <ele>1705.12</ele>
        <time>2016-03-22T12:28:10Z</time>
      </trkpt>
      <trkpt lat="45.54475" lon="6.72493">
        <ele>1710.12</ele>
        <time>2016-03-22T12:28:15Z</time>
      </trkpt>
      <trkpt lat="45.54457" lon="6.72486">
        <ele>1714.24</ele>
        <time>2016-03-22T12:28:19Z</time>
      </trkpt>
      <trkpt lat="45.54439" lon="6.72483">
        <ele>1719.92</ele>
        <time>2016-03-22T12:28:24Z</time>
      </trkpt>
      <trkpt lat="45.5442" lon="6.72477">
        <ele>1724.32</ele>
        <time>2016-03-22T12:28:29Z</time>
      </trkpt>
      <trkpt lat="45.54402" lon="6.72468">
        <ele>1729.08</ele>
        <time>2016-03-22T12:28:33Z</time>
      </trkpt>
      <trkpt lat="45.54382" lon="6.7246">
        <ele>1733.28</ele>
        <time>2016-03-22T12:28:38Z</time>
      </trkpt>
      <trkpt lat="45.54361" lon="6.72455">
        <ele>1741.23</ele>
        <time>2016-03-22T12:28:44Z</time>
      </trkpt>
      <trkpt lat="45.54343" lon="6.72445">
        <ele>1746.11</ele>
        <time>2016-03-22T12:28:48Z</time>
      </trkpt>
      <trkpt lat="45.54322" lon="6.72437">
        <ele>1754.26</ele>
        <time>2016-03-22T12:28:53Z</time>
      </trkpt>
      <trkpt lat="45.54301" lon="6.72435">
        <ele>1761.27</ele>
        <time>2016-03-22T12:28:58Z</time>
      </trkpt>
      <trkpt lat="45.54282" lon="6.72424">
        <ele>1772</ele>
        <time>2016-03-22T12:29:03Z</time>
      </trkpt>
      <trkpt lat="45.54262" lon="6.72417">
        <ele>1779.11</ele>
        <time>2016-03-22T12:29:09Z</time>
      </trkpt>
      <trkpt lat="45.54241" lon="6.72414">
        <ele>1784.48</ele>
        <time>2016-03-22T12:29:15Z</time>
      </trkpt>
      <trkpt lat="45.54223" lon="6.72409">
        <ele>1788.29</ele>
        <time>2016-03-22T12:29:20Z</time>
      </trkpt>
      <trkpt lat="45.54204" lon="6.72401">
        <ele>1792.08</ele>
        <time>2016-03-22T12:29:25Z</time>
      </trkpt>
      <trkpt lat="45.54182" lon="6.72397">
        <ele>1800.28</ele>
        <time>2016-03-22T12:29:31Z</time>
      </trkpt>
      <trkpt lat="45.54161" lon="6.7239">
        <ele>1804.09</ele>
        <time>2016-03-22T12:29:36Z</time>
      </trkpt>
      <trkpt lat="45.54141" lon="6.72382">
        <ele>1808.29</ele>
        <time>2016-03-22T12:29:41Z</time>
      </trkpt>
      <trkpt lat="45.54123" lon="6.72372">
        <ele>1812.88</ele>
        <time>2016-03-22T12:29:45Z</time>
      </trkpt>
      <trkpt lat="45.54104" lon="6.72367">
        <ele>1821.27</ele>
        <time>2016-03-22T12:29:50Z</time>
      </trkpt>
      <trkpt lat="45.54083" lon="6.72358">
        <ele>1825.52</ele>
        <time>2016-03-22T12:29:55Z</time>
      </trkpt>
      <trkpt lat="45.54062" lon="6.72349">
        <ele>1828.33</ele>
        <time>2016-03-22T12:30:00Z</time>
      </trkpt>
      <trkpt lat="45.54041" lon="6.72343">
        <ele>1835.28</ele>
        <time>2016-03-22T12:30:06Z</time>
      </trkpt>
      <trkpt lat="45.54022" lon="6.72338">
        <ele>1840.09</ele>
        <time>2016-03-22T12:30:11Z</time>
      </trkpt>
      <trkpt lat="45.54003" lon="6.72332">
        <ele>1844.08</ele>
        <time>2016-03-22T12:30:16Z</time>
      </trkpt>
      <trkpt lat="45.53985" lon="6.72329">
        <ele>1850.25</ele>
        <time>2016-03-22T12:30:20Z</time>
      </trkpt>
      <trkpt lat="45.53965" lon="6.72318">
        <ele>1851.71</ele>
        <time>2016-03-22T12:30:25Z</time>
      </trkpt>
      <trkpt lat="45.53947" lon="6.72317">
        <ele>1855.12</ele>
        <time>2016-03-22T12:30:37Z</time>
      </trkpt>
      <trkpt lat="45.53955" lon="6.72342">
        <ele>1859.53</ele>
        <time>2016-03-22T12:31:39Z</time>
      </trkpt>
      <trkpt lat="45.53959" lon="6.72372">
        <ele>1862.57</ele>
        <time>2016-03-22T12:31:48Z</time>
      </trkpt>
      <trkpt lat="45.53976" lon="6.72386">
        <ele>1858.15</ele>
        <time>2016-03-22T12:31:51Z</time>
      </trkpt>
      <trkpt lat="45.53998" lon="6.72397">
        <ele>1855.42</ele>
        <time>2016-03-22T12:31:54Z</time>
      </trkpt>
      <trkpt lat="45.54014" lon="6.72408">
        <ele>1855.37</ele>
        <time>2016-03-22T12:31:56Z</time>
      </trkpt>
      <trkpt lat="45.54031" lon="6.72425">
        <ele>1854.72</ele>
        <time>2016-03-22T12:31:58Z</time>
      </trkpt>
      <trkpt lat="45.54048" lon="6.72436">
        <ele>1851.02</ele>
        <time>2016-03-22T12:32:00Z</time>
      </trkpt>
      <trkpt lat="45.54069" lon="6.72453">
        <ele>1847.19</ele>
        <time>2016-03-22T12:32:02Z</time>
      </trkpt>
      <trkpt lat="45.5409" lon="6.72466">
        <ele>1844</ele>
        <time>2016-03-22T12:32:04Z</time>
      </trkpt>
      <trkpt lat="45.54117" lon="6.72467">
        <ele>1838.11</ele>
        <time>2016-03-22T12:32:06Z</time>
      </trkpt>
      <trkpt lat="45.54135" lon="6.72474">
        <ele>1832.99</ele>
        <time>2016-03-22T12:32:09Z</time>
      </trkpt>
      <trkpt lat="45.54114" lon="6.72478">
        <ele>1821.37</ele>
        <time>2016-03-22T12:33:10Z</time>
      </trkpt>
      <trkpt lat="45.54092" lon="6.72481">
        <ele>1821.5</ele>
        <time>2016-03-22T12:33:15Z</time>
      </trkpt>
      <trkpt lat="45.54073" lon="6.72477">
        <ele>1829.36</ele>
        <time>2016-03-22T12:33:20Z</time>
      </trkpt>
      <trkpt lat="45.54052" lon="6.72477">
        <ele>1833.65</ele>
        <time>2016-03-22T12:33:25Z</time>
      </trkpt>
      <trkpt lat="45.5403" lon="6.72474">
        <ele>1839.45</ele>
        <time>2016-03-22T12:33:31Z</time>
      </trkpt>
      <trkpt lat="45.54012" lon="6.72462">
        <ele>1846.33</ele>
        <time>2016-03-22T12:33:36Z</time>
      </trkpt>
      <trkpt lat="45.53993" lon="6.72464">
        <ele>1851.28</ele>
        <time>2016-03-22T12:33:41Z</time>
      </trkpt>
      <trkpt lat="45.53975" lon="6.72466">
        <ele>1855.32</ele>
        <time>2016-03-22T12:33:46Z</time>
      </trkpt>
      <trkpt lat="45.53956" lon="6.72465">
        <ele>1862.06</ele>
        <time>2016-03-22T12:33:51Z</time>
      </trkpt>
      <trkpt lat="45.53937" lon="6.72466">
        <ele>1872.22</ele>
        <time>2016-03-22T12:33:56Z</time>
      </trkpt>
      <trkpt lat="45.53919" lon="6.72461">
        <ele>1883.83</ele>
        <time>2016-03-22T12:34:01Z</time>
      </trkpt>
      <trkpt lat="45.539" lon="6.72459">
        <ele>1895.03</ele>
        <time>2016-03-22T12:34:06Z</time>
      </trkpt>
      <trkpt lat="45.5388" lon="6.72458">
        <ele>1903.04</ele>
        <time>2016-03-22T12:34:11Z</time>
      </trkpt>
      <trkpt lat="45.53861" lon="6.72455">
        <ele>1910.07</ele>
        <time>2016-03-22T12:34:16Z</time>
      </trkpt>
      <trkpt lat="45.53842" lon="6.72454">
        <ele>1919.03</ele>
        <time>2016-03-22T12:34:21Z</time>
      </trkpt>
      <trkpt lat="45.53822" lon="6.7245">
        <ele>1927.23</ele>
        <time>2016-03-22T12:34:26Z</time>
      </trkpt>
      <trkpt lat="45.53802" lon="6.72448">
        <ele>1936.07</ele>
        <time>2016-03-22T12:34:31Z</time>
      </trkpt>
      <trkpt lat="45.53784" lon="6.72446">
        <ele>1947.83</ele>
        <time>2016-03-22T12:34:36Z</time>
      </trkpt>
      <trkpt lat="45.53766" lon="6.72444">
        <ele>1958.99</ele>
        <time>2016-03-22T12:34:41Z</time>
      </trkpt>
      <trkpt lat="45.53746" lon="6.72443">
        <ele>1972.83</ele>
        <time>2016-03-22T12:34:47Z</time>
      </trkpt>
      <trkpt lat="45.53728" lon="6.72441">
        <ele>1983.03</ele>
        <time>2016-03-22T12:34:52Z</time>
      </trkpt>
      <trkpt lat="45.53706" lon="6.72439">
        <ele>1994.02</ele>
        <time>2016-03-22T12:34:58Z</time>
      </trkpt>
      <trkpt lat="45.53685" lon="6.72437">
        <ele>2007.99</ele>
        <time>2016-03-22T12:35:04Z</time>
      </trkpt>
      <trkpt lat="45.53665" lon="6.72433">
        <ele>2023.02</ele>
        <time>2016-03-22T12:35:10Z</time>
      </trkpt>
      <trkpt lat="45.53645" lon="6.72432">
        <ele>2037.83</ele>
        <time>2016-03-22T12:35:16Z</time>
      </trkpt>
      <trkpt lat="45.53625" lon="6.72428">
        <ele>2054.78</ele>
        <time>2016-03-22T12:35:22Z</time>
      </trkpt>
      <trkpt lat="45.53604" lon="6.72425">
        <ele>2065.04</ele>
        <time>2016-03-22T12:35:28Z</time>
      </trkpt>
      <trkpt lat="45.53583" lon="6.72423">
        <ele>2078.19</ele>
        <time>2016-03-22T12:35:34Z</time>
      </trkpt>
      <trkpt lat="45.53565" lon="6.72421">
        <ele>2088.03</ele>
        <time>2016-03-22T12:35:39Z</time>
      </trkpt>
      <trkpt lat="45.53543" lon="6.7242">
        <ele>2101.02</ele>
        <time>2016-03-22T12:35:45Z</time>
      </trkpt>
      <trkpt lat="45.53523" lon="6.72418">
        <ele>2114.03</ele>
        <time>2016-03-22T12:35:51Z</time>
      </trkpt>
      <trkpt lat="45.53502" lon="6.72416">
        <ele>2128.82</ele>
        <time>2016-03-22T12:35:57Z</time>
      </trkpt>
      <trkpt lat="45.53482" lon="6.72416">
        <ele>2140.26</ele>
        <time>2016-03-22T12:36:03Z</time>
      </trkpt>
      <trkpt lat="45.53461" lon="6.72414">
        <ele>2148.08</ele>
        <time>2016-03-22T12:36:09Z</time>
      </trkpt>
      <trkpt lat="45.5344" lon="6.72413">
        <ele>2159.87</ele>
        <time>2016-03-22T12:36:15Z</time>
      </trkpt>
      <trkpt lat="45.53421" lon="6.7241">
        <ele>2167.21</ele>
        <time>2016-03-22T12:36:20Z</time>
      </trkpt>
      <trkpt lat="45.53403" lon="6.72408">
        <ele>2174.07</ele>
        <time>2016-03-22T12:36:25Z</time>
      </trkpt>
      <trkpt lat="45.53384" lon="6.72407">
        <ele>2182.23</ele>
        <time>2016-03-22T12:36:30Z</time>
      </trkpt>
      <trkpt lat="45.53365" lon="6.72406">
        <ele>2184.52</ele>
        <time>2016-03-22T12:36:35Z</time>
      </trkpt>
      <trkpt lat="45.53346" lon="6.72405">
        <ele>2188.09</ele>
        <time>2016-03-22T12:36:40Z</time>
      </trkpt>
      <trkpt lat="45.53326" lon="6.72402">
        <ele>2191.32</ele>
        <time>2016-03-22T12:36:45Z</time>
      </trkpt>
      <trkpt lat="45.53307" lon="6.72402">
        <ele>2195.48</ele>
        <time>2016-03-22T12:36:50Z</time>
      </trkpt>
      <trkpt lat="45.53287" lon="6.724">
        <ele>2200.31</ele>
        <time>2016-03-22T12:36:55Z</time>
      </trkpt>
      <trkpt lat="45.53266" lon="6.72396">
        <ele>2203.48</ele>
        <time>2016-03-22T12:37:00Z</time>
      </trkpt>
      <trkpt lat="45.53246" lon="6.72395">
        <ele>2205.52</ele>
        <time>2016-03-22T12:37:05Z</time>
      </trkpt>
      <trkpt lat="45.53226" lon="6.72392">
        <ele>2209.29</ele>
        <time>2016-03-22T12:37:10Z</time>
      </trkpt>
      <trkpt lat="45.53206" lon="6.7239">
        <ele>2213.28</ele>
        <time>2016-03-22T12:37:15Z</time>
      </trkpt>
      <trkpt lat="45.53186" lon="6.72389">
        <ele>2216.29</ele>
        <time>2016-03-22T12:37:20Z</time>
      </trkpt>
      <trkpt lat="45.53166" lon="6.72386">
        <ele>2220.29</ele>
        <time>2016-03-22T12:37:25Z</time>
      </trkpt>
      <trkpt lat="45.53147" lon="6.72383">
        <ele>2226.07</ele>
        <time>2016-03-22T12:37:30Z</time>
      </trkpt>
      <trkpt lat="45.53128" lon="6.72381">
        <ele>2232.27</ele>
        <time>2016-03-22T12:37:35Z</time>
      </trkpt>
      <trkpt lat="45.53109" lon="6.7238">
        <ele>2238.08</ele>
        <time>2016-03-22T12:37:40Z</time>
      </trkpt>
      <trkpt lat="45.53089" lon="6.72377">
        <ele>2242.48</ele>
        <time>2016-03-22T12:37:45Z</time>
      </trkpt>
      <trkpt lat="45.53069" lon="6.72374">
        <ele>2245.32</ele>
        <time>2016-03-22T12:37:50Z</time>
      </trkpt>
      <trkpt lat="45.5305" lon="6.72372">
        <ele>2248.32</ele>
        <time>2016-03-22T12:37:55Z</time>
      </trkpt>
      <trkpt lat="45.5303" lon="6.7237">
        <ele>2251.48</ele>
        <time>2016-03-22T12:38:00Z</time>
      </trkpt>
      <trkpt lat="45.53011" lon="6.72369">
        <ele>2255.48</ele>
        <time>2016-03-22T12:38:05Z</time>
      </trkpt>
      <trkpt lat="45.52991" lon="6.72367">
        <ele>2259.29</ele>
        <time>2016-03-22T12:38:10Z</time>
      </trkpt>
      <trkpt lat="45.52972" lon="6.72364">
        <ele>2265.24</ele>
        <time>2016-03-22T12:38:15Z</time>
      </trkpt>
      <trkpt lat="45.52952" lon="6.72361">
        <ele>2266.49</ele>
        <time>2016-03-22T12:38:20Z</time>
      </trkpt>
      <trkpt lat="45.52931" lon="6.72358">
        <ele>2268.49</ele>
        <time>2016-03-22T12:38:25Z</time>
      </trkpt>
      <trkpt lat="45.52912" lon="6.72356">
        <ele>2270.49</ele>
        <time>2016-03-22T12:38:30Z</time>
      </trkpt>
      <trkpt lat="45.52892" lon="6.72353">
        <ele>2274.32</ele>
        <time>2016-03-22T12:38:35Z</time>
      </trkpt>
      <trkpt lat="45.52872" lon="6.72352">
        <ele>2276.49</ele>
        <time>2016-03-22T12:38:40Z</time>
      </trkpt>
      <trkpt lat="45.52852" lon="6.7235">
        <ele>2278.49</ele>
        <time>2016-03-22T12:38:45Z</time>
      </trkpt>
      <trkpt lat="45.52832" lon="6.72348">
        <ele>2280.49</ele>
        <time>2016-03-22T12:38:50Z</time>
      </trkpt>
      <trkpt lat="45.52814" lon="6.72347">
        <ele>2283.53</ele>
        <time>2016-03-22T12:38:55Z</time>
      </trkpt>
      <trkpt lat="45.52796" lon="6.72344">
        <ele>2285.55</ele>
        <time>2016-03-22T12:39:10Z</time>
      </trkpt>
      <trkpt lat="45.52777" lon="6.72344">
        <ele>2284.53</ele>
        <time>2016-03-22T12:40:18Z</time>
      </trkpt>
      <trkpt lat="45.52774" lon="6.7237">
        <ele>2282.53</ele>
        <time>2016-03-22T12:40:36Z</time>
      </trkpt>
      <trkpt lat="45.52788" lon="6.72388">
        <ele>2276.53</ele>
        <time>2016-03-22T12:40:47Z</time>
      </trkpt>
      <trkpt lat="45.52802" lon="6.72415">
        <ele>2275.73</ele>
        <time>2016-03-22T12:40:57Z</time>
      </trkpt>
      <trkpt lat="45.52817" lon="6.72437">
        <ele>2272.74</ele>
        <time>2016-03-22T12:41:01Z</time>
      </trkpt>
      <trkpt lat="45.52828" lon="6.7246">
        <ele>2269.77</ele>
        <time>2016-03-22T12:41:05Z</time>
      </trkpt>
      <trkpt lat="45.5282" lon="6.72483">
        <ele>2268.54</ele>
        <time>2016-03-22T12:41:11Z</time>
      </trkpt>
      <trkpt lat="45.52809" lon="6.72505">
        <ele>2271.3</ele>
        <time>2016-03-22T12:41:22Z</time>
      </trkpt>
      <trkpt lat="45.52818" lon="6.72528">
        <ele>2267.36</ele>
        <time>2016-03-22T12:41:26Z</time>
      </trkpt>
      <trkpt lat="45.52815" lon="6.72558">
        <ele>2263.79</ele>
        <time>2016-03-22T12:41:29Z</time>
      </trkpt>
      <trkpt lat="45.52813" lon="6.7259">
        <ele>2261.58</ele>
        <time>2016-03-22T12:41:32Z</time>
      </trkpt>
      <trkpt lat="45.5282" lon="6.72615">
        <ele>2258.81</ele>
        <time>2016-03-22T12:41:34Z</time>
      </trkpt>
      <trkpt lat="45.5282" lon="6.72645">
        <ele>2256.94</ele>
        <time>2016-03-22T12:41:36Z</time>
      </trkpt>
      <trkpt lat="45.52825" lon="6.72679">
        <ele>2253.97</ele>
        <time>2016-03-22T12:41:39Z</time>
      </trkpt>
      <trkpt lat="45.52841" lon="6.72698">
        <ele>2248.35</ele>
        <time>2016-03-22T12:41:42Z</time>
      </trkpt>
      <trkpt lat="45.52852" lon="6.72734">
        <ele>2244.79</ele>
        <time>2016-03-22T12:41:45Z</time>
      </trkpt>
      <trkpt lat="45.52868" lon="6.7276">
        <ele>2242.94</ele>
        <time>2016-03-22T12:41:47Z</time>
      </trkpt>
      <trkpt lat="45.5289" lon="6.72779">
        <ele>2239.83</ele>
        <time>2016-03-22T12:41:49Z</time>
      </trkpt>
      <trkpt lat="45.52906" lon="6.72796">
        <ele>2238.58</ele>
        <time>2016-03-22T12:41:51Z</time>
      </trkpt>
      <trkpt lat="45.52923" lon="6.72817">
        <ele>2235.97</ele>
        <time>2016-03-22T12:41:53Z</time>
      </trkpt>
      <trkpt lat="45.52938" lon="6.72835">
        <ele>2232.99</ele>
        <time>2016-03-22T12:41:55Z</time>
      </trkpt>
      <trkpt lat="45.52956" lon="6.72861">
        <ele>2231.38</ele>
        <time>2016-03-22T12:41:58Z</time>
      </trkpt>
      <trkpt lat="45.52978" lon="6.72868">
        <ele>2227.02</ele>
        <time>2016-03-22T12:42:01Z</time>
      </trkpt>
      <trkpt lat="45.53001" lon="6.72876">
        <ele>2219.08</ele>
        <time>2016-03-22T12:42:04Z</time>
      </trkpt>
      <trkpt lat="45.53013" lon="6.729">
        <ele>2215.83</ele>
        <time>2016-03-22T12:42:06Z</time>
      </trkpt>
      <trkpt lat="45.53031" lon="6.72912">
        <ele>2213.78</ele>
        <time>2016-03-22T12:42:08Z</time>
      </trkpt>
      <trkpt lat="45.53053" lon="6.72938">
        <ele>2209.18</ele>
        <time>2016-03-22T12:42:11Z</time>
      </trkpt>
      <trkpt lat="45.53072" lon="6.72956">
        <ele>2206.8</ele>
        <time>2016-03-22T12:42:13Z</time>
      </trkpt>
      <trkpt lat="45.53094" lon="6.72966">
        <ele>2203.82</ele>
        <time>2016-03-22T12:42:15Z</time>
      </trkpt>
      <trkpt lat="45.53121" lon="6.72976">
        <ele>2200.98</ele>
        <time>2016-03-22T12:42:17Z</time>
      </trkpt>
      <trkpt lat="45.53143" lon="6.72975">
        <ele>2194.63</ele>
        <time>2016-03-22T12:42:19Z</time>
      </trkpt>
      <trkpt lat="45.53169" lon="6.72979">
        <ele>2190.05</ele>
        <time>2016-03-22T12:42:21Z</time>
      </trkpt>
      <trkpt lat="45.53192" lon="6.72984">
        <ele>2184.22</ele>
        <time>2016-03-22T12:42:24Z</time>
      </trkpt>
      <trkpt lat="45.53209" lon="6.72988">
        <ele>2180.75</ele>
        <time>2016-03-22T12:42:28Z</time>
      </trkpt>
      <trkpt lat="45.53227" lon="6.72998">
        <ele>2161.99</ele>
        <time>2016-03-22T12:42:55Z</time>
      </trkpt>
      <trkpt lat="45.53246" lon="6.72989">
        <ele>2157.66</ele>
        <time>2016-03-22T12:42:58Z</time>
      </trkpt>
      <trkpt lat="45.53266" lon="6.7298">
        <ele>2154.78</ele>
        <time>2016-03-22T12:43:01Z</time>
      </trkpt>
      <trkpt lat="45.53285" lon="6.72983">
        <ele>2151.77</ele>
        <time>2016-03-22T12:43:05Z</time>
      </trkpt>
      <trkpt lat="45.53309" lon="6.72986">
        <ele>2148.82</ele>
        <time>2016-03-22T12:43:07Z</time>
      </trkpt>
      <trkpt lat="45.53334" lon="6.72992">
        <ele>2145.18</ele>
        <time>2016-03-22T12:43:09Z</time>
      </trkpt>
      <trkpt lat="45.53357" lon="6.73006">
        <ele>2141.04</ele>
        <time>2016-03-22T12:43:11Z</time>
      </trkpt>
      <trkpt lat="45.53379" lon="6.73024">
        <ele>2137.99</ele>
        <time>2016-03-22T12:43:13Z</time>
      </trkpt>
      <trkpt lat="45.53398" lon="6.73037">
        <ele>2134.99</ele>
        <time>2016-03-22T12:43:15Z</time>
      </trkpt>
      <trkpt lat="45.53409" lon="6.73059">
        <ele>2130.87</ele>
        <time>2016-03-22T12:43:17Z</time>
      </trkpt>
      <trkpt lat="45.53405" lon="6.73091">
        <ele>2127.59</ele>
        <time>2016-03-22T12:43:20Z</time>
      </trkpt>
      <trkpt lat="45.53396" lon="6.73068">
        <ele>2117.56</ele>
        <time>2016-03-22T12:43:45Z</time>
      </trkpt>
      <trkpt lat="45.53382" lon="6.73048">
        <ele>2118.53</ele>
        <time>2016-03-22T12:43:58Z</time>
      </trkpt>
      <trkpt lat="45.53368" lon="6.73028">
        <ele>2124.33</ele>
        <time>2016-03-22T12:44:08Z</time>
      </trkpt>
      <trkpt lat="45.53355" lon="6.73011">
        <ele>2125.49</ele>
        <time>2016-03-22T12:44:18Z</time>
      </trkpt>
      <trkpt lat="45.53343" lon="6.72989">
        <ele>2130.49</ele>
        <time>2016-03-22T12:44:27Z</time>
      </trkpt>
      <trkpt lat="45.53332" lon="6.72969">
        <ele>2136.49</ele>
        <time>2016-03-22T12:44:35Z</time>
      </trkpt>
      <trkpt lat="45.5332" lon="6.72949">
        <ele>2145.24</ele>
        <time>2016-03-22T12:44:44Z</time>
      </trkpt>
      <trkpt lat="45.53306" lon="6.72929">
        <ele>2153.48</ele>
        <time>2016-03-22T12:44:54Z</time>
      </trkpt>
      <trkpt lat="45.53293" lon="6.7291">
        <ele>2161.32</ele>
        <time>2016-03-22T12:45:04Z</time>
      </trkpt>
      <trkpt lat="45.53281" lon="6.7289">
        <ele>2169.32</ele>
        <time>2016-03-22T12:45:13Z</time>
      </trkpt>
      <trkpt lat="45.53268" lon="6.72872">
        <ele>2172.33</ele>
        <time>2016-03-22T12:45:23Z</time>
      </trkpt>
      <trkpt lat="45.53257" lon="6.72852">
        <ele>2177.33</ele>
        <time>2016-03-22T12:45:32Z</time>
      </trkpt>
      <trkpt lat="45.53245" lon="6.7283">
        <ele>2181.52</ele>
        <time>2016-03-22T12:45:42Z</time>
      </trkpt>
      <trkpt lat="45.53234" lon="6.72807">
        <ele>2182.49</ele>
        <time>2016-03-22T12:45:51Z</time>
      </trkpt>
      <trkpt lat="45.53222" lon="6.72788">
        <ele>2184.34</ele>
        <time>2016-03-22T12:46:00Z</time>
      </trkpt>
      <trkpt lat="45.53209" lon="6.72769">
        <ele>2187.33</ele>
        <time>2016-03-22T12:46:10Z</time>
      </trkpt>
      <trkpt lat="45.53197" lon="6.7275">
        <ele>2192.28</ele>
        <time>2016-03-22T12:46:19Z</time>
      </trkpt>
      <trkpt lat="45.53185" lon="6.7273">
        <ele>2197.33</ele>
        <time>2016-03-22T12:46:29Z</time>
      </trkpt>
      <trkpt lat="45.53172" lon="6.72709">
        <ele>2204.27</ele>
        <time>2016-03-22T12:46:39Z</time>
      </trkpt>
      <trkpt lat="45.5316" lon="6.72688">
        <ele>2208.49</ele>
        <time>2016-03-22T12:46:49Z</time>
      </trkpt>
      <trkpt lat="45.53147" lon="6.7267">
        <ele>2211.56</ele>
        <time>2016-03-22T12:46:59Z</time>
      </trkpt>
      <trkpt lat="45.53135" lon="6.72651">
        <ele>2215.32</ele>
        <time>2016-03-22T12:47:08Z</time>
      </trkpt>
      <trkpt lat="45.53121" lon="6.7263">
        <ele>2217.53</ele>
        <time>2016-03-22T12:47:18Z</time>
      </trkpt>
      <trkpt lat="45.53108" lon="6.72609">
        <ele>2220.28</ele>
        <time>2016-03-22T12:47:28Z</time>
      </trkpt>
      <trkpt lat="45.53096" lon="6.72588">
        <ele>2222.33</ele>
        <time>2016-03-22T12:47:37Z</time>
      </trkpt>
      <trkpt lat="45.53083" lon="6.7257">
        <ele>2224.49</ele>
        <time>2016-03-22T12:47:46Z</time>
      </trkpt>
      <trkpt lat="45.53071" lon="6.72547">
        <ele>2228.29</ele>
        <time>2016-03-22T12:47:55Z</time>
      </trkpt>
      <trkpt lat="45.53058" lon="6.72526">
        <ele>2229.34</ele>
        <time>2016-03-22T12:48:05Z</time>
      </trkpt>
      <trkpt lat="45.53045" lon="6.72508">
        <ele>2235.36</ele>
        <time>2016-03-22T12:48:14Z</time>
      </trkpt>
      <trkpt lat="45.53032" lon="6.72487">
        <ele>2241.49</ele>
        <time>2016-03-22T12:48:24Z</time>
      </trkpt>
      <trkpt lat="45.53019" lon="6.72469">
        <ele>2244.72</ele>
        <time>2016-03-22T12:48:33Z</time>
      </trkpt>
      <trkpt lat="45.53006" lon="6.72448">
        <ele>2246.49</ele>
        <time>2016-03-22T12:48:43Z</time>
      </trkpt>
      <trkpt lat="45.52993" lon="6.72428">
        <ele>2248.49</ele>
        <time>2016-03-22T12:48:53Z</time>
      </trkpt>
      <trkpt lat="45.52981" lon="6.72408">
        <ele>2250.33</ele>
        <time>2016-03-22T12:49:02Z</time>
      </trkpt>
      <trkpt lat="45.52969" lon="6.72388">
        <ele>2254.49</ele>
        <time>2016-03-22T12:49:11Z</time>
      </trkpt>
      <trkpt lat="45.52956" lon="6.72369">
        <ele>2256.49</ele>
        <time>2016-03-22T12:49:21Z</time>
      </trkpt>
      <trkpt lat="45.52944" lon="6.7235">
        <ele>2265.53</ele>
        <time>2016-03-22T12:51:16Z</time>
      </trkpt>
      <trkpt lat="45.52931" lon="6.72329">
        <ele>2269.29</ele>
        <time>2016-03-22T12:51:26Z</time>
      </trkpt>
      <trkpt lat="45.52919" lon="6.72307">
        <ele>2273.49</ele>
        <time>2016-03-22T12:51:36Z</time>
      </trkpt>
      <trkpt lat="45.52907" lon="6.72286">
        <ele>2279.33</ele>
        <time>2016-03-22T12:51:46Z</time>
      </trkpt>
      <trkpt lat="45.52894" lon="6.72265">
        <ele>2283.29</ele>
        <time>2016-03-22T12:51:56Z</time>
      </trkpt>
      <trkpt lat="45.52881" lon="6.72247">
        <ele>2289.52</ele>
        <time>2016-03-22T12:52:07Z</time>
      </trkpt>
      <trkpt lat="45.52869" lon="6.72227">
        <ele>2298.31</ele>
        <time>2016-03-22T12:52:17Z</time>
      </trkpt>
      <trkpt lat="45.52858" lon="6.72207">
        <ele>2305.28</ele>
        <time>2016-03-22T12:52:28Z</time>
      </trkpt>
      <trkpt lat="45.52844" lon="6.72187">
        <ele>2315.28</ele>
        <time>2016-03-22T12:52:39Z</time>
      </trkpt>
      <trkpt lat="45.52831" lon="6.72165">
        <ele>2323.08</ele>
        <time>2016-03-22T12:52:51Z</time>
      </trkpt>
      <trkpt lat="45.52817" lon="6.72147">
        <ele>2332.09</ele>
        <time>2016-03-22T12:53:00Z</time>
      </trkpt>
      <trkpt lat="45.52803" lon="6.72127">
        <ele>2334.52</ele>
        <time>2016-03-22T12:53:10Z</time>
      </trkpt>
      <trkpt lat="45.52789" lon="6.72106">
        <ele>2337.52</ele>
        <time>2016-03-22T12:53:20Z</time>
      </trkpt>
      <trkpt lat="45.52772" lon="6.72096">
        <ele>2335.56</ele>
        <time>2016-03-22T12:53:27Z</time>
      </trkpt>
      <trkpt lat="45.52751" lon="6.72103">
        <ele>2334.73</ele>
        <time>2016-03-22T12:54:27Z</time>
      </trkpt>
      <trkpt lat="45.52735" lon="6.72117">
        <ele>2330.78</ele>
        <time>2016-03-22T12:54:32Z</time>
      </trkpt>
      <trkpt lat="45.52741" lon="6.72144">
        <ele>2324.89</ele>
        <time>2016-03-22T12:54:36Z</time>
      </trkpt>
      <trkpt lat="45.5275" lon="6.72168">
        <ele>2322.58</ele>
        <time>2016-03-22T12:54:39Z</time>
      </trkpt>
      <trkpt lat="45.52765" lon="6.72192">
        <ele>2315.79</ele>
        <time>2016-03-22T12:54:43Z</time>
      </trkpt>
      <trkpt lat="45.52773" lon="6.72224">
        <ele>2311.98</ele>
        <time>2016-03-22T12:54:46Z</time>
      </trkpt>
      <trkpt lat="45.52788" lon="6.72245">
        <ele>2305.84</ele>
        <time>2016-03-22T12:54:49Z</time>
      </trkpt>
      <trkpt lat="45.52793" lon="6.72276">
        <ele>2297.6</ele>
        <time>2016-03-22T12:54:53Z</time>
      </trkpt>
      <trkpt lat="45.5277" lon="6.72284">
        <ele>2294.81</ele>
        <time>2016-03-22T12:54:56Z</time>
      </trkpt>
      <trkpt lat="45.52754" lon="6.72303">
        <ele>2288.78</ele>
        <time>2016-03-22T12:55:02Z</time>
      </trkpt>
      <trkpt lat="45.52737" lon="6.72317">
        <ele>2282.79</ele>
        <time>2016-03-22T12:55:06Z</time>
      </trkpt>
      <trkpt lat="45.52714" lon="6.72323">
        <ele>2277.75</ele>
        <time>2016-03-22T12:55:11Z</time>
      </trkpt>
      <trkpt lat="45.52693" lon="6.72327">
        <ele>2275.74</ele>
        <time>2016-03-22T12:55:15Z</time>
      </trkpt>
      <trkpt lat="45.52673" lon="6.72328">
        <ele>2272.97</ele>
        <time>2016-03-22T12:55:18Z</time>
      </trkpt>
      <trkpt lat="45.5265" lon="6.72334">
        <ele>2268.78</ele>
        <time>2016-03-22T12:55:22Z</time>
      </trkpt>
      <trkpt lat="45.52626" lon="6.72333">
        <ele>2265.74</ele>
        <time>2016-03-22T12:55:26Z</time>
      </trkpt>
      <trkpt lat="45.52608" lon="6.72335">
        <ele>2261.79</ele>
        <time>2016-03-22T12:55:29Z</time>
      </trkpt>
      <trkpt lat="45.52586" lon="6.72342">
        <ele>2254.78</ele>
        <time>2016-03-22T12:55:33Z</time>
      </trkpt>
      <trkpt lat="45.52563" lon="6.72347">
        <ele>2252.58</ele>
        <time>2016-03-22T12:55:36Z</time>
      </trkpt>
      <trkpt lat="45.52541" lon="6.72355">
        <ele>2250.77</ele>
        <time>2016-03-22T12:55:39Z</time>
      </trkpt>
      <trkpt lat="45.52522" lon="6.72354">
        <ele>2247.18</ele>
        <time>2016-03-22T12:55:41Z</time>
      </trkpt>
      <trkpt lat="45.52503" lon="6.72355">
        <ele>2244</ele>
        <time>2016-03-22T12:55:43Z</time>
      </trkpt>
      <trkpt lat="45.52481" lon="6.72356">
        <ele>2241.79</ele>
        <time>2016-03-22T12:55:45Z</time>
      </trkpt>
      <trkpt lat="45.5246" lon="6.72362">
        <ele>2237.82</ele>
        <time>2016-03-22T12:55:48Z</time>
      </trkpt>
      <trkpt lat="45.52447" lon="6.72387">
        <ele>2233.66</ele>
        <time>2016-03-22T12:55:51Z</time>
      </trkpt>
      <trkpt lat="45.52428" lon="6.72404">
        <ele>2225.24</ele>
        <time>2016-03-22T12:55:54Z</time>
      </trkpt>
      <trkpt lat="45.52418" lon="6.72436">
        <ele>2215.51</ele>
        <time>2016-03-22T12:55:57Z</time>
      </trkpt>
      <trkpt lat="45.52397" lon="6.72453">
        <ele>2211.82</ele>
        <time>2016-03-22T12:56:00Z</time>
      </trkpt>
      <trkpt lat="45.52384" lon="6.72472">
        <ele>2202.1</ele>
        <time>2016-03-22T12:56:04Z</time>
      </trkpt>
      <trkpt lat="45.52378" lon="6.725">
        <ele>2179.85</ele>
        <time>2016-03-22T12:56:22Z</time>
      </trkpt>
      <trkpt lat="45.52372" lon="6.72525">
        <ele>2175.61</ele>
        <time>2016-03-22T12:56:26Z</time>
      </trkpt>
      <trkpt lat="45.52367" lon="6.72554">
        <ele>2171.78</ele>
        <time>2016-03-22T12:56:30Z</time>
      </trkpt>
      <trkpt lat="45.52362" lon="6.72584">
        <ele>2168.14</ele>
        <time>2016-03-22T12:56:33Z</time>
      </trkpt>
      <trkpt lat="45.52361" lon="6.72612">
        <ele>2165.55</ele>
        <time>2016-03-22T12:56:36Z</time>
      </trkpt>
      <trkpt lat="45.52362" lon="6.72641">
        <ele>2163.58</ele>
        <time>2016-03-22T12:56:39Z</time>
      </trkpt>
      <trkpt lat="45.52361" lon="6.7267">
        <ele>2157.8</ele>
        <time>2016-03-22T12:56:42Z</time>
      </trkpt>
      <trkpt lat="45.52358" lon="6.72699">
        <ele>2154.59</ele>
        <time>2016-03-22T12:56:45Z</time>
      </trkpt>
      <trkpt lat="45.5236" lon="6.72728">
        <ele>2144.21</ele>
        <time>2016-03-22T12:56:49Z</time>
      </trkpt>
      <trkpt lat="45.52366" lon="6.72762">
        <ele>2131.24</ele>
        <time>2016-03-22T12:56:53Z</time>
      </trkpt>
      <trkpt lat="45.52363" lon="6.72792">
        <ele>2127.78</ele>
        <time>2016-03-22T12:56:56Z</time>
      </trkpt>
      <trkpt lat="45.52362" lon="6.72825">
        <ele>2123.38</ele>
        <time>2016-03-22T12:56:58Z</time>
      </trkpt>
      <trkpt lat="45.5235" lon="6.72846">
        <ele>2120.01</ele>
        <time>2016-03-22T12:57:00Z</time>
      </trkpt>
      <trkpt lat="45.52347" lon="6.7288">
        <ele>2111.09</ele>
        <time>2016-03-22T12:57:03Z</time>
      </trkpt>
      <trkpt lat="45.5233" lon="6.72906">
        <ele>2105.22</ele>
        <time>2016-03-22T12:57:06Z</time>
      </trkpt>
      <trkpt lat="45.52312" lon="6.72927">
        <ele>2098.84</ele>
        <time>2016-03-22T12:57:09Z</time>
      </trkpt>
      <trkpt lat="45.52297" lon="6.72948">
        <ele>2093.79</ele>
        <time>2016-03-22T12:57:13Z</time>
      </trkpt>
      <trkpt lat="45.52279" lon="6.72965">
        <ele>2089.98</ele>
        <time>2016-03-22T12:57:16Z</time>
      </trkpt>
      <trkpt lat="45.52278" lon="6.72998">
        <ele>2085.76</ele>
        <time>2016-03-22T12:57:19Z</time>
      </trkpt>
      <trkpt lat="45.52287" lon="6.7303">
        <ele>2079.07</ele>
        <time>2016-03-22T12:57:22Z</time>
      </trkpt>
      <trkpt lat="45.52305" lon="6.73045">
        <ele>2073.83</ele>
        <time>2016-03-22T12:57:25Z</time>
      </trkpt>
      <trkpt lat="45.52299" lon="6.73019">
        <ele>2067.53</ele>
        <time>2016-03-22T12:58:11Z</time>
      </trkpt>
      <trkpt lat="45.52287" lon="6.72997">
        <ele>2066.33</ele>
        <time>2016-03-22T12:58:21Z</time>
      </trkpt>
      <trkpt lat="45.52276" lon="6.72975">
        <ele>2072.32</ele>
        <time>2016-03-22T12:58:31Z</time>
      </trkpt>
      <trkpt lat="45.52265" lon="6.72954">
        <ele>2075.53</ele>
        <time>2016-03-22T12:58:41Z</time>
      </trkpt>
      <trkpt lat="45.52255" lon="6.72932">
        <ele>2080.49</ele>
        <time>2016-03-22T12:58:51Z</time>
      </trkpt>
      <trkpt lat="45.52242" lon="6.72911">
        <ele>2085.49</ele>
        <time>2016-03-22T12:59:02Z</time>
      </trkpt>
      <trkpt lat="45.5223" lon="6.72889">
        <ele>2089.32</ele>
        <time>2016-03-22T12:59:14Z</time>
      </trkpt>
      <trkpt lat="45.5222" lon="6.72865">
        <ele>2096.49</ele>
        <time>2016-03-22T12:59:24Z</time>
      </trkpt>
      <trkpt lat="45.52211" lon="6.72842">
        <ele>2102.32</ele>
        <time>2016-03-22T12:59:33Z</time>
      </trkpt>
      <trkpt lat="45.522" lon="6.72819">
        <ele>2106.48</ele>
        <time>2016-03-22T12:59:43Z</time>
      </trkpt>
      <trkpt lat="45.52188" lon="6.72798">
        <ele>2107.53</ele>
        <time>2016-03-22T12:59:54Z</time>
      </trkpt>
      <trkpt lat="45.52176" lon="6.72776">
        <ele>2112.48</ele>
        <time>2016-03-22T13:00:06Z</time>
      </trkpt>
      <trkpt lat="45.52165" lon="6.72753">
        <ele>2117.48</ele>
        <time>2016-03-22T13:00:16Z</time>
      </trkpt>
      <trkpt lat="45.52156" lon="6.72731">
        <ele>2125.27</ele>
        <time>2016-03-22T13:00:26Z</time>
      </trkpt>
      <trkpt lat="45.52146" lon="6.72707">
        <ele>2132.48</ele>
        <time>2016-03-22T13:00:36Z</time>
      </trkpt>
      <trkpt lat="45.52136" lon="6.72685">
        <ele>2139.29</ele>
        <time>2016-03-22T13:00:45Z</time>
      </trkpt>
      <trkpt lat="45.52124" lon="6.72666">
        <ele>2146.33</ele>
        <time>2016-03-22T13:01:02Z</time>
      </trkpt>
      <trkpt lat="45.52113" lon="6.72644">
        <ele>2152.33</ele>
        <time>2016-03-22T13:01:25Z</time>
      </trkpt>
      <trkpt lat="45.52101" lon="6.72622">
        <ele>2164.25</ele>
        <time>2016-03-22T13:01:38Z</time>
      </trkpt>
      <trkpt lat="45.52089" lon="6.72599">
        <ele>2170.48</ele>
        <time>2016-03-22T13:01:49Z</time>
      </trkpt>
      <trkpt lat="45.52078" lon="6.72579">
        <ele>2178.32</ele>
        <time>2016-03-22T13:02:00Z</time>
      </trkpt>
      <trkpt lat="45.52068" lon="6.72557">
        <ele>2186.48</ele>
        <time>2016-03-22T13:02:11Z</time>
      </trkpt>
      <trkpt lat="45.52056" lon="6.72535">
        <ele>2190.32</ele>
        <time>2016-03-22T13:02:21Z</time>
      </trkpt>
      <trkpt lat="45.52045" lon="6.72514">
        <ele>2196.49</ele>
        <time>2016-03-22T13:02:32Z</time>
      </trkpt>
      <trkpt lat="45.52034" lon="6.72492">
        <ele>2203.49</ele>
        <time>2016-03-22T13:02:43Z</time>
      </trkpt>
      <trkpt lat="45.52024" lon="6.72469">
        <ele>2212.32</ele>
        <time>2016-03-22T13:02:54Z</time>
      </trkpt>
      <trkpt lat="45.52012" lon="6.72447">
        <ele>2217.32</ele>
        <time>2016-03-22T13:03:05Z</time>
      </trkpt>
      <trkpt lat="45.52002" lon="6.72423">
        <ele>2223.49</ele>
        <time>2016-03-22T13:03:16Z</time>
      </trkpt>
      <trkpt lat="45.51992" lon="6.724">
        <ele>2227.52</ele>
        <time>2016-03-22T13:03:26Z</time>
      </trkpt>
      <trkpt lat="45.51981" lon="6.72379">
        <ele>2232.49</ele>
        <time>2016-03-22T13:03:37Z</time>
      </trkpt>
      <trkpt lat="45.5197" lon="6.72356">
        <ele>2239.32</ele>
        <time>2016-03-22T13:03:48Z</time>
      </trkpt>
      <trkpt lat="45.51959" lon="6.72335">
        <ele>2242.48</ele>
        <time>2016-03-22T13:03:58Z</time>
      </trkpt>
      <trkpt lat="45.51948" lon="6.72313">
        <ele>2248.28</ele>
        <time>2016-03-22T13:04:08Z</time>
      </trkpt>
      <trkpt lat="45.51938" lon="6.72292">
        <ele>2252.29</ele>
        <time>2016-03-22T13:04:18Z</time>
      </trkpt>
      <trkpt lat="45.51927" lon="6.7227">
        <ele>2258.48</ele>
        <time>2016-03-22T13:04:28Z</time>
      </trkpt>
      <trkpt lat="45.51916" lon="6.72247">
        <ele>2263.49</ele>
        <time>2016-03-22T13:04:39Z</time>
      </trkpt>
      <trkpt lat="45.51906" lon="6.72224">
        <ele>2267.49</ele>
        <time>2016-03-22T13:04:49Z</time>
      </trkpt>
      <trkpt lat="45.51894" lon="6.72203">
        <ele>2273.33</ele>
        <time>2016-03-22T13:04:59Z</time>
      </trkpt>
      <trkpt lat="45.51881" lon="6.72183">
        <ele>2274.38</ele>
        <time>2016-03-22T13:05:10Z</time>
      </trkpt>
      <trkpt lat="45.5187" lon="6.7216">
        <ele>2277.5</ele>
        <time>2016-03-22T13:05:21Z</time>
      </trkpt>
      <trkpt lat="45.5186" lon="6.72136">
        <ele>2280.52</ele>
        <time>2016-03-22T13:05:32Z</time>
      </trkpt>
      <trkpt lat="45.51849" lon="6.72114">
        <ele>2282.48</ele>
        <time>2016-03-22T13:05:43Z</time>
      </trkpt>
      <trkpt lat="45.51838" lon="6.72091">
        <ele>2287.48</ele>
        <time>2016-03-22T13:05:54Z</time>
      </trkpt>
      <trkpt lat="45.51827" lon="6.7207">
        <ele>2289.53</ele>
        <time>2016-03-22T13:06:03Z</time>
      </trkpt>
      <trkpt lat="45.51814" lon="6.72049">
        <ele>2293.48</ele>
        <time>2016-03-22T13:06:14Z</time>
      </trkpt>
      <trkpt lat="45.51803" lon="6.72028">
        <ele>2301.28</ele>
        <time>2016-03-22T13:06:24Z</time>
      </trkpt>
      <trkpt lat="45.51792" lon="6.72008">
        <ele>2310.28</ele>
        <time>2016-03-22T13:06:34Z</time>
      </trkpt>
      <trkpt lat="45.51776" lon="6.71991">
        <ele>2315.25</ele>
        <time>2016-03-22T13:06:44Z</time>
      </trkpt>
      <trkpt lat="45.51761" lon="6.71975">
        <ele>2320.11</ele>
        <time>2016-03-22T13:06:55Z</time>
      </trkpt>
      <trkpt lat="45.51744" lon="6.71963">
        <ele>2324.53</ele>
        <time>2016-03-22T13:07:03Z</time>
      </trkpt>
      <trkpt lat="45.51754" lon="6.71929">
        <ele>2349.61</ele>
        <time>2016-03-22T13:07:15Z</time>
      </trkpt>
      <trkpt lat="45.51745" lon="6.71905">
        <ele>2365.25</ele>
        <time>2016-03-22T13:07:29Z</time>
      </trkpt>
      <trkpt lat="45.51734" lon="6.71882">
        <ele>2369.36</ele>
        <time>2016-03-22T13:07:38Z</time>
      </trkpt>
      <trkpt lat="45.51748" lon="6.71866">
        <ele>2371.73</ele>
        <time>2016-03-22T13:08:38Z</time>
      </trkpt>
      <trkpt lat="45.51764" lon="6.71847">
        <ele>2371.74</ele>
        <time>2016-03-22T13:08:48Z</time>
      </trkpt>
      <trkpt lat="45.5178" lon="6.71836">
        <ele>2368.54</ele>
        <time>2016-03-22T13:08:54Z</time>
      </trkpt>
      <trkpt lat="45.51798" lon="6.71826">
        <ele>2367.73</ele>
        <time>2016-03-22T13:08:58Z</time>
      </trkpt>
      <trkpt lat="45.51819" lon="6.71815">
        <ele>2366.53</ele>
        <time>2016-03-22T13:09:02Z</time>
      </trkpt>
      <trkpt lat="45.51841" lon="6.71803">
        <ele>2367.3</ele>
        <time>2016-03-22T13:09:05Z</time>
      </trkpt>
      <trkpt lat="45.51866" lon="6.71793">
        <ele>2366.38</ele>
        <time>2016-03-22T13:09:08Z</time>
      </trkpt>
      <trkpt lat="45.51886" lon="6.71785">
        <ele>2363.96</ele>
        <time>2016-03-22T13:09:10Z</time>
      </trkpt>
      <trkpt lat="45.51906" lon="6.71783">
        <ele>2363.55</ele>
        <time>2016-03-22T13:09:12Z</time>
      </trkpt>
      <trkpt lat="45.51931" lon="6.71784">
        <ele>2362.57</ele>
        <time>2016-03-22T13:09:14Z</time>
      </trkpt>
      <trkpt lat="45.51955" lon="6.7179">
        <ele>2360.58</ele>
        <time>2016-03-22T13:09:17Z</time>
      </trkpt>
      <trkpt lat="45.51975" lon="6.71791">
        <ele>2359.57</ele>
        <time>2016-03-22T13:09:19Z</time>
      </trkpt>
      <trkpt lat="45.51996" lon="6.71791">
        <ele>2356.97</ele>
        <time>2016-03-22T13:09:21Z</time>
      </trkpt>
      <trkpt lat="45.52015" lon="6.71788">
        <ele>2355.75</ele>
        <time>2016-03-22T13:09:23Z</time>
      </trkpt>
      <trkpt lat="45.5203" lon="6.71774">
        <ele>2343.05</ele>
        <time>2016-03-22T13:09:26Z</time>
      </trkpt>
      <trkpt lat="45.52054" lon="6.7176">
        <ele>2342.55</ele>
        <time>2016-03-22T13:09:28Z</time>
      </trkpt>
      <trkpt lat="45.52073" lon="6.71735">
        <ele>2338.69</ele>
        <time>2016-03-22T13:09:31Z</time>
      </trkpt>
      <trkpt lat="45.52088" lon="6.71705">
        <ele>2335.78</ele>
        <time>2016-03-22T13:09:34Z</time>
      </trkpt>
      <trkpt lat="45.52094" lon="6.71673">
        <ele>2329.04</ele>
        <time>2016-03-22T13:09:37Z</time>
      </trkpt>
      <trkpt lat="45.5208" lon="6.71644">
        <ele>2324.6</ele>
        <time>2016-03-22T13:09:40Z</time>
      </trkpt>
      <trkpt lat="45.52061" lon="6.71627">
        <ele>2320.85</ele>
        <time>2016-03-22T13:09:42Z</time>
      </trkpt>
      <trkpt lat="45.52044" lon="6.71603">
        <ele>2318.78</ele>
        <time>2016-03-22T13:09:44Z</time>
      </trkpt>
      <trkpt lat="45.52025" lon="6.71583">
        <ele>2315.02</ele>
        <time>2016-03-22T13:09:46Z</time>
      </trkpt>
      <trkpt lat="45.52008" lon="6.71567">
        <ele>2312.79</ele>
        <time>2016-03-22T13:09:48Z</time>
      </trkpt>
      <trkpt lat="45.51993" lon="6.7155">
        <ele>2309.02</ele>
        <time>2016-03-22T13:09:50Z</time>
      </trkpt>
      <trkpt lat="45.51976" lon="6.7153">
        <ele>2305.83</ele>
        <time>2016-03-22T13:09:52Z</time>
      </trkpt>
      <trkpt lat="45.5196" lon="6.71516">
        <ele>2303.78</ele>
        <time>2016-03-22T13:09:54Z</time>
      </trkpt>
      <trkpt lat="45.51939" lon="6.71503">
        <ele>2304.36</ele>
        <time>2016-03-22T13:09:57Z</time>
      </trkpt>
      <trkpt lat="45.51918" lon="6.71496">
        <ele>2303.53</ele>
        <time>2016-03-22T13:10:01Z</time>
      </trkpt>
      <trkpt lat="45.51897" lon="6.71492">
        <ele>2302.73</ele>
        <time>2016-03-22T13:10:05Z</time>
      </trkpt>
      <trkpt lat="45.51875" lon="6.71489">
        <ele>2301.57</ele>
        <time>2016-03-22T13:10:09Z</time>
      </trkpt>
      <trkpt lat="45.51857" lon="6.71489">
        <ele>2300.54</ele>
        <time>2016-03-22T13:10:13Z</time>
      </trkpt>
      <trkpt lat="45.51837" lon="6.71485">
        <ele>2299.73</ele>
        <time>2016-03-22T13:10:19Z</time>
      </trkpt>
      <trkpt lat="45.51818" lon="6.71482">
        <ele>2300.36</ele>
        <time>2016-03-22T13:10:24Z</time>
      </trkpt>
      <trkpt lat="45.51798" lon="6.71481">
        <ele>2296.78</ele>
        <time>2016-03-22T13:10:28Z</time>
      </trkpt>
      <trkpt lat="45.51779" lon="6.71477">
        <ele>2294.74</ele>
        <time>2016-03-22T13:10:31Z</time>
      </trkpt>
      <trkpt lat="45.51759" lon="6.71457">
        <ele>2291.94</ele>
        <time>2016-03-22T13:10:35Z</time>
      </trkpt>
      <trkpt lat="45.51747" lon="6.7143">
        <ele>2281.43</ele>
        <time>2016-03-22T13:10:39Z</time>
      </trkpt>
      <trkpt lat="45.51743" lon="6.71394">
        <ele>2276.95</ele>
        <time>2016-03-22T13:10:42Z</time>
      </trkpt>
      <trkpt lat="45.51736" lon="6.71356">
        <ele>2271.83</ele>
        <time>2016-03-22T13:10:45Z</time>
      </trkpt>
      <trkpt lat="45.51726" lon="6.71327">
        <ele>2267.86</ele>
        <time>2016-03-22T13:10:47Z</time>
      </trkpt>
      <trkpt lat="45.51722" lon="6.71301">
        <ele>2266.58</ele>
        <time>2016-03-22T13:10:49Z</time>
      </trkpt>
      <trkpt lat="45.51716" lon="6.71269">
        <ele>2259.17</ele>
        <time>2016-03-22T13:10:51Z</time>
      </trkpt>
      <trkpt lat="45.51708" lon="6.71238">
        <ele>2251.68</ele>
        <time>2016-03-22T13:10:53Z</time>
      </trkpt>
      <trkpt lat="45.51698" lon="6.71208">
        <ele>2245.94</ele>
        <time>2016-03-22T13:10:55Z</time>
      </trkpt>
      <trkpt lat="45.51689" lon="6.71171">
        <ele>2239.31</ele>
        <time>2016-03-22T13:10:57Z</time>
      </trkpt>
      <trkpt lat="45.5167" lon="6.7114">
        <ele>2228.64</ele>
        <time>2016-03-22T13:10:59Z</time>
      </trkpt>
      <trkpt lat="45.51663" lon="6.71107">
        <ele>2225.02</ele>
        <time>2016-03-22T13:11:01Z</time>
      </trkpt>
      <trkpt lat="45.51651" lon="6.7108">
        <ele>2222.79</ele>
        <time>2016-03-22T13:11:03Z</time>
      </trkpt>
      <trkpt lat="45.51638" lon="6.71055">
        <ele>2217.42</ele>
        <time>2016-03-22T13:11:05Z</time>
      </trkpt>
      <trkpt lat="45.5162" lon="6.71043">
        <ele>2213.85</ele>
        <time>2016-03-22T13:11:07Z</time>
      </trkpt>
      <trkpt lat="45.516" lon="6.71041">
        <ele>2211.62</ele>
        <time>2016-03-22T13:11:09Z</time>
      </trkpt>
      <trkpt lat="45.51585" lon="6.71021">
        <ele>2206.57</ele>
        <time>2016-03-22T13:11:11Z</time>
      </trkpt>
      <trkpt lat="45.51563" lon="6.7101">
        <ele>2201.89</ele>
        <time>2016-03-22T13:11:13Z</time>
      </trkpt>
      <trkpt lat="45.51537" lon="6.7101">
        <ele>2195.63</ele>
        <time>2016-03-22T13:11:15Z</time>
      </trkpt>
      <trkpt lat="45.51513" lon="6.70995">
        <ele>2190.25</ele>
        <time>2016-03-22T13:11:17Z</time>
      </trkpt>
      <trkpt lat="45.5149" lon="6.70979">
        <ele>2183.32</ele>
        <time>2016-03-22T13:11:19Z</time>
      </trkpt>
      <trkpt lat="45.51469" lon="6.70965">
        <ele>2179.04</ele>
        <time>2016-03-22T13:11:21Z</time>
      </trkpt>
      <trkpt lat="45.51453" lon="6.70947">
        <ele>2175.03</ele>
        <time>2016-03-22T13:11:23Z</time>
      </trkpt>
      <trkpt lat="45.51437" lon="6.70931">
        <ele>2172.79</ele>
        <time>2016-03-22T13:11:25Z</time>
      </trkpt>
      <trkpt lat="45.51423" lon="6.70915">
        <ele>2169.98</ele>
        <time>2016-03-22T13:11:27Z</time>
      </trkpt>
      <trkpt lat="45.51408" lon="6.70898">
        <ele>2166.03</ele>
        <time>2016-03-22T13:11:29Z</time>
      </trkpt>
      <trkpt lat="45.51393" lon="6.70883">
        <ele>2163.79</ele>
        <time>2016-03-22T13:11:31Z</time>
      </trkpt>
      <trkpt lat="45.51371" lon="6.70864">
        <ele>2159.82</ele>
        <time>2016-03-22T13:11:34Z</time>
      </trkpt>
      <trkpt lat="45.51356" lon="6.70851">
        <ele>2156.82</ele>
        <time>2016-03-22T13:11:36Z</time>
      </trkpt>
      <trkpt lat="45.5134" lon="6.70837">
        <ele>2153.82</ele>
        <time>2016-03-22T13:11:38Z</time>
      </trkpt>
      <trkpt lat="45.5132" lon="6.70819">
        <ele>2151.74</ele>
        <time>2016-03-22T13:11:41Z</time>
      </trkpt>
      <trkpt lat="45.51301" lon="6.70808">
        <ele>2149.57</ele>
        <time>2016-03-22T13:11:45Z</time>
      </trkpt>
      <trkpt lat="45.51281" lon="6.70794">
        <ele>2145.75</ele>
        <time>2016-03-22T13:11:49Z</time>
      </trkpt>
      <trkpt lat="45.51268" lon="6.70774">
        <ele>2138.93</ele>
        <time>2016-03-22T13:12:16Z</time>
      </trkpt>
      <trkpt lat="45.5126" lon="6.7075">
        <ele>2136.18</ele>
        <time>2016-03-22T13:12:36Z</time>
      </trkpt>
      <trkpt lat="45.5124" lon="6.70732">
        <ele>2126.9</ele>
        <time>2016-03-22T13:12:39Z</time>
      </trkpt>
      <trkpt lat="45.51223" lon="6.70715">
        <ele>2120.31</ele>
        <time>2016-03-22T13:12:41Z</time>
      </trkpt>
      <trkpt lat="45.51205" lon="6.70719">
        <ele>2115.08</ele>
        <time>2016-03-22T13:12:43Z</time>
      </trkpt>
      <trkpt lat="45.51179" lon="6.70712">
        <ele>2109</ele>
        <time>2016-03-22T13:12:46Z</time>
      </trkpt>
      <trkpt lat="45.51161" lon="6.70703">
        <ele>2107.59</ele>
        <time>2016-03-22T13:12:48Z</time>
      </trkpt>
      <trkpt lat="45.51144" lon="6.70693">
        <ele>2104.97</ele>
        <time>2016-03-22T13:12:50Z</time>
      </trkpt>
      <trkpt lat="45.51117" lon="6.70688">
        <ele>2099.03</ele>
        <time>2016-03-22T13:12:53Z</time>
      </trkpt>
      <trkpt lat="45.51099" lon="6.70684">
        <ele>2095.19</ele>
        <time>2016-03-22T13:12:55Z</time>
      </trkpt>
      <trkpt lat="45.51088" lon="6.70662">
        <ele>2091.14</ele>
        <time>2016-03-22T13:12:58Z</time>
      </trkpt>
      <trkpt lat="45.51074" lon="6.70639">
        <ele>2086.79</ele>
        <time>2016-03-22T13:13:01Z</time>
      </trkpt>
      <trkpt lat="45.51067" lon="6.70611">
        <ele>2079.78</ele>
        <time>2016-03-22T13:13:04Z</time>
      </trkpt>
      <trkpt lat="45.51061" lon="6.70583">
        <ele>2075.79</ele>
        <time>2016-03-22T13:13:07Z</time>
      </trkpt>
      <trkpt lat="45.51064" lon="6.70556">
        <ele>2071.86</ele>
        <time>2016-03-22T13:13:09Z</time>
      </trkpt>
      <trkpt lat="45.51067" lon="6.70516">
        <ele>2066.19</ele>
        <time>2016-03-22T13:13:12Z</time>
      </trkpt>
      <trkpt lat="45.51063" lon="6.70484">
        <ele>2062.04</ele>
        <time>2016-03-22T13:13:14Z</time>
      </trkpt>
      <trkpt lat="45.51075" lon="6.70442">
        <ele>2055.47</ele>
        <time>2016-03-22T13:13:16Z</time>
      </trkpt>
      <trkpt lat="45.51094" lon="6.70423">
        <ele>2051.05</ele>
        <time>2016-03-22T13:13:18Z</time>
      </trkpt>
      <trkpt lat="45.51112" lon="6.70397">
        <ele>2048.79</ele>
        <time>2016-03-22T13:13:20Z</time>
      </trkpt>
      <trkpt lat="45.51128" lon="6.70381">
        <ele>2044.06</ele>
        <time>2016-03-22T13:13:22Z</time>
      </trkpt>
      <trkpt lat="45.51143" lon="6.70357">
        <ele>2040.99</ele>
        <time>2016-03-22T13:13:24Z</time>
      </trkpt>
      <trkpt lat="45.51157" lon="6.70339">
        <ele>2035.91</ele>
        <time>2016-03-22T13:13:26Z</time>
      </trkpt>
      <trkpt lat="45.51162" lon="6.70314">
        <ele>2024.35</ele>
        <time>2016-03-22T13:13:28Z</time>
      </trkpt>
      <trkpt lat="45.51174" lon="6.70288">
        <ele>2020.04</ele>
        <time>2016-03-22T13:13:30Z</time>
      </trkpt>
      <trkpt lat="45.5119" lon="6.70263">
        <ele>2018.75</ele>
        <time>2016-03-22T13:13:32Z</time>
      </trkpt>
      <trkpt lat="45.51207" lon="6.70231">
        <ele>2017.74</ele>
        <time>2016-03-22T13:13:34Z</time>
      </trkpt>
      <trkpt lat="45.51213" lon="6.70193">
        <ele>2002.2</ele>
        <time>2016-03-22T13:13:37Z</time>
      </trkpt>
      <trkpt lat="45.51222" lon="6.70167">
        <ele>1998.84</ele>
        <time>2016-03-22T13:13:39Z</time>
      </trkpt>
      <trkpt lat="45.51231" lon="6.70137">
        <ele>1993.86</ele>
        <time>2016-03-22T13:13:42Z</time>
      </trkpt>
      <trkpt lat="45.51226" lon="6.70111">
        <ele>1973.23</ele>
        <time>2016-03-22T13:13:55Z</time>
      </trkpt>
      <trkpt lat="45.51227" lon="6.70078">
        <ele>1967.03</ele>
        <time>2016-03-22T13:13:58Z</time>
      </trkpt>
      <trkpt lat="45.51225" lon="6.70042">
        <ele>1963.59</ele>
        <time>2016-03-22T13:14:01Z</time>
      </trkpt>
      <trkpt lat="45.5122" lon="6.70015">
        <ele>1960.97</ele>
        <time>2016-03-22T13:14:03Z</time>
      </trkpt>
      <trkpt lat="45.51221" lon="6.69989">
        <ele>1959.75</ele>
        <time>2016-03-22T13:14:05Z</time>
      </trkpt>
      <trkpt lat="45.51216" lon="6.69963">
        <ele>1956.98</ele>
        <time>2016-03-22T13:14:07Z</time>
      </trkpt>
      <trkpt lat="45.51207" lon="6.6993">
        <ele>1953.62</ele>
        <time>2016-03-22T13:14:10Z</time>
      </trkpt>
      <trkpt lat="45.51212" lon="6.69893">
        <ele>1948.03</ele>
        <time>2016-03-22T13:14:13Z</time>
      </trkpt>
      <trkpt lat="45.51202" lon="6.69869">
        <ele>1942.03</ele>
        <time>2016-03-22T13:14:16Z</time>
      </trkpt>
      <trkpt lat="45.51189" lon="6.6985">
        <ele>1934.53</ele>
        <time>2016-03-22T13:14:27Z</time>
      </trkpt>
      <trkpt lat="45.51172" lon="6.69838">
        <ele>1937.53</ele>
        <time>2016-03-22T13:15:59Z</time>
      </trkpt>
      <trkpt lat="45.51153" lon="6.69843">
        <ele>1939.73</ele>
        <time>2016-03-22T13:17:15Z</time>
      </trkpt>
      <trkpt lat="45.51134" lon="6.69859">
        <ele>1938.38</ele>
        <time>2016-03-22T13:17:19Z</time>
      </trkpt>
      <trkpt lat="45.51117" lon="6.69868">
        <ele>1942.44</ele>
        <time>2016-03-22T13:17:23Z</time>
      </trkpt>
      <trkpt lat="45.51099" lon="6.69879">
        <ele>1947.47</ele>
        <time>2016-03-22T13:17:27Z</time>
      </trkpt>
      <trkpt lat="45.5108" lon="6.6989">
        <ele>1951.2</ele>
        <time>2016-03-22T13:17:32Z</time>
      </trkpt>
      <trkpt lat="45.51064" lon="6.69904">
        <ele>1953.34</ele>
        <time>2016-03-22T13:17:37Z</time>
      </trkpt>
      <trkpt lat="45.51046" lon="6.69912">
        <ele>1957.29</ele>
        <time>2016-03-22T13:17:41Z</time>
      </trkpt>
      <trkpt lat="45.51028" lon="6.69923">
        <ele>1962.32</ele>
        <time>2016-03-22T13:17:45Z</time>
      </trkpt>
      <trkpt lat="45.51008" lon="6.69935">
        <ele>1965.28</ele>
        <time>2016-03-22T13:17:50Z</time>
      </trkpt>
      <trkpt lat="45.50989" lon="6.69947">
        <ele>1970.43</ele>
        <time>2016-03-22T13:17:55Z</time>
      </trkpt>
      <trkpt lat="45.5097" lon="6.69959">
        <ele>1974.51</ele>
        <time>2016-03-22T13:18:00Z</time>
      </trkpt>
      <trkpt lat="45.5095" lon="6.69971">
        <ele>1976.33</ele>
        <time>2016-03-22T13:18:05Z</time>
      </trkpt>
      <trkpt lat="45.50932" lon="6.69981">
        <ele>1980.64</ele>
        <time>2016-03-22T13:18:09Z</time>
      </trkpt>
      <trkpt lat="45.50913" lon="6.69991">
        <ele>1985.92</ele>
        <time>2016-03-22T13:18:14Z</time>
      </trkpt>
      <trkpt lat="45.50894" lon="6.69999">
        <ele>1993.27</ele>
        <time>2016-03-22T13:18:18Z</time>
      </trkpt>
      <trkpt lat="45.50876" lon="6.70007">
        <ele>1999.08</ele>
        <time>2016-03-22T13:18:22Z</time>
      </trkpt>
      <trkpt lat="45.50859" lon="6.70017">
        <ele>2002.12</ele>
        <time>2016-03-22T13:18:26Z</time>
      </trkpt>
      <trkpt lat="45.50842" lon="6.70026">
        <ele>2005.48</ele>
        <time>2016-03-22T13:18:30Z</time>
      </trkpt>
      <trkpt lat="45.50826" lon="6.70042">
        <ele>2008.52</ele>
        <time>2016-03-22T13:18:35Z</time>
      </trkpt>
      <trkpt lat="45.50808" lon="6.70057">
        <ele>2011.13</ele>
        <time>2016-03-22T13:18:40Z</time>
      </trkpt>
      <trkpt lat="45.50789" lon="6.70068">
        <ele>2014.25</ele>
        <time>2016-03-22T13:18:45Z</time>
      </trkpt>
      <trkpt lat="45.5077" lon="6.70078">
        <ele>2020.23</ele>
        <time>2016-03-22T13:18:50Z</time>
      </trkpt>
      <trkpt lat="45.50749" lon="6.70089">
        <ele>2027.08</ele>
        <time>2016-03-22T13:18:55Z</time>
      </trkpt>
      <trkpt lat="45.5073" lon="6.70099">
        <ele>2030.52</ele>
        <time>2016-03-22T13:18:59Z</time>
      </trkpt>
      <trkpt lat="45.50709" lon="6.7011">
        <ele>2035.28</ele>
        <time>2016-03-22T13:19:04Z</time>
      </trkpt>
      <trkpt lat="45.50688" lon="6.70124">
        <ele>2037.32</ele>
        <time>2016-03-22T13:19:09Z</time>
      </trkpt>
      <trkpt lat="45.50668" lon="6.70136">
        <ele>2039.33</ele>
        <time>2016-03-22T13:19:14Z</time>
      </trkpt>
      <trkpt lat="45.50648" lon="6.7015">
        <ele>2040.33</ele>
        <time>2016-03-22T13:19:19Z</time>
      </trkpt>
      <trkpt lat="45.5063" lon="6.70164">
        <ele>2042.49</ele>
        <time>2016-03-22T13:19:24Z</time>
      </trkpt>
      <trkpt lat="45.5061" lon="6.70177">
        <ele>2044.52</ele>
        <time>2016-03-22T13:19:29Z</time>
      </trkpt>
      <trkpt lat="45.50592" lon="6.70187">
        <ele>2046.52</ele>
        <time>2016-03-22T13:19:33Z</time>
      </trkpt>
      <trkpt lat="45.50571" lon="6.70194">
        <ele>2054.2</ele>
        <time>2016-03-22T13:19:37Z</time>
      </trkpt>
      <trkpt lat="45.50552" lon="6.70205">
        <ele>2057.53</ele>
        <time>2016-03-22T13:19:42Z</time>
      </trkpt>
      <trkpt lat="45.50533" lon="6.70218">
        <ele>2058.53</ele>
        <time>2016-03-22T13:19:47Z</time>
      </trkpt>
      <trkpt lat="45.50512" lon="6.70231">
        <ele>2061.89</ele>
        <time>2016-03-22T13:19:52Z</time>
      </trkpt>
      <trkpt lat="45.50495" lon="6.7024">
        <ele>2067.5</ele>
        <time>2016-03-22T13:19:56Z</time>
      </trkpt>
      <trkpt lat="45.50476" lon="6.70247">
        <ele>2074.03</ele>
        <time>2016-03-22T13:20:00Z</time>
      </trkpt>
      <trkpt lat="45.50459" lon="6.70257">
        <ele>2080.07</ele>
        <time>2016-03-22T13:20:04Z</time>
      </trkpt>
      <trkpt lat="45.50441" lon="6.70272">
        <ele>2084.47</ele>
        <time>2016-03-22T13:20:09Z</time>
      </trkpt>
      <trkpt lat="45.50422" lon="6.70282">
        <ele>2089.27</ele>
        <time>2016-03-22T13:20:14Z</time>
      </trkpt>
      <trkpt lat="45.50404" lon="6.70293">
        <ele>2092.49</ele>
        <time>2016-03-22T13:20:19Z</time>
      </trkpt>
      <trkpt lat="45.50382" lon="6.70305">
        <ele>2099.12</ele>
        <time>2016-03-22T13:20:24Z</time>
      </trkpt>
      <trkpt lat="45.50363" lon="6.70316">
        <ele>2103.44</ele>
        <time>2016-03-22T13:20:28Z</time>
      </trkpt>
      <trkpt lat="45.50344" lon="6.70326">
        <ele>2110.67</ele>
        <time>2016-03-22T13:20:33Z</time>
      </trkpt>
      <trkpt lat="45.50324" lon="6.70334">
        <ele>2120.04</ele>
        <time>2016-03-22T13:20:38Z</time>
      </trkpt>
      <trkpt lat="45.50302" lon="6.70345">
        <ele>2124.31</ele>
        <time>2016-03-22T13:20:43Z</time>
      </trkpt>
      <trkpt lat="45.50279" lon="6.70358">
        <ele>2131.27</ele>
        <time>2016-03-22T13:20:48Z</time>
      </trkpt>
      <trkpt lat="45.50262" lon="6.7037">
        <ele>2136.51</ele>
        <time>2016-03-22T13:20:53Z</time>
      </trkpt>
      <trkpt lat="45.50244" lon="6.70379">
        <ele>2142.12</ele>
        <time>2016-03-22T13:20:58Z</time>
      </trkpt>
      <trkpt lat="45.50224" lon="6.70392">
        <ele>2144.52</ele>
        <time>2016-03-22T13:21:03Z</time>
      </trkpt>
      <trkpt lat="45.50206" lon="6.70402">
        <ele>2148.11</ele>
        <time>2016-03-22T13:21:07Z</time>
      </trkpt>
      <trkpt lat="45.50189" lon="6.70411">
        <ele>2153.28</ele>
        <time>2016-03-22T13:21:11Z</time>
      </trkpt>
      <trkpt lat="45.5017" lon="6.70422">
        <ele>2159.24</ele>
        <time>2016-03-22T13:21:15Z</time>
      </trkpt>
      <trkpt lat="45.50151" lon="6.70433">
        <ele>2163.28</ele>
        <time>2016-03-22T13:21:19Z</time>
      </trkpt>
      <trkpt lat="45.50131" lon="6.70445">
        <ele>2168.29</ele>
        <time>2016-03-22T13:21:25Z</time>
      </trkpt>
      <trkpt lat="45.5011" lon="6.70457">
        <ele>2172.28</ele>
        <time>2016-03-22T13:21:30Z</time>
      </trkpt>
      <trkpt lat="45.5009" lon="6.70468">
        <ele>2176.43</ele>
        <time>2016-03-22T13:21:34Z</time>
      </trkpt>
      <trkpt lat="45.50073" lon="6.70477">
        <ele>2182.07</ele>
        <time>2016-03-22T13:21:38Z</time>
      </trkpt>
      <trkpt lat="45.50054" lon="6.7049">
        <ele>2185.28</ele>
        <time>2016-03-22T13:21:43Z</time>
      </trkpt>
      <trkpt lat="45.50035" lon="6.70505">
        <ele>2186.49</ele>
        <time>2016-03-22T13:21:48Z</time>
      </trkpt>
      <trkpt lat="45.50015" lon="6.70516">
        <ele>2187.5</ele>
        <time>2016-03-22T13:21:52Z</time>
      </trkpt>
      <trkpt lat="45.49996" lon="6.70528">
        <ele>2191.47</ele>
        <time>2016-03-22T13:21:57Z</time>
      </trkpt>
      <trkpt lat="45.49974" lon="6.70539">
        <ele>2195.68</ele>
        <time>2016-03-22T13:22:02Z</time>
      </trkpt>
      <trkpt lat="45.49954" lon="6.70551">
        <ele>2199.67</ele>
        <time>2016-03-22T13:22:07Z</time>
      </trkpt>
      <trkpt lat="45.49934" lon="6.70563">
        <ele>2202.52</ele>
        <time>2016-03-22T13:22:12Z</time>
      </trkpt>
      <trkpt lat="45.49916" lon="6.70574">
        <ele>2206.92</ele>
        <time>2016-03-22T13:22:16Z</time>
      </trkpt>
      <trkpt lat="45.49895" lon="6.70582">
        <ele>2214.4</ele>
        <time>2016-03-22T13:22:22Z</time>
      </trkpt>
      <trkpt lat="45.49879" lon="6.70592">
        <ele>2217.32</ele>
        <time>2016-03-22T13:22:26Z</time>
      </trkpt>
      <trkpt lat="45.49862" lon="6.70602">
        <ele>2217.53</ele>
        <time>2016-03-22T13:22:30Z</time>
      </trkpt>
      <trkpt lat="45.4984" lon="6.70614">
        <ele>2222.45</ele>
        <time>2016-03-22T13:22:35Z</time>
      </trkpt>
      <trkpt lat="45.49824" lon="6.70624">
        <ele>2224.28</ele>
        <time>2016-03-22T13:22:39Z</time>
      </trkpt>
      <trkpt lat="45.49806" lon="6.70636">
        <ele>2224.08</ele>
        <time>2016-03-22T13:22:44Z</time>
      </trkpt>
      <trkpt lat="45.49787" lon="6.70645">
        <ele>2227.28</ele>
        <time>2016-03-22T13:22:48Z</time>
      </trkpt>
      <trkpt lat="45.49769" lon="6.70655">
        <ele>2228.49</ele>
        <time>2016-03-22T13:22:53Z</time>
      </trkpt>
      <trkpt lat="45.49748" lon="6.70666">
        <ele>2231.52</ele>
        <time>2016-03-22T13:22:58Z</time>
      </trkpt>
      <trkpt lat="45.49727" lon="6.70677">
        <ele>2233.52</ele>
        <time>2016-03-22T13:23:03Z</time>
      </trkpt>
      <trkpt lat="45.49709" lon="6.70687">
        <ele>2237.28</ele>
        <time>2016-03-22T13:23:07Z</time>
      </trkpt>
      <trkpt lat="45.49691" lon="6.70699">
        <ele>2239.52</ele>
        <time>2016-03-22T13:23:12Z</time>
      </trkpt>
      <trkpt lat="45.49673" lon="6.7071">
        <ele>2241.52</ele>
        <time>2016-03-22T13:23:16Z</time>
      </trkpt>
      <trkpt lat="45.49655" lon="6.70721">
        <ele>2240.61</ele>
        <time>2016-03-22T13:23:20Z</time>
      </trkpt>
      <trkpt lat="45.49633" lon="6.70734">
        <ele>2242.52</ele>
        <time>2016-03-22T13:23:25Z</time>
      </trkpt>
      <trkpt lat="45.49616" lon="6.70743">
        <ele>2243.48</ele>
        <time>2016-03-22T13:23:29Z</time>
      </trkpt>
      <trkpt lat="45.49599" lon="6.70752">
        <ele>2244.48</ele>
        <time>2016-03-22T13:23:33Z</time>
      </trkpt>
      <trkpt lat="45.49581" lon="6.70761">
        <ele>2247.47</ele>
        <time>2016-03-22T13:23:37Z</time>
      </trkpt>
      <trkpt lat="45.49561" lon="6.70771">
        <ele>2250.29</ele>
        <time>2016-03-22T13:23:42Z</time>
      </trkpt>
      <trkpt lat="45.49544" lon="6.70782">
        <ele>2252.13</ele>
        <time>2016-03-22T13:23:46Z</time>
      </trkpt>
      <trkpt lat="45.49526" lon="6.70791">
        <ele>2257.31</ele>
        <time>2016-03-22T13:23:51Z</time>
      </trkpt>
      <trkpt lat="45.49509" lon="6.70804">
        <ele>2257.69</ele>
        <time>2016-03-22T13:23:55Z</time>
      </trkpt>
      <trkpt lat="45.49488" lon="6.70816">
        <ele>2261.32</ele>
        <time>2016-03-22T13:24:00Z</time>
      </trkpt>
      <trkpt lat="45.4947" lon="6.70828">
        <ele>2264.51</ele>
        <time>2016-03-22T13:24:04Z</time>
      </trkpt>
      <trkpt lat="45.49451" lon="6.70837">
        <ele>2269.09</ele>
        <time>2016-03-22T13:24:08Z</time>
      </trkpt>
      <trkpt lat="45.49432" lon="6.7085">
        <ele>2275.27</ele>
        <time>2016-03-22T13:24:14Z</time>
      </trkpt>
      <trkpt lat="45.49416" lon="6.70862">
        <ele>2278.09</ele>
        <time>2016-03-22T13:24:18Z</time>
      </trkpt>
      <trkpt lat="45.49397" lon="6.70873">
        <ele>2282.08</ele>
        <time>2016-03-22T13:24:22Z</time>
      </trkpt>
      <trkpt lat="45.49377" lon="6.70887">
        <ele>2289.11</ele>
        <time>2016-03-22T13:24:28Z</time>
      </trkpt>
      <trkpt lat="45.49357" lon="6.70899">
        <ele>2295.08</ele>
        <time>2016-03-22T13:24:32Z</time>
      </trkpt>
      <trkpt lat="45.49337" lon="6.70911">
        <ele>2302.28</ele>
        <time>2016-03-22T13:24:37Z</time>
      </trkpt>
      <trkpt lat="45.49321" lon="6.70928">
        <ele>2305.45</ele>
        <time>2016-03-22T13:24:43Z</time>
      </trkpt>
      <trkpt lat="45.49303" lon="6.70939">
        <ele>2314.83</ele>
        <time>2016-03-22T13:24:48Z</time>
      </trkpt>
      <trkpt lat="45.49285" lon="6.70949">
        <ele>2329.22</ele>
        <time>2016-03-22T13:24:55Z</time>
      </trkpt>
      <trkpt lat="45.49267" lon="6.70964">
        <ele>2331.33</ele>
        <time>2016-03-22T13:25:00Z</time>
      </trkpt>
      <trkpt lat="45.49248" lon="6.70962">
        <ele>2347.12</ele>
        <time>2016-03-22T13:25:11Z</time>
      </trkpt>
      <trkpt lat="45.4923" lon="6.70961">
        <ele>2359.48</ele>
        <time>2016-03-22T13:25:25Z</time>
      </trkpt>
      <trkpt lat="45.49212" lon="6.70961">
        <ele>2365.52</ele>
        <time>2016-03-22T13:25:37Z</time>
      </trkpt>
      <trkpt lat="45.49193" lon="6.70962">
        <ele>2371.53</ele>
        <time>2016-03-22T13:26:33Z</time>
      </trkpt>
      <trkpt lat="45.49172" lon="6.7097">
        <ele>2369.73</ele>
        <time>2016-03-22T13:26:43Z</time>
      </trkpt>
      <trkpt lat="45.4915" lon="6.70975">
        <ele>2368.54</ele>
        <time>2016-03-22T13:26:48Z</time>
      </trkpt>
      <trkpt lat="45.4913" lon="6.70983">
        <ele>2364.91</ele>
        <time>2016-03-22T13:26:52Z</time>
      </trkpt>
      <trkpt lat="45.49108" lon="6.70993">
        <ele>2360.75</ele>
        <time>2016-03-22T13:26:56Z</time>
      </trkpt>
      <trkpt lat="45.49089" lon="6.71002">
        <ele>2358.74</ele>
        <time>2016-03-22T13:27:00Z</time>
      </trkpt>
      <trkpt lat="45.4907" lon="6.71011">
        <ele>2356.74</ele>
        <time>2016-03-22T13:27:04Z</time>
      </trkpt>
      <trkpt lat="45.4905" lon="6.71016">
        <ele>2348.3</ele>
        <time>2016-03-22T13:27:08Z</time>
      </trkpt>
      <trkpt lat="45.49026" lon="6.71019">
        <ele>2344.77</ele>
        <time>2016-03-22T13:27:12Z</time>
      </trkpt>
      <trkpt lat="45.49007" lon="6.71008">
        <ele>2339.03</ele>
        <time>2016-03-22T13:27:15Z</time>
      </trkpt>
      <trkpt lat="45.48988" lon="6.71024">
        <ele>2334.34</ele>
        <time>2016-03-22T13:27:18Z</time>
      </trkpt>
      <trkpt lat="45.48963" lon="6.7102">
        <ele>2325.51</ele>
        <time>2016-03-22T13:27:21Z</time>
      </trkpt>
      <trkpt lat="45.48939" lon="6.71018">
        <ele>2319.93</ele>
        <time>2016-03-22T13:27:23Z</time>
      </trkpt>
      <trkpt lat="45.48921" lon="6.71009">
        <ele>2314.91</ele>
        <time>2016-03-22T13:27:25Z</time>
      </trkpt>
      <trkpt lat="45.48916" lon="6.70975">
        <ele>2310.62</ele>
        <time>2016-03-22T13:27:29Z</time>
      </trkpt>
      <trkpt lat="45.48928" lon="6.70953">
        <ele>2306.63</ele>
        <time>2016-03-22T13:27:32Z</time>
      </trkpt>
      <trkpt lat="45.48934" lon="6.70927">
        <ele>2305.93</ele>
        <time>2016-03-22T13:27:39Z</time>
      </trkpt>
      <trkpt lat="45.48938" lon="6.70901">
        <ele>2305.76</ele>
        <time>2016-03-22T13:27:47Z</time>
      </trkpt>
      <trkpt lat="45.48948" lon="6.70926">
        <ele>2302.54</ele>
        <time>2016-03-22T13:29:42Z</time>
      </trkpt>
      <trkpt lat="45.48954" lon="6.70955">
        <ele>2302.65</ele>
        <time>2016-03-22T13:29:46Z</time>
      </trkpt>
      <trkpt lat="45.48959" lon="6.70982">
        <ele>2305.72</ele>
        <time>2016-03-22T13:29:50Z</time>
      </trkpt>
      <trkpt lat="45.48963" lon="6.71011">
        <ele>2310.4</ele>
        <time>2016-03-22T13:29:55Z</time>
      </trkpt>
      <trkpt lat="45.48968" lon="6.71042">
        <ele>2318.03</ele>
        <time>2016-03-22T13:30:00Z</time>
      </trkpt>
      <trkpt lat="45.48974" lon="6.71072">
        <ele>2322.31</ele>
        <time>2016-03-22T13:30:05Z</time>
      </trkpt>
      <trkpt lat="45.48979" lon="6.711">
        <ele>2328.08</ele>
        <time>2016-03-22T13:30:10Z</time>
      </trkpt>
      <trkpt lat="45.48983" lon="6.71128">
        <ele>2335.28</ele>
        <time>2016-03-22T13:30:15Z</time>
      </trkpt>
      <trkpt lat="45.48989" lon="6.71156">
        <ele>2341.28</ele>
        <time>2016-03-22T13:30:20Z</time>
      </trkpt>
      <trkpt lat="45.48994" lon="6.71184">
        <ele>2351.02</ele>
        <time>2016-03-22T13:30:25Z</time>
      </trkpt>
      <trkpt lat="45.48998" lon="6.7121">
        <ele>2361.03</ele>
        <time>2016-03-22T13:30:30Z</time>
      </trkpt>
      <trkpt lat="45.49002" lon="6.71236">
        <ele>2372.03</ele>
        <time>2016-03-22T13:30:35Z</time>
      </trkpt>
      <trkpt lat="45.49006" lon="6.71262">
        <ele>2382.83</ele>
        <time>2016-03-22T13:30:40Z</time>
      </trkpt>
      <trkpt lat="45.4901" lon="6.71289">
        <ele>2396.04</ele>
        <time>2016-03-22T13:30:48Z</time>
      </trkpt>
      <trkpt lat="45.49013" lon="6.71315">
        <ele>2403.33</ele>
        <time>2016-03-22T13:30:56Z</time>
      </trkpt>
      <trkpt lat="45.49019" lon="6.71341">
        <ele>2411.12</ele>
        <time>2016-03-22T13:31:10Z</time>
      </trkpt>
      <trkpt lat="45.49023" lon="6.71367">
        <ele>2414.48</ele>
        <time>2016-03-22T13:31:18Z</time>
      </trkpt>
      <trkpt lat="45.49028" lon="6.71392">
        <ele>2422.04</ele>
        <time>2016-03-22T13:31:24Z</time>
      </trkpt>
      <trkpt lat="45.49034" lon="6.71419">
        <ele>2430.04</ele>
        <time>2016-03-22T13:31:29Z</time>
      </trkpt>
      <trkpt lat="45.49037" lon="6.71444">
        <ele>2436.53</ele>
        <time>2016-03-22T13:31:34Z</time>
      </trkpt>
      <trkpt lat="45.49042" lon="6.71474">
        <ele>2431.78</ele>
        <time>2016-03-22T13:31:39Z</time>
      </trkpt>
      <trkpt lat="45.49044" lon="6.71502">
        <ele>2427.57</ele>
        <time>2016-03-22T13:31:44Z</time>
      </trkpt>
      <trkpt lat="45.49049" lon="6.71531">
        <ele>2424.54</ele>
        <time>2016-03-22T13:31:49Z</time>
      </trkpt>
      <trkpt lat="45.49053" lon="6.7156">
        <ele>2422.74</ele>
        <time>2016-03-22T13:31:54Z</time>
      </trkpt>
      <trkpt lat="45.49058" lon="6.71586">
        <ele>2422.7</ele>
        <time>2016-03-22T13:31:59Z</time>
      </trkpt>
      <trkpt lat="45.49062" lon="6.71613">
        <ele>2421.56</ele>
        <time>2016-03-22T13:32:04Z</time>
      </trkpt>
      <trkpt lat="45.49067" lon="6.71643">
        <ele>2419.73</ele>
        <time>2016-03-22T13:32:09Z</time>
      </trkpt>
      <trkpt lat="45.49074" lon="6.71673">
        <ele>2418.56</ele>
        <time>2016-03-22T13:32:14Z</time>
      </trkpt>
      <trkpt lat="45.4908" lon="6.71701">
        <ele>2417.77</ele>
        <time>2016-03-22T13:32:19Z</time>
      </trkpt>
      <trkpt lat="45.49082" lon="6.71731">
        <ele>2417.12</ele>
        <time>2016-03-22T13:32:24Z</time>
      </trkpt>
      <trkpt lat="45.49088" lon="6.7176">
        <ele>2419.34</ele>
        <time>2016-03-22T13:32:29Z</time>
      </trkpt>
      <trkpt lat="45.49092" lon="6.71789">
        <ele>2421.28</ele>
        <time>2016-03-22T13:32:34Z</time>
      </trkpt>
      <trkpt lat="45.49096" lon="6.71816">
        <ele>2425.28</ele>
        <time>2016-03-22T13:32:39Z</time>
      </trkpt>
      <trkpt lat="45.49101" lon="6.71843">
        <ele>2431.28</ele>
        <time>2016-03-22T13:32:44Z</time>
      </trkpt>
      <trkpt lat="45.49106" lon="6.7187">
        <ele>2435.92</ele>
        <time>2016-03-22T13:32:49Z</time>
      </trkpt>
      <trkpt lat="45.49111" lon="6.71897">
        <ele>2443.04</ele>
        <time>2016-03-22T13:32:54Z</time>
      </trkpt>
      <trkpt lat="45.49116" lon="6.71924">
        <ele>2452.1</ele>
        <time>2016-03-22T13:32:59Z</time>
      </trkpt>
      <trkpt lat="45.49121" lon="6.7195">
        <ele>2461.03</ele>
        <time>2016-03-22T13:33:04Z</time>
      </trkpt>
      <trkpt lat="45.49126" lon="6.71978">
        <ele>2468.48</ele>
        <time>2016-03-22T13:33:09Z</time>
      </trkpt>
      <trkpt lat="45.49131" lon="6.72005">
        <ele>2470.49</ele>
        <time>2016-03-22T13:33:14Z</time>
      </trkpt>
      <trkpt lat="45.49135" lon="6.72032">
        <ele>2473.28</ele>
        <time>2016-03-22T13:33:19Z</time>
      </trkpt>
      <trkpt lat="45.4914" lon="6.72062">
        <ele>2478.28</ele>
        <time>2016-03-22T13:33:24Z</time>
      </trkpt>
      <trkpt lat="45.49143" lon="6.72091">
        <ele>2477.37</ele>
        <time>2016-03-22T13:33:29Z</time>
      </trkpt>
      <trkpt lat="45.49149" lon="6.72119">
        <ele>2477.53</ele>
        <time>2016-03-22T13:33:34Z</time>
      </trkpt>
      <trkpt lat="45.49156" lon="6.72148">
        <ele>2477.56</ele>
        <time>2016-03-22T13:33:39Z</time>
      </trkpt>
      <trkpt lat="45.49162" lon="6.72175">
        <ele>2480.89</ele>
        <time>2016-03-22T13:33:44Z</time>
      </trkpt>
      <trkpt lat="45.49165" lon="6.72206">
        <ele>2479.74</ele>
        <time>2016-03-22T13:33:49Z</time>
      </trkpt>
      <trkpt lat="45.4917" lon="6.72235">
        <ele>2479.53</ele>
        <time>2016-03-22T13:33:54Z</time>
      </trkpt>
      <trkpt lat="45.49174" lon="6.72262">
        <ele>2483.28</ele>
        <time>2016-03-22T13:33:59Z</time>
      </trkpt>
      <trkpt lat="45.49178" lon="6.72291">
        <ele>2484.89</ele>
        <time>2016-03-22T13:34:04Z</time>
      </trkpt>
      <trkpt lat="45.49182" lon="6.72319">
        <ele>2487.67</ele>
        <time>2016-03-22T13:34:09Z</time>
      </trkpt>
      <trkpt lat="45.49186" lon="6.72348">
        <ele>2488.53</ele>
        <time>2016-03-22T13:34:14Z</time>
      </trkpt>
      <trkpt lat="45.49192" lon="6.72379">
        <ele>2493.12</ele>
        <time>2016-03-22T13:34:19Z</time>
      </trkpt>
      <trkpt lat="45.49197" lon="6.72408">
        <ele>2495.29</ele>
        <time>2016-03-22T13:34:24Z</time>
      </trkpt>
      <trkpt lat="45.49201" lon="6.72436">
        <ele>2496.52</ele>
        <time>2016-03-22T13:34:29Z</time>
      </trkpt>
      <trkpt lat="45.49206" lon="6.72466">
        <ele>2498.32</ele>
        <time>2016-03-22T13:34:34Z</time>
      </trkpt>
      <trkpt lat="45.49209" lon="6.72493">
        <ele>2497.76</ele>
        <time>2016-03-22T13:34:39Z</time>
      </trkpt>
      <trkpt lat="45.49214" lon="6.72522">
        <ele>2499.13</ele>
        <time>2016-03-22T13:34:44Z</time>
      </trkpt>
      <trkpt lat="45.4922" lon="6.72551">
        <ele>2501.49</ele>
        <time>2016-03-22T13:34:49Z</time>
      </trkpt>
      <trkpt lat="45.49225" lon="6.72579">
        <ele>2505.31</ele>
        <time>2016-03-22T13:34:54Z</time>
      </trkpt>
      <trkpt lat="45.49229" lon="6.72608">
        <ele>2509.11</ele>
        <time>2016-03-22T13:34:59Z</time>
      </trkpt>
      <trkpt lat="45.49234" lon="6.72637">
        <ele>2513.49</ele>
        <time>2016-03-22T13:35:04Z</time>
      </trkpt>
      <trkpt lat="45.49238" lon="6.72664">
        <ele>2516.48</ele>
        <time>2016-03-22T13:35:09Z</time>
      </trkpt>
      <trkpt lat="45.49243" lon="6.72692">
        <ele>2521.47</ele>
        <time>2016-03-22T13:35:14Z</time>
      </trkpt>
      <trkpt lat="45.49248" lon="6.72719">
        <ele>2525.32</ele>
        <time>2016-03-22T13:35:19Z</time>
      </trkpt>
      <trkpt lat="45.49253" lon="6.72746">
        <ele>2533.08</ele>
        <time>2016-03-22T13:35:24Z</time>
      </trkpt>
      <trkpt lat="45.49258" lon="6.72772">
        <ele>2535.53</ele>
        <time>2016-03-22T13:35:29Z</time>
      </trkpt>
      <trkpt lat="45.49262" lon="6.72802">
        <ele>2538.45</ele>
        <time>2016-03-22T13:35:34Z</time>
      </trkpt>
      <trkpt lat="45.49266" lon="6.72831">
        <ele>2543.05</ele>
        <time>2016-03-22T13:35:39Z</time>
      </trkpt>
      <trkpt lat="45.49271" lon="6.72859">
        <ele>2544.72</ele>
        <time>2016-03-22T13:35:44Z</time>
      </trkpt>
      <trkpt lat="45.49276" lon="6.72886">
        <ele>2547.52</ele>
        <time>2016-03-22T13:35:49Z</time>
      </trkpt>
      <trkpt lat="45.4928" lon="6.72915">
        <ele>2551.51</ele>
        <time>2016-03-22T13:35:54Z</time>
      </trkpt>
      <trkpt lat="45.49285" lon="6.72945">
        <ele>2558.46</ele>
        <time>2016-03-22T13:35:59Z</time>
      </trkpt>
      <trkpt lat="45.4929" lon="6.72973">
        <ele>2558.49</ele>
        <time>2016-03-22T13:36:04Z</time>
      </trkpt>
      <trkpt lat="45.49295" lon="6.73001">
        <ele>2559.57</ele>
        <time>2016-03-22T13:36:09Z</time>
      </trkpt>
      <trkpt lat="45.493" lon="6.73029">
        <ele>2562.64</ele>
        <time>2016-03-22T13:36:14Z</time>
      </trkpt>
      <trkpt lat="45.49304" lon="6.73057">
        <ele>2566.48</ele>
        <time>2016-03-22T13:36:19Z</time>
      </trkpt>
      <trkpt lat="45.49308" lon="6.73083">
        <ele>2572.24</ele>
        <time>2016-03-22T13:36:23Z</time>
      </trkpt>
      <trkpt lat="45.49312" lon="6.73111">
        <ele>2576.29</ele>
        <time>2016-03-22T13:36:29Z</time>
      </trkpt>
      <trkpt lat="45.49318" lon="6.73141">
        <ele>2590.18</ele>
        <time>2016-03-22T13:36:34Z</time>
      </trkpt>
      <trkpt lat="45.49323" lon="6.73169">
        <ele>2601.86</ele>
        <time>2016-03-22T13:36:39Z</time>
      </trkpt>
      <trkpt lat="45.49326" lon="6.73194">
        <ele>2611.22</ele>
        <time>2016-03-22T13:36:44Z</time>
      </trkpt>
      <trkpt lat="45.4933" lon="6.73223">
        <ele>2619.87</ele>
        <time>2016-03-22T13:36:50Z</time>
      </trkpt>
      <trkpt lat="45.49336" lon="6.73252">
        <ele>2632.28</ele>
        <time>2016-03-22T13:36:56Z</time>
      </trkpt>
      <trkpt lat="45.4934" lon="6.7328">
        <ele>2647.78</ele>
        <time>2016-03-22T13:37:01Z</time>
      </trkpt>
      <trkpt lat="45.49345" lon="6.73305">
        <ele>2661.62</ele>
        <time>2016-03-22T13:37:06Z</time>
      </trkpt>
      <trkpt lat="45.4935" lon="6.73335">
        <ele>2678.59</ele>
        <time>2016-03-22T13:37:12Z</time>
      </trkpt>
      <trkpt lat="45.49355" lon="6.73364">
        <ele>2694.83</ele>
        <time>2016-03-22T13:37:18Z</time>
      </trkpt>
      <trkpt lat="45.4936" lon="6.73393">
        <ele>2710.98</ele>
        <time>2016-03-22T13:37:24Z</time>
      </trkpt>
      <trkpt lat="45.49363" lon="6.73419">
        <ele>2713.34</ele>
        <time>2016-03-22T13:37:31Z</time>
      </trkpt>
      <trkpt lat="45.49367" lon="6.73446">
        <ele>2713.34</ele>
        <time>2016-03-22T13:37:42Z</time>
      </trkpt>
      <trkpt lat="45.49371" lon="6.73472">
        <ele>2714.53</ele>
        <time>2016-03-22T13:38:50Z</time>
      </trkpt>
      <trkpt lat="45.49388" lon="6.73484">
        <ele>2712.65</ele>
        <time>2016-03-22T13:38:58Z</time>
      </trkpt>
      <trkpt lat="45.49406" lon="6.73485">
        <ele>2712.34</ele>
        <time>2016-03-22T13:39:03Z</time>
      </trkpt>
      <trkpt lat="45.49423" lon="6.73474">
        <ele>2709.53</ele>
        <time>2016-03-22T13:39:09Z</time>
      </trkpt>
      <trkpt lat="45.4944" lon="6.73463">
        <ele>2710.72</ele>
        <time>2016-03-22T13:39:13Z</time>
      </trkpt>
      <trkpt lat="45.49451" lon="6.73437">
        <ele>2707.81</ele>
        <time>2016-03-22T13:39:17Z</time>
      </trkpt>
      <trkpt lat="45.49461" lon="6.73409">
        <ele>2707.38</ele>
        <time>2016-03-22T13:39:22Z</time>
      </trkpt>
      <trkpt lat="45.49466" lon="6.73384">
        <ele>2705.56</ele>
        <time>2016-03-22T13:39:27Z</time>
      </trkpt>
      <trkpt lat="45.49487" lon="6.73376">
        <ele>2701.57</ele>
        <time>2016-03-22T13:39:47Z</time>
      </trkpt>
      <trkpt lat="45.49506" lon="6.73368">
        <ele>2697.85</ele>
        <time>2016-03-22T13:39:50Z</time>
      </trkpt>
      <trkpt lat="45.49528" lon="6.73363">
        <ele>2695.93</ele>
        <time>2016-03-22T13:39:53Z</time>
      </trkpt>
      <trkpt lat="45.4955" lon="6.7336">
        <ele>2693.77</ele>
        <time>2016-03-22T13:39:56Z</time>
      </trkpt>
      <trkpt lat="45.49574" lon="6.73359">
        <ele>2694.33</ele>
        <time>2016-03-22T13:39:59Z</time>
      </trkpt>
      <trkpt lat="45.49599" lon="6.73359">
        <ele>2693.57</ele>
        <time>2016-03-22T13:40:02Z</time>
      </trkpt>
      <trkpt lat="45.49622" lon="6.73352">
        <ele>2693.53</ele>
        <time>2016-03-22T13:40:05Z</time>
      </trkpt>
      <trkpt lat="45.49639" lon="6.73343">
        <ele>2692.57</ele>
        <time>2016-03-22T13:40:07Z</time>
      </trkpt>
      <trkpt lat="45.49656" lon="6.73331">
        <ele>2687.09</ele>
        <time>2016-03-22T13:40:09Z</time>
      </trkpt>
      <trkpt lat="45.49673" lon="6.73324">
        <ele>2682.23</ele>
        <time>2016-03-22T13:40:11Z</time>
      </trkpt>
      <trkpt lat="45.4969" lon="6.733">
        <ele>2674.85</ele>
        <time>2016-03-22T13:40:14Z</time>
      </trkpt>
      <trkpt lat="45.49694" lon="6.73269">
        <ele>2673.99</ele>
        <time>2016-03-22T13:40:17Z</time>
      </trkpt>
      <trkpt lat="45.49696" lon="6.73236">
        <ele>2667.04</ele>
        <time>2016-03-22T13:40:20Z</time>
      </trkpt>
      <trkpt lat="45.49698" lon="6.73199">
        <ele>2660.84</ele>
        <time>2016-03-22T13:40:23Z</time>
      </trkpt>
      <trkpt lat="45.49699" lon="6.73169">
        <ele>2654.07</ele>
        <time>2016-03-22T13:40:26Z</time>
      </trkpt>
      <trkpt lat="45.49705" lon="6.73143">
        <ele>2651.78</ele>
        <time>2016-03-22T13:40:29Z</time>
      </trkpt>
      <trkpt lat="45.49707" lon="6.7311">
        <ele>2646.78</ele>
        <time>2016-03-22T13:40:33Z</time>
      </trkpt>
      <trkpt lat="45.49713" lon="6.73083">
        <ele>2640.79</ele>
        <time>2016-03-22T13:40:37Z</time>
      </trkpt>
      <trkpt lat="45.49721" lon="6.7306">
        <ele>2637.78</ele>
        <time>2016-03-22T13:40:40Z</time>
      </trkpt>
      <trkpt lat="45.49729" lon="6.73031">
        <ele>2630.69</ele>
        <time>2016-03-22T13:41:22Z</time>
      </trkpt>
      <trkpt lat="45.49731" lon="6.73002">
        <ele>2624.07</ele>
        <time>2016-03-22T13:41:25Z</time>
      </trkpt>
      <trkpt lat="45.49741" lon="6.72975">
        <ele>2620.94</ele>
        <time>2016-03-22T13:41:28Z</time>
      </trkpt>
      <trkpt lat="45.49758" lon="6.72952">
        <ele>2617.78</ele>
        <time>2016-03-22T13:41:31Z</time>
      </trkpt>
      <trkpt lat="45.49784" lon="6.72934">
        <ele>2614.59</ele>
        <time>2016-03-22T13:41:34Z</time>
      </trkpt>
      <trkpt lat="45.49804" lon="6.72913">
        <ele>2612.77</ele>
        <time>2016-03-22T13:41:36Z</time>
      </trkpt>
      <trkpt lat="45.49813" lon="6.72886">
        <ele>2610.78</ele>
        <time>2016-03-22T13:41:38Z</time>
      </trkpt>
      <trkpt lat="45.49819" lon="6.72857">
        <ele>2600.46</ele>
        <time>2016-03-22T13:41:40Z</time>
      </trkpt>
      <trkpt lat="45.49832" lon="6.72827">
        <ele>2593.33</ele>
        <time>2016-03-22T13:41:42Z</time>
      </trkpt>
      <trkpt lat="45.4984" lon="6.72798">
        <ele>2588.88</ele>
        <time>2016-03-22T13:41:44Z</time>
      </trkpt>
      <trkpt lat="45.49857" lon="6.72773">
        <ele>2585.03</ele>
        <time>2016-03-22T13:41:46Z</time>
      </trkpt>
      <trkpt lat="45.4988" lon="6.72751">
        <ele>2581.99</ele>
        <time>2016-03-22T13:41:48Z</time>
      </trkpt>
      <trkpt lat="45.49897" lon="6.72722">
        <ele>2579.79</ele>
        <time>2016-03-22T13:41:50Z</time>
      </trkpt>
      <trkpt lat="45.49905" lon="6.72697">
        <ele>2576.02</ele>
        <time>2016-03-22T13:41:52Z</time>
      </trkpt>
      <trkpt lat="45.49914" lon="6.72671">
        <ele>2567.02</ele>
        <time>2016-03-22T13:41:55Z</time>
      </trkpt>
      <trkpt lat="45.49926" lon="6.72646">
        <ele>2563.75</ele>
        <time>2016-03-22T13:41:58Z</time>
      </trkpt>
      <trkpt lat="45.49939" lon="6.72627">
        <ele>2563.54</ele>
        <time>2016-03-22T13:42:00Z</time>
      </trkpt>
      <trkpt lat="45.49961" lon="6.72606">
        <ele>2561.13</ele>
        <time>2016-03-22T13:42:02Z</time>
      </trkpt>
      <trkpt lat="45.49982" lon="6.72594">
        <ele>2556.88</ele>
        <time>2016-03-22T13:42:04Z</time>
      </trkpt>
      <trkpt lat="45.50005" lon="6.72578">
        <ele>2552.86</ele>
        <time>2016-03-22T13:42:06Z</time>
      </trkpt>
      <trkpt lat="45.50024" lon="6.72562">
        <ele>2550.62</ele>
        <time>2016-03-22T13:42:08Z</time>
      </trkpt>
      <trkpt lat="45.50041" lon="6.72551">
        <ele>2547.81</ele>
        <time>2016-03-22T13:42:10Z</time>
      </trkpt>
      <trkpt lat="45.50064" lon="6.72531">
        <ele>2542.83</ele>
        <time>2016-03-22T13:42:13Z</time>
      </trkpt>
      <trkpt lat="45.50083" lon="6.72516">
        <ele>2541.58</ele>
        <time>2016-03-22T13:42:15Z</time>
      </trkpt>
      <trkpt lat="45.50103" lon="6.725">
        <ele>2539.77</ele>
        <time>2016-03-22T13:42:17Z</time>
      </trkpt>
      <trkpt lat="45.50121" lon="6.72483">
        <ele>2535.86</ele>
        <time>2016-03-22T13:42:19Z</time>
      </trkpt>
      <trkpt lat="45.50138" lon="6.72472">
        <ele>2532.82</ele>
        <time>2016-03-22T13:42:21Z</time>
      </trkpt>
      <trkpt lat="45.50162" lon="6.7246">
        <ele>2530.58</ele>
        <time>2016-03-22T13:42:24Z</time>
      </trkpt>
      <trkpt lat="45.50173" lon="6.72436">
        <ele>2510.79</ele>
        <time>2016-03-22T13:42:50Z</time>
      </trkpt>
      <trkpt lat="45.50183" lon="6.72407">
        <ele>2505.79</ele>
        <time>2016-03-22T13:42:55Z</time>
      </trkpt>
      <trkpt lat="45.50198" lon="6.72389">
        <ele>2502.63</ele>
        <time>2016-03-22T13:42:59Z</time>
      </trkpt>
      <trkpt lat="45.50209" lon="6.72367">
        <ele>2493.51</ele>
        <time>2016-03-22T13:43:02Z</time>
      </trkpt>
      <trkpt lat="45.50221" lon="6.7234">
        <ele>2488.95</ele>
        <time>2016-03-22T13:43:05Z</time>
      </trkpt>
      <trkpt lat="45.50237" lon="6.72313">
        <ele>2485.14</ele>
        <time>2016-03-22T13:43:08Z</time>
      </trkpt>
      <trkpt lat="45.50251" lon="6.72295">
        <ele>2475.28</ele>
        <time>2016-03-22T13:43:10Z</time>
      </trkpt>
      <trkpt lat="45.50266" lon="6.72272">
        <ele>2468.16</ele>
        <time>2016-03-22T13:43:12Z</time>
      </trkpt>
      <trkpt lat="45.50283" lon="6.72246">
        <ele>2465.8</ele>
        <time>2016-03-22T13:43:14Z</time>
      </trkpt>
      <trkpt lat="45.5031" lon="6.72226">
        <ele>2463.62</ele>
        <time>2016-03-22T13:43:16Z</time>
      </trkpt>
      <trkpt lat="45.50336" lon="6.72212">
        <ele>2462.57</ele>
        <time>2016-03-22T13:43:18Z</time>
      </trkpt>
      <trkpt lat="45.50363" lon="6.72208">
        <ele>2461.73</ele>
        <time>2016-03-22T13:43:20Z</time>
      </trkpt>
      <trkpt lat="45.50388" lon="6.722">
        <ele>2460.58</ele>
        <time>2016-03-22T13:43:22Z</time>
      </trkpt>
      <trkpt lat="45.50408" lon="6.72203">
        <ele>2459.73</ele>
        <time>2016-03-22T13:43:24Z</time>
      </trkpt>
      <trkpt lat="45.50426" lon="6.72205">
        <ele>2457.78</ele>
        <time>2016-03-22T13:43:26Z</time>
      </trkpt>
      <trkpt lat="45.50445" lon="6.72203">
        <ele>2457.54</ele>
        <time>2016-03-22T13:43:28Z</time>
      </trkpt>
      <trkpt lat="45.50464" lon="6.72206">
        <ele>2456.57</ele>
        <time>2016-03-22T13:43:30Z</time>
      </trkpt>
      <trkpt lat="45.50486" lon="6.72196">
        <ele>2453.17</ele>
        <time>2016-03-22T13:43:32Z</time>
      </trkpt>
      <trkpt lat="45.50511" lon="6.7218">
        <ele>2446.96</ele>
        <time>2016-03-22T13:43:34Z</time>
      </trkpt>
      <trkpt lat="45.5054" lon="6.72161">
        <ele>2439.35</ele>
        <time>2016-03-22T13:43:36Z</time>
      </trkpt>
      <trkpt lat="45.50565" lon="6.72141">
        <ele>2435.52</ele>
        <time>2016-03-22T13:43:38Z</time>
      </trkpt>
      <trkpt lat="45.50587" lon="6.72122">
        <ele>2426.09</ele>
        <time>2016-03-22T13:43:40Z</time>
      </trkpt>
      <trkpt lat="45.50605" lon="6.72107">
        <ele>2410.35</ele>
        <time>2016-03-22T13:43:42Z</time>
      </trkpt>
      <trkpt lat="45.50624" lon="6.72092">
        <ele>2401.56</ele>
        <time>2016-03-22T13:43:44Z</time>
      </trkpt>
      <trkpt lat="45.50647" lon="6.72079">
        <ele>2397.37</ele>
        <time>2016-03-22T13:43:46Z</time>
      </trkpt>
      <trkpt lat="45.50668" lon="6.7207">
        <ele>2395.6</ele>
        <time>2016-03-22T13:43:48Z</time>
      </trkpt>
      <trkpt lat="45.50688" lon="6.72063">
        <ele>2393.77</ele>
        <time>2016-03-22T13:43:50Z</time>
      </trkpt>
      <trkpt lat="45.50705" lon="6.72056">
        <ele>2392.58</ele>
        <time>2016-03-22T13:43:52Z</time>
      </trkpt>
      <trkpt lat="45.5073" lon="6.72049">
        <ele>2388.66</ele>
        <time>2016-03-22T13:43:55Z</time>
      </trkpt>
      <trkpt lat="45.50752" lon="6.72042">
        <ele>2386.58</ele>
        <time>2016-03-22T13:43:58Z</time>
      </trkpt>
      <trkpt lat="45.50773" lon="6.72038">
        <ele>2384.58</ele>
        <time>2016-03-22T13:44:01Z</time>
      </trkpt>
      <trkpt lat="45.50795" lon="6.72029">
        <ele>2379.03</ele>
        <time>2016-03-22T13:44:04Z</time>
      </trkpt>
      <trkpt lat="45.50814" lon="6.72025">
        <ele>2374.23</ele>
        <time>2016-03-22T13:44:06Z</time>
      </trkpt>
      <trkpt lat="45.50835" lon="6.7202">
        <ele>2369.24</ele>
        <time>2016-03-22T13:44:08Z</time>
      </trkpt>
      <trkpt lat="45.50858" lon="6.72015">
        <ele>2365.04</ele>
        <time>2016-03-22T13:44:10Z</time>
      </trkpt>
      <trkpt lat="45.50876" lon="6.72009">
        <ele>2359.11</ele>
        <time>2016-03-22T13:44:12Z</time>
      </trkpt>
      <trkpt lat="45.50894" lon="6.72004">
        <ele>2354.39</ele>
        <time>2016-03-22T13:44:14Z</time>
      </trkpt>
      <trkpt lat="45.50919" lon="6.71999">
        <ele>2349.89</ele>
        <time>2016-03-22T13:44:17Z</time>
      </trkpt>
      <trkpt lat="45.50939" lon="6.71995">
        <ele>2343.23</ele>
        <time>2016-03-22T13:44:20Z</time>
      </trkpt>
      <trkpt lat="45.5096" lon="6.71988">
        <ele>2337.73</ele>
        <time>2016-03-22T13:44:25Z</time>
      </trkpt>
      <trkpt lat="45.50982" lon="6.71983">
        <ele>2335.57</ele>
        <time>2016-03-22T13:44:31Z</time>
      </trkpt>
      <trkpt lat="45.51001" lon="6.71981">
        <ele>2333.54</ele>
        <time>2016-03-22T13:44:37Z</time>
      </trkpt>
      <trkpt lat="45.5102" lon="6.7198">
        <ele>2326.53</ele>
        <time>2016-03-22T13:44:46Z</time>
      </trkpt>
      <trkpt lat="45.5104" lon="6.71979">
        <ele>2324.72</ele>
        <time>2016-03-22T13:44:56Z</time>
      </trkpt>
      <trkpt lat="45.51058" lon="6.71979">
        <ele>2320.74</ele>
        <time>2016-03-22T13:45:06Z</time>
      </trkpt>
      <trkpt lat="45.51077" lon="6.71971">
        <ele>2308.42</ele>
        <time>2016-03-22T13:45:25Z</time>
      </trkpt>
      <trkpt lat="45.51118" lon="6.71799">
        <ele>2311.53</ele>
        <time>2016-03-22T13:46:09Z</time>
      </trkpt>
      <trkpt lat="45.51123" lon="6.71774">
        <ele>2309.73</ele>
        <time>2016-03-22T13:46:14Z</time>
      </trkpt>
      <trkpt lat="45.51144" lon="6.7176">
        <ele>2308.77</ele>
        <time>2016-03-22T13:46:35Z</time>
      </trkpt>
      <trkpt lat="45.5116" lon="6.71742">
        <ele>2306.94</ele>
        <time>2016-03-22T13:46:37Z</time>
      </trkpt>
      <trkpt lat="45.51166" lon="6.71714">
        <ele>2304.63</ele>
        <time>2016-03-22T13:46:39Z</time>
      </trkpt>
      <trkpt lat="45.51169" lon="6.71685">
        <ele>2301.97</ele>
        <time>2016-03-22T13:46:41Z</time>
      </trkpt>
      <trkpt lat="45.51175" lon="6.7165">
        <ele>2296.99</ele>
        <time>2016-03-22T13:46:44Z</time>
      </trkpt>
      <trkpt lat="45.51184" lon="6.71627">
        <ele>2293.83</ele>
        <time>2016-03-22T13:46:46Z</time>
      </trkpt>
      <trkpt lat="45.51185" lon="6.71591">
        <ele>2292.22</ele>
        <time>2016-03-22T13:46:49Z</time>
      </trkpt>
      <trkpt lat="45.51195" lon="6.71563">
        <ele>2289.16</ele>
        <time>2016-03-22T13:46:51Z</time>
      </trkpt>
      <trkpt lat="45.51196" lon="6.71532">
        <ele>2285.04</ele>
        <time>2016-03-22T13:46:53Z</time>
      </trkpt>
      <trkpt lat="45.51193" lon="6.71502">
        <ele>2279.27</ele>
        <time>2016-03-22T13:46:55Z</time>
      </trkpt>
      <trkpt lat="45.512" lon="6.71471">
        <ele>2272.32</ele>
        <time>2016-03-22T13:46:57Z</time>
      </trkpt>
      <trkpt lat="45.512" lon="6.71436">
        <ele>2267.08</ele>
        <time>2016-03-22T13:46:59Z</time>
      </trkpt>
      <trkpt lat="45.512" lon="6.71408">
        <ele>2263.83</ele>
        <time>2016-03-22T13:47:01Z</time>
      </trkpt>
      <trkpt lat="45.5121" lon="6.71374">
        <ele>2260.66</ele>
        <time>2016-03-22T13:47:03Z</time>
      </trkpt>
      <trkpt lat="45.51228" lon="6.71338">
        <ele>2257.02</ele>
        <time>2016-03-22T13:47:05Z</time>
      </trkpt>
      <trkpt lat="45.51239" lon="6.71299">
        <ele>2254.95</ele>
        <time>2016-03-22T13:47:07Z</time>
      </trkpt>
      <trkpt lat="45.51225" lon="6.71266">
        <ele>2248.95</ele>
        <time>2016-03-22T13:47:09Z</time>
      </trkpt>
      <trkpt lat="45.51224" lon="6.71236">
        <ele>2245.83</ele>
        <time>2016-03-22T13:47:11Z</time>
      </trkpt>
      <trkpt lat="45.51222" lon="6.71209">
        <ele>2241.06</ele>
        <time>2016-03-22T13:47:13Z</time>
      </trkpt>
      <trkpt lat="45.51218" lon="6.71175">
        <ele>2235.03</ele>
        <time>2016-03-22T13:47:16Z</time>
      </trkpt>
      <trkpt lat="45.51209" lon="6.71149">
        <ele>2230.79</ele>
        <time>2016-03-22T13:47:19Z</time>
      </trkpt>
      <trkpt lat="45.5121" lon="6.71123">
        <ele>2229.74</ele>
        <time>2016-03-22T13:47:21Z</time>
      </trkpt>
      <trkpt lat="45.51237" lon="6.71115">
        <ele>2220.01</ele>
        <time>2016-03-22T13:47:52Z</time>
      </trkpt>
      <trkpt lat="45.5126" lon="6.71098">
        <ele>2216.78</ele>
        <time>2016-03-22T13:47:55Z</time>
      </trkpt>
      <trkpt lat="45.51271" lon="6.71073">
        <ele>2206.32</ele>
        <time>2016-03-22T13:47:58Z</time>
      </trkpt>
      <trkpt lat="45.51255" lon="6.71055">
        <ele>2199.11</ele>
        <time>2016-03-22T13:48:01Z</time>
      </trkpt>
      <trkpt lat="45.51249" lon="6.71026">
        <ele>2193.98</ele>
        <time>2016-03-22T13:48:05Z</time>
      </trkpt>
      <trkpt lat="45.51253" lon="6.70995">
        <ele>2192.73</ele>
        <time>2016-03-22T13:48:08Z</time>
      </trkpt>
      <trkpt lat="45.51258" lon="6.70966">
        <ele>2186.07</ele>
        <time>2016-03-22T13:48:11Z</time>
      </trkpt>
      <trkpt lat="45.51271" lon="6.70938">
        <ele>2181.82</ele>
        <time>2016-03-22T13:48:14Z</time>
      </trkpt>
      <trkpt lat="45.51278" lon="6.70913">
        <ele>2179.78</ele>
        <time>2016-03-22T13:48:16Z</time>
      </trkpt>
      <trkpt lat="45.51287" lon="6.7089">
        <ele>2176.98</ele>
        <time>2016-03-22T13:48:18Z</time>
      </trkpt>
      <trkpt lat="45.51295" lon="6.70864">
        <ele>2175.59</ele>
        <time>2016-03-22T13:48:20Z</time>
      </trkpt>
      <trkpt lat="45.51303" lon="6.70838">
        <ele>2172.97</ele>
        <time>2016-03-22T13:48:22Z</time>
      </trkpt>
      <trkpt lat="45.51294" lon="6.70814">
        <ele>2167.43</ele>
        <time>2016-03-22T13:48:24Z</time>
      </trkpt>
      <trkpt lat="45.51281" lon="6.70796">
        <ele>2159.53</ele>
        <time>2016-03-22T13:48:26Z</time>
      </trkpt>
      <trkpt lat="45.51264" lon="6.70783">
        <ele>2152.98</ele>
        <time>2016-03-22T13:48:30Z</time>
      </trkpt>
      <trkpt lat="45.51264" lon="6.7075">
        <ele>2137.03</ele>
        <time>2016-03-22T13:48:52Z</time>
      </trkpt>
      <trkpt lat="45.51247" lon="6.7073">
        <ele>2130.01</ele>
        <time>2016-03-22T13:48:55Z</time>
      </trkpt>
      <trkpt lat="45.51233" lon="6.70712">
        <ele>2126.78</ele>
        <time>2016-03-22T13:48:58Z</time>
      </trkpt>
      <trkpt lat="45.51208" lon="6.70718">
        <ele>2118.28</ele>
        <time>2016-03-22T13:49:01Z</time>
      </trkpt>
      <trkpt lat="45.51192" lon="6.70708">
        <ele>2114.04</ele>
        <time>2016-03-22T13:49:03Z</time>
      </trkpt>
      <trkpt lat="45.51168" lon="6.70701">
        <ele>2108.03</ele>
        <time>2016-03-22T13:49:06Z</time>
      </trkpt>
      <trkpt lat="45.51147" lon="6.7069">
        <ele>2104.78</ele>
        <time>2016-03-22T13:49:09Z</time>
      </trkpt>
      <trkpt lat="45.51125" lon="6.70684">
        <ele>2099.96</ele>
        <time>2016-03-22T13:49:12Z</time>
      </trkpt>
      <trkpt lat="45.51103" lon="6.70684">
        <ele>2095.82</ele>
        <time>2016-03-22T13:49:15Z</time>
      </trkpt>
      <trkpt lat="45.51089" lon="6.70662">
        <ele>2091.01</ele>
        <time>2016-03-22T13:49:19Z</time>
      </trkpt>
      <trkpt lat="45.51077" lon="6.70639">
        <ele>2087.78</ele>
        <time>2016-03-22T13:49:22Z</time>
      </trkpt>
      <trkpt lat="45.51069" lon="6.70608">
        <ele>2083.82</ele>
        <time>2016-03-22T13:49:25Z</time>
      </trkpt>
      <trkpt lat="45.51064" lon="6.70574">
        <ele>2078.99</ele>
        <time>2016-03-22T13:49:28Z</time>
      </trkpt>
      <trkpt lat="45.51064" lon="6.70542">
        <ele>2076.77</ele>
        <time>2016-03-22T13:49:31Z</time>
      </trkpt>
      <trkpt lat="45.51058" lon="6.70496">
        <ele>2072.18</ele>
        <time>2016-03-22T13:49:34Z</time>
      </trkpt>
      <trkpt lat="45.51064" lon="6.70463">
        <ele>2065.68</ele>
        <time>2016-03-22T13:49:37Z</time>
      </trkpt>
      <trkpt lat="45.51082" lon="6.70445">
        <ele>2062.82</ele>
        <time>2016-03-22T13:49:39Z</time>
      </trkpt>
      <trkpt lat="45.51097" lon="6.70426">
        <ele>2059.02</ele>
        <time>2016-03-22T13:49:41Z</time>
      </trkpt>
      <trkpt lat="45.51106" lon="6.704">
        <ele>2056.95</ele>
        <time>2016-03-22T13:49:43Z</time>
      </trkpt>
      <trkpt lat="45.51112" lon="6.70375">
        <ele>2054.79</ele>
        <time>2016-03-22T13:49:45Z</time>
      </trkpt>
      <trkpt lat="45.51135" lon="6.70363">
        <ele>2049.25</ele>
        <time>2016-03-22T13:49:48Z</time>
      </trkpt>
      <trkpt lat="45.51151" lon="6.70346">
        <ele>2046.8</ele>
        <time>2016-03-22T13:49:50Z</time>
      </trkpt>
      <trkpt lat="45.51162" lon="6.70323">
        <ele>2042.22</ele>
        <time>2016-03-22T13:49:52Z</time>
      </trkpt>
      <trkpt lat="45.51171" lon="6.70298">
        <ele>2038.84</ele>
        <time>2016-03-22T13:49:54Z</time>
      </trkpt>
      <trkpt lat="45.51178" lon="6.70271">
        <ele>2035.98</ele>
        <time>2016-03-22T13:49:56Z</time>
      </trkpt>
      <trkpt lat="45.51187" lon="6.70242">
        <ele>2033.15</ele>
        <time>2016-03-22T13:49:58Z</time>
      </trkpt>
      <trkpt lat="45.51202" lon="6.70219">
        <ele>2030</ele>
        <time>2016-03-22T13:50:00Z</time>
      </trkpt>
      <trkpt lat="45.5121" lon="6.70194">
        <ele>2022.67</ele>
        <time>2016-03-22T13:50:02Z</time>
      </trkpt>
      <trkpt lat="45.51223" lon="6.7017">
        <ele>2019.02</ele>
        <time>2016-03-22T13:50:04Z</time>
      </trkpt>
      <trkpt lat="45.51231" lon="6.70134">
        <ele>2011.08</ele>
        <time>2016-03-22T13:50:07Z</time>
      </trkpt>
      <trkpt lat="45.51236" lon="6.70099">
        <ele>2002.06</ele>
        <time>2016-03-22T13:50:10Z</time>
      </trkpt>
      <trkpt lat="45.51232" lon="6.70068">
        <ele>1991.39</ele>
        <time>2016-03-22T13:50:13Z</time>
      </trkpt>
      <trkpt lat="45.51239" lon="6.70043">
        <ele>1983.9</ele>
        <time>2016-03-22T13:50:17Z</time>
      </trkpt>
      <trkpt lat="45.51221" lon="6.70025">
        <ele>1972.06</ele>
        <time>2016-03-22T13:50:24Z</time>
      </trkpt>
      <trkpt lat="45.51221" lon="6.69996">
        <ele>1956.79</ele>
        <time>2016-03-22T13:51:20Z</time>
      </trkpt>
      <trkpt lat="45.51217" lon="6.69963">
        <ele>1950.82</ele>
        <time>2016-03-22T13:51:24Z</time>
      </trkpt>
      <trkpt lat="45.51218" lon="6.69934">
        <ele>1945.76</ele>
        <time>2016-03-22T13:51:28Z</time>
      </trkpt>
      <trkpt lat="45.51224" lon="6.69903">
        <ele>1942.78</ele>
        <time>2016-03-22T13:51:31Z</time>
      </trkpt>
      <trkpt lat="45.51224" lon="6.6987">
        <ele>1943.49</ele>
        <time>2016-03-22T13:51:34Z</time>
      </trkpt>
      <trkpt lat="45.51241" lon="6.69882">
        <ele>1928.33</ele>
        <time>2016-03-22T13:52:50Z</time>
      </trkpt>
      <trkpt lat="45.51255" lon="6.69901">
        <ele>1930.54</ele>
        <time>2016-03-22T13:55:08Z</time>
      </trkpt>
      <trkpt lat="45.51271" lon="6.69917">
        <ele>1930.37</ele>
        <time>2016-03-22T13:55:24Z</time>
      </trkpt>
      <trkpt lat="45.51284" lon="6.69936">
        <ele>1929.53</ele>
        <time>2016-03-22T13:55:29Z</time>
      </trkpt>
      <trkpt lat="45.51296" lon="6.69959">
        <ele>1927.53</ele>
        <time>2016-03-22T13:55:34Z</time>
      </trkpt>
      <trkpt lat="45.51309" lon="6.69982">
        <ele>1925.74</ele>
        <time>2016-03-22T13:55:39Z</time>
      </trkpt>
      <trkpt lat="45.51324" lon="6.7">
        <ele>1928.52</ele>
        <time>2016-03-22T13:55:44Z</time>
      </trkpt>
      <trkpt lat="45.51332" lon="6.70023">
        <ele>1928.57</ele>
        <time>2016-03-22T13:55:48Z</time>
      </trkpt>
      <trkpt lat="45.51344" lon="6.70044">
        <ele>1931.16</ele>
        <time>2016-03-22T13:55:53Z</time>
      </trkpt>
      <trkpt lat="45.5135" lon="6.70074">
        <ele>1937.91</ele>
        <time>2016-03-22T13:55:57Z</time>
      </trkpt>
      <trkpt lat="45.51361" lon="6.70101">
        <ele>1947.04</ele>
        <time>2016-03-22T13:56:02Z</time>
      </trkpt>
      <trkpt lat="45.51372" lon="6.70126">
        <ele>1953.28</ele>
        <time>2016-03-22T13:56:07Z</time>
      </trkpt>
      <trkpt lat="45.51385" lon="6.70146">
        <ele>1958.92</ele>
        <time>2016-03-22T13:56:12Z</time>
      </trkpt>
      <trkpt lat="45.51396" lon="6.70167">
        <ele>1962.5</ele>
        <time>2016-03-22T13:56:17Z</time>
      </trkpt>
      <trkpt lat="45.51412" lon="6.70185">
        <ele>1968.88</ele>
        <time>2016-03-22T13:56:23Z</time>
      </trkpt>
      <trkpt lat="45.5143" lon="6.70201">
        <ele>1972.32</ele>
        <time>2016-03-22T13:56:30Z</time>
      </trkpt>
      <trkpt lat="45.51443" lon="6.70219">
        <ele>1979.07</ele>
        <time>2016-03-22T13:56:36Z</time>
      </trkpt>
      <trkpt lat="45.51456" lon="6.7024">
        <ele>1989.08</ele>
        <time>2016-03-22T13:56:42Z</time>
      </trkpt>
      <trkpt lat="45.51468" lon="6.70262">
        <ele>2001.76</ele>
        <time>2016-03-22T13:56:48Z</time>
      </trkpt>
      <trkpt lat="45.51477" lon="6.70285">
        <ele>2018.59</ele>
        <time>2016-03-22T13:56:53Z</time>
      </trkpt>
      <trkpt lat="45.5149" lon="6.70309">
        <ele>2032.87</ele>
        <time>2016-03-22T13:56:59Z</time>
      </trkpt>
      <trkpt lat="45.51499" lon="6.70332">
        <ele>2042.63</ele>
        <time>2016-03-22T13:57:03Z</time>
      </trkpt>
      <trkpt lat="45.51508" lon="6.70356">
        <ele>2051</ele>
        <time>2016-03-22T13:57:07Z</time>
      </trkpt>
      <trkpt lat="45.51521" lon="6.70376">
        <ele>2061.23</ele>
        <time>2016-03-22T13:57:12Z</time>
      </trkpt>
      <trkpt lat="45.51537" lon="6.70394">
        <ele>2070.24</ele>
        <time>2016-03-22T13:57:18Z</time>
      </trkpt>
      <trkpt lat="45.51551" lon="6.70417">
        <ele>2080.99</ele>
        <time>2016-03-22T13:57:24Z</time>
      </trkpt>
      <trkpt lat="45.51561" lon="6.70442">
        <ele>2090.03</ele>
        <time>2016-03-22T13:57:29Z</time>
      </trkpt>
      <trkpt lat="45.51575" lon="6.70464">
        <ele>2103.86</ele>
        <time>2016-03-22T13:57:35Z</time>
      </trkpt>
      <trkpt lat="45.51588" lon="6.70485">
        <ele>2113.03</ele>
        <time>2016-03-22T13:57:40Z</time>
      </trkpt>
      <trkpt lat="45.516" lon="6.70511">
        <ele>2119.92</ele>
        <time>2016-03-22T13:57:45Z</time>
      </trkpt>
      <trkpt lat="45.51613" lon="6.70529">
        <ele>2130.07</ele>
        <time>2016-03-22T13:57:50Z</time>
      </trkpt>
      <trkpt lat="45.51626" lon="6.70552">
        <ele>2138.04</ele>
        <time>2016-03-22T13:57:55Z</time>
      </trkpt>
      <trkpt lat="45.51637" lon="6.70574">
        <ele>2147.07</ele>
        <time>2016-03-22T13:58:00Z</time>
      </trkpt>
      <trkpt lat="45.5165" lon="6.70596">
        <ele>2150.46</ele>
        <time>2016-03-22T13:58:05Z</time>
      </trkpt>
      <trkpt lat="45.51663" lon="6.70619">
        <ele>2154.29</ele>
        <time>2016-03-22T13:58:10Z</time>
      </trkpt>
      <trkpt lat="45.51675" lon="6.70642">
        <ele>2158.68</ele>
        <time>2016-03-22T13:58:15Z</time>
      </trkpt>
      <trkpt lat="45.51688" lon="6.70666">
        <ele>2160.52</ele>
        <time>2016-03-22T13:58:20Z</time>
      </trkpt>
      <trkpt lat="45.51702" lon="6.7069">
        <ele>2163.52</ele>
        <time>2016-03-22T13:58:25Z</time>
      </trkpt>
      <trkpt lat="45.51714" lon="6.70713">
        <ele>2165.64</ele>
        <time>2016-03-22T13:58:30Z</time>
      </trkpt>
      <trkpt lat="45.51726" lon="6.7074">
        <ele>2168.33</ele>
        <time>2016-03-22T13:58:35Z</time>
      </trkpt>
      <trkpt lat="45.51738" lon="6.70764">
        <ele>2169.38</ele>
        <time>2016-03-22T13:58:40Z</time>
      </trkpt>
      <trkpt lat="45.51751" lon="6.70787">
        <ele>2173.29</ele>
        <time>2016-03-22T13:58:45Z</time>
      </trkpt>
      <trkpt lat="45.51764" lon="6.70811">
        <ele>2177.32</ele>
        <time>2016-03-22T13:58:50Z</time>
      </trkpt>
      <trkpt lat="45.51777" lon="6.70832">
        <ele>2182.28</ele>
        <time>2016-03-22T13:58:55Z</time>
      </trkpt>
      <trkpt lat="45.5179" lon="6.70853">
        <ele>2185.48</ele>
        <time>2016-03-22T13:59:00Z</time>
      </trkpt>
      <trkpt lat="45.51802" lon="6.70877">
        <ele>2186.32</ele>
        <time>2016-03-22T13:59:05Z</time>
      </trkpt>
      <trkpt lat="45.51815" lon="6.709">
        <ele>2188.53</ele>
        <time>2016-03-22T13:59:10Z</time>
      </trkpt>
      <trkpt lat="45.51827" lon="6.70921">
        <ele>2192.3</ele>
        <time>2016-03-22T13:59:15Z</time>
      </trkpt>
      <trkpt lat="45.5184" lon="6.70944">
        <ele>2197.47</ele>
        <time>2016-03-22T13:59:20Z</time>
      </trkpt>
      <trkpt lat="45.51853" lon="6.70963">
        <ele>2203.28</ele>
        <time>2016-03-22T13:59:25Z</time>
      </trkpt>
      <trkpt lat="45.51865" lon="6.70985">
        <ele>2207.25</ele>
        <time>2016-03-22T13:59:30Z</time>
      </trkpt>
      <trkpt lat="45.51878" lon="6.71006">
        <ele>2213.09</ele>
        <time>2016-03-22T13:59:35Z</time>
      </trkpt>
      <trkpt lat="45.51889" lon="6.71029">
        <ele>2219.07</ele>
        <time>2016-03-22T13:59:40Z</time>
      </trkpt>
      <trkpt lat="45.51902" lon="6.7105">
        <ele>2221.53</ele>
        <time>2016-03-22T13:59:45Z</time>
      </trkpt>
      <trkpt lat="45.51915" lon="6.71068">
        <ele>2224.32</ele>
        <time>2016-03-22T13:59:50Z</time>
      </trkpt>
      <trkpt lat="45.51928" lon="6.71089">
        <ele>2228.44</ele>
        <time>2016-03-22T13:59:55Z</time>
      </trkpt>
      <trkpt lat="45.5194" lon="6.7111">
        <ele>2235.23</ele>
        <time>2016-03-22T14:00:00Z</time>
      </trkpt>
      <trkpt lat="45.51952" lon="6.7113">
        <ele>2245.03</ele>
        <time>2016-03-22T14:00:05Z</time>
      </trkpt>
      <trkpt lat="45.51965" lon="6.7115">
        <ele>2251.28</ele>
        <time>2016-03-22T14:00:10Z</time>
      </trkpt>
      <trkpt lat="45.51977" lon="6.71173">
        <ele>2257.04</ele>
        <time>2016-03-22T14:00:15Z</time>
      </trkpt>
      <trkpt lat="45.51988" lon="6.71195">
        <ele>2269.01</ele>
        <time>2016-03-22T14:00:20Z</time>
      </trkpt>
      <trkpt lat="45.52001" lon="6.71217">
        <ele>2274.32</ele>
        <time>2016-03-22T14:00:25Z</time>
      </trkpt>
      <trkpt lat="45.52014" lon="6.71241">
        <ele>2279.28</ele>
        <time>2016-03-22T14:00:30Z</time>
      </trkpt>
      <trkpt lat="45.52027" lon="6.71264">
        <ele>2284.29</ele>
        <time>2016-03-22T14:00:35Z</time>
      </trkpt>
      <trkpt lat="45.52039" lon="6.71288">
        <ele>2290.12</ele>
        <time>2016-03-22T14:00:40Z</time>
      </trkpt>
      <trkpt lat="45.52051" lon="6.71311">
        <ele>2295.24</ele>
        <time>2016-03-22T14:00:45Z</time>
      </trkpt>
      <trkpt lat="45.52063" lon="6.71334">
        <ele>2299.28</ele>
        <time>2016-03-22T14:00:50Z</time>
      </trkpt>
      <trkpt lat="45.52075" lon="6.71354">
        <ele>2303.48</ele>
        <time>2016-03-22T14:00:55Z</time>
      </trkpt>
      <trkpt lat="45.52088" lon="6.71377">
        <ele>2304.53</ele>
        <time>2016-03-22T14:01:00Z</time>
      </trkpt>
      <trkpt lat="45.521" lon="6.71399">
        <ele>2305.52</ele>
        <time>2016-03-22T14:01:05Z</time>
      </trkpt>
      <trkpt lat="45.52115" lon="6.71421">
        <ele>2308.49</ele>
        <time>2016-03-22T14:01:11Z</time>
      </trkpt>
      <trkpt lat="45.52129" lon="6.71439">
        <ele>2310.53</ele>
        <time>2016-03-22T14:01:16Z</time>
      </trkpt>
      <trkpt lat="45.52141" lon="6.7146">
        <ele>2310.34</ele>
        <time>2016-03-22T14:01:21Z</time>
      </trkpt>
      <trkpt lat="45.52155" lon="6.71483">
        <ele>2311.52</ele>
        <time>2016-03-22T14:01:26Z</time>
      </trkpt>
      <trkpt lat="45.52168" lon="6.71505">
        <ele>2313.33</ele>
        <time>2016-03-22T14:01:31Z</time>
      </trkpt>
      <trkpt lat="45.5218" lon="6.71527">
        <ele>2315.33</ele>
        <time>2016-03-22T14:01:36Z</time>
      </trkpt>
      <trkpt lat="45.52194" lon="6.7155">
        <ele>2317.49</ele>
        <time>2016-03-22T14:01:41Z</time>
      </trkpt>
      <trkpt lat="45.52207" lon="6.71572">
        <ele>2321.12</ele>
        <time>2016-03-22T14:01:46Z</time>
      </trkpt>
      <trkpt lat="45.5222" lon="6.71595">
        <ele>2324.29</ele>
        <time>2016-03-22T14:01:51Z</time>
      </trkpt>
      <trkpt lat="45.52232" lon="6.71618">
        <ele>2327.29</ele>
        <time>2016-03-22T14:01:56Z</time>
      </trkpt>
      <trkpt lat="45.52245" lon="6.71639">
        <ele>2329.52</ele>
        <time>2016-03-22T14:02:01Z</time>
      </trkpt>
      <trkpt lat="45.52256" lon="6.71661">
        <ele>2332.26</ele>
        <time>2016-03-22T14:02:06Z</time>
      </trkpt>
      <trkpt lat="45.52259" lon="6.71687">
        <ele>2330.8</ele>
        <time>2016-03-22T14:02:18Z</time>
      </trkpt>
      <trkpt lat="45.52271" lon="6.71706">
        <ele>2331.53</ele>
        <time>2016-03-22T14:02:28Z</time>
      </trkpt>
      <trkpt lat="45.52292" lon="6.71699">
        <ele>2340.74</ele>
        <time>2016-03-22T14:03:59Z</time>
      </trkpt>
      <trkpt lat="45.5231" lon="6.71693">
        <ele>2339.53</ele>
        <time>2016-03-22T14:04:03Z</time>
      </trkpt>
      <trkpt lat="45.5233" lon="6.71711">
        <ele>2334.64</ele>
        <time>2016-03-22T14:04:07Z</time>
      </trkpt>
      <trkpt lat="45.5235" lon="6.71731">
        <ele>2332.74</ele>
        <time>2016-03-22T14:04:10Z</time>
      </trkpt>
      <trkpt lat="45.52353" lon="6.71759">
        <ele>2328.86</ele>
        <time>2016-03-22T14:04:12Z</time>
      </trkpt>
      <trkpt lat="45.52362" lon="6.71789">
        <ele>2326.78</ele>
        <time>2016-03-22T14:04:14Z</time>
      </trkpt>
      <trkpt lat="45.52371" lon="6.71817">
        <ele>2324.78</ele>
        <time>2016-03-22T14:04:16Z</time>
      </trkpt>
      <trkpt lat="45.52382" lon="6.71845">
        <ele>2321.98</ele>
        <time>2016-03-22T14:04:18Z</time>
      </trkpt>
      <trkpt lat="45.52395" lon="6.71878">
        <ele>2314.67</ele>
        <time>2016-03-22T14:04:20Z</time>
      </trkpt>
      <trkpt lat="45.52409" lon="6.71904">
        <ele>2309.9</ele>
        <time>2016-03-22T14:04:22Z</time>
      </trkpt>
      <trkpt lat="45.52424" lon="6.71929">
        <ele>2306.35</ele>
        <time>2016-03-22T14:04:24Z</time>
      </trkpt>
      <trkpt lat="45.52447" lon="6.71944">
        <ele>2304.58</ele>
        <time>2016-03-22T14:04:27Z</time>
      </trkpt>
      <trkpt lat="45.52466" lon="6.7196">
        <ele>2303.38</ele>
        <time>2016-03-22T14:04:30Z</time>
      </trkpt>
      <trkpt lat="45.52482" lon="6.71975">
        <ele>2302.54</ele>
        <time>2016-03-22T14:04:33Z</time>
      </trkpt>
      <trkpt lat="45.52498" lon="6.71995">
        <ele>2299.58</ele>
        <time>2016-03-22T14:04:37Z</time>
      </trkpt>
      <trkpt lat="45.52507" lon="6.72021">
        <ele>2293.94</ele>
        <time>2016-03-22T14:04:54Z</time>
      </trkpt>
      <trkpt lat="45.52527" lon="6.72039">
        <ele>2290.78</ele>
        <time>2016-03-22T14:04:58Z</time>
      </trkpt>
      <trkpt lat="45.52538" lon="6.72066">
        <ele>2288.77</ele>
        <time>2016-03-22T14:05:01Z</time>
      </trkpt>
      <trkpt lat="45.52545" lon="6.72092">
        <ele>2281.11</ele>
        <time>2016-03-22T14:05:04Z</time>
      </trkpt>
      <trkpt lat="45.52552" lon="6.72129">
        <ele>2277.78</ele>
        <time>2016-03-22T14:05:07Z</time>
      </trkpt>
      <trkpt lat="45.52563" lon="6.72165">
        <ele>2274.62</ele>
        <time>2016-03-22T14:05:10Z</time>
      </trkpt>
      <trkpt lat="45.52572" lon="6.72194">
        <ele>2271.01</ele>
        <time>2016-03-22T14:05:12Z</time>
      </trkpt>
      <trkpt lat="45.52579" lon="6.72227">
        <ele>2266.87</ele>
        <time>2016-03-22T14:05:14Z</time>
      </trkpt>
      <trkpt lat="45.52581" lon="6.72263">
        <ele>2261.99</ele>
        <time>2016-03-22T14:05:17Z</time>
      </trkpt>
      <trkpt lat="45.52579" lon="6.72292">
        <ele>2256.8</ele>
        <time>2016-03-22T14:05:20Z</time>
      </trkpt>
      <trkpt lat="45.52569" lon="6.72316">
        <ele>2249.85</ele>
        <time>2016-03-22T14:05:23Z</time>
      </trkpt>
      <trkpt lat="45.52568" lon="6.72345">
        <ele>2245.98</ele>
        <time>2016-03-22T14:05:26Z</time>
      </trkpt>
      <trkpt lat="45.52549" lon="6.72354">
        <ele>2240.97</ele>
        <time>2016-03-22T14:05:30Z</time>
      </trkpt>
      <trkpt lat="45.52525" lon="6.72359">
        <ele>2234.86</ele>
        <time>2016-03-22T14:05:34Z</time>
      </trkpt>
      <trkpt lat="45.52502" lon="6.72353">
        <ele>2230.82</ele>
        <time>2016-03-22T14:05:37Z</time>
      </trkpt>
      <trkpt lat="45.52481" lon="6.7236">
        <ele>2226.61</ele>
        <time>2016-03-22T14:05:42Z</time>
      </trkpt>
      <trkpt lat="45.52463" lon="6.72377">
        <ele>2221.64</ele>
        <time>2016-03-22T14:05:45Z</time>
      </trkpt>
      <trkpt lat="45.52445" lon="6.72391">
        <ele>2219.78</ele>
        <time>2016-03-22T14:05:47Z</time>
      </trkpt>
      <trkpt lat="45.52433" lon="6.72414">
        <ele>2216.82</ele>
        <time>2016-03-22T14:05:49Z</time>
      </trkpt>
      <trkpt lat="45.52415" lon="6.72426">
        <ele>2210.46</ele>
        <time>2016-03-22T14:05:51Z</time>
      </trkpt>
      <trkpt lat="45.52403" lon="6.72445">
        <ele>2206.05</ele>
        <time>2016-03-22T14:05:53Z</time>
      </trkpt>
      <trkpt lat="45.5239" lon="6.72469">
        <ele>2199.78</ele>
        <time>2016-03-22T14:05:57Z</time>
      </trkpt>
      <trkpt lat="45.5238" lon="6.725">
        <ele>2188.77</ele>
        <time>2016-03-22T14:06:22Z</time>
      </trkpt>
      <trkpt lat="45.52366" lon="6.72522">
        <ele>2186.73</ele>
        <time>2016-03-22T14:06:26Z</time>
      </trkpt>
      <trkpt lat="45.52352" lon="6.72546">
        <ele>2183.74</ele>
        <time>2016-03-22T14:06:30Z</time>
      </trkpt>
      <trkpt lat="45.52354" lon="6.72589">
        <ele>2176.75</ele>
        <time>2016-03-22T14:06:36Z</time>
      </trkpt>
      <trkpt lat="45.52356" lon="6.72624">
        <ele>2171.99</ele>
        <time>2016-03-22T14:06:39Z</time>
      </trkpt>
      <trkpt lat="45.52358" lon="6.72651">
        <ele>2168.99</ele>
        <time>2016-03-22T14:06:41Z</time>
      </trkpt>
      <trkpt lat="45.52354" lon="6.7268">
        <ele>2158.98</ele>
        <time>2016-03-22T14:06:46Z</time>
      </trkpt>
      <trkpt lat="45.52354" lon="6.72707">
        <ele>2154.6</ele>
        <time>2016-03-22T14:06:49Z</time>
      </trkpt>
      <trkpt lat="45.52353" lon="6.72735">
        <ele>2147.01</ele>
        <time>2016-03-22T14:06:53Z</time>
      </trkpt>
      <trkpt lat="45.52355" lon="6.72766">
        <ele>2138.99</ele>
        <time>2016-03-22T14:06:57Z</time>
      </trkpt>
      <trkpt lat="45.52356" lon="6.72796">
        <ele>2130.47</ele>
        <time>2016-03-22T14:07:00Z</time>
      </trkpt>
      <trkpt lat="45.52353" lon="6.72828">
        <ele>2124.03</ele>
        <time>2016-03-22T14:07:03Z</time>
      </trkpt>
      <trkpt lat="45.52341" lon="6.72854">
        <ele>2113.33</ele>
        <time>2016-03-22T14:07:06Z</time>
      </trkpt>
      <trkpt lat="45.52336" lon="6.72887">
        <ele>2105.11</ele>
        <time>2016-03-22T14:07:09Z</time>
      </trkpt>
      <trkpt lat="45.52319" lon="6.72901">
        <ele>2099.11</ele>
        <time>2016-03-22T14:07:11Z</time>
      </trkpt>
      <trkpt lat="45.52311" lon="6.72927">
        <ele>2094.6</ele>
        <time>2016-03-22T14:07:14Z</time>
      </trkpt>
      <trkpt lat="45.52296" lon="6.72945">
        <ele>2086</ele>
        <time>2016-03-22T14:07:18Z</time>
      </trkpt>
      <trkpt lat="45.52285" lon="6.72973">
        <ele>2077.03</ele>
        <time>2016-03-22T14:07:22Z</time>
      </trkpt>
      <trkpt lat="45.52286" lon="6.73007">
        <ele>2073.75</ele>
        <time>2016-03-22T14:07:25Z</time>
      </trkpt>
      <trkpt lat="45.52295" lon="6.73037">
        <ele>2070.78</ele>
        <time>2016-03-22T14:07:28Z</time>
      </trkpt>
      <trkpt lat="45.52313" lon="6.73046">
        <ele>2070.33</ele>
        <time>2016-03-22T14:07:32Z</time>
      </trkpt>
      <trkpt lat="45.52302" lon="6.73025">
        <ele>2061.33</ele>
        <time>2016-03-22T14:08:21Z</time>
      </trkpt>
      <trkpt lat="45.5229" lon="6.73006">
        <ele>2060.34</ele>
        <time>2016-03-22T14:08:35Z</time>
      </trkpt>
      <trkpt lat="45.5228" lon="6.72984">
        <ele>2064.53</ele>
        <time>2016-03-22T14:08:44Z</time>
      </trkpt>
      <trkpt lat="45.52269" lon="6.72961">
        <ele>2070.25</ele>
        <time>2016-03-22T14:08:53Z</time>
      </trkpt>
      <trkpt lat="45.52258" lon="6.72941">
        <ele>2070.53</ele>
        <time>2016-03-22T14:09:02Z</time>
      </trkpt>
      <trkpt lat="45.52249" lon="6.72919">
        <ele>2076.13</ele>
        <time>2016-03-22T14:09:12Z</time>
      </trkpt>
      <trkpt lat="45.52238" lon="6.72897">
        <ele>2082.32</ele>
        <time>2016-03-22T14:09:22Z</time>
      </trkpt>
      <trkpt lat="45.52226" lon="6.72875">
        <ele>2088.48</ele>
        <time>2016-03-22T14:09:34Z</time>
      </trkpt>
      <trkpt lat="45.52215" lon="6.72855">
        <ele>2093.37</ele>
        <time>2016-03-22T14:09:44Z</time>
      </trkpt>
      <trkpt lat="45.52203" lon="6.72833">
        <ele>2097.72</ele>
        <time>2016-03-22T14:09:54Z</time>
      </trkpt>
      <trkpt lat="45.52193" lon="6.72809">
        <ele>2101.52</ele>
        <time>2016-03-22T14:10:05Z</time>
      </trkpt>
      <trkpt lat="45.52182" lon="6.72786">
        <ele>2105.49</ele>
        <time>2016-03-22T14:10:16Z</time>
      </trkpt>
      <trkpt lat="45.5217" lon="6.72763">
        <ele>2111.13</ele>
        <time>2016-03-22T14:10:27Z</time>
      </trkpt>
      <trkpt lat="45.5216" lon="6.7274">
        <ele>2118.28</ele>
        <time>2016-03-22T14:10:37Z</time>
      </trkpt>
      <trkpt lat="45.52149" lon="6.72719">
        <ele>2125.29</ele>
        <time>2016-03-22T14:10:47Z</time>
      </trkpt>
      <trkpt lat="45.52138" lon="6.72698">
        <ele>2133.27</ele>
        <time>2016-03-22T14:10:57Z</time>
      </trkpt>
      <trkpt lat="45.52128" lon="6.72677">
        <ele>2143.28</ele>
        <time>2016-03-22T14:11:08Z</time>
      </trkpt>
      <trkpt lat="45.52118" lon="6.72654">
        <ele>2155.28</ele>
        <time>2016-03-22T14:11:20Z</time>
      </trkpt>
      <trkpt lat="45.52107" lon="6.72634">
        <ele>2164.68</ele>
        <time>2016-03-22T14:11:32Z</time>
      </trkpt>
      <trkpt lat="45.52097" lon="6.72612">
        <ele>2173.48</ele>
        <time>2016-03-22T14:11:42Z</time>
      </trkpt>
      <trkpt lat="45.52086" lon="6.72591">
        <ele>2183.28</ele>
        <time>2016-03-22T14:11:53Z</time>
      </trkpt>
      <trkpt lat="45.52073" lon="6.72569">
        <ele>2194.28</ele>
        <time>2016-03-22T14:12:04Z</time>
      </trkpt>
      <trkpt lat="45.52063" lon="6.72546">
        <ele>2200.33</ele>
        <time>2016-03-22T14:12:16Z</time>
      </trkpt>
      <trkpt lat="45.52051" lon="6.72524">
        <ele>2207.29</ele>
        <time>2016-03-22T14:12:27Z</time>
      </trkpt>
      <trkpt lat="45.5204" lon="6.72502">
        <ele>2215.29</ele>
        <time>2016-03-22T14:12:38Z</time>
      </trkpt>
      <trkpt lat="45.5203" lon="6.72479">
        <ele>2218.49</ele>
        <time>2016-03-22T14:12:49Z</time>
      </trkpt>
      <trkpt lat="45.52019" lon="6.72457">
        <ele>2223.49</ele>
        <time>2016-03-22T14:12:59Z</time>
      </trkpt>
      <trkpt lat="45.52008" lon="6.72434">
        <ele>2228.33</ele>
        <time>2016-03-22T14:13:13Z</time>
      </trkpt>
      <trkpt lat="45.51996" lon="6.72412">
        <ele>2234.52</ele>
        <time>2016-03-22T14:13:25Z</time>
      </trkpt>
      <trkpt lat="45.51986" lon="6.72389">
        <ele>2239.32</ele>
        <time>2016-03-22T14:13:36Z</time>
      </trkpt>
      <trkpt lat="45.51974" lon="6.72366">
        <ele>2243.49</ele>
        <time>2016-03-22T14:13:46Z</time>
      </trkpt>
      <trkpt lat="45.51964" lon="6.72344">
        <ele>2249.52</ele>
        <time>2016-03-22T14:13:56Z</time>
      </trkpt>
      <trkpt lat="45.51952" lon="6.72322">
        <ele>2253.49</ele>
        <time>2016-03-22T14:14:07Z</time>
      </trkpt>
      <trkpt lat="45.51942" lon="6.72299">
        <ele>2256.53</ele>
        <time>2016-03-22T14:14:18Z</time>
      </trkpt>
      <trkpt lat="45.51932" lon="6.72276">
        <ele>2260.49</ele>
        <time>2016-03-22T14:14:30Z</time>
      </trkpt>
      <trkpt lat="45.5192" lon="6.72256">
        <ele>2269.53</ele>
        <time>2016-03-22T14:14:42Z</time>
      </trkpt>
      <trkpt lat="45.5191" lon="6.72234">
        <ele>2275.28</ele>
        <time>2016-03-22T14:14:52Z</time>
      </trkpt>
      <trkpt lat="45.51899" lon="6.72212">
        <ele>2279.33</ele>
        <time>2016-03-22T14:15:03Z</time>
      </trkpt>
      <trkpt lat="45.51886" lon="6.72192">
        <ele>2282.33</ele>
        <time>2016-03-22T14:16:33Z</time>
      </trkpt>
      <trkpt lat="45.51877" lon="6.72169">
        <ele>2291.49</ele>
        <time>2016-03-22T14:16:55Z</time>
      </trkpt>
      <trkpt lat="45.51867" lon="6.72147">
        <ele>2291.57</ele>
        <time>2016-03-22T14:17:12Z</time>
      </trkpt>
      <trkpt lat="45.51856" lon="6.72126">
        <ele>2291.56</ele>
        <time>2016-03-22T14:17:21Z</time>
      </trkpt>
      <trkpt lat="45.51847" lon="6.72103">
        <ele>2294.49</ele>
        <time>2016-03-22T14:17:31Z</time>
      </trkpt>
      <trkpt lat="45.51844" lon="6.72076">
        <ele>2296.52</ele>
        <time>2016-03-22T14:17:43Z</time>
      </trkpt>
      <trkpt lat="45.51832" lon="6.72056">
        <ele>2299.32</ele>
        <time>2016-03-22T14:18:03Z</time>
      </trkpt>
      <trkpt lat="45.5182" lon="6.72036">
        <ele>2306.27</ele>
        <time>2016-03-22T14:18:18Z</time>
      </trkpt>
      <trkpt lat="45.51806" lon="6.72018">
        <ele>2311.12</ele>
        <time>2016-03-22T14:18:27Z</time>
      </trkpt>
      <trkpt lat="45.51795" lon="6.71996">
        <ele>2321.25</ele>
        <time>2016-03-22T14:18:37Z</time>
      </trkpt>
      <trkpt lat="45.51785" lon="6.71974">
        <ele>2334.32</ele>
        <time>2016-03-22T14:18:47Z</time>
      </trkpt>
      <trkpt lat="45.51773" lon="6.71953">
        <ele>2342.32</ele>
        <time>2016-03-22T14:18:59Z</time>
      </trkpt>
      <trkpt lat="45.51763" lon="6.71931">
        <ele>2356.08</ele>
        <time>2016-03-22T14:19:11Z</time>
      </trkpt>
      <trkpt lat="45.51751" lon="6.71909">
        <ele>2367.52</ele>
        <time>2016-03-22T14:19:27Z</time>
      </trkpt>
      <trkpt lat="45.5174" lon="6.71888">
        <ele>2371.54</ele>
        <time>2016-03-22T14:19:36Z</time>
      </trkpt>
      <trkpt lat="45.5172" lon="6.7189">
        <ele>2373.37</ele>
        <time>2016-03-22T14:20:33Z</time>
      </trkpt>
      <trkpt lat="45.51701" lon="6.71894">
        <ele>2373.53</ele>
        <time>2016-03-22T14:20:49Z</time>
      </trkpt>
      <trkpt lat="45.51683" lon="6.719">
        <ele>2372.74</ele>
        <time>2016-03-22T14:21:01Z</time>
      </trkpt>
      <trkpt lat="45.51666" lon="6.71914">
        <ele>2370.57</ele>
        <time>2016-03-22T14:21:10Z</time>
      </trkpt>
      <trkpt lat="45.51648" lon="6.7193">
        <ele>2371.53</ele>
        <time>2016-03-22T14:21:17Z</time>
      </trkpt>
      <trkpt lat="45.51632" lon="6.71949">
        <ele>2370.73</ele>
        <time>2016-03-22T14:21:23Z</time>
      </trkpt>
      <trkpt lat="45.51615" lon="6.7197">
        <ele>2368.73</ele>
        <time>2016-03-22T14:21:28Z</time>
      </trkpt>
      <trkpt lat="45.51596" lon="6.71989">
        <ele>2365.78</ele>
        <time>2016-03-22T14:21:32Z</time>
      </trkpt>
      <trkpt lat="45.51594" lon="6.72014">
        <ele>2364.57</ele>
        <time>2016-03-22T14:21:36Z</time>
      </trkpt>
      <trkpt lat="45.51603" lon="6.72041">
        <ele>2362.57</ele>
        <time>2016-03-22T14:21:40Z</time>
      </trkpt>
      <trkpt lat="45.51621" lon="6.72052">
        <ele>2360.93</ele>
        <time>2016-03-22T14:21:42Z</time>
      </trkpt>
      <trkpt lat="45.51645" lon="6.72059">
        <ele>2359.75</ele>
        <time>2016-03-22T14:21:44Z</time>
      </trkpt>
      <trkpt lat="45.51666" lon="6.72067">
        <ele>2355.06</ele>
        <time>2016-03-22T14:21:46Z</time>
      </trkpt>
      <trkpt lat="45.51691" lon="6.72076">
        <ele>2351.99</ele>
        <time>2016-03-22T14:21:48Z</time>
      </trkpt>
      <trkpt lat="45.51713" lon="6.72086">
        <ele>2347.07</ele>
        <time>2016-03-22T14:21:50Z</time>
      </trkpt>
      <trkpt lat="45.51734" lon="6.72098">
        <ele>2343.67</ele>
        <time>2016-03-22T14:21:52Z</time>
      </trkpt>
      <trkpt lat="45.51757" lon="6.72113">
        <ele>2340.18</ele>
        <time>2016-03-22T14:21:54Z</time>
      </trkpt>
      <trkpt lat="45.51781" lon="6.72113">
        <ele>2336.04</ele>
        <time>2016-03-22T14:21:56Z</time>
      </trkpt>
      <trkpt lat="45.518" lon="6.7211">
        <ele>2330.59</ele>
        <time>2016-03-22T14:21:58Z</time>
      </trkpt>
      <trkpt lat="45.51819" lon="6.72136">
        <ele>2325.19</ele>
        <time>2016-03-22T14:22:01Z</time>
      </trkpt>
      <trkpt lat="45.5182" lon="6.7217">
        <ele>2321.84</ele>
        <time>2016-03-22T14:22:03Z</time>
      </trkpt>
      <trkpt lat="45.51815" lon="6.72205">
        <ele>2317.98</ele>
        <time>2016-03-22T14:22:06Z</time>
      </trkpt>
      <trkpt lat="45.5182" lon="6.72233">
        <ele>2314.01</ele>
        <time>2016-03-22T14:22:09Z</time>
      </trkpt>
      <trkpt lat="45.51831" lon="6.72258">
        <ele>2305.15</ele>
        <time>2016-03-22T14:22:12Z</time>
      </trkpt>
      <trkpt lat="45.51854" lon="6.72258">
        <ele>2300.18</ele>
        <time>2016-03-22T14:22:15Z</time>
      </trkpt>
      <trkpt lat="45.51878" lon="6.72268">
        <ele>2294.83</ele>
        <time>2016-03-22T14:22:18Z</time>
      </trkpt>
      <trkpt lat="45.51899" lon="6.7227">
        <ele>2289.86</ele>
        <time>2016-03-22T14:22:21Z</time>
      </trkpt>
      <trkpt lat="45.51927" lon="6.72285">
        <ele>2272.39</ele>
        <time>2016-03-22T14:23:26Z</time>
      </trkpt>
      <trkpt lat="45.51951" lon="6.72298">
        <ele>2268.95</ele>
        <time>2016-03-22T14:23:29Z</time>
      </trkpt>
      <trkpt lat="45.51971" lon="6.72316">
        <ele>2265.78</ele>
        <time>2016-03-22T14:23:32Z</time>
      </trkpt>
      <trkpt lat="45.51988" lon="6.72326">
        <ele>2263.62</ele>
        <time>2016-03-22T14:23:34Z</time>
      </trkpt>
      <trkpt lat="45.52007" lon="6.7232">
        <ele>2262.73</ele>
        <time>2016-03-22T14:23:36Z</time>
      </trkpt>
      <trkpt lat="45.52025" lon="6.72321">
        <ele>2259.98</ele>
        <time>2016-03-22T14:23:38Z</time>
      </trkpt>
      <trkpt lat="45.52052" lon="6.72324">
        <ele>2257.74</ele>
        <time>2016-03-22T14:23:41Z</time>
      </trkpt>
      <trkpt lat="45.52071" lon="6.72331">
        <ele>2254.98</ele>
        <time>2016-03-22T14:23:43Z</time>
      </trkpt>
      <trkpt lat="45.52092" lon="6.72342">
        <ele>2251.99</ele>
        <time>2016-03-22T14:23:45Z</time>
      </trkpt>
      <trkpt lat="45.52115" lon="6.72354">
        <ele>2247.07</ele>
        <time>2016-03-22T14:23:47Z</time>
      </trkpt>
      <trkpt lat="45.5214" lon="6.7237">
        <ele>2243.83</ele>
        <time>2016-03-22T14:23:49Z</time>
      </trkpt>
      <trkpt lat="45.52166" lon="6.72388">
        <ele>2240.02</ele>
        <time>2016-03-22T14:23:51Z</time>
      </trkpt>
      <trkpt lat="45.52179" lon="6.72368">
        <ele>2237.23</ele>
        <time>2016-03-22T14:23:52Z</time>
      </trkpt>
      <trkpt lat="45.52205" lon="6.72377">
        <ele>2230.16</ele>
        <time>2016-03-22T14:23:54Z</time>
      </trkpt>
      <trkpt lat="45.52228" lon="6.72388">
        <ele>2226.04</ele>
        <time>2016-03-22T14:23:56Z</time>
      </trkpt>
      <trkpt lat="45.52249" lon="6.72386">
        <ele>2222.19</ele>
        <time>2016-03-22T14:23:58Z</time>
      </trkpt>
      <trkpt lat="45.52274" lon="6.72399">
        <ele>2217.18</ele>
        <time>2016-03-22T14:24:01Z</time>
      </trkpt>
      <trkpt lat="45.52298" lon="6.72414">
        <ele>2213.2</ele>
        <time>2016-03-22T14:24:03Z</time>
      </trkpt>
      <trkpt lat="45.5232" lon="6.72417">
        <ele>2206.96</ele>
        <time>2016-03-22T14:24:05Z</time>
      </trkpt>
      <trkpt lat="45.52338" lon="6.72437">
        <ele>2203.83</ele>
        <time>2016-03-22T14:24:07Z</time>
      </trkpt>
      <trkpt lat="45.52353" lon="6.72457">
        <ele>2199.86</ele>
        <time>2016-03-22T14:24:09Z</time>
      </trkpt>
      <trkpt lat="45.52356" lon="6.72485">
        <ele>2196.02</ele>
        <time>2016-03-22T14:24:11Z</time>
      </trkpt>
      <trkpt lat="45.52358" lon="6.7252">
        <ele>2186.07</ele>
        <time>2016-03-22T14:24:16Z</time>
      </trkpt>
      <trkpt lat="45.52349" lon="6.72546">
        <ele>2173.79</ele>
        <time>2016-03-22T14:24:19Z</time>
      </trkpt>
      <trkpt lat="45.52352" lon="6.72578">
        <ele>2168.64</ele>
        <time>2016-03-22T14:24:25Z</time>
      </trkpt>
      <trkpt lat="45.52357" lon="6.7261">
        <ele>2164.82</ele>
        <time>2016-03-22T14:24:28Z</time>
      </trkpt>
      <trkpt lat="45.52364" lon="6.72638">
        <ele>2159.83</ele>
        <time>2016-03-22T14:24:31Z</time>
      </trkpt>
      <trkpt lat="45.52353" lon="6.72658">
        <ele>2155.71</ele>
        <time>2016-03-22T14:24:36Z</time>
      </trkpt>
      <trkpt lat="45.52358" lon="6.72688">
        <ele>2145.77</ele>
        <time>2016-03-22T14:24:56Z</time>
      </trkpt>
      <trkpt lat="45.52361" lon="6.72719">
        <ele>2144.73</ele>
        <time>2016-03-22T14:24:59Z</time>
      </trkpt>
      <trkpt lat="45.52371" lon="6.72754">
        <ele>2140.77</ele>
        <time>2016-03-22T14:25:03Z</time>
      </trkpt>
      <trkpt lat="45.52367" lon="6.72786">
        <ele>2135.95</ele>
        <time>2016-03-22T14:25:07Z</time>
      </trkpt>
      <trkpt lat="45.52365" lon="6.72817">
        <ele>2125.08</ele>
        <time>2016-03-22T14:25:11Z</time>
      </trkpt>
      <trkpt lat="45.5236" lon="6.72854">
        <ele>2118.39</ele>
        <time>2016-03-22T14:25:14Z</time>
      </trkpt>
      <trkpt lat="45.52343" lon="6.72879">
        <ele>2111.27</ele>
        <time>2016-03-22T14:25:17Z</time>
      </trkpt>
      <trkpt lat="45.52324" lon="6.72901">
        <ele>2104.07</ele>
        <time>2016-03-22T14:25:20Z</time>
      </trkpt>
      <trkpt lat="45.52313" lon="6.72925">
        <ele>2099.98</ele>
        <time>2016-03-22T14:25:23Z</time>
      </trkpt>
      <trkpt lat="45.52299" lon="6.72952">
        <ele>2095.58</ele>
        <time>2016-03-22T14:25:28Z</time>
      </trkpt>
      <trkpt lat="45.52288" lon="6.7298">
        <ele>2088.83</ele>
        <time>2016-03-22T14:25:32Z</time>
      </trkpt>
      <trkpt lat="45.5229" lon="6.73013">
        <ele>2085.59</ele>
        <time>2016-03-22T14:25:35Z</time>
      </trkpt>
      <trkpt lat="45.52301" lon="6.7304">
        <ele>2082.75</ele>
        <time>2016-03-22T14:25:38Z</time>
      </trkpt>
      <trkpt lat="45.52319" lon="6.73044">
        <ele>2076.02</ele>
        <time>2016-03-22T14:25:46Z</time>
      </trkpt>
      <trkpt lat="45.52305" lon="6.73028">
        <ele>2065.72</ele>
        <time>2016-03-22T14:26:42Z</time>
      </trkpt>
      <trkpt lat="45.52293" lon="6.73007">
        <ele>2064.57</ele>
        <time>2016-03-22T14:27:24Z</time>
      </trkpt>
      <trkpt lat="45.5228" lon="6.72985">
        <ele>2065.37</ele>
        <time>2016-03-22T14:27:35Z</time>
      </trkpt>
      <trkpt lat="45.5227" lon="6.72963">
        <ele>2066.53</ele>
        <time>2016-03-22T14:27:45Z</time>
      </trkpt>
      <trkpt lat="45.52259" lon="6.72941">
        <ele>2068.52</ele>
        <time>2016-03-22T14:27:55Z</time>
      </trkpt>
      <trkpt lat="45.52248" lon="6.72918">
        <ele>2073.52</ele>
        <time>2016-03-22T14:28:06Z</time>
      </trkpt>
      <trkpt lat="45.52238" lon="6.72895">
        <ele>2081.32</ele>
        <time>2016-03-22T14:28:16Z</time>
      </trkpt>
      <trkpt lat="45.52226" lon="6.72873">
        <ele>2086.49</ele>
        <time>2016-03-22T14:28:25Z</time>
      </trkpt>
      <trkpt lat="45.52215" lon="6.72851">
        <ele>2090.52</ele>
        <time>2016-03-22T14:28:36Z</time>
      </trkpt>
      <trkpt lat="45.52204" lon="6.72828">
        <ele>2091.53</ele>
        <time>2016-03-22T14:28:46Z</time>
      </trkpt>
      <trkpt lat="45.52193" lon="6.72808">
        <ele>2092.73</ele>
        <time>2016-03-22T14:28:56Z</time>
      </trkpt>
      <trkpt lat="45.52181" lon="6.72785">
        <ele>2092.51</ele>
        <time>2016-03-22T14:29:06Z</time>
      </trkpt>
      <trkpt lat="45.52168" lon="6.72764">
        <ele>2093.57</ele>
        <time>2016-03-22T14:29:17Z</time>
      </trkpt>
      <trkpt lat="45.52158" lon="6.72741">
        <ele>2098.33</ele>
        <time>2016-03-22T14:29:26Z</time>
      </trkpt>
      <trkpt lat="45.52148" lon="6.72716">
        <ele>2107.28</ele>
        <time>2016-03-22T14:29:36Z</time>
      </trkpt>
      <trkpt lat="45.52136" lon="6.72694">
        <ele>2115.29</ele>
        <time>2016-03-22T14:29:47Z</time>
      </trkpt>
      <trkpt lat="45.52124" lon="6.72673">
        <ele>2124.29</ele>
        <time>2016-03-22T14:29:58Z</time>
      </trkpt>
      <trkpt lat="45.52114" lon="6.72651">
        <ele>2136.28</ele>
        <time>2016-03-22T14:30:09Z</time>
      </trkpt>
      <trkpt lat="45.52102" lon="6.72627">
        <ele>2148.29</ele>
        <time>2016-03-22T14:30:22Z</time>
      </trkpt>
      <trkpt lat="45.52091" lon="6.72604">
        <ele>2155.49</ele>
        <time>2016-03-22T14:30:32Z</time>
      </trkpt>
      <trkpt lat="45.52081" lon="6.72582">
        <ele>2169.29</ele>
        <time>2016-03-22T14:30:44Z</time>
      </trkpt>
      <trkpt lat="45.5207" lon="6.7256">
        <ele>2180.51</ele>
        <time>2016-03-22T14:30:56Z</time>
      </trkpt>
      <trkpt lat="45.5206" lon="6.72538">
        <ele>2188.48</ele>
        <time>2016-03-22T14:31:07Z</time>
      </trkpt>
      <trkpt lat="45.5205" lon="6.72516">
        <ele>2194.49</ele>
        <time>2016-03-22T14:31:18Z</time>
      </trkpt>
      <trkpt lat="45.52038" lon="6.72493">
        <ele>2204.08</ele>
        <time>2016-03-22T14:31:29Z</time>
      </trkpt>
      <trkpt lat="45.52028" lon="6.72468">
        <ele>2211.48</ele>
        <time>2016-03-22T14:31:41Z</time>
      </trkpt>
      <trkpt lat="45.52017" lon="6.72446">
        <ele>2217.33</ele>
        <time>2016-03-22T14:31:51Z</time>
      </trkpt>
      <trkpt lat="45.52008" lon="6.72423">
        <ele>2224.33</ele>
        <time>2016-03-22T14:32:01Z</time>
      </trkpt>
      <trkpt lat="45.51997" lon="6.72399">
        <ele>2232.32</ele>
        <time>2016-03-22T14:32:13Z</time>
      </trkpt>
      <trkpt lat="45.51986" lon="6.72378">
        <ele>2238.31</ele>
        <time>2016-03-22T14:32:24Z</time>
      </trkpt>
      <trkpt lat="45.51975" lon="6.72357">
        <ele>2241.49</ele>
        <time>2016-03-22T14:33:25Z</time>
      </trkpt>
      <trkpt lat="45.51964" lon="6.72335">
        <ele>2247.32</ele>
        <time>2016-03-22T14:33:35Z</time>
      </trkpt>
      <trkpt lat="45.51953" lon="6.72313">
        <ele>2253.52</ele>
        <time>2016-03-22T14:33:45Z</time>
      </trkpt>
      <trkpt lat="45.5194" lon="6.72295">
        <ele>2254.53</ele>
        <time>2016-03-22T14:33:56Z</time>
      </trkpt>
      <trkpt lat="45.5193" lon="6.72273">
        <ele>2257.33</ele>
        <time>2016-03-22T14:34:05Z</time>
      </trkpt>
      <trkpt lat="45.51918" lon="6.72252">
        <ele>2260.49</ele>
        <time>2016-03-22T14:34:15Z</time>
      </trkpt>
      <trkpt lat="45.51906" lon="6.72231">
        <ele>2264.52</ele>
        <time>2016-03-22T14:34:24Z</time>
      </trkpt>
      <trkpt lat="45.51897" lon="6.72208">
        <ele>2270.26</ele>
        <time>2016-03-22T14:34:34Z</time>
      </trkpt>
      <trkpt lat="45.51882" lon="6.7219">
        <ele>2277.33</ele>
        <time>2016-03-22T14:34:48Z</time>
      </trkpt>
      <trkpt lat="45.51877" lon="6.72165">
        <ele>2280.69</ele>
        <time>2016-03-22T14:34:59Z</time>
      </trkpt>
      <trkpt lat="45.51869" lon="6.72142">
        <ele>2285.53</ele>
        <time>2016-03-22T14:35:07Z</time>
      </trkpt>
      <trkpt lat="45.51861" lon="6.72118">
        <ele>2285.57</ele>
        <time>2016-03-22T14:35:16Z</time>
      </trkpt>
      <trkpt lat="45.51848" lon="6.72097">
        <ele>2284.51</ele>
        <time>2016-03-22T14:35:26Z</time>
      </trkpt>
      <trkpt lat="45.51838" lon="6.72075">
        <ele>2285.7</ele>
        <time>2016-03-22T14:35:35Z</time>
      </trkpt>
      <trkpt lat="45.51826" lon="6.72054">
        <ele>2284.57</ele>
        <time>2016-03-22T14:35:52Z</time>
      </trkpt>
      <trkpt lat="45.51816" lon="6.7203">
        <ele>2291.47</ele>
        <time>2016-03-22T14:36:00Z</time>
      </trkpt>
      <trkpt lat="45.51806" lon="6.72007">
        <ele>2300.24</ele>
        <time>2016-03-22T14:36:09Z</time>
      </trkpt>
      <trkpt lat="45.51794" lon="6.71987">
        <ele>2310.48</ele>
        <time>2016-03-22T14:36:19Z</time>
      </trkpt>
      <trkpt lat="45.51779" lon="6.71967">
        <ele>2320.48</ele>
        <time>2016-03-22T14:36:31Z</time>
      </trkpt>
      <trkpt lat="45.51772" lon="6.71941">
        <ele>2340.09</ele>
        <time>2016-03-22T14:36:43Z</time>
      </trkpt>
      <trkpt lat="45.51759" lon="6.71922">
        <ele>2354.24</ele>
        <time>2016-03-22T14:36:57Z</time>
      </trkpt>
      <trkpt lat="45.51745" lon="6.71907">
        <ele>2362.52</ele>
        <time>2016-03-22T14:37:12Z</time>
      </trkpt>
      <trkpt lat="45.51732" lon="6.71888">
        <ele>2369.53</ele>
        <time>2016-03-22T14:37:33Z</time>
      </trkpt>
      <trkpt lat="45.51714" lon="6.7189">
        <ele>2371.33</ele>
        <time>2016-03-22T14:38:31Z</time>
      </trkpt>
      <trkpt lat="45.51695" lon="6.71895">
        <ele>2372.53</ele>
        <time>2016-03-22T14:38:46Z</time>
      </trkpt>
      <trkpt lat="45.51677" lon="6.71905">
        <ele>2369.77</ele>
        <time>2016-03-22T14:38:56Z</time>
      </trkpt>
      <trkpt lat="45.51661" lon="6.7192">
        <ele>2368.57</ele>
        <time>2016-03-22T14:39:03Z</time>
      </trkpt>
      <trkpt lat="45.51643" lon="6.71937">
        <ele>2367.53</ele>
        <time>2016-03-22T14:39:08Z</time>
      </trkpt>
      <trkpt lat="45.51629" lon="6.71956">
        <ele>2369.44</ele>
        <time>2016-03-22T14:39:12Z</time>
      </trkpt>
      <trkpt lat="45.51615" lon="6.71971">
        <ele>2367.77</ele>
        <time>2016-03-22T14:39:16Z</time>
      </trkpt>
      <trkpt lat="45.51599" lon="6.71987">
        <ele>2365.77</ele>
        <time>2016-03-22T14:39:19Z</time>
      </trkpt>
      <trkpt lat="45.51584" lon="6.72006">
        <ele>2365.53</ele>
        <time>2016-03-22T14:39:22Z</time>
      </trkpt>
      <trkpt lat="45.51579" lon="6.72036">
        <ele>2367.45</ele>
        <time>2016-03-22T14:39:25Z</time>
      </trkpt>
      <trkpt lat="45.51577" lon="6.72062">
        <ele>2366.73</ele>
        <time>2016-03-22T14:39:27Z</time>
      </trkpt>
      <trkpt lat="45.51578" lon="6.72099">
        <ele>2364.58</ele>
        <time>2016-03-22T14:39:30Z</time>
      </trkpt>
      <trkpt lat="45.51592" lon="6.72117">
        <ele>2366.29</ele>
        <time>2016-03-22T14:39:32Z</time>
      </trkpt>
      <trkpt lat="45.51607" lon="6.72148">
        <ele>2364.58</ele>
        <time>2016-03-22T14:39:35Z</time>
      </trkpt>
      <trkpt lat="45.51603" lon="6.72175">
        <ele>2357.24</ele>
        <time>2016-03-22T14:39:38Z</time>
      </trkpt>
      <trkpt lat="45.51592" lon="6.722">
        <ele>2352.02</ele>
        <time>2016-03-22T14:39:41Z</time>
      </trkpt>
      <trkpt lat="45.51583" lon="6.72223">
        <ele>2348.83</ele>
        <time>2016-03-22T14:39:43Z</time>
      </trkpt>
      <trkpt lat="45.51581" lon="6.72249">
        <ele>2345.98</ele>
        <time>2016-03-22T14:39:45Z</time>
      </trkpt>
      <trkpt lat="45.51584" lon="6.72275">
        <ele>2342.83</ele>
        <time>2016-03-22T14:39:47Z</time>
      </trkpt>
      <trkpt lat="45.51589" lon="6.72301">
        <ele>2340.78</ele>
        <time>2016-03-22T14:39:49Z</time>
      </trkpt>
      <trkpt lat="45.51592" lon="6.72329">
        <ele>2331.54</ele>
        <time>2016-03-22T14:39:52Z</time>
      </trkpt>
      <trkpt lat="45.51571" lon="6.72331">
        <ele>2322.78</ele>
        <time>2016-03-22T14:39:57Z</time>
      </trkpt>
      <trkpt lat="45.51558" lon="6.72311">
        <ele>2321.74</ele>
        <time>2016-03-22T14:39:59Z</time>
      </trkpt>
      <trkpt lat="45.51545" lon="6.7229">
        <ele>2317.06</ele>
        <time>2016-03-22T14:40:01Z</time>
      </trkpt>
      <trkpt lat="45.51525" lon="6.72274">
        <ele>2314.94</ele>
        <time>2016-03-22T14:40:04Z</time>
      </trkpt>
      <trkpt lat="45.51509" lon="6.72287">
        <ele>2299.83</ele>
        <time>2016-03-22T14:40:22Z</time>
      </trkpt>
      <trkpt lat="45.51497" lon="6.72306">
        <ele>2293.78</ele>
        <time>2016-03-22T14:40:30Z</time>
      </trkpt>
      <trkpt lat="45.51491" lon="6.7233">
        <ele>2283.47</ele>
        <time>2016-03-22T14:40:34Z</time>
      </trkpt>
      <trkpt lat="45.51484" lon="6.72359">
        <ele>2279.63</ele>
        <time>2016-03-22T14:40:37Z</time>
      </trkpt>
      <trkpt lat="45.51468" lon="6.72382">
        <ele>2270.67</ele>
        <time>2016-03-22T14:40:41Z</time>
      </trkpt>
      <trkpt lat="45.51441" lon="6.72389">
        <ele>2265.86</ele>
        <time>2016-03-22T14:40:44Z</time>
      </trkpt>
      <trkpt lat="45.5142" lon="6.7239">
        <ele>2261.86</ele>
        <time>2016-03-22T14:40:46Z</time>
      </trkpt>
      <trkpt lat="45.51399" lon="6.72389">
        <ele>2260.58</ele>
        <time>2016-03-22T14:40:48Z</time>
      </trkpt>
      <trkpt lat="45.5138" lon="6.72387">
        <ele>2256.69</ele>
        <time>2016-03-22T14:40:50Z</time>
      </trkpt>
      <trkpt lat="45.51358" lon="6.7239">
        <ele>2251.06</ele>
        <time>2016-03-22T14:40:53Z</time>
      </trkpt>
      <trkpt lat="45.51336" lon="6.72395">
        <ele>2246.98</ele>
        <time>2016-03-22T14:40:56Z</time>
      </trkpt>
      <trkpt lat="45.51311" lon="6.72391">
        <ele>2240.04</ele>
        <time>2016-03-22T14:40:59Z</time>
      </trkpt>
      <trkpt lat="45.51288" lon="6.72393">
        <ele>2234.83</ele>
        <time>2016-03-22T14:41:02Z</time>
      </trkpt>
      <trkpt lat="45.51269" lon="6.72393">
        <ele>2231.82</ele>
        <time>2016-03-22T14:41:04Z</time>
      </trkpt>
      <trkpt lat="45.51242" lon="6.72395">
        <ele>2227.12</ele>
        <time>2016-03-22T14:41:07Z</time>
      </trkpt>
      <trkpt lat="45.51218" lon="6.72384">
        <ele>2226.54</ele>
        <time>2016-03-22T14:41:10Z</time>
      </trkpt>
      <trkpt lat="45.51197" lon="6.72375">
        <ele>2226.53</ele>
        <time>2016-03-22T14:41:12Z</time>
      </trkpt>
      <trkpt lat="45.51176" lon="6.72365">
        <ele>2223.81</ele>
        <time>2016-03-22T14:41:14Z</time>
      </trkpt>
      <trkpt lat="45.51155" lon="6.72357">
        <ele>2221.94</ele>
        <time>2016-03-22T14:41:16Z</time>
      </trkpt>
      <trkpt lat="45.51134" lon="6.72357">
        <ele>2221.55</ele>
        <time>2016-03-22T14:41:18Z</time>
      </trkpt>
      <trkpt lat="45.51116" lon="6.72364">
        <ele>2217.21</ele>
        <time>2016-03-22T14:41:20Z</time>
      </trkpt>
      <trkpt lat="45.51097" lon="6.7238">
        <ele>2215.6</ele>
        <time>2016-03-22T14:41:22Z</time>
      </trkpt>
      <trkpt lat="45.51077" lon="6.72398">
        <ele>2216.68</ele>
        <time>2016-03-22T14:41:25Z</time>
      </trkpt>
      <trkpt lat="45.51056" lon="6.72414">
        <ele>2212.21</ele>
        <time>2016-03-22T14:41:28Z</time>
      </trkpt>
      <trkpt lat="45.5104" lon="6.72431">
        <ele>2209.64</ele>
        <time>2016-03-22T14:41:30Z</time>
      </trkpt>
      <trkpt lat="45.51034" lon="6.72465">
        <ele>2207.42</ele>
        <time>2016-03-22T14:41:33Z</time>
      </trkpt>
      <trkpt lat="45.51046" lon="6.72493">
        <ele>2207.53</ele>
        <time>2016-03-22T14:41:37Z</time>
      </trkpt>
      <trkpt lat="45.51063" lon="6.72499">
        <ele>2201.4</ele>
        <time>2016-03-22T14:42:13Z</time>
      </trkpt>
      <trkpt lat="45.51045" lon="6.72505">
        <ele>2192.33</ele>
        <time>2016-03-22T14:42:38Z</time>
      </trkpt>
      <trkpt lat="45.51026" lon="6.72514">
        <ele>2193.54</ele>
        <time>2016-03-22T14:42:52Z</time>
      </trkpt>
      <trkpt lat="45.51007" lon="6.72528">
        <ele>2200.12</ele>
        <time>2016-03-22T14:43:03Z</time>
      </trkpt>
      <trkpt lat="45.50991" lon="6.72541">
        <ele>2208.28</ele>
        <time>2016-03-22T14:43:14Z</time>
      </trkpt>
      <trkpt lat="45.50974" lon="6.72553">
        <ele>2215.5</ele>
        <time>2016-03-22T14:43:24Z</time>
      </trkpt>
      <trkpt lat="45.50956" lon="6.72565">
        <ele>2225.33</ele>
        <time>2016-03-22T14:43:35Z</time>
      </trkpt>
      <trkpt lat="45.50938" lon="6.72574">
        <ele>2234.28</ele>
        <time>2016-03-22T14:43:44Z</time>
      </trkpt>
      <trkpt lat="45.50921" lon="6.72585">
        <ele>2241.29</ele>
        <time>2016-03-22T14:43:53Z</time>
      </trkpt>
      <trkpt lat="45.50902" lon="6.72595">
        <ele>2247.29</ele>
        <time>2016-03-22T14:44:03Z</time>
      </trkpt>
      <trkpt lat="45.50885" lon="6.72608">
        <ele>2254.49</ele>
        <time>2016-03-22T14:44:14Z</time>
      </trkpt>
      <trkpt lat="45.50867" lon="6.7262">
        <ele>2260.32</ele>
        <time>2016-03-22T14:44:24Z</time>
      </trkpt>
      <trkpt lat="45.50848" lon="6.7263">
        <ele>2266.52</ele>
        <time>2016-03-22T14:44:34Z</time>
      </trkpt>
      <trkpt lat="45.5083" lon="6.72639">
        <ele>2269.36</ele>
        <time>2016-03-22T14:44:43Z</time>
      </trkpt>
      <trkpt lat="45.50813" lon="6.72648">
        <ele>2274.49</ele>
        <time>2016-03-22T14:44:52Z</time>
      </trkpt>
      <trkpt lat="45.50795" lon="6.72656">
        <ele>2281.29</ele>
        <time>2016-03-22T14:45:01Z</time>
      </trkpt>
      <trkpt lat="45.50777" lon="6.72666">
        <ele>2286.48</ele>
        <time>2016-03-22T14:45:11Z</time>
      </trkpt>
      <trkpt lat="45.5076" lon="6.72676">
        <ele>2291.69</ele>
        <time>2016-03-22T14:45:20Z</time>
      </trkpt>
      <trkpt lat="45.50743" lon="6.72685">
        <ele>2292.33</ele>
        <time>2016-03-22T14:45:29Z</time>
      </trkpt>
      <trkpt lat="45.50726" lon="6.72695">
        <ele>2295.53</ele>
        <time>2016-03-22T14:45:38Z</time>
      </trkpt>
      <trkpt lat="45.50709" lon="6.72705">
        <ele>2298.33</ele>
        <time>2016-03-22T14:45:47Z</time>
      </trkpt>
      <trkpt lat="45.5069" lon="6.72717">
        <ele>2299.53</ele>
        <time>2016-03-22T14:45:57Z</time>
      </trkpt>
      <trkpt lat="45.50673" lon="6.72729">
        <ele>2301.33</ele>
        <time>2016-03-22T14:46:06Z</time>
      </trkpt>
      <trkpt lat="45.50656" lon="6.72738">
        <ele>2307.29</ele>
        <time>2016-03-22T14:46:16Z</time>
      </trkpt>
      <trkpt lat="45.50638" lon="6.72745">
        <ele>2316.33</ele>
        <time>2016-03-22T14:46:26Z</time>
      </trkpt>
      <trkpt lat="45.50621" lon="6.72755">
        <ele>2322.48</ele>
        <time>2016-03-22T14:46:36Z</time>
      </trkpt>
      <trkpt lat="45.50604" lon="6.72766">
        <ele>2330.32</ele>
        <time>2016-03-22T14:46:46Z</time>
      </trkpt>
      <trkpt lat="45.50585" lon="6.72776">
        <ele>2338.28</ele>
        <time>2016-03-22T14:46:56Z</time>
      </trkpt>
      <trkpt lat="45.50568" lon="6.72787">
        <ele>2349.43</ele>
        <time>2016-03-22T14:47:06Z</time>
      </trkpt>
      <trkpt lat="45.50551" lon="6.72796">
        <ele>2358.31</ele>
        <time>2016-03-22T14:47:17Z</time>
      </trkpt>
      <trkpt lat="45.50534" lon="6.72808">
        <ele>2367.28</ele>
        <time>2016-03-22T14:47:27Z</time>
      </trkpt>
      <trkpt lat="45.50516" lon="6.72818">
        <ele>2378.23</ele>
        <time>2016-03-22T14:47:36Z</time>
      </trkpt>
      <trkpt lat="45.50498" lon="6.7283">
        <ele>2388.28</ele>
        <time>2016-03-22T14:47:46Z</time>
      </trkpt>
      <trkpt lat="45.5048" lon="6.72839">
        <ele>2398.28</ele>
        <time>2016-03-22T14:47:56Z</time>
      </trkpt>
      <trkpt lat="45.50463" lon="6.72848">
        <ele>2410.28</ele>
        <time>2016-03-22T14:48:06Z</time>
      </trkpt>
      <trkpt lat="45.50445" lon="6.72857">
        <ele>2420.32</ele>
        <time>2016-03-22T14:48:17Z</time>
      </trkpt>
      <trkpt lat="45.50428" lon="6.72868">
        <ele>2430.28</ele>
        <time>2016-03-22T14:48:27Z</time>
      </trkpt>
      <trkpt lat="45.5041" lon="6.72875">
        <ele>2438.28</ele>
        <time>2016-03-22T14:48:36Z</time>
      </trkpt>
      <trkpt lat="45.50393" lon="6.72885">
        <ele>2445.29</ele>
        <time>2016-03-22T14:48:46Z</time>
      </trkpt>
      <trkpt lat="45.50376" lon="6.72899">
        <ele>2450.33</ele>
        <time>2016-03-22T14:48:57Z</time>
      </trkpt>
      <trkpt lat="45.50358" lon="6.7291">
        <ele>2453.52</ele>
        <time>2016-03-22T14:49:08Z</time>
      </trkpt>
      <trkpt lat="45.5034" lon="6.72919">
        <ele>2458.29</ele>
        <time>2016-03-22T14:49:18Z</time>
      </trkpt>
      <trkpt lat="45.50323" lon="6.72931">
        <ele>2464.28</ele>
        <time>2016-03-22T14:49:27Z</time>
      </trkpt>
      <trkpt lat="45.50305" lon="6.72941">
        <ele>2468.29</ele>
        <time>2016-03-22T14:49:37Z</time>
      </trkpt>
      <trkpt lat="45.50288" lon="6.72951">
        <ele>2473.28</ele>
        <time>2016-03-22T14:49:46Z</time>
      </trkpt>
      <trkpt lat="45.50273" lon="6.72965">
        <ele>2477.49</ele>
        <time>2016-03-22T14:49:56Z</time>
      </trkpt>
      <trkpt lat="45.50256" lon="6.7298">
        <ele>2480.33</ele>
        <time>2016-03-22T14:50:06Z</time>
      </trkpt>
      <trkpt lat="45.50237" lon="6.72986">
        <ele>2489.19</ele>
        <time>2016-03-22T14:50:15Z</time>
      </trkpt>
      <trkpt lat="45.50217" lon="6.72993">
        <ele>2491.53</ele>
        <time>2016-03-22T14:50:24Z</time>
      </trkpt>
      <trkpt lat="45.50201" lon="6.73008">
        <ele>2492.53</ele>
        <time>2016-03-22T14:50:34Z</time>
      </trkpt>
      <trkpt lat="45.50185" lon="6.73023">
        <ele>2491.37</ele>
        <time>2016-03-22T14:50:44Z</time>
      </trkpt>
      <trkpt lat="45.50165" lon="6.73029">
        <ele>2500.01</ele>
        <time>2016-03-22T14:50:53Z</time>
      </trkpt>
      <trkpt lat="45.50147" lon="6.73028">
        <ele>2515.24</ele>
        <time>2016-03-22T14:51:00Z</time>
      </trkpt>
      <trkpt lat="45.50129" lon="6.73041">
        <ele>2520.33</ele>
        <time>2016-03-22T14:51:10Z</time>
      </trkpt>
      <trkpt lat="45.50114" lon="6.73055">
        <ele>2523.53</ele>
        <time>2016-03-22T14:51:19Z</time>
      </trkpt>
      <trkpt lat="45.50096" lon="6.73065">
        <ele>2530.28</ele>
        <time>2016-03-22T14:51:29Z</time>
      </trkpt>
      <trkpt lat="45.50077" lon="6.73073">
        <ele>2534.29</ele>
        <time>2016-03-22T14:51:39Z</time>
      </trkpt>
      <trkpt lat="45.50059" lon="6.73083">
        <ele>2542.24</ele>
        <time>2016-03-22T14:51:49Z</time>
      </trkpt>
      <trkpt lat="45.50041" lon="6.73089">
        <ele>2550.32</ele>
        <time>2016-03-22T14:51:58Z</time>
      </trkpt>
      <trkpt lat="45.50024" lon="6.73098">
        <ele>2557.48</ele>
        <time>2016-03-22T14:52:08Z</time>
      </trkpt>
      <trkpt lat="45.50006" lon="6.73107">
        <ele>2568.28</ele>
        <time>2016-03-22T14:52:18Z</time>
      </trkpt>
      <trkpt lat="45.49988" lon="6.73117">
        <ele>2575.28</ele>
        <time>2016-03-22T14:52:28Z</time>
      </trkpt>
      <trkpt lat="45.49971" lon="6.7313">
        <ele>2580.53</ele>
        <time>2016-03-22T14:52:38Z</time>
      </trkpt>
      <trkpt lat="45.49954" lon="6.73141">
        <ele>2587.09</ele>
        <time>2016-03-22T14:52:47Z</time>
      </trkpt>
      <trkpt lat="45.49937" lon="6.73152">
        <ele>2593.48</ele>
        <time>2016-03-22T14:52:57Z</time>
      </trkpt>
      <trkpt lat="45.49918" lon="6.73157">
        <ele>2605.24</ele>
        <time>2016-03-22T14:53:07Z</time>
      </trkpt>
      <trkpt lat="45.49902" lon="6.73168">
        <ele>2611.25</ele>
        <time>2016-03-22T14:53:16Z</time>
      </trkpt>
      <trkpt lat="45.49884" lon="6.73178">
        <ele>2622.28</ele>
        <time>2016-03-22T14:53:26Z</time>
      </trkpt>
      <trkpt lat="45.49867" lon="6.73187">
        <ele>2630.08</ele>
        <time>2016-03-22T14:53:36Z</time>
      </trkpt>
      <trkpt lat="45.49849" lon="6.73196">
        <ele>2638.49</ele>
        <time>2016-03-22T14:53:46Z</time>
      </trkpt>
      <trkpt lat="45.49832" lon="6.73207">
        <ele>2645.32</ele>
        <time>2016-03-22T14:53:56Z</time>
      </trkpt>
      <trkpt lat="45.49814" lon="6.7322">
        <ele>2649.33</ele>
        <time>2016-03-22T14:54:06Z</time>
      </trkpt>
      <trkpt lat="45.49796" lon="6.73231">
        <ele>2662.24</ele>
        <time>2016-03-22T14:54:17Z</time>
      </trkpt>
      <trkpt lat="45.49778" lon="6.73238">
        <ele>2671.28</ele>
        <time>2016-03-22T14:54:27Z</time>
      </trkpt>
      <trkpt lat="45.49759" lon="6.73248">
        <ele>2675.49</ele>
        <time>2016-03-22T14:54:37Z</time>
      </trkpt>
      <trkpt lat="45.49743" lon="6.73259">
        <ele>2676.49</ele>
        <time>2016-03-22T14:54:46Z</time>
      </trkpt>
      <trkpt lat="45.49725" lon="6.73268">
        <ele>2675.53</ele>
        <time>2016-03-22T14:54:55Z</time>
      </trkpt>
      <trkpt lat="45.49708" lon="6.73277">
        <ele>2675.53</ele>
        <time>2016-03-22T14:55:04Z</time>
      </trkpt>
      <trkpt lat="45.49691" lon="6.73286">
        <ele>2674.53</ele>
        <time>2016-03-22T14:55:13Z</time>
      </trkpt>
      <trkpt lat="45.49674" lon="6.73296">
        <ele>2675.34</ele>
        <time>2016-03-22T14:55:22Z</time>
      </trkpt>
      <trkpt lat="45.49657" lon="6.73306">
        <ele>2676.33</ele>
        <time>2016-03-22T14:55:31Z</time>
      </trkpt>
      <trkpt lat="45.4964" lon="6.73316">
        <ele>2676.33</ele>
        <time>2016-03-22T14:55:40Z</time>
      </trkpt>
      <trkpt lat="45.49623" lon="6.73327">
        <ele>2676.53</ele>
        <time>2016-03-22T14:55:49Z</time>
      </trkpt>
      <trkpt lat="45.49606" lon="6.73336">
        <ele>2678.49</ele>
        <time>2016-03-22T14:55:58Z</time>
      </trkpt>
      <trkpt lat="45.49589" lon="6.73345">
        <ele>2680.53</ele>
        <time>2016-03-22T14:56:07Z</time>
      </trkpt>
      <trkpt lat="45.49571" lon="6.73355">
        <ele>2685.52</ele>
        <time>2016-03-22T14:56:17Z</time>
      </trkpt>
      <trkpt lat="45.49554" lon="6.73365">
        <ele>2691.48</ele>
        <time>2016-03-22T14:56:26Z</time>
      </trkpt>
      <trkpt lat="45.49536" lon="6.73375">
        <ele>2694.33</ele>
        <time>2016-03-22T14:56:36Z</time>
      </trkpt>
      <trkpt lat="45.49519" lon="6.73385">
        <ele>2698.48</ele>
        <time>2016-03-22T14:56:45Z</time>
      </trkpt>
      <trkpt lat="45.49501" lon="6.73393">
        <ele>2702.49</ele>
        <time>2016-03-22T14:56:54Z</time>
      </trkpt>
      <trkpt lat="45.49483" lon="6.73405">
        <ele>2706.52</ele>
        <time>2016-03-22T14:57:04Z</time>
      </trkpt>
      <trkpt lat="45.49466" lon="6.73415">
        <ele>2707.53</ele>
        <time>2016-03-22T14:57:13Z</time>
      </trkpt>
      <trkpt lat="45.49448" lon="6.73426">
        <ele>2707.53</ele>
        <time>2016-03-22T14:57:24Z</time>
      </trkpt>
      <trkpt lat="45.4943" lon="6.73434">
        <ele>2708.33</ele>
        <time>2016-03-22T14:57:32Z</time>
      </trkpt>
      <trkpt lat="45.49421" lon="6.73456">
        <ele>2707.58</ele>
        <time>2016-03-22T14:57:38Z</time>
      </trkpt>
      <trkpt lat="45.4944" lon="6.73458">
        <ele>2703.97</ele>
        <time>2016-03-22T14:57:46Z</time>
      </trkpt>
      <trkpt lat="45.49451" lon="6.73437">
        <ele>2703.69</ele>
        <time>2016-03-22T14:57:54Z</time>
      </trkpt>
      <trkpt lat="45.49462" lon="6.73416">
        <ele>2701.53</ele>
        <time>2016-03-22T14:57:59Z</time>
      </trkpt>
      <trkpt lat="45.49481" lon="6.73395">
        <ele>2697.58</ele>
        <time>2016-03-22T14:58:06Z</time>
      </trkpt>
      <trkpt lat="45.49497" lon="6.7338">
        <ele>2697.53</ele>
        <time>2016-03-22T14:58:09Z</time>
      </trkpt>
      <trkpt lat="45.49518" lon="6.73366">
        <ele>2698.49</ele>
        <time>2016-03-22T14:58:12Z</time>
      </trkpt>
      <trkpt lat="45.49536" lon="6.7336">
        <ele>2696.58</ele>
        <time>2016-03-22T14:58:15Z</time>
      </trkpt>
      <trkpt lat="45.49558" lon="6.73358">
        <ele>2694.58</ele>
        <time>2016-03-22T14:58:18Z</time>
      </trkpt>
      <trkpt lat="45.49576" lon="6.73366">
        <ele>2693.57</ele>
        <time>2016-03-22T14:58:21Z</time>
      </trkpt>
      <trkpt lat="45.49599" lon="6.7337">
        <ele>2691.39</ele>
        <time>2016-03-22T14:58:24Z</time>
      </trkpt>
      <trkpt lat="45.49621" lon="6.73358">
        <ele>2687.66</ele>
        <time>2016-03-22T14:58:27Z</time>
      </trkpt>
      <trkpt lat="45.49644" lon="6.73344">
        <ele>2685.77</ele>
        <time>2016-03-22T14:58:30Z</time>
      </trkpt>
      <trkpt lat="45.49659" lon="6.73318">
        <ele>2679.93</ele>
        <time>2016-03-22T14:58:33Z</time>
      </trkpt>
      <trkpt lat="45.4967" lon="6.73294">
        <ele>2675.87</ele>
        <time>2016-03-22T14:58:35Z</time>
      </trkpt>
      <trkpt lat="45.49679" lon="6.73271">
        <ele>2672.66</ele>
        <time>2016-03-22T14:58:37Z</time>
      </trkpt>
      <trkpt lat="45.49683" lon="6.73242">
        <ele>2667.1</ele>
        <time>2016-03-22T14:58:39Z</time>
      </trkpt>
      <trkpt lat="45.49689" lon="6.73218">
        <ele>2663.83</ele>
        <time>2016-03-22T14:58:41Z</time>
      </trkpt>
      <trkpt lat="45.49692" lon="6.73181">
        <ele>2659.79</ele>
        <time>2016-03-22T14:58:44Z</time>
      </trkpt>
      <trkpt lat="45.49699" lon="6.73154">
        <ele>2656.62</ele>
        <time>2016-03-22T14:58:47Z</time>
      </trkpt>
      <trkpt lat="45.49698" lon="6.73126">
        <ele>2653.62</ele>
        <time>2016-03-22T14:58:50Z</time>
      </trkpt>
      <trkpt lat="45.49707" lon="6.73101">
        <ele>2646.94</ele>
        <time>2016-03-22T14:58:54Z</time>
      </trkpt>
      <trkpt lat="45.49713" lon="6.73076">
        <ele>2641.8</ele>
        <time>2016-03-22T14:58:57Z</time>
      </trkpt>
      <trkpt lat="45.49723" lon="6.73052">
        <ele>2639.54</ele>
        <time>2016-03-22T14:59:02Z</time>
      </trkpt>
      <trkpt lat="45.49739" lon="6.7304">
        <ele>2632.05</ele>
        <time>2016-03-22T14:59:08Z</time>
      </trkpt>
      <trkpt lat="45.49745" lon="6.73011">
        <ele>2607.46</ele>
        <time>2016-03-22T14:59:45Z</time>
      </trkpt>
      <trkpt lat="45.49759" lon="6.72987">
        <ele>2607.33</ele>
        <time>2016-03-22T14:59:49Z</time>
      </trkpt>
      <trkpt lat="45.4976" lon="6.72961">
        <ele>2606.57</ele>
        <time>2016-03-22T14:59:52Z</time>
      </trkpt>
      <trkpt lat="45.49772" lon="6.72934">
        <ele>2596.64</ele>
        <time>2016-03-22T14:59:55Z</time>
      </trkpt>
      <trkpt lat="45.49781" lon="6.72911">
        <ele>2592.06</ele>
        <time>2016-03-22T14:59:57Z</time>
      </trkpt>
      <trkpt lat="45.49794" lon="6.72885">
        <ele>2591.39</ele>
        <time>2016-03-22T14:59:59Z</time>
      </trkpt>
      <trkpt lat="45.49807" lon="6.7286">
        <ele>2588.81</ele>
        <time>2016-03-22T15:00:01Z</time>
      </trkpt>
      <trkpt lat="45.49825" lon="6.72837">
        <ele>2584.38</ele>
        <time>2016-03-22T15:00:03Z</time>
      </trkpt>
      <trkpt lat="45.49836" lon="6.72808">
        <ele>2582.6</ele>
        <time>2016-03-22T15:00:05Z</time>
      </trkpt>
      <trkpt lat="45.49853" lon="6.7278">
        <ele>2579.97</ele>
        <time>2016-03-22T15:00:07Z</time>
      </trkpt>
      <trkpt lat="45.49862" lon="6.72747">
        <ele>2575.87</ele>
        <time>2016-03-22T15:00:09Z</time>
      </trkpt>
      <trkpt lat="45.49876" lon="6.72717">
        <ele>2567.38</ele>
        <time>2016-03-22T15:00:11Z</time>
      </trkpt>
      <trkpt lat="45.49886" lon="6.72687">
        <ele>2563.69</ele>
        <time>2016-03-22T15:00:13Z</time>
      </trkpt>
      <trkpt lat="45.49897" lon="6.72662">
        <ele>2559.86</ele>
        <time>2016-03-22T15:00:15Z</time>
      </trkpt>
      <trkpt lat="45.49916" lon="6.72638">
        <ele>2555.18</ele>
        <time>2016-03-22T15:00:18Z</time>
      </trkpt>
      <trkpt lat="45.49934" lon="6.72622">
        <ele>2554.56</ele>
        <time>2016-03-22T15:00:20Z</time>
      </trkpt>
      <trkpt lat="45.49954" lon="6.72607">
        <ele>2552.93</ele>
        <time>2016-03-22T15:00:22Z</time>
      </trkpt>
      <trkpt lat="45.49974" lon="6.72592">
        <ele>2549.83</ele>
        <time>2016-03-22T15:00:24Z</time>
      </trkpt>
      <trkpt lat="45.49995" lon="6.72572">
        <ele>2549.54</ele>
        <time>2016-03-22T15:00:26Z</time>
      </trkpt>
      <trkpt lat="45.50013" lon="6.72555">
        <ele>2547.77</ele>
        <time>2016-03-22T15:00:28Z</time>
      </trkpt>
      <trkpt lat="45.5003" lon="6.72543">
        <ele>2545.78</ele>
        <time>2016-03-22T15:00:30Z</time>
      </trkpt>
      <trkpt lat="45.50052" lon="6.72524">
        <ele>2541.79</ele>
        <time>2016-03-22T15:00:33Z</time>
      </trkpt>
      <trkpt lat="45.50069" lon="6.7251">
        <ele>2538.98</ele>
        <time>2016-03-22T15:00:35Z</time>
      </trkpt>
      <trkpt lat="45.50087" lon="6.72492">
        <ele>2536.79</ele>
        <time>2016-03-22T15:00:37Z</time>
      </trkpt>
      <trkpt lat="45.50104" lon="6.72475">
        <ele>2532.38</ele>
        <time>2016-03-22T15:00:39Z</time>
      </trkpt>
      <trkpt lat="45.50122" lon="6.72461">
        <ele>2529.8</ele>
        <time>2016-03-22T15:00:41Z</time>
      </trkpt>
      <trkpt lat="45.50139" lon="6.7245">
        <ele>2527.78</ele>
        <time>2016-03-22T15:00:43Z</time>
      </trkpt>
      <trkpt lat="45.50158" lon="6.72432">
        <ele>2525.1</ele>
        <time>2016-03-22T15:00:46Z</time>
      </trkpt>
      <trkpt lat="45.50173" lon="6.72409">
        <ele>2520.86</ele>
        <time>2016-03-22T15:00:49Z</time>
      </trkpt>
      <trkpt lat="45.5019" lon="6.72393">
        <ele>2519.74</ele>
        <time>2016-03-22T15:00:53Z</time>
      </trkpt>
      <trkpt lat="45.50198" lon="6.72367">
        <ele>2509.86</ele>
        <time>2016-03-22T15:00:58Z</time>
      </trkpt>
      <trkpt lat="45.50205" lon="6.7234">
        <ele>2499.68</ele>
        <time>2016-03-22T15:01:02Z</time>
      </trkpt>
      <trkpt lat="45.50211" lon="6.72316">
        <ele>2489.52</ele>
        <time>2016-03-22T15:01:05Z</time>
      </trkpt>
      <trkpt lat="45.50225" lon="6.72296">
        <ele>2487.55</ele>
        <time>2016-03-22T15:01:08Z</time>
      </trkpt>
      <trkpt lat="45.50246" lon="6.72274">
        <ele>2480.04</ele>
        <time>2016-03-22T15:01:11Z</time>
      </trkpt>
      <trkpt lat="45.50262" lon="6.72255">
        <ele>2476.83</ele>
        <time>2016-03-22T15:01:13Z</time>
      </trkpt>
      <trkpt lat="45.50283" lon="6.72242">
        <ele>2473.98</ele>
        <time>2016-03-22T15:01:15Z</time>
      </trkpt>
      <trkpt lat="45.50302" lon="6.72227">
        <ele>2473.55</ele>
        <time>2016-03-22T15:01:17Z</time>
      </trkpt>
      <trkpt lat="45.50322" lon="6.72219">
        <ele>2469.85</ele>
        <time>2016-03-22T15:01:19Z</time>
      </trkpt>
      <trkpt lat="45.50343" lon="6.72204">
        <ele>2467.78</ele>
        <time>2016-03-22T15:01:21Z</time>
      </trkpt>
      <trkpt lat="45.50368" lon="6.72194">
        <ele>2466.9</ele>
        <time>2016-03-22T15:01:23Z</time>
      </trkpt>
      <trkpt lat="45.50386" lon="6.72187">
        <ele>2461.27</ele>
        <time>2016-03-22T15:01:25Z</time>
      </trkpt>
      <trkpt lat="45.50405" lon="6.72188">
        <ele>2457.84</ele>
        <time>2016-03-22T15:01:27Z</time>
      </trkpt>
      <trkpt lat="45.50424" lon="6.72183">
        <ele>2456.74</ele>
        <time>2016-03-22T15:01:29Z</time>
      </trkpt>
      <trkpt lat="45.50448" lon="6.72178">
        <ele>2451.67</ele>
        <time>2016-03-22T15:01:32Z</time>
      </trkpt>
      <trkpt lat="45.5048" lon="6.72164">
        <ele>2441.39</ele>
        <time>2016-03-22T15:01:35Z</time>
      </trkpt>
      <trkpt lat="45.50507" lon="6.72154">
        <ele>2438.01</ele>
        <time>2016-03-22T15:01:37Z</time>
      </trkpt>
      <trkpt lat="45.50539" lon="6.72137">
        <ele>2431.15</ele>
        <time>2016-03-22T15:01:39Z</time>
      </trkpt>
      <trkpt lat="45.50567" lon="6.72117">
        <ele>2426.88</ele>
        <time>2016-03-22T15:01:41Z</time>
      </trkpt>
      <trkpt lat="45.50594" lon="6.72098">
        <ele>2423.82</ele>
        <time>2016-03-22T15:01:43Z</time>
      </trkpt>
      <trkpt lat="45.50619" lon="6.72082">
        <ele>2419.06</ele>
        <time>2016-03-22T15:01:45Z</time>
      </trkpt>
      <trkpt lat="45.50643" lon="6.72069">
        <ele>2418.55</ele>
        <time>2016-03-22T15:01:47Z</time>
      </trkpt>
      <trkpt lat="45.50663" lon="6.72062">
        <ele>2412.13</ele>
        <time>2016-03-22T15:01:49Z</time>
      </trkpt>
      <trkpt lat="45.50686" lon="6.72054">
        <ele>2406.92</ele>
        <time>2016-03-22T15:01:51Z</time>
      </trkpt>
      <trkpt lat="45.50709" lon="6.72049">
        <ele>2404.95</ele>
        <time>2016-03-22T15:01:53Z</time>
      </trkpt>
      <trkpt lat="45.5073" lon="6.72042">
        <ele>2402.63</ele>
        <time>2016-03-22T15:01:55Z</time>
      </trkpt>
      <trkpt lat="45.50749" lon="6.72037">
        <ele>2399.97</ele>
        <time>2016-03-22T15:01:57Z</time>
      </trkpt>
      <trkpt lat="45.50776" lon="6.72026">
        <ele>2400.33</ele>
        <time>2016-03-22T15:02:00Z</time>
      </trkpt>
      <trkpt lat="45.50793" lon="6.72021">
        <ele>2397</ele>
        <time>2016-03-22T15:02:02Z</time>
      </trkpt>
      <trkpt lat="45.50814" lon="6.72013">
        <ele>2393.83</ele>
        <time>2016-03-22T15:02:04Z</time>
      </trkpt>
      <trkpt lat="45.50837" lon="6.72005">
        <ele>2389.06</ele>
        <time>2016-03-22T15:02:06Z</time>
      </trkpt>
      <trkpt lat="45.50863" lon="6.71997">
        <ele>2385.03</ele>
        <time>2016-03-22T15:02:08Z</time>
      </trkpt>
      <trkpt lat="45.50888" lon="6.71992">
        <ele>2381.99</ele>
        <time>2016-03-22T15:02:10Z</time>
      </trkpt>
      <trkpt lat="45.50909" lon="6.71988">
        <ele>2379.63</ele>
        <time>2016-03-22T15:02:12Z</time>
      </trkpt>
      <trkpt lat="45.50928" lon="6.71985">
        <ele>2377.77</ele>
        <time>2016-03-22T15:02:14Z</time>
      </trkpt>
      <trkpt lat="45.50952" lon="6.71984">
        <ele>2373.82</ele>
        <time>2016-03-22T15:02:17Z</time>
      </trkpt>
      <trkpt lat="45.50974" lon="6.71987">
        <ele>2369.98</ele>
        <time>2016-03-22T15:02:20Z</time>
      </trkpt>
      <trkpt lat="45.50991" lon="6.71979">
        <ele>2367.13</ele>
        <time>2016-03-22T15:02:24Z</time>
      </trkpt>
      <trkpt lat="45.51011" lon="6.71973">
        <ele>2346.78</ele>
        <time>2016-03-22T15:02:33Z</time>
      </trkpt>
      <trkpt lat="45.51031" lon="6.7197">
        <ele>2345.7</ele>
        <time>2016-03-22T15:02:41Z</time>
      </trkpt>
      <trkpt lat="45.51051" lon="6.71971">
        <ele>2329.71</ele>
        <time>2016-03-22T15:02:50Z</time>
      </trkpt>
      <trkpt lat="45.51071" lon="6.71969">
        <ele>2328.69</ele>
        <time>2016-03-22T15:02:59Z</time>
      </trkpt>
      <trkpt lat="45.51117" lon="6.71774">
        <ele>2320.34</ele>
        <time>2016-03-22T15:03:41Z</time>
      </trkpt>
      <trkpt lat="45.51137" lon="6.71762">
        <ele>2310.97</ele>
        <time>2016-03-22T15:05:20Z</time>
      </trkpt>
      <trkpt lat="45.51147" lon="6.71737">
        <ele>2309.91</ele>
        <time>2016-03-22T15:05:22Z</time>
      </trkpt>
      <trkpt lat="45.51156" lon="6.71708">
        <ele>2308.75</ele>
        <time>2016-03-22T15:05:24Z</time>
      </trkpt>
      <trkpt lat="45.5116" lon="6.71678">
        <ele>2310.97</ele>
        <time>2016-03-22T15:05:25Z</time>
      </trkpt>
      <trkpt lat="45.51168" lon="6.71642">
        <ele>2308.61</ele>
        <time>2016-03-22T15:05:28Z</time>
      </trkpt>
      <trkpt lat="45.51174" lon="6.7161">
        <ele>2306.74</ele>
        <time>2016-03-22T15:05:31Z</time>
      </trkpt>
      <trkpt lat="45.51177" lon="6.71584">
        <ele>2302.86</ele>
        <time>2016-03-22T15:05:33Z</time>
      </trkpt>
      <trkpt lat="45.51183" lon="6.71558">
        <ele>2300.78</ele>
        <time>2016-03-22T15:05:35Z</time>
      </trkpt>
      <trkpt lat="45.51187" lon="6.71526">
        <ele>2300.7</ele>
        <time>2016-03-22T15:05:37Z</time>
      </trkpt>
      <trkpt lat="45.51194" lon="6.715">
        <ele>2298.78</ele>
        <time>2016-03-22T15:05:39Z</time>
      </trkpt>
      <trkpt lat="45.51204" lon="6.71472">
        <ele>2296.78</ele>
        <time>2016-03-22T15:05:41Z</time>
      </trkpt>
      <trkpt lat="45.51208" lon="6.71442">
        <ele>2294.94</ele>
        <time>2016-03-22T15:05:43Z</time>
      </trkpt>
      <trkpt lat="45.51213" lon="6.71414">
        <ele>2289.11</ele>
        <time>2016-03-22T15:05:45Z</time>
      </trkpt>
      <trkpt lat="45.51217" lon="6.71386">
        <ele>2287.59</ele>
        <time>2016-03-22T15:05:47Z</time>
      </trkpt>
      <trkpt lat="45.51222" lon="6.71355">
        <ele>2284.01</ele>
        <time>2016-03-22T15:05:49Z</time>
      </trkpt>
      <trkpt lat="45.51232" lon="6.71308">
        <ele>2280.99</ele>
        <time>2016-03-22T15:05:51Z</time>
      </trkpt>
      <trkpt lat="45.51232" lon="6.71262">
        <ele>2278.95</ele>
        <time>2016-03-22T15:05:53Z</time>
      </trkpt>
      <trkpt lat="45.51219" lon="6.71238">
        <ele>2266.55</ele>
        <time>2016-03-22T15:05:55Z</time>
      </trkpt>
      <trkpt lat="45.51219" lon="6.71209">
        <ele>2263.97</ele>
        <time>2016-03-22T15:05:57Z</time>
      </trkpt>
      <trkpt lat="45.51219" lon="6.71173">
        <ele>2257.13</ele>
        <time>2016-03-22T15:06:00Z</time>
      </trkpt>
      <trkpt lat="45.51218" lon="6.71146">
        <ele>2251.06</ele>
        <time>2016-03-22T15:06:03Z</time>
      </trkpt>
      <trkpt lat="45.51215" lon="6.71116">
        <ele>2243.55</ele>
        <time>2016-03-22T15:06:09Z</time>
      </trkpt>
      <trkpt lat="45.51211" lon="6.71084">
        <ele>2235.02</ele>
        <time>2016-03-22T15:06:14Z</time>
      </trkpt>
      <trkpt lat="45.51211" lon="6.71056">
        <ele>2231.97</ele>
        <time>2016-03-22T15:06:17Z</time>
      </trkpt>
      <trkpt lat="45.5122" lon="6.71023">
        <ele>2226.8</ele>
        <time>2016-03-22T15:06:20Z</time>
      </trkpt>
      <trkpt lat="45.51233" lon="6.70997">
        <ele>2218.02</ele>
        <time>2016-03-22T15:06:23Z</time>
      </trkpt>
      <trkpt lat="45.51238" lon="6.70969">
        <ele>2212.19</ele>
        <time>2016-03-22T15:06:26Z</time>
      </trkpt>
      <trkpt lat="45.51246" lon="6.70937">
        <ele>2209.74</ele>
        <time>2016-03-22T15:06:29Z</time>
      </trkpt>
      <trkpt lat="45.51251" lon="6.70902">
        <ele>2203.84</ele>
        <time>2016-03-22T15:06:32Z</time>
      </trkpt>
      <trkpt lat="45.51255" lon="6.70866">
        <ele>2194.06</ele>
        <time>2016-03-22T15:06:35Z</time>
      </trkpt>
      <trkpt lat="45.51254" lon="6.70838">
        <ele>2191.79</ele>
        <time>2016-03-22T15:06:37Z</time>
      </trkpt>
      <trkpt lat="45.51259" lon="6.70804">
        <ele>2185.94</ele>
        <time>2016-03-22T15:06:39Z</time>
      </trkpt>
      <trkpt lat="45.51265" lon="6.70776">
        <ele>2182.83</ele>
        <time>2016-03-22T15:06:41Z</time>
      </trkpt>
      <trkpt lat="45.5126" lon="6.70746">
        <ele>2170.05</ele>
        <time>2016-03-22T15:06:48Z</time>
      </trkpt>
      <trkpt lat="45.51244" lon="6.70725">
        <ele>2156.28</ele>
        <time>2016-03-22T15:06:52Z</time>
      </trkpt>
      <trkpt lat="45.51221" lon="6.70726">
        <ele>2147.83</ele>
        <time>2016-03-22T15:06:56Z</time>
      </trkpt>
      <trkpt lat="45.51203" lon="6.70732">
        <ele>2141.26</ele>
        <time>2016-03-22T15:06:59Z</time>
      </trkpt>
      <trkpt lat="45.51183" lon="6.70715">
        <ele>2126.36</ele>
        <time>2016-03-22T15:07:03Z</time>
      </trkpt>
      <trkpt lat="45.51161" lon="6.70699">
        <ele>2116.27</ele>
        <time>2016-03-22T15:07:07Z</time>
      </trkpt>
      <trkpt lat="45.51141" lon="6.70687">
        <ele>2109.07</ele>
        <time>2016-03-22T15:07:10Z</time>
      </trkpt>
      <trkpt lat="45.51121" lon="6.70675">
        <ele>2103.03</ele>
        <time>2016-03-22T15:07:13Z</time>
      </trkpt>
      <trkpt lat="45.51104" lon="6.70662">
        <ele>2097.99</ele>
        <time>2016-03-22T15:07:16Z</time>
      </trkpt>
      <trkpt lat="45.51083" lon="6.70649">
        <ele>2090.82</ele>
        <time>2016-03-22T15:07:20Z</time>
      </trkpt>
      <trkpt lat="45.51074" lon="6.70621">
        <ele>2082.87</ele>
        <time>2016-03-22T15:07:24Z</time>
      </trkpt>
      <trkpt lat="45.51073" lon="6.70595">
        <ele>2077.22</ele>
        <time>2016-03-22T15:07:27Z</time>
      </trkpt>
      <trkpt lat="45.51072" lon="6.70568">
        <ele>2074.74</ele>
        <time>2016-03-22T15:07:30Z</time>
      </trkpt>
      <trkpt lat="45.51064" lon="6.70543">
        <ele>2067.27</ele>
        <time>2016-03-22T15:07:33Z</time>
      </trkpt>
      <trkpt lat="45.51067" lon="6.70512">
        <ele>2060.55</ele>
        <time>2016-03-22T15:07:36Z</time>
      </trkpt>
      <trkpt lat="45.51063" lon="6.70485">
        <ele>2057.81</ele>
        <time>2016-03-22T15:07:38Z</time>
      </trkpt>
      <trkpt lat="45.51069" lon="6.70459">
        <ele>2054.98</ele>
        <time>2016-03-22T15:07:40Z</time>
      </trkpt>
      <trkpt lat="45.51077" lon="6.70428">
        <ele>2054.55</ele>
        <time>2016-03-22T15:07:42Z</time>
      </trkpt>
      <trkpt lat="45.51089" lon="6.70404">
        <ele>2051.81</ele>
        <time>2016-03-22T15:07:44Z</time>
      </trkpt>
      <trkpt lat="45.51107" lon="6.70389">
        <ele>2047.22</ele>
        <time>2016-03-22T15:07:46Z</time>
      </trkpt>
      <trkpt lat="45.51118" lon="6.70368">
        <ele>2040.96</ele>
        <time>2016-03-22T15:07:48Z</time>
      </trkpt>
      <trkpt lat="45.5114" lon="6.70349">
        <ele>2034.87</ele>
        <time>2016-03-22T15:07:51Z</time>
      </trkpt>
      <trkpt lat="45.51156" lon="6.70321">
        <ele>2030.15</ele>
        <time>2016-03-22T15:07:54Z</time>
      </trkpt>
      <trkpt lat="45.51166" lon="6.70297">
        <ele>2027.8</ele>
        <time>2016-03-22T15:07:56Z</time>
      </trkpt>
      <trkpt lat="45.51176" lon="6.70269">
        <ele>2024.02</ele>
        <time>2016-03-22T15:07:58Z</time>
      </trkpt>
      <trkpt lat="45.51188" lon="6.70245">
        <ele>2020.83</ele>
        <time>2016-03-22T15:08:00Z</time>
      </trkpt>
      <trkpt lat="45.51198" lon="6.70217">
        <ele>2017.98</ele>
        <time>2016-03-22T15:08:02Z</time>
      </trkpt>
      <trkpt lat="45.51215" lon="6.70191">
        <ele>2014.99</ele>
        <time>2016-03-22T15:08:04Z</time>
      </trkpt>
      <trkpt lat="45.51225" lon="6.70163">
        <ele>2014.55</ele>
        <time>2016-03-22T15:08:06Z</time>
      </trkpt>
      <trkpt lat="45.51232" lon="6.70134">
        <ele>2008.74</ele>
        <time>2016-03-22T15:08:09Z</time>
      </trkpt>
      <trkpt lat="45.51236" lon="6.70099">
        <ele>2004.98</ele>
        <time>2016-03-22T15:08:12Z</time>
      </trkpt>
      <trkpt lat="45.51231" lon="6.70074">
        <ele>1999.91</ele>
        <time>2016-03-22T15:08:14Z</time>
      </trkpt>
      <trkpt lat="45.51236" lon="6.70043">
        <ele>1997.79</ele>
        <time>2016-03-22T15:08:16Z</time>
      </trkpt>
      <trkpt lat="45.51234" lon="6.70013">
        <ele>1994.98</ele>
        <time>2016-03-22T15:08:18Z</time>
      </trkpt>
      <trkpt lat="45.51231" lon="6.69983">
        <ele>1991.03</ele>
        <time>2016-03-22T15:08:20Z</time>
      </trkpt>
      <trkpt lat="45.51229" lon="6.69956">
        <ele>1986.23</ele>
        <time>2016-03-22T15:08:22Z</time>
      </trkpt>
      <trkpt lat="45.51226" lon="6.6993">
        <ele>1983.8</ele>
        <time>2016-03-22T15:08:24Z</time>
      </trkpt>
      <trkpt lat="45.51226" lon="6.69902">
        <ele>1980.82</ele>
        <time>2016-03-22T15:08:26Z</time>
      </trkpt>
      <trkpt lat="45.51221" lon="6.69875">
        <ele>1979.58</ele>
        <time>2016-03-22T15:08:28Z</time>
      </trkpt>
      <trkpt lat="45.51218" lon="6.69844">
        <ele>1976.01</ele>
        <time>2016-03-22T15:08:31Z</time>
      </trkpt>
      <trkpt lat="45.51211" lon="6.6982">
        <ele>1973.57</ele>
        <time>2016-03-22T15:08:35Z</time>
      </trkpt>
      <trkpt lat="45.51194" lon="6.69811">
        <ele>1959.77</ele>
        <time>2016-03-22T15:08:45Z</time>
      </trkpt>
      <trkpt lat="45.51179" lon="6.69796">
        <ele>1934.73</ele>
        <time>2016-03-22T15:11:02Z</time>
      </trkpt>
      <trkpt lat="45.51163" lon="6.69784">
        <ele>1930.89</ele>
        <time>2016-03-22T15:12:22Z</time>
      </trkpt>
      <trkpt lat="45.51141" lon="6.69777">
        <ele>1923.93</ele>
        <time>2016-03-22T15:12:34Z</time>
      </trkpt>
      <trkpt lat="45.51119" lon="6.69772">
        <ele>1926.32</ele>
        <time>2016-03-22T15:12:39Z</time>
      </trkpt>
      <trkpt lat="45.51098" lon="6.69763">
        <ele>1932.41</ele>
        <time>2016-03-22T15:12:43Z</time>
      </trkpt>
      <trkpt lat="45.51077" lon="6.6976">
        <ele>1933.53</ele>
        <time>2016-03-22T15:12:47Z</time>
      </trkpt>
      <trkpt lat="45.51057" lon="6.69753">
        <ele>1933.53</ele>
        <time>2016-03-22T15:12:51Z</time>
      </trkpt>
      <trkpt lat="45.51031" lon="6.69752">
        <ele>1933.53</ele>
        <time>2016-03-22T15:12:55Z</time>
      </trkpt>
      <trkpt lat="45.51013" lon="6.69745">
        <ele>1934.53</ele>
        <time>2016-03-22T15:12:59Z</time>
      </trkpt>
      <trkpt lat="45.50992" lon="6.69736">
        <ele>1943.48</ele>
        <time>2016-03-22T15:13:05Z</time>
      </trkpt>
      <trkpt lat="45.50973" lon="6.6973">
        <ele>1949.43</ele>
        <time>2016-03-22T15:13:09Z</time>
      </trkpt>
      <trkpt lat="45.50955" lon="6.69726">
        <ele>1958.52</ele>
        <time>2016-03-22T15:13:12Z</time>
      </trkpt>
      <trkpt lat="45.50937" lon="6.69713">
        <ele>1976.79</ele>
        <time>2016-03-22T15:13:17Z</time>
      </trkpt>
      <trkpt lat="45.50917" lon="6.6971">
        <ele>1984.28</ele>
        <time>2016-03-22T15:13:21Z</time>
      </trkpt>
      <trkpt lat="45.50898" lon="6.69706">
        <ele>1989.46</ele>
        <time>2016-03-22T15:13:25Z</time>
      </trkpt>
      <trkpt lat="45.5088" lon="6.69704">
        <ele>1998.37</ele>
        <time>2016-03-22T15:13:29Z</time>
      </trkpt>
      <trkpt lat="45.50857" lon="6.69699">
        <ele>2005.36</ele>
        <time>2016-03-22T15:13:33Z</time>
      </trkpt>
      <trkpt lat="45.5084" lon="6.69687">
        <ele>2015.6</ele>
        <time>2016-03-22T15:13:37Z</time>
      </trkpt>
      <trkpt lat="45.50819" lon="6.6968">
        <ele>2023.44</ele>
        <time>2016-03-22T15:13:41Z</time>
      </trkpt>
      <trkpt lat="45.50801" lon="6.69674">
        <ele>2030.57</ele>
        <time>2016-03-22T15:13:45Z</time>
      </trkpt>
      <trkpt lat="45.50782" lon="6.69666">
        <ele>2041.68</ele>
        <time>2016-03-22T15:13:49Z</time>
      </trkpt>
      <trkpt lat="45.50759" lon="6.69661">
        <ele>2052.24</ele>
        <time>2016-03-22T15:13:53Z</time>
      </trkpt>
      <trkpt lat="45.50736" lon="6.69656">
        <ele>2063.07</ele>
        <time>2016-03-22T15:13:57Z</time>
      </trkpt>
      <trkpt lat="45.50714" lon="6.69652">
        <ele>2067.28</ele>
        <time>2016-03-22T15:14:01Z</time>
      </trkpt>
      <trkpt lat="45.50693" lon="6.69645">
        <ele>2071.28</ele>
        <time>2016-03-22T15:14:05Z</time>
      </trkpt>
      <trkpt lat="45.50674" lon="6.69636">
        <ele>2077.46</ele>
        <time>2016-03-22T15:14:09Z</time>
      </trkpt>
      <trkpt lat="45.50654" lon="6.6963">
        <ele>2082.24</ele>
        <time>2016-03-22T15:14:13Z</time>
      </trkpt>
      <trkpt lat="45.50634" lon="6.69624">
        <ele>2086.28</ele>
        <time>2016-03-22T15:14:17Z</time>
      </trkpt>
      <trkpt lat="45.50614" lon="6.69612">
        <ele>2092.07</ele>
        <time>2016-03-22T15:14:21Z</time>
      </trkpt>
      <trkpt lat="45.50595" lon="6.6961">
        <ele>2097.2</ele>
        <time>2016-03-22T15:14:24Z</time>
      </trkpt>
      <trkpt lat="45.50572" lon="6.69602">
        <ele>2104.08</ele>
        <time>2016-03-22T15:14:29Z</time>
      </trkpt>
      <trkpt lat="45.50551" lon="6.69592">
        <ele>2107.26</ele>
        <time>2016-03-22T15:14:33Z</time>
      </trkpt>
      <trkpt lat="45.50531" lon="6.69588">
        <ele>2108.33</ele>
        <time>2016-03-22T15:14:37Z</time>
      </trkpt>
      <trkpt lat="45.50511" lon="6.69579">
        <ele>2111.32</ele>
        <time>2016-03-22T15:14:41Z</time>
      </trkpt>
      <trkpt lat="45.50485" lon="6.69573">
        <ele>2116.28</ele>
        <time>2016-03-22T15:14:45Z</time>
      </trkpt>
      <trkpt lat="45.50455" lon="6.69574">
        <ele>2121.24</ele>
        <time>2016-03-22T15:14:49Z</time>
      </trkpt>
      <trkpt lat="45.50437" lon="6.69565">
        <ele>2124.28</ele>
        <time>2016-03-22T15:14:53Z</time>
      </trkpt>
      <trkpt lat="45.50415" lon="6.6956">
        <ele>2126.52</ele>
        <time>2016-03-22T15:14:57Z</time>
      </trkpt>
      <trkpt lat="45.50393" lon="6.69553">
        <ele>2130.31</ele>
        <time>2016-03-22T15:15:01Z</time>
      </trkpt>
      <trkpt lat="45.50372" lon="6.69541">
        <ele>2134.51</ele>
        <time>2016-03-22T15:15:06Z</time>
      </trkpt>
      <trkpt lat="45.50353" lon="6.69528">
        <ele>2137.33</ele>
        <time>2016-03-22T15:15:11Z</time>
      </trkpt>
      <trkpt lat="45.50332" lon="6.69526">
        <ele>2139.48</ele>
        <time>2016-03-22T15:15:14Z</time>
      </trkpt>
      <trkpt lat="45.50314" lon="6.69514">
        <ele>2141.33</ele>
        <time>2016-03-22T15:15:19Z</time>
      </trkpt>
      <trkpt lat="45.50296" lon="6.69512">
        <ele>2140.57</ele>
        <time>2016-03-22T15:15:22Z</time>
      </trkpt>
      <trkpt lat="45.50275" lon="6.6951">
        <ele>2139.54</ele>
        <time>2016-03-22T15:15:25Z</time>
      </trkpt>
      <trkpt lat="45.50252" lon="6.69504">
        <ele>2138.57</ele>
        <time>2016-03-22T15:15:29Z</time>
      </trkpt>
      <trkpt lat="45.50231" lon="6.69497">
        <ele>2137.57</ele>
        <time>2016-03-22T15:15:33Z</time>
      </trkpt>
      <trkpt lat="45.50211" lon="6.69489">
        <ele>2137.34</ele>
        <time>2016-03-22T15:15:38Z</time>
      </trkpt>
      <trkpt lat="45.50191" lon="6.69486">
        <ele>2137.5</ele>
        <time>2016-03-22T15:15:41Z</time>
      </trkpt>
      <trkpt lat="45.50166" lon="6.69479">
        <ele>2137.53</ele>
        <time>2016-03-22T15:15:46Z</time>
      </trkpt>
      <trkpt lat="45.50147" lon="6.6947">
        <ele>2138.46</ele>
        <time>2016-03-22T15:15:50Z</time>
      </trkpt>
      <trkpt lat="45.50128" lon="6.69468">
        <ele>2143.17</ele>
        <time>2016-03-22T15:15:53Z</time>
      </trkpt>
      <trkpt lat="45.50109" lon="6.69462">
        <ele>2145.49</ele>
        <time>2016-03-22T15:15:57Z</time>
      </trkpt>
      <trkpt lat="45.50086" lon="6.69448">
        <ele>2151.37</ele>
        <time>2016-03-22T15:16:03Z</time>
      </trkpt>
      <trkpt lat="45.50068" lon="6.69446">
        <ele>2151.53</ele>
        <time>2016-03-22T15:16:06Z</time>
      </trkpt>
      <trkpt lat="45.50051" lon="6.69436">
        <ele>2156.54</ele>
        <time>2016-03-22T15:16:11Z</time>
      </trkpt>
      <trkpt lat="45.50026" lon="6.69432">
        <ele>2165.14</ele>
        <time>2016-03-22T15:16:15Z</time>
      </trkpt>
      <trkpt lat="45.50006" lon="6.69427">
        <ele>2166.49</ele>
        <time>2016-03-22T15:16:18Z</time>
      </trkpt>
      <trkpt lat="45.49984" lon="6.69423">
        <ele>2167.52</ele>
        <time>2016-03-22T15:16:22Z</time>
      </trkpt>
      <trkpt lat="45.49963" lon="6.69417">
        <ele>2169.51</ele>
        <time>2016-03-22T15:16:26Z</time>
      </trkpt>
      <trkpt lat="45.49942" lon="6.6941">
        <ele>2169.52</ele>
        <time>2016-03-22T15:16:30Z</time>
      </trkpt>
      <trkpt lat="45.49922" lon="6.694">
        <ele>2182.49</ele>
        <time>2016-03-22T15:16:34Z</time>
      </trkpt>
      <trkpt lat="45.49903" lon="6.69396">
        <ele>2195.43</ele>
        <time>2016-03-22T15:16:38Z</time>
      </trkpt>
      <trkpt lat="45.49881" lon="6.69389">
        <ele>2200.48</ele>
        <time>2016-03-22T15:16:42Z</time>
      </trkpt>
      <trkpt lat="45.49859" lon="6.69385">
        <ele>2211.01</ele>
        <time>2016-03-22T15:16:46Z</time>
      </trkpt>
      <trkpt lat="45.49837" lon="6.69377">
        <ele>2219</ele>
        <time>2016-03-22T15:16:50Z</time>
      </trkpt>
      <trkpt lat="45.49816" lon="6.69373">
        <ele>2230.01</ele>
        <time>2016-03-22T15:16:54Z</time>
      </trkpt>
      <trkpt lat="45.49797" lon="6.69367">
        <ele>2231.54</ele>
        <time>2016-03-22T15:16:59Z</time>
      </trkpt>
      <trkpt lat="45.49781" lon="6.69354">
        <ele>2241.52</ele>
        <time>2016-03-22T15:17:11Z</time>
      </trkpt>
      <trkpt lat="45.49766" lon="6.69339">
        <ele>2249.72</ele>
        <time>2016-03-22T15:17:34Z</time>
      </trkpt>
      <trkpt lat="45.4975" lon="6.69318">
        <ele>2247.57</ele>
        <time>2016-03-22T15:17:40Z</time>
      </trkpt>
      <trkpt lat="45.49745" lon="6.69293">
        <ele>2246.73</ele>
        <time>2016-03-22T15:17:43Z</time>
      </trkpt>
      <trkpt lat="45.49748" lon="6.69257">
        <ele>2247.33</ele>
        <time>2016-03-22T15:17:46Z</time>
      </trkpt>
      <trkpt lat="45.49763" lon="6.69231">
        <ele>2245.58</ele>
        <time>2016-03-22T15:17:49Z</time>
      </trkpt>
      <trkpt lat="45.49778" lon="6.69211">
        <ele>2245.56</ele>
        <time>2016-03-22T15:17:53Z</time>
      </trkpt>
      <trkpt lat="45.49795" lon="6.69198">
        <ele>2243.57</ele>
        <time>2016-03-22T15:17:57Z</time>
      </trkpt>
      <trkpt lat="45.49811" lon="6.69183">
        <ele>2241.74</ele>
        <time>2016-03-22T15:18:01Z</time>
      </trkpt>
      <trkpt lat="45.49829" lon="6.69167">
        <ele>2241.52</ele>
        <time>2016-03-22T15:18:05Z</time>
      </trkpt>
      <trkpt lat="45.4985" lon="6.6915">
        <ele>2240.73</ele>
        <time>2016-03-22T15:18:09Z</time>
      </trkpt>
      <trkpt lat="45.49867" lon="6.69136">
        <ele>2240.7</ele>
        <time>2016-03-22T15:18:13Z</time>
      </trkpt>
      <trkpt lat="45.49887" lon="6.69122">
        <ele>2241.49</ele>
        <time>2016-03-22T15:18:17Z</time>
      </trkpt>
      <trkpt lat="45.49907" lon="6.69103">
        <ele>2236.37</ele>
        <time>2016-03-22T15:18:21Z</time>
      </trkpt>
      <trkpt lat="45.49928" lon="6.69086">
        <ele>2237.3</ele>
        <time>2016-03-22T15:18:24Z</time>
      </trkpt>
      <trkpt lat="45.49944" lon="6.69068">
        <ele>2234.65</ele>
        <time>2016-03-22T15:18:27Z</time>
      </trkpt>
      <trkpt lat="45.4996" lon="6.69053">
        <ele>2231.97</ele>
        <time>2016-03-22T15:18:30Z</time>
      </trkpt>
      <trkpt lat="45.49979" lon="6.69045">
        <ele>2225.58</ele>
        <time>2016-03-22T15:18:37Z</time>
      </trkpt>
      <trkpt lat="45.49998" lon="6.69037">
        <ele>2213.84</ele>
        <time>2016-03-22T15:18:49Z</time>
      </trkpt>
      <trkpt lat="45.50016" lon="6.6903">
        <ele>2202.78</ele>
        <time>2016-03-22T15:19:00Z</time>
      </trkpt>
      <trkpt lat="45.50036" lon="6.69024">
        <ele>2200.78</ele>
        <time>2016-03-22T15:19:04Z</time>
      </trkpt>
      <trkpt lat="45.50055" lon="6.69023">
        <ele>2198.98</ele>
        <time>2016-03-22T15:19:05Z</time>
      </trkpt>
      <trkpt lat="45.50077" lon="6.69015">
        <ele>2198.39</ele>
        <time>2016-03-22T15:19:07Z</time>
      </trkpt>
      <trkpt lat="45.501" lon="6.69009">
        <ele>2199.33</ele>
        <time>2016-03-22T15:19:09Z</time>
      </trkpt>
      <trkpt lat="45.50123" lon="6.69006">
        <ele>2197.76</ele>
        <time>2016-03-22T15:19:11Z</time>
      </trkpt>
      <trkpt lat="45.50144" lon="6.68986">
        <ele>2195.42</ele>
        <time>2016-03-22T15:19:14Z</time>
      </trkpt>
      <trkpt lat="45.50162" lon="6.68965">
        <ele>2193.74</ele>
        <time>2016-03-22T15:19:17Z</time>
      </trkpt>
      <trkpt lat="45.50174" lon="6.6894">
        <ele>2188.89</ele>
        <time>2016-03-22T15:19:20Z</time>
      </trkpt>
      <trkpt lat="45.50196" lon="6.68915">
        <ele>2188.57</ele>
        <time>2016-03-22T15:19:23Z</time>
      </trkpt>
      <trkpt lat="45.50211" lon="6.68899">
        <ele>2186.77</ele>
        <time>2016-03-22T15:19:25Z</time>
      </trkpt>
      <trkpt lat="45.50221" lon="6.68875">
        <ele>2187.34</ele>
        <time>2016-03-22T15:19:27Z</time>
      </trkpt>
      <trkpt lat="45.5023" lon="6.68851">
        <ele>2186.56</ele>
        <time>2016-03-22T15:19:29Z</time>
      </trkpt>
      <trkpt lat="45.50243" lon="6.68826">
        <ele>2185.73</ele>
        <time>2016-03-22T15:19:31Z</time>
      </trkpt>
      <trkpt lat="45.50247" lon="6.6879">
        <ele>2176.73</ele>
        <time>2016-03-22T15:19:34Z</time>
      </trkpt>
      <trkpt lat="45.50255" lon="6.68762">
        <ele>2174.71</ele>
        <time>2016-03-22T15:19:37Z</time>
      </trkpt>
      <trkpt lat="45.50276" lon="6.68743">
        <ele>2171.97</ele>
        <time>2016-03-22T15:19:40Z</time>
      </trkpt>
      <trkpt lat="45.50291" lon="6.68727">
        <ele>2168.19</ele>
        <time>2016-03-22T15:19:42Z</time>
      </trkpt>
      <trkpt lat="45.50308" lon="6.68705">
        <ele>2166.6</ele>
        <time>2016-03-22T15:19:44Z</time>
      </trkpt>
      <trkpt lat="45.50319" lon="6.6868">
        <ele>2162.05</ele>
        <time>2016-03-22T15:19:46Z</time>
      </trkpt>
      <trkpt lat="45.50334" lon="6.68653">
        <ele>2160.91</ele>
        <time>2016-03-22T15:19:48Z</time>
      </trkpt>
      <trkpt lat="45.50348" lon="6.68627">
        <ele>2159.43</ele>
        <time>2016-03-22T15:19:50Z</time>
      </trkpt>
      <trkpt lat="45.50357" lon="6.68605">
        <ele>2159.69</ele>
        <time>2016-03-22T15:19:52Z</time>
      </trkpt>
      <trkpt lat="45.50364" lon="6.68571">
        <ele>2154.38</ele>
        <time>2016-03-22T15:19:55Z</time>
      </trkpt>
      <trkpt lat="45.50379" lon="6.6854">
        <ele>2149.03</ele>
        <time>2016-03-22T15:19:58Z</time>
      </trkpt>
      <trkpt lat="45.50392" lon="6.68515">
        <ele>2148.39</ele>
        <time>2016-03-22T15:20:00Z</time>
      </trkpt>
      <trkpt lat="45.50401" lon="6.68489">
        <ele>2144.69</ele>
        <time>2016-03-22T15:20:02Z</time>
      </trkpt>
      <trkpt lat="45.50409" lon="6.68466">
        <ele>2144.54</ele>
        <time>2016-03-22T15:20:04Z</time>
      </trkpt>
      <trkpt lat="45.50416" lon="6.68432">
        <ele>2140.82</ele>
        <time>2016-03-22T15:20:07Z</time>
      </trkpt>
      <trkpt lat="45.50417" lon="6.68403">
        <ele>2136.18</ele>
        <time>2016-03-22T15:20:10Z</time>
      </trkpt>
      <trkpt lat="45.50412" lon="6.68372">
        <ele>2131.02</ele>
        <time>2016-03-22T15:20:13Z</time>
      </trkpt>
      <trkpt lat="45.50399" lon="6.6835">
        <ele>2125.03</ele>
        <time>2016-03-22T15:20:16Z</time>
      </trkpt>
      <trkpt lat="45.50385" lon="6.68329">
        <ele>2120.98</ele>
        <time>2016-03-22T15:20:19Z</time>
      </trkpt>
      <trkpt lat="45.50372" lon="6.68304">
        <ele>2116.02</ele>
        <time>2016-03-22T15:20:22Z</time>
      </trkpt>
      <trkpt lat="45.5036" lon="6.68277">
        <ele>2109.04</ele>
        <time>2016-03-22T15:20:25Z</time>
      </trkpt>
      <trkpt lat="45.50349" lon="6.68247">
        <ele>2104.81</ele>
        <time>2016-03-22T15:20:29Z</time>
      </trkpt>
      <trkpt lat="45.50338" lon="6.68223">
        <ele>2099.83</ele>
        <time>2016-03-22T15:20:32Z</time>
      </trkpt>
      <trkpt lat="45.50329" lon="6.68193">
        <ele>2097.74</ele>
        <time>2016-03-22T15:20:35Z</time>
      </trkpt>
      <trkpt lat="45.50336" lon="6.68162">
        <ele>2093.08</ele>
        <time>2016-03-22T15:20:39Z</time>
      </trkpt>
      <trkpt lat="45.50355" lon="6.6814">
        <ele>2085.88</ele>
        <time>2016-03-22T15:20:42Z</time>
      </trkpt>
      <trkpt lat="45.50375" lon="6.68122">
        <ele>2083.39</ele>
        <time>2016-03-22T15:20:45Z</time>
      </trkpt>
      <trkpt lat="45.50392" lon="6.68096">
        <ele>2081.61</ele>
        <time>2016-03-22T15:20:48Z</time>
      </trkpt>
      <trkpt lat="45.5041" lon="6.68083">
        <ele>2083.13</ele>
        <time>2016-03-22T15:20:50Z</time>
      </trkpt>
      <trkpt lat="45.50429" lon="6.68072">
        <ele>2086.08</ele>
        <time>2016-03-22T15:20:52Z</time>
      </trkpt>
      <trkpt lat="45.5045" lon="6.68065">
        <ele>2083.15</ele>
        <time>2016-03-22T15:20:54Z</time>
      </trkpt>
      <trkpt lat="45.50467" lon="6.68049">
        <ele>2078.66</ele>
        <time>2016-03-22T15:20:57Z</time>
      </trkpt>
      <trkpt lat="45.50467" lon="6.68021">
        <ele>2076.8</ele>
        <time>2016-03-22T15:21:00Z</time>
      </trkpt>
      <trkpt lat="45.50458" lon="6.67986">
        <ele>2073.78</ele>
        <time>2016-03-22T15:21:03Z</time>
      </trkpt>
      <trkpt lat="45.50446" lon="6.67957">
        <ele>2068.8</ele>
        <time>2016-03-22T15:21:06Z</time>
      </trkpt>
      <trkpt lat="45.50421" lon="6.6795">
        <ele>2063.26</ele>
        <time>2016-03-22T15:21:08Z</time>
      </trkpt>
      <trkpt lat="45.50405" lon="6.67935">
        <ele>2059.04</ele>
        <time>2016-03-22T15:21:10Z</time>
      </trkpt>
      <trkpt lat="45.50394" lon="6.67914">
        <ele>2052.31</ele>
        <time>2016-03-22T15:21:12Z</time>
      </trkpt>
      <trkpt lat="45.50383" lon="6.67887">
        <ele>2045.01</ele>
        <time>2016-03-22T15:21:15Z</time>
      </trkpt>
      <trkpt lat="45.50389" lon="6.67862">
        <ele>2039.27</ele>
        <time>2016-03-22T15:21:17Z</time>
      </trkpt>
      <trkpt lat="45.50394" lon="6.67835">
        <ele>2038.72</ele>
        <time>2016-03-22T15:21:19Z</time>
      </trkpt>
      <trkpt lat="45.50404" lon="6.67799">
        <ele>2035.97</ele>
        <time>2016-03-22T15:21:22Z</time>
      </trkpt>
      <trkpt lat="45.50415" lon="6.67777">
        <ele>2035.55</ele>
        <time>2016-03-22T15:21:24Z</time>
      </trkpt>
      <trkpt lat="45.50429" lon="6.67751">
        <ele>2032.46</ele>
        <time>2016-03-22T15:21:27Z</time>
      </trkpt>
      <trkpt lat="45.50429" lon="6.67723">
        <ele>2028.18</ele>
        <time>2016-03-22T15:21:32Z</time>
      </trkpt>
      <trkpt lat="45.50428" lon="6.67693">
        <ele>2019.97</ele>
        <time>2016-03-22T15:21:42Z</time>
      </trkpt>
      <trkpt lat="45.5043" lon="6.67667">
        <ele>2019.33</ele>
        <time>2016-03-22T15:21:47Z</time>
      </trkpt>
      <trkpt lat="45.50443" lon="6.67647">
        <ele>2016.38</ele>
        <time>2016-03-22T15:21:51Z</time>
      </trkpt>
      <trkpt lat="45.50462" lon="6.67635">
        <ele>2014.77</ele>
        <time>2016-03-22T15:21:54Z</time>
      </trkpt>
      <trkpt lat="45.50482" lon="6.6762">
        <ele>2013.57</ele>
        <time>2016-03-22T15:21:57Z</time>
      </trkpt>
      <trkpt lat="45.505" lon="6.67611">
        <ele>2011.74</ele>
        <time>2016-03-22T15:22:00Z</time>
      </trkpt>
      <trkpt lat="45.505" lon="6.67638">
        <ele>1995.75</ele>
        <time>2016-03-22T15:22:07Z</time>
      </trkpt>
      <trkpt lat="45.50486" lon="6.67656">
        <ele>1985.56</ele>
        <time>2016-03-22T15:22:51Z</time>
      </trkpt>
      <trkpt lat="45.50467" lon="6.67663">
        <ele>1986.27</ele>
        <time>2016-03-22T15:22:57Z</time>
      </trkpt>
      <trkpt lat="45.50449" lon="6.67669">
        <ele>1990.52</ele>
        <time>2016-03-22T15:23:03Z</time>
      </trkpt>
      <trkpt lat="45.5043" lon="6.67674">
        <ele>1987.53</ele>
        <time>2016-03-22T15:23:10Z</time>
      </trkpt>
      <trkpt lat="45.5041" lon="6.67683">
        <ele>1994.08</ele>
        <time>2016-03-22T15:23:16Z</time>
      </trkpt>
      <trkpt lat="45.50391" lon="6.67686">
        <ele>1996.9</ele>
        <time>2016-03-22T15:23:23Z</time>
      </trkpt>
      <trkpt lat="45.50371" lon="6.6769">
        <ele>1998.38</ele>
        <time>2016-03-22T15:23:30Z</time>
      </trkpt>
      <trkpt lat="45.5035" lon="6.67695">
        <ele>2000.53</ele>
        <time>2016-03-22T15:23:37Z</time>
      </trkpt>
      <trkpt lat="45.50332" lon="6.677">
        <ele>2003.12</ele>
        <time>2016-03-22T15:23:43Z</time>
      </trkpt>
      <trkpt lat="45.50314" lon="6.67702">
        <ele>2008.28</ele>
        <time>2016-03-22T15:23:49Z</time>
      </trkpt>
      <trkpt lat="45.50293" lon="6.67705">
        <ele>2008.56</ele>
        <time>2016-03-22T15:23:55Z</time>
      </trkpt>
      <trkpt lat="45.50273" lon="6.67706">
        <ele>2019.35</ele>
        <time>2016-03-22T15:24:01Z</time>
      </trkpt>
      <trkpt lat="45.50255" lon="6.6771">
        <ele>2023.12</ele>
        <time>2016-03-22T15:24:07Z</time>
      </trkpt>
      <trkpt lat="45.50235" lon="6.67717">
        <ele>2026.31</ele>
        <time>2016-03-22T15:24:14Z</time>
      </trkpt>
      <trkpt lat="45.50214" lon="6.67727">
        <ele>2031.52</ele>
        <time>2016-03-22T15:24:21Z</time>
      </trkpt>
      <trkpt lat="45.50195" lon="6.67723">
        <ele>2043.64</ele>
        <time>2016-03-22T15:24:27Z</time>
      </trkpt>
      <trkpt lat="45.50177" lon="6.67731">
        <ele>2057.08</ele>
        <time>2016-03-22T15:24:33Z</time>
      </trkpt>
      <trkpt lat="45.50157" lon="6.6774">
        <ele>2061.33</ele>
        <time>2016-03-22T15:24:40Z</time>
      </trkpt>
      <trkpt lat="45.50139" lon="6.67747">
        <ele>2062.53</ele>
        <time>2016-03-22T15:24:47Z</time>
      </trkpt>
      <trkpt lat="45.50119" lon="6.67752">
        <ele>2067.08</ele>
        <time>2016-03-22T15:24:54Z</time>
      </trkpt>
      <trkpt lat="45.50098" lon="6.67756">
        <ele>2077.11</ele>
        <time>2016-03-22T15:25:00Z</time>
      </trkpt>
      <trkpt lat="45.5008" lon="6.67763">
        <ele>2082.32</ele>
        <time>2016-03-22T15:25:07Z</time>
      </trkpt>
      <trkpt lat="45.50059" lon="6.67768">
        <ele>2088.07</ele>
        <time>2016-03-22T15:25:14Z</time>
      </trkpt>
      <trkpt lat="45.5004" lon="6.67772">
        <ele>2095.3</ele>
        <time>2016-03-22T15:25:20Z</time>
      </trkpt>
      <trkpt lat="45.50021" lon="6.67776">
        <ele>2102.28</ele>
        <time>2016-03-22T15:25:26Z</time>
      </trkpt>
      <trkpt lat="45.50001" lon="6.6778">
        <ele>2109.27</ele>
        <time>2016-03-22T15:25:32Z</time>
      </trkpt>
      <trkpt lat="45.49981" lon="6.6778">
        <ele>2115.45</ele>
        <time>2016-03-22T15:25:38Z</time>
      </trkpt>
      <trkpt lat="45.49962" lon="6.67786">
        <ele>2122.04</ele>
        <time>2016-03-22T15:25:45Z</time>
      </trkpt>
      <trkpt lat="45.49943" lon="6.6779">
        <ele>2128.08</ele>
        <time>2016-03-22T15:25:51Z</time>
      </trkpt>
      <trkpt lat="45.49922" lon="6.67795">
        <ele>2135.28</ele>
        <time>2016-03-22T15:25:58Z</time>
      </trkpt>
      <trkpt lat="45.49904" lon="6.67804">
        <ele>2143.28</ele>
        <time>2016-03-22T15:26:05Z</time>
      </trkpt>
      <trkpt lat="45.49884" lon="6.67809">
        <ele>2150.52</ele>
        <time>2016-03-22T15:26:12Z</time>
      </trkpt>
      <trkpt lat="45.49864" lon="6.67813">
        <ele>2155.11</ele>
        <time>2016-03-22T15:26:18Z</time>
      </trkpt>
      <trkpt lat="45.49844" lon="6.67822">
        <ele>2159.48</ele>
        <time>2016-03-22T15:26:25Z</time>
      </trkpt>
      <trkpt lat="45.49824" lon="6.67833">
        <ele>2160.53</ele>
        <time>2016-03-22T15:26:31Z</time>
      </trkpt>
      <trkpt lat="45.49806" lon="6.6783">
        <ele>2175.23</ele>
        <time>2016-03-22T15:26:39Z</time>
      </trkpt>
      <trkpt lat="45.49787" lon="6.67835">
        <ele>2181.32</ele>
        <time>2016-03-22T15:26:45Z</time>
      </trkpt>
      <trkpt lat="45.49769" lon="6.67838">
        <ele>2186.28</ele>
        <time>2016-03-22T15:26:51Z</time>
      </trkpt>
      <trkpt lat="45.49749" lon="6.67844">
        <ele>2190.28</ele>
        <time>2016-03-22T15:26:58Z</time>
      </trkpt>
      <trkpt lat="45.49731" lon="6.67849">
        <ele>2195.28</ele>
        <time>2016-03-22T15:27:04Z</time>
      </trkpt>
      <trkpt lat="45.49712" lon="6.67852">
        <ele>2200.49</ele>
        <time>2016-03-22T15:27:10Z</time>
      </trkpt>
      <trkpt lat="45.49693" lon="6.67857">
        <ele>2203.32</ele>
        <time>2016-03-22T15:27:16Z</time>
      </trkpt>
      <trkpt lat="45.49674" lon="6.67864">
        <ele>2206.49</ele>
        <time>2016-03-22T15:27:22Z</time>
      </trkpt>
      <trkpt lat="45.49654" lon="6.67868">
        <ele>2211.32</ele>
        <time>2016-03-22T15:27:29Z</time>
      </trkpt>
      <trkpt lat="45.49636" lon="6.67871">
        <ele>2217.28</ele>
        <time>2016-03-22T15:27:35Z</time>
      </trkpt>
      <trkpt lat="45.49617" lon="6.67878">
        <ele>2222.28</ele>
        <time>2016-03-22T15:27:41Z</time>
      </trkpt>
      <trkpt lat="45.49597" lon="6.67883">
        <ele>2227.28</ele>
        <time>2016-03-22T15:27:48Z</time>
      </trkpt>
      <trkpt lat="45.49577" lon="6.67887">
        <ele>2234.29</ele>
        <time>2016-03-22T15:27:55Z</time>
      </trkpt>
      <trkpt lat="45.49557" lon="6.6789">
        <ele>2240.09</ele>
        <time>2016-03-22T15:28:02Z</time>
      </trkpt>
      <trkpt lat="45.49537" lon="6.67896">
        <ele>2243.48</ele>
        <time>2016-03-22T15:28:09Z</time>
      </trkpt>
      <trkpt lat="45.49517" lon="6.67901">
        <ele>2249.28</ele>
        <time>2016-03-22T15:28:15Z</time>
      </trkpt>
      <trkpt lat="45.49498" lon="6.67907">
        <ele>2252.52</ele>
        <time>2016-03-22T15:28:21Z</time>
      </trkpt>
      <trkpt lat="45.4948" lon="6.67911">
        <ele>2258.32</ele>
        <time>2016-03-22T15:28:27Z</time>
      </trkpt>
      <trkpt lat="45.49461" lon="6.67918">
        <ele>2261.52</ele>
        <time>2016-03-22T15:28:33Z</time>
      </trkpt>
      <trkpt lat="45.49442" lon="6.67924">
        <ele>2265.28</ele>
        <time>2016-03-22T15:28:40Z</time>
      </trkpt>
      <trkpt lat="45.49423" lon="6.67926">
        <ele>2266.53</ele>
        <time>2016-03-22T15:28:46Z</time>
      </trkpt>
      <trkpt lat="45.49403" lon="6.6793">
        <ele>2270.52</ele>
        <time>2016-03-22T15:28:52Z</time>
      </trkpt>
      <trkpt lat="45.49383" lon="6.67936">
        <ele>2278.08</ele>
        <time>2016-03-22T15:28:59Z</time>
      </trkpt>
      <trkpt lat="45.49364" lon="6.67938">
        <ele>2284.13</ele>
        <time>2016-03-22T15:29:05Z</time>
      </trkpt>
      <trkpt lat="45.49349" lon="6.67923">
        <ele>2290.37</ele>
        <time>2016-03-22T15:29:18Z</time>
      </trkpt>
      <trkpt lat="45.49351" lon="6.67893">
        <ele>2287.97</ele>
        <time>2016-03-22T15:29:39Z</time>
      </trkpt>
      <trkpt lat="45.49364" lon="6.67871">
        <ele>2284.73</ele>
        <time>2016-03-22T15:30:06Z</time>
      </trkpt>
      <trkpt lat="45.49376" lon="6.6785">
        <ele>2281.78</ele>
        <time>2016-03-22T15:30:10Z</time>
      </trkpt>
      <trkpt lat="45.49393" lon="6.67836">
        <ele>2278.78</ele>
        <time>2016-03-22T15:30:13Z</time>
      </trkpt>
      <trkpt lat="45.49408" lon="6.67817">
        <ele>2277.76</ele>
        <time>2016-03-22T15:30:16Z</time>
      </trkpt>
      <trkpt lat="45.49423" lon="6.67802">
        <ele>2274.97</ele>
        <time>2016-03-22T15:30:19Z</time>
      </trkpt>
      <trkpt lat="45.4944" lon="6.67789">
        <ele>2272.58</ele>
        <time>2016-03-22T15:30:22Z</time>
      </trkpt>
      <trkpt lat="45.49458" lon="6.67772">
        <ele>2267.18</ele>
        <time>2016-03-22T15:30:26Z</time>
      </trkpt>
      <trkpt lat="45.49473" lon="6.67752">
        <ele>2250.98</ele>
        <time>2016-03-22T15:30:39Z</time>
      </trkpt>
      <trkpt lat="45.49494" lon="6.67734">
        <ele>2243.8</ele>
        <time>2016-03-22T15:30:43Z</time>
      </trkpt>
      <trkpt lat="45.49511" lon="6.67725">
        <ele>2237.04</ele>
        <time>2016-03-22T15:30:46Z</time>
      </trkpt>
      <trkpt lat="45.49531" lon="6.67714">
        <ele>2230.04</ele>
        <time>2016-03-22T15:30:49Z</time>
      </trkpt>
      <trkpt lat="45.4955" lon="6.67705">
        <ele>2226.99</ele>
        <time>2016-03-22T15:30:51Z</time>
      </trkpt>
      <trkpt lat="45.49571" lon="6.6771">
        <ele>2223.99</ele>
        <time>2016-03-22T15:30:53Z</time>
      </trkpt>
      <trkpt lat="45.49589" lon="6.67721">
        <ele>2223.53</ele>
        <time>2016-03-22T15:30:56Z</time>
      </trkpt>
      <trkpt lat="45.49606" lon="6.67734">
        <ele>2225.13</ele>
        <time>2016-03-22T15:31:02Z</time>
      </trkpt>
      <trkpt lat="45.49623" lon="6.67748">
        <ele>2211.5</ele>
        <time>2016-03-22T15:31:27Z</time>
      </trkpt>
      <trkpt lat="45.49643" lon="6.67759">
        <ele>2206.17</ele>
        <time>2016-03-22T15:31:32Z</time>
      </trkpt>
      <trkpt lat="45.49658" lon="6.67773">
        <ele>2200.01</ele>
        <time>2016-03-22T15:31:49Z</time>
      </trkpt>
      <trkpt lat="45.49672" lon="6.67755">
        <ele>2199.68</ele>
        <time>2016-03-22T15:31:56Z</time>
      </trkpt>
      <trkpt lat="45.49688" lon="6.6774">
        <ele>2195.97</ele>
        <time>2016-03-22T15:32:01Z</time>
      </trkpt>
      <trkpt lat="45.49708" lon="6.67734">
        <ele>2195.94</ele>
        <time>2016-03-22T15:32:05Z</time>
      </trkpt>
      <trkpt lat="45.49725" lon="6.67746">
        <ele>2196.54</ele>
        <time>2016-03-22T15:32:15Z</time>
      </trkpt>
      <trkpt lat="45.49742" lon="6.67763">
        <ele>2192.57</ele>
        <time>2016-03-22T15:32:31Z</time>
      </trkpt>
      <trkpt lat="45.49754" lon="6.67742">
        <ele>2187.93</ele>
        <time>2016-03-22T15:32:48Z</time>
      </trkpt>
      <trkpt lat="45.49773" lon="6.67728">
        <ele>2183.79</ele>
        <time>2016-03-22T15:32:57Z</time>
      </trkpt>
      <trkpt lat="45.49792" lon="6.67729">
        <ele>2181.57</ele>
        <time>2016-03-22T15:33:01Z</time>
      </trkpt>
      <trkpt lat="45.4981" lon="6.67737">
        <ele>2180.57</ele>
        <time>2016-03-22T15:33:05Z</time>
      </trkpt>
      <trkpt lat="45.49826" lon="6.67726">
        <ele>2170.78</ele>
        <time>2016-03-22T15:33:18Z</time>
      </trkpt>
      <trkpt lat="45.49845" lon="6.67723">
        <ele>2166.74</ele>
        <time>2016-03-22T15:33:25Z</time>
      </trkpt>
      <trkpt lat="45.49865" lon="6.67723">
        <ele>2160.18</ele>
        <time>2016-03-22T15:33:32Z</time>
      </trkpt>
      <trkpt lat="45.49883" lon="6.67729">
        <ele>2157.57</ele>
        <time>2016-03-22T15:33:44Z</time>
      </trkpt>
      <trkpt lat="45.49902" lon="6.67722">
        <ele>2149.16</ele>
        <time>2016-03-22T15:34:09Z</time>
      </trkpt>
      <trkpt lat="45.4992" lon="6.67709">
        <ele>2143.94</ele>
        <time>2016-03-22T15:34:18Z</time>
      </trkpt>
      <trkpt lat="45.49938" lon="6.67719">
        <ele>2132.1</ele>
        <time>2016-03-22T15:34:30Z</time>
      </trkpt>
      <trkpt lat="45.49957" lon="6.67728">
        <ele>2120.59</ele>
        <time>2016-03-22T15:34:52Z</time>
      </trkpt>
      <trkpt lat="45.49975" lon="6.67739">
        <ele>2115.58</ele>
        <time>2016-03-22T15:35:06Z</time>
      </trkpt>
      <trkpt lat="45.49992" lon="6.67751">
        <ele>2112.78</ele>
        <time>2016-03-22T15:35:11Z</time>
      </trkpt>
      <trkpt lat="45.49987" lon="6.67777">
        <ele>2106.78</ele>
        <time>2016-03-22T15:35:23Z</time>
      </trkpt>
      <trkpt lat="45.49997" lon="6.67803">
        <ele>2104.73</ele>
        <time>2016-03-22T15:35:28Z</time>
      </trkpt>
      <trkpt lat="45.50003" lon="6.67827">
        <ele>2100.55</ele>
        <time>2016-03-22T15:35:34Z</time>
      </trkpt>
      <trkpt lat="45.50011" lon="6.67851">
        <ele>2097.54</ele>
        <time>2016-03-22T15:35:41Z</time>
      </trkpt>
      <trkpt lat="45.50026" lon="6.67866">
        <ele>2094.57</ele>
        <time>2016-03-22T15:35:58Z</time>
      </trkpt>
      <trkpt lat="45.50044" lon="6.6786">
        <ele>2089.82</ele>
        <time>2016-03-22T15:36:16Z</time>
      </trkpt>
      <trkpt lat="45.50064" lon="6.67848">
        <ele>2085.35</ele>
        <time>2016-03-22T15:36:25Z</time>
      </trkpt>
      <trkpt lat="45.5008" lon="6.67836">
        <ele>2087.52</ele>
        <time>2016-03-22T15:36:29Z</time>
      </trkpt>
      <trkpt lat="45.501" lon="6.67832">
        <ele>2083.62</ele>
        <time>2016-03-22T15:36:35Z</time>
      </trkpt>
      <trkpt lat="45.50119" lon="6.6782">
        <ele>2081.5</ele>
        <time>2016-03-22T15:36:41Z</time>
      </trkpt>
      <trkpt lat="45.50132" lon="6.678">
        <ele>2077.94</ele>
        <time>2016-03-22T15:36:47Z</time>
      </trkpt>
      <trkpt lat="45.50144" lon="6.67772">
        <ele>2076.38</ele>
        <time>2016-03-22T15:36:52Z</time>
      </trkpt>
      <trkpt lat="45.50163" lon="6.67767">
        <ele>2073.94</ele>
        <time>2016-03-22T15:36:56Z</time>
      </trkpt>
      <trkpt lat="45.50181" lon="6.67766">
        <ele>2074.72</ele>
        <time>2016-03-22T15:37:00Z</time>
      </trkpt>
      <trkpt lat="45.50206" lon="6.67768">
        <ele>2069.06</ele>
        <time>2016-03-22T15:37:06Z</time>
      </trkpt>
      <trkpt lat="45.5023" lon="6.67766">
        <ele>2062.6</ele>
        <time>2016-03-22T15:37:10Z</time>
      </trkpt>
      <trkpt lat="45.50248" lon="6.67754">
        <ele>2055.75</ele>
        <time>2016-03-22T15:37:15Z</time>
      </trkpt>
      <trkpt lat="45.50267" lon="6.67744">
        <ele>2052.61</ele>
        <time>2016-03-22T15:37:19Z</time>
      </trkpt>
      <trkpt lat="45.50288" lon="6.67746">
        <ele>2046.26</ele>
        <time>2016-03-22T15:37:22Z</time>
      </trkpt>
      <trkpt lat="45.50307" lon="6.67748">
        <ele>2040.62</ele>
        <time>2016-03-22T15:37:26Z</time>
      </trkpt>
      <trkpt lat="45.50329" lon="6.67747">
        <ele>2022.54</ele>
        <time>2016-03-22T15:38:11Z</time>
      </trkpt>
      <trkpt lat="45.50349" lon="6.67765">
        <ele>2012.93</ele>
        <time>2016-03-22T15:38:15Z</time>
      </trkpt>
      <trkpt lat="45.50367" lon="6.67763">
        <ele>2011.57</ele>
        <time>2016-03-22T15:38:18Z</time>
      </trkpt>
      <trkpt lat="45.50388" lon="6.6775">
        <ele>2010.54</ele>
        <time>2016-03-22T15:38:21Z</time>
      </trkpt>
      <trkpt lat="45.504" lon="6.67726">
        <ele>2009.57</ele>
        <time>2016-03-22T15:38:24Z</time>
      </trkpt>
      <trkpt lat="45.50412" lon="6.67702">
        <ele>2012.44</ele>
        <time>2016-03-22T15:38:27Z</time>
      </trkpt>
      <trkpt lat="45.50422" lon="6.67672">
        <ele>2014.32</ele>
        <time>2016-03-22T15:38:30Z</time>
      </trkpt>
      <trkpt lat="45.50441" lon="6.67653">
        <ele>2012.74</ele>
        <time>2016-03-22T15:38:33Z</time>
      </trkpt>
      <trkpt lat="45.50462" lon="6.67639">
        <ele>2010.93</ele>
        <time>2016-03-22T15:38:36Z</time>
      </trkpt>
      <trkpt lat="45.50486" lon="6.67622">
        <ele>2009.54</ele>
        <time>2016-03-22T15:38:39Z</time>
      </trkpt>
      <trkpt lat="45.50503" lon="6.67635">
        <ele>1994.38</ele>
        <time>2016-03-22T15:38:47Z</time>
      </trkpt>
      <trkpt lat="45.50494" lon="6.67658">
        <ele>1994.5</ele>
        <time>2016-03-22T15:39:03Z</time>
      </trkpt>
      <trkpt lat="45.50475" lon="6.67659">
        <ele>1983.46</ele>
        <time>2016-03-22T15:39:28Z</time>
      </trkpt>
      <trkpt lat="45.50456" lon="6.6767">
        <ele>1987.46</ele>
        <time>2016-03-22T15:39:35Z</time>
      </trkpt>
      <trkpt lat="45.50438" lon="6.67674">
        <ele>1993.89</ele>
        <time>2016-03-22T15:39:41Z</time>
      </trkpt>
      <trkpt lat="45.5042" lon="6.67677">
        <ele>1997.33</ele>
        <time>2016-03-22T15:39:47Z</time>
      </trkpt>
      <trkpt lat="45.504" lon="6.6768">
        <ele>2002.08</ele>
        <time>2016-03-22T15:39:53Z</time>
      </trkpt>
      <trkpt lat="45.50382" lon="6.67687">
        <ele>2006.51</ele>
        <time>2016-03-22T15:39:59Z</time>
      </trkpt>
      <trkpt lat="45.50363" lon="6.67691">
        <ele>2011.32</ele>
        <time>2016-03-22T15:40:06Z</time>
      </trkpt>
      <trkpt lat="45.50344" lon="6.67698">
        <ele>2015.31</ele>
        <time>2016-03-22T15:40:13Z</time>
      </trkpt>
      <trkpt lat="45.50323" lon="6.67703">
        <ele>2020.32</ele>
        <time>2016-03-22T15:40:20Z</time>
      </trkpt>
      <trkpt lat="45.50304" lon="6.67707">
        <ele>2025.12</ele>
        <time>2016-03-22T15:40:26Z</time>
      </trkpt>
      <trkpt lat="45.50284" lon="6.67708">
        <ele>2031.27</ele>
        <time>2016-03-22T15:40:32Z</time>
      </trkpt>
      <trkpt lat="45.50266" lon="6.67713">
        <ele>2034.45</ele>
        <time>2016-03-22T15:40:38Z</time>
      </trkpt>
      <trkpt lat="45.50245" lon="6.67719">
        <ele>2040.09</ele>
        <time>2016-03-22T15:40:45Z</time>
      </trkpt>
      <trkpt lat="45.50226" lon="6.67724">
        <ele>2044.32</ele>
        <time>2016-03-22T15:40:51Z</time>
      </trkpt>
      <trkpt lat="45.50206" lon="6.67728">
        <ele>2049.28</ele>
        <time>2016-03-22T15:40:58Z</time>
      </trkpt>
      <trkpt lat="45.50188" lon="6.67736">
        <ele>2054.44</ele>
        <time>2016-03-22T15:41:05Z</time>
      </trkpt>
      <trkpt lat="45.50168" lon="6.67742">
        <ele>2059.48</ele>
        <time>2016-03-22T15:41:12Z</time>
      </trkpt>
      <trkpt lat="45.50149" lon="6.67746">
        <ele>2062.33</ele>
        <time>2016-03-22T15:41:18Z</time>
      </trkpt>
      <trkpt lat="45.5013" lon="6.67753">
        <ele>2064.34</ele>
        <time>2016-03-22T15:41:25Z</time>
      </trkpt>
      <trkpt lat="45.50112" lon="6.67758">
        <ele>2069.08</ele>
        <time>2016-03-22T15:41:31Z</time>
      </trkpt>
      <trkpt lat="45.50093" lon="6.67762">
        <ele>2078.24</ele>
        <time>2016-03-22T15:41:37Z</time>
      </trkpt>
      <trkpt lat="45.50074" lon="6.67765">
        <ele>2086.47</ele>
        <time>2016-03-22T15:41:43Z</time>
      </trkpt>
      <trkpt lat="45.50055" lon="6.67769">
        <ele>2091.32</ele>
        <time>2016-03-22T15:41:49Z</time>
      </trkpt>
      <trkpt lat="45.50037" lon="6.67773">
        <ele>2094.1</ele>
        <time>2016-03-22T15:41:55Z</time>
      </trkpt>
      <trkpt lat="45.50018" lon="6.67778">
        <ele>2100.04</ele>
        <time>2016-03-22T15:42:01Z</time>
      </trkpt>
      <trkpt lat="45.49999" lon="6.6778">
        <ele>2104.52</ele>
        <time>2016-03-22T15:42:07Z</time>
      </trkpt>
      <trkpt lat="45.4998" lon="6.67786">
        <ele>2105.36</ele>
        <time>2016-03-22T15:42:14Z</time>
      </trkpt>
      <trkpt lat="45.49961" lon="6.67789">
        <ele>2109.28</ele>
        <time>2016-03-22T15:42:20Z</time>
      </trkpt>
      <trkpt lat="45.4994" lon="6.67794">
        <ele>2114.49</ele>
        <time>2016-03-22T15:42:27Z</time>
      </trkpt>
      <trkpt lat="45.49922" lon="6.67797">
        <ele>2121.15</ele>
        <time>2016-03-22T15:42:33Z</time>
      </trkpt>
      <trkpt lat="45.49903" lon="6.67803">
        <ele>2129.28</ele>
        <time>2016-03-22T15:42:40Z</time>
      </trkpt>
      <trkpt lat="45.49884" lon="6.67804">
        <ele>2132.53</ele>
        <time>2016-03-22T15:42:46Z</time>
      </trkpt>
      <trkpt lat="45.49865" lon="6.67814">
        <ele>2138.48</ele>
        <time>2016-03-22T15:42:53Z</time>
      </trkpt>
      <trkpt lat="45.49846" lon="6.67817">
        <ele>2142.69</ele>
        <time>2016-03-22T15:42:59Z</time>
      </trkpt>
      <trkpt lat="45.49826" lon="6.67823">
        <ele>2147.33</ele>
        <time>2016-03-22T15:43:06Z</time>
      </trkpt>
      <trkpt lat="45.49805" lon="6.67825">
        <ele>2151.24</ele>
        <time>2016-03-22T15:43:13Z</time>
      </trkpt>
      <trkpt lat="45.49787" lon="6.67829">
        <ele>2155.29</ele>
        <time>2016-03-22T15:43:19Z</time>
      </trkpt>
      <trkpt lat="45.49766" lon="6.67837">
        <ele>2159.94</ele>
        <time>2016-03-22T15:43:26Z</time>
      </trkpt>
      <trkpt lat="45.49747" lon="6.67843">
        <ele>2164.52</ele>
        <time>2016-03-22T15:43:33Z</time>
      </trkpt>
      <trkpt lat="45.49727" lon="6.67844">
        <ele>2169.28</ele>
        <time>2016-03-22T15:43:39Z</time>
      </trkpt>
      <trkpt lat="45.4971" lon="6.67854">
        <ele>2176.23</ele>
        <time>2016-03-22T15:43:45Z</time>
      </trkpt>
      <trkpt lat="45.49691" lon="6.67856">
        <ele>2180.24</ele>
        <time>2016-03-22T15:43:51Z</time>
      </trkpt>
      <trkpt lat="45.49672" lon="6.67861">
        <ele>2183.09</ele>
        <time>2016-03-22T15:43:57Z</time>
      </trkpt>
      <trkpt lat="45.49652" lon="6.6787">
        <ele>2191.28</ele>
        <time>2016-03-22T15:44:04Z</time>
      </trkpt>
      <trkpt lat="45.49633" lon="6.67872">
        <ele>2196.29</ele>
        <time>2016-03-22T15:44:10Z</time>
      </trkpt>
      <trkpt lat="45.49615" lon="6.67872">
        <ele>2203.48</ele>
        <time>2016-03-22T15:44:16Z</time>
      </trkpt>
      <trkpt lat="45.49596" lon="6.67877">
        <ele>2215.08</ele>
        <time>2016-03-22T15:44:22Z</time>
      </trkpt>
      <trkpt lat="45.49578" lon="6.67882">
        <ele>2220.3</ele>
        <time>2016-03-22T15:44:28Z</time>
      </trkpt>
      <trkpt lat="45.49558" lon="6.67888">
        <ele>2225.45</ele>
        <time>2016-03-22T15:44:35Z</time>
      </trkpt>
      <trkpt lat="45.49537" lon="6.67894">
        <ele>2229.48</ele>
        <time>2016-03-22T15:44:42Z</time>
      </trkpt>
      <trkpt lat="45.49517" lon="6.67898">
        <ele>2230.73</ele>
        <time>2016-03-22T15:44:49Z</time>
      </trkpt>
      <trkpt lat="45.49499" lon="6.67903">
        <ele>2234.53</ele>
        <time>2016-03-22T15:44:55Z</time>
      </trkpt>
      <trkpt lat="45.49478" lon="6.67909">
        <ele>2241.08</ele>
        <time>2016-03-22T15:45:02Z</time>
      </trkpt>
      <trkpt lat="45.4946" lon="6.67911">
        <ele>2249.2</ele>
        <time>2016-03-22T15:45:08Z</time>
      </trkpt>
      <trkpt lat="45.49441" lon="6.67921">
        <ele>2256.29</ele>
        <time>2016-03-22T15:45:15Z</time>
      </trkpt>
      <trkpt lat="45.4942" lon="6.67926">
        <ele>2263.85</ele>
        <time>2016-03-22T15:45:22Z</time>
      </trkpt>
      <trkpt lat="45.49401" lon="6.67931">
        <ele>2271.28</ele>
        <time>2016-03-22T15:45:28Z</time>
      </trkpt>
      <trkpt lat="45.49382" lon="6.67939">
        <ele>2273.48</ele>
        <time>2016-03-22T15:45:35Z</time>
      </trkpt>
      <trkpt lat="45.49362" lon="6.67941">
        <ele>2277.72</ele>
        <time>2016-03-22T15:45:41Z</time>
      </trkpt>
      <trkpt lat="45.49345" lon="6.67929">
        <ele>2279.49</ele>
        <time>2016-03-22T15:45:50Z</time>
      </trkpt>
      <trkpt lat="45.49348" lon="6.67899">
        <ele>2285.32</ele>
        <time>2016-03-22T15:46:16Z</time>
      </trkpt>
      <trkpt lat="45.49351" lon="6.67874">
        <ele>2286.49</ele>
        <time>2016-03-22T15:46:20Z</time>
      </trkpt>
      <trkpt lat="45.49369" lon="6.67851">
        <ele>2284.58</ele>
        <time>2016-03-22T15:46:24Z</time>
      </trkpt>
      <trkpt lat="45.49384" lon="6.67833">
        <ele>2283.54</ele>
        <time>2016-03-22T15:46:27Z</time>
      </trkpt>
      <trkpt lat="45.49397" lon="6.67808">
        <ele>2282.7</ele>
        <time>2016-03-22T15:46:30Z</time>
      </trkpt>
      <trkpt lat="45.49413" lon="6.67787">
        <ele>2279.78</ele>
        <time>2016-03-22T15:46:33Z</time>
      </trkpt>
      <trkpt lat="45.49433" lon="6.67769">
        <ele>2276.97</ele>
        <time>2016-03-22T15:46:36Z</time>
      </trkpt>
      <trkpt lat="45.49452" lon="6.67754">
        <ele>2272.66</ele>
        <time>2016-03-22T15:46:39Z</time>
      </trkpt>
      <trkpt lat="45.4947" lon="6.67739">
        <ele>2267.42</ele>
        <time>2016-03-22T15:46:41Z</time>
      </trkpt>
      <trkpt lat="45.49487" lon="6.67727">
        <ele>2263.05</ele>
        <time>2016-03-22T15:46:43Z</time>
      </trkpt>
      <trkpt lat="45.49502" lon="6.6771">
        <ele>2259.35</ele>
        <time>2016-03-22T15:46:45Z</time>
      </trkpt>
      <trkpt lat="45.49524" lon="6.67708">
        <ele>2253.03</ele>
        <time>2016-03-22T15:46:48Z</time>
      </trkpt>
      <trkpt lat="45.49552" lon="6.67712">
        <ele>2247.03</ele>
        <time>2016-03-22T15:46:51Z</time>
      </trkpt>
      <trkpt lat="45.49584" lon="6.67711">
        <ele>2242.07</ele>
        <time>2016-03-22T15:46:53Z</time>
      </trkpt>
      <trkpt lat="45.49609" lon="6.67709">
        <ele>2237.39</ele>
        <time>2016-03-22T15:46:55Z</time>
      </trkpt>
      <trkpt lat="45.49635" lon="6.67712">
        <ele>2229.27</ele>
        <time>2016-03-22T15:46:58Z</time>
      </trkpt>
      <trkpt lat="45.49658" lon="6.67709">
        <ele>2222.07</ele>
        <time>2016-03-22T15:47:01Z</time>
      </trkpt>
      <trkpt lat="45.49678" lon="6.67702">
        <ele>2216.27</ele>
        <time>2016-03-22T15:47:03Z</time>
      </trkpt>
      <trkpt lat="45.497" lon="6.67675">
        <ele>2211.6</ele>
        <time>2016-03-22T15:47:06Z</time>
      </trkpt>
      <trkpt lat="45.49707" lon="6.67645">
        <ele>2208.33</ele>
        <time>2016-03-22T15:47:08Z</time>
      </trkpt>
      <trkpt lat="45.49718" lon="6.67617">
        <ele>2205.16</ele>
        <time>2016-03-22T15:47:10Z</time>
      </trkpt>
      <trkpt lat="45.49733" lon="6.67592">
        <ele>2201.04</ele>
        <time>2016-03-22T15:47:12Z</time>
      </trkpt>
      <trkpt lat="45.49766" lon="6.67579">
        <ele>2196.98</ele>
        <time>2016-03-22T15:47:15Z</time>
      </trkpt>
      <trkpt lat="45.49788" lon="6.67568">
        <ele>2193.99</ele>
        <time>2016-03-22T15:47:17Z</time>
      </trkpt>
      <trkpt lat="45.4981" lon="6.67566">
        <ele>2190.83</ele>
        <time>2016-03-22T15:47:19Z</time>
      </trkpt>
      <trkpt lat="45.49826" lon="6.67555">
        <ele>2188.78</ele>
        <time>2016-03-22T15:47:21Z</time>
      </trkpt>
      <trkpt lat="45.49847" lon="6.67547">
        <ele>2184.79</ele>
        <time>2016-03-22T15:47:24Z</time>
      </trkpt>
      <trkpt lat="45.4987" lon="6.6754">
        <ele>2179.86</ele>
        <time>2016-03-22T15:47:27Z</time>
      </trkpt>
      <trkpt lat="45.49888" lon="6.67534">
        <ele>2177.94</ele>
        <time>2016-03-22T15:47:29Z</time>
      </trkpt>
      <trkpt lat="45.49916" lon="6.67527">
        <ele>2175.79</ele>
        <time>2016-03-22T15:47:31Z</time>
      </trkpt>
      <trkpt lat="45.49927" lon="6.67546">
        <ele>2150.26</ele>
        <time>2016-03-22T15:47:35Z</time>
      </trkpt>
      <trkpt lat="45.49944" lon="6.67578">
        <ele>2142.88</ele>
        <time>2016-03-22T15:47:38Z</time>
      </trkpt>
      <trkpt lat="45.49957" lon="6.67609">
        <ele>2134.23</ele>
        <time>2016-03-22T15:47:40Z</time>
      </trkpt>
      <trkpt lat="45.4997" lon="6.67636">
        <ele>2129.24</ele>
        <time>2016-03-22T15:47:42Z</time>
      </trkpt>
      <trkpt lat="45.49985" lon="6.67667">
        <ele>2124.08</ele>
        <time>2016-03-22T15:47:44Z</time>
      </trkpt>
      <trkpt lat="45.50001" lon="6.67696">
        <ele>2122.75</ele>
        <time>2016-03-22T15:47:46Z</time>
      </trkpt>
      <trkpt lat="45.50025" lon="6.67718">
        <ele>2117.26</ele>
        <time>2016-03-22T15:47:48Z</time>
      </trkpt>
      <trkpt lat="45.5005" lon="6.67726">
        <ele>2108.98</ele>
        <time>2016-03-22T15:47:51Z</time>
      </trkpt>
      <trkpt lat="45.50073" lon="6.67743">
        <ele>2105.03</ele>
        <time>2016-03-22T15:47:53Z</time>
      </trkpt>
      <trkpt lat="45.50101" lon="6.67745">
        <ele>2097.08</ele>
        <time>2016-03-22T15:47:56Z</time>
      </trkpt>
      <trkpt lat="45.50121" lon="6.6775">
        <ele>2093.03</ele>
        <time>2016-03-22T15:47:58Z</time>
      </trkpt>
      <trkpt lat="45.50145" lon="6.67741">
        <ele>2086.15</ele>
        <time>2016-03-22T15:48:00Z</time>
      </trkpt>
      <trkpt lat="45.50167" lon="6.67739">
        <ele>2080.44</ele>
        <time>2016-03-22T15:48:02Z</time>
      </trkpt>
      <trkpt lat="45.5019" lon="6.67733">
        <ele>2077.01</ele>
        <time>2016-03-22T15:48:04Z</time>
      </trkpt>
      <trkpt lat="45.50221" lon="6.67734">
        <ele>2073.03</ele>
        <time>2016-03-22T15:48:06Z</time>
      </trkpt>
      <trkpt lat="45.50242" lon="6.67725">
        <ele>2069.19</ele>
        <time>2016-03-22T15:48:08Z</time>
      </trkpt>
      <trkpt lat="45.50266" lon="6.67724">
        <ele>2064.08</ele>
        <time>2016-03-22T15:48:10Z</time>
      </trkpt>
      <trkpt lat="45.50288" lon="6.67721">
        <ele>2059.87</ele>
        <time>2016-03-22T15:48:12Z</time>
      </trkpt>
      <trkpt lat="45.50311" lon="6.67735">
        <ele>2056.82</ele>
        <time>2016-03-22T15:48:14Z</time>
      </trkpt>
      <trkpt lat="45.50332" lon="6.67754">
        <ele>2052.06</ele>
        <time>2016-03-22T15:48:16Z</time>
      </trkpt>
      <trkpt lat="45.5035" lon="6.6776">
        <ele>2044.35</ele>
        <time>2016-03-22T15:48:18Z</time>
      </trkpt>
      <trkpt lat="45.50368" lon="6.67776">
        <ele>2038.87</ele>
        <time>2016-03-22T15:48:21Z</time>
      </trkpt>
      <trkpt lat="45.50386" lon="6.67762">
        <ele>2034.79</ele>
        <time>2016-03-22T15:48:24Z</time>
      </trkpt>
      <trkpt lat="45.50399" lon="6.6774">
        <ele>2028.62</ele>
        <time>2016-03-22T15:48:26Z</time>
      </trkpt>
      <trkpt lat="45.50412" lon="6.67712">
        <ele>2020.66</ele>
        <time>2016-03-22T15:48:29Z</time>
      </trkpt>
      <trkpt lat="45.50417" lon="6.67688">
        <ele>2012.54</ele>
        <time>2016-03-22T15:48:41Z</time>
      </trkpt>
      <trkpt lat="45.50432" lon="6.67666">
        <ele>2003.32</ele>
        <time>2016-03-22T15:49:00Z</time>
      </trkpt>
      <trkpt lat="45.50452" lon="6.6765">
        <ele>2000.77</ele>
        <time>2016-03-22T15:49:04Z</time>
      </trkpt>
      <trkpt lat="45.50472" lon="6.67639">
        <ele>1996.82</ele>
        <time>2016-03-22T15:49:07Z</time>
      </trkpt>
      <trkpt lat="45.50489" lon="6.67616">
        <ele>1989.98</ele>
        <time>2016-03-22T15:49:11Z</time>
      </trkpt>
      <trkpt lat="45.505" lon="6.67638">
        <ele>1983.74</ele>
        <time>2016-03-22T15:49:18Z</time>
      </trkpt>
      <trkpt lat="45.50489" lon="6.67659">
        <ele>1985.74</ele>
        <time>2016-03-22T15:50:18Z</time>
      </trkpt>
      <trkpt lat="45.50471" lon="6.67666">
        <ele>1985.49</ele>
        <time>2016-03-22T15:50:33Z</time>
      </trkpt>
      <trkpt lat="45.5045" lon="6.6767">
        <ele>1987.45</ele>
        <time>2016-03-22T15:50:40Z</time>
      </trkpt>
      <trkpt lat="45.50429" lon="6.67677">
        <ele>1993.49</ele>
        <time>2016-03-22T15:50:47Z</time>
      </trkpt>
      <trkpt lat="45.5041" lon="6.6768">
        <ele>1997.33</ele>
        <time>2016-03-22T15:50:53Z</time>
      </trkpt>
      <trkpt lat="45.50391" lon="6.67688">
        <ele>2001.48</ele>
        <time>2016-03-22T15:51:00Z</time>
      </trkpt>
      <trkpt lat="45.50371" lon="6.6769">
        <ele>2004.53</ele>
        <time>2016-03-22T15:51:06Z</time>
      </trkpt>
      <trkpt lat="45.50353" lon="6.67694">
        <ele>2011.29</ele>
        <time>2016-03-22T15:51:12Z</time>
      </trkpt>
      <trkpt lat="45.50335" lon="6.67698">
        <ele>2016.31</ele>
        <time>2016-03-22T15:51:18Z</time>
      </trkpt>
      <trkpt lat="45.50317" lon="6.67704">
        <ele>2020.28</ele>
        <time>2016-03-22T15:51:24Z</time>
      </trkpt>
      <trkpt lat="45.50297" lon="6.67711">
        <ele>2022.49</ele>
        <time>2016-03-22T15:51:31Z</time>
      </trkpt>
      <trkpt lat="45.50279" lon="6.67718">
        <ele>2027.49</ele>
        <time>2016-03-22T15:51:37Z</time>
      </trkpt>
      <trkpt lat="45.5026" lon="6.6772">
        <ele>2030.33</ele>
        <time>2016-03-22T15:51:43Z</time>
      </trkpt>
      <trkpt lat="45.5024" lon="6.67725">
        <ele>2034.49</ele>
        <time>2016-03-22T15:51:50Z</time>
      </trkpt>
      <trkpt lat="45.50223" lon="6.67731">
        <ele>2041.12</ele>
        <time>2016-03-22T15:51:56Z</time>
      </trkpt>
      <trkpt lat="45.50205" lon="6.67739">
        <ele>2049.07</ele>
        <time>2016-03-22T15:52:02Z</time>
      </trkpt>
      <trkpt lat="45.50185" lon="6.67743">
        <ele>2055.28</ele>
        <time>2016-03-22T15:52:09Z</time>
      </trkpt>
      <trkpt lat="45.50167" lon="6.67746">
        <ele>2058.33</ele>
        <time>2016-03-22T15:52:15Z</time>
      </trkpt>
      <trkpt lat="45.50146" lon="6.67753">
        <ele>2061.33</ele>
        <time>2016-03-22T15:52:22Z</time>
      </trkpt>
      <trkpt lat="45.50128" lon="6.67757">
        <ele>2065.32</ele>
        <time>2016-03-22T15:52:28Z</time>
      </trkpt>
      <trkpt lat="45.50108" lon="6.67764">
        <ele>2071.28</ele>
        <time>2016-03-22T15:52:35Z</time>
      </trkpt>
      <trkpt lat="45.50089" lon="6.67768">
        <ele>2081.81</ele>
        <time>2016-03-22T15:52:41Z</time>
      </trkpt>
      <trkpt lat="45.50071" lon="6.67768">
        <ele>2088.24</ele>
        <time>2016-03-22T15:52:47Z</time>
      </trkpt>
      <trkpt lat="45.50052" lon="6.67774">
        <ele>2094.08</ele>
        <time>2016-03-22T15:52:53Z</time>
      </trkpt>
      <trkpt lat="45.50031" lon="6.6778">
        <ele>2098.49</ele>
        <time>2016-03-22T15:53:00Z</time>
      </trkpt>
      <trkpt lat="45.50014" lon="6.67785">
        <ele>2101.48</ele>
        <time>2016-03-22T15:53:06Z</time>
      </trkpt>
      <trkpt lat="45.49993" lon="6.67785">
        <ele>2105.28</ele>
        <time>2016-03-22T15:53:12Z</time>
      </trkpt>
      <trkpt lat="45.49974" lon="6.67789">
        <ele>2111.48</ele>
        <time>2016-03-22T15:53:19Z</time>
      </trkpt>
      <trkpt lat="45.49955" lon="6.67792">
        <ele>2116.28</ele>
        <time>2016-03-22T15:53:25Z</time>
      </trkpt>
      <trkpt lat="45.49938" lon="6.67797">
        <ele>2124.28</ele>
        <time>2016-03-22T15:53:31Z</time>
      </trkpt>
      <trkpt lat="45.49919" lon="6.678">
        <ele>2132.08</ele>
        <time>2016-03-22T15:53:37Z</time>
      </trkpt>
      <trkpt lat="45.499" lon="6.67805">
        <ele>2138.29</ele>
        <time>2016-03-22T15:53:44Z</time>
      </trkpt>
      <trkpt lat="45.49879" lon="6.67811">
        <ele>2145.25</ele>
        <time>2016-03-22T15:53:51Z</time>
      </trkpt>
      <trkpt lat="45.49861" lon="6.67816">
        <ele>2149.33</ele>
        <time>2016-03-22T15:53:57Z</time>
      </trkpt>
      <trkpt lat="45.49841" lon="6.67823">
        <ele>2156.29</ele>
        <time>2016-03-22T15:54:04Z</time>
      </trkpt>
      <trkpt lat="45.4982" lon="6.67828">
        <ele>2163.24</ele>
        <time>2016-03-22T15:54:11Z</time>
      </trkpt>
      <trkpt lat="45.49799" lon="6.67831">
        <ele>2170.28</ele>
        <time>2016-03-22T15:54:18Z</time>
      </trkpt>
      <trkpt lat="45.49782" lon="6.67838">
        <ele>2175.45</ele>
        <time>2016-03-22T15:54:24Z</time>
      </trkpt>
      <trkpt lat="45.49764" lon="6.67841">
        <ele>2179.28</ele>
        <time>2016-03-22T15:54:30Z</time>
      </trkpt>
      <trkpt lat="45.49746" lon="6.67848">
        <ele>2184.28</ele>
        <time>2016-03-22T15:54:36Z</time>
      </trkpt>
      <trkpt lat="45.49728" lon="6.67851">
        <ele>2189.28</ele>
        <time>2016-03-22T15:54:42Z</time>
      </trkpt>
      <trkpt lat="45.49709" lon="6.67855">
        <ele>2193.49</ele>
        <time>2016-03-22T15:54:48Z</time>
      </trkpt>
      <trkpt lat="45.49691" lon="6.67859">
        <ele>2197.49</ele>
        <time>2016-03-22T15:54:54Z</time>
      </trkpt>
      <trkpt lat="45.49673" lon="6.67864">
        <ele>2199.49</ele>
        <time>2016-03-22T15:55:00Z</time>
      </trkpt>
      <trkpt lat="45.49655" lon="6.67869">
        <ele>2206.47</ele>
        <time>2016-03-22T15:55:06Z</time>
      </trkpt>
      <trkpt lat="45.49636" lon="6.67873">
        <ele>2214.24</ele>
        <time>2016-03-22T15:55:12Z</time>
      </trkpt>
      <trkpt lat="45.49618" lon="6.67879">
        <ele>2221.24</ele>
        <time>2016-03-22T15:55:18Z</time>
      </trkpt>
      <trkpt lat="45.49597" lon="6.67883">
        <ele>2228.28</ele>
        <time>2016-03-22T15:55:25Z</time>
      </trkpt>
      <trkpt lat="45.49576" lon="6.67888">
        <ele>2233.29</ele>
        <time>2016-03-22T15:55:32Z</time>
      </trkpt>
      <trkpt lat="45.49556" lon="6.67891">
        <ele>2237.49</ele>
        <time>2016-03-22T15:55:39Z</time>
      </trkpt>
      <trkpt lat="45.49537" lon="6.67897">
        <ele>2241.32</ele>
        <time>2016-03-22T15:55:45Z</time>
      </trkpt>
      <trkpt lat="45.49518" lon="6.67902">
        <ele>2245.13</ele>
        <time>2016-03-22T15:55:51Z</time>
      </trkpt>
      <trkpt lat="45.495" lon="6.67907">
        <ele>2248.28</ele>
        <time>2016-03-22T15:55:57Z</time>
      </trkpt>
      <trkpt lat="45.49479" lon="6.67913">
        <ele>2255.28</ele>
        <time>2016-03-22T15:56:04Z</time>
      </trkpt>
      <trkpt lat="45.4946" lon="6.67917">
        <ele>2261.48</ele>
        <time>2016-03-22T15:56:10Z</time>
      </trkpt>
      <trkpt lat="45.4944" lon="6.67921">
        <ele>2269.29</ele>
        <time>2016-03-22T15:56:17Z</time>
      </trkpt>
      <trkpt lat="45.49422" lon="6.67927">
        <ele>2273.48</ele>
        <time>2016-03-22T15:56:23Z</time>
      </trkpt>
      <trkpt lat="45.49403" lon="6.67931">
        <ele>2277.49</ele>
        <time>2016-03-22T15:56:29Z</time>
      </trkpt>
      <trkpt lat="45.49385" lon="6.67935">
        <ele>2282.25</ele>
        <time>2016-03-22T15:56:35Z</time>
      </trkpt>
      <trkpt lat="45.49366" lon="6.67939">
        <ele>2282.54</ele>
        <time>2016-03-22T15:56:41Z</time>
      </trkpt>
      <trkpt lat="45.49348" lon="6.67937">
        <ele>2283.54</ele>
        <time>2016-03-22T15:56:49Z</time>
      </trkpt>
      <trkpt lat="45.49343" lon="6.67912">
        <ele>2279.52</ele>
        <time>2016-03-22T15:57:03Z</time>
      </trkpt>
      <trkpt lat="45.49349" lon="6.67888">
        <ele>2277.74</ele>
        <time>2016-03-22T15:57:14Z</time>
      </trkpt>
      <trkpt lat="45.49363" lon="6.67863">
        <ele>2275.94</ele>
        <time>2016-03-22T15:57:18Z</time>
      </trkpt>
      <trkpt lat="45.49379" lon="6.67842">
        <ele>2274.7</ele>
        <time>2016-03-22T15:57:21Z</time>
      </trkpt>
      <trkpt lat="45.49393" lon="6.67814">
        <ele>2271.81</ele>
        <time>2016-03-22T15:57:24Z</time>
      </trkpt>
      <trkpt lat="45.49411" lon="6.67789">
        <ele>2267.95</ele>
        <time>2016-03-22T15:57:27Z</time>
      </trkpt>
      <trkpt lat="45.49433" lon="6.67768">
        <ele>2264.78</ele>
        <time>2016-03-22T15:57:30Z</time>
      </trkpt>
      <trkpt lat="45.49453" lon="6.67752">
        <ele>2257.11</ele>
        <time>2016-03-22T15:57:33Z</time>
      </trkpt>
      <trkpt lat="45.49476" lon="6.67732">
        <ele>2249.27</ele>
        <time>2016-03-22T15:57:36Z</time>
      </trkpt>
      <trkpt lat="45.49496" lon="6.67718">
        <ele>2246.8</ele>
        <time>2016-03-22T15:57:38Z</time>
      </trkpt>
      <trkpt lat="45.49515" lon="6.67706">
        <ele>2242.82</ele>
        <time>2016-03-22T15:57:41Z</time>
      </trkpt>
      <trkpt lat="45.49545" lon="6.67706">
        <ele>2238.82</ele>
        <time>2016-03-22T15:57:44Z</time>
      </trkpt>
      <trkpt lat="45.49573" lon="6.67713">
        <ele>2235.98</ele>
        <time>2016-03-22T15:57:46Z</time>
      </trkpt>
      <trkpt lat="45.49598" lon="6.67711">
        <ele>2233.79</ele>
        <time>2016-03-22T15:57:48Z</time>
      </trkpt>
      <trkpt lat="45.49616" lon="6.67707">
        <ele>2229.06</ele>
        <time>2016-03-22T15:57:50Z</time>
      </trkpt>
      <trkpt lat="45.49635" lon="6.67704">
        <ele>2223.43</ele>
        <time>2016-03-22T15:57:52Z</time>
      </trkpt>
      <trkpt lat="45.49654" lon="6.67693">
        <ele>2217.29</ele>
        <time>2016-03-22T15:57:54Z</time>
      </trkpt>
      <trkpt lat="45.49677" lon="6.67682">
        <ele>2209.04</ele>
        <time>2016-03-22T15:57:56Z</time>
      </trkpt>
      <trkpt lat="45.49699" lon="6.67658">
        <ele>2202.31</ele>
        <time>2016-03-22T15:57:58Z</time>
      </trkpt>
      <trkpt lat="45.49717" lon="6.67631">
        <ele>2200.76</ele>
        <time>2016-03-22T15:58:00Z</time>
      </trkpt>
      <trkpt lat="45.49738" lon="6.67609">
        <ele>2194.61</ele>
        <time>2016-03-22T15:58:03Z</time>
      </trkpt>
      <trkpt lat="45.49763" lon="6.67595">
        <ele>2191.81</ele>
        <time>2016-03-22T15:58:05Z</time>
      </trkpt>
      <trkpt lat="45.49791" lon="6.67588">
        <ele>2188.82</ele>
        <time>2016-03-22T15:58:07Z</time>
      </trkpt>
      <trkpt lat="45.49814" lon="6.6757">
        <ele>2187.58</ele>
        <time>2016-03-22T15:58:09Z</time>
      </trkpt>
      <trkpt lat="45.49835" lon="6.67557">
        <ele>2179.82</ele>
        <time>2016-03-22T15:58:12Z</time>
      </trkpt>
      <trkpt lat="45.49863" lon="6.67542">
        <ele>2167.88</ele>
        <time>2016-03-22T15:58:16Z</time>
      </trkpt>
      <trkpt lat="45.49886" lon="6.67525">
        <ele>2160.05</ele>
        <time>2016-03-22T15:58:19Z</time>
      </trkpt>
      <trkpt lat="45.49907" lon="6.67523">
        <ele>2154.11</ele>
        <time>2016-03-22T15:58:21Z</time>
      </trkpt>
      <trkpt lat="45.49923" lon="6.67541">
        <ele>2150.03</ele>
        <time>2016-03-22T15:58:23Z</time>
      </trkpt>
      <trkpt lat="45.49938" lon="6.67572">
        <ele>2145.98</ele>
        <time>2016-03-22T15:58:26Z</time>
      </trkpt>
      <trkpt lat="45.49957" lon="6.67593">
        <ele>2141.87</ele>
        <time>2016-03-22T15:58:28Z</time>
      </trkpt>
      <trkpt lat="45.49972" lon="6.67609">
        <ele>2135.14</ele>
        <time>2016-03-22T15:58:30Z</time>
      </trkpt>
      <trkpt lat="45.49984" lon="6.67639">
        <ele>2130.88</ele>
        <time>2016-03-22T15:58:32Z</time>
      </trkpt>
      <trkpt lat="45.49989" lon="6.67669">
        <ele>2123.5</ele>
        <time>2016-03-22T15:58:34Z</time>
      </trkpt>
      <trkpt lat="45.50004" lon="6.6769">
        <ele>2119.85</ele>
        <time>2016-03-22T15:58:36Z</time>
      </trkpt>
      <trkpt lat="45.50023" lon="6.67703">
        <ele>2113.46</ele>
        <time>2016-03-22T15:58:38Z</time>
      </trkpt>
      <trkpt lat="45.50043" lon="6.67712">
        <ele>2109.85</ele>
        <time>2016-03-22T15:58:40Z</time>
      </trkpt>
      <trkpt lat="45.50063" lon="6.6773">
        <ele>2105.22</ele>
        <time>2016-03-22T15:58:42Z</time>
      </trkpt>
      <trkpt lat="45.50082" lon="6.67744">
        <ele>2101.84</ele>
        <time>2016-03-22T15:58:44Z</time>
      </trkpt>
      <trkpt lat="45.50105" lon="6.67736">
        <ele>2091.2</ele>
        <time>2016-03-22T15:58:47Z</time>
      </trkpt>
      <trkpt lat="45.50124" lon="6.6773">
        <ele>2084.84</ele>
        <time>2016-03-22T15:58:50Z</time>
      </trkpt>
      <trkpt lat="45.50145" lon="6.67741">
        <ele>2081.98</ele>
        <time>2016-03-22T15:58:52Z</time>
      </trkpt>
      <trkpt lat="45.5017" lon="6.67737">
        <ele>2075.31</ele>
        <time>2016-03-22T15:58:54Z</time>
      </trkpt>
      <trkpt lat="45.50192" lon="6.67735">
        <ele>2070.88</ele>
        <time>2016-03-22T15:58:56Z</time>
      </trkpt>
      <trkpt lat="45.50217" lon="6.67734">
        <ele>2064.47</ele>
        <time>2016-03-22T15:58:58Z</time>
      </trkpt>
      <trkpt lat="45.5024" lon="6.6772">
        <ele>2059.25</ele>
        <time>2016-03-22T15:59:00Z</time>
      </trkpt>
      <trkpt lat="45.50269" lon="6.67716">
        <ele>2054.24</ele>
        <time>2016-03-22T15:59:02Z</time>
      </trkpt>
      <trkpt lat="45.50297" lon="6.67723">
        <ele>2050.04</ele>
        <time>2016-03-22T15:59:04Z</time>
      </trkpt>
      <trkpt lat="45.50318" lon="6.67737">
        <ele>2046.99</ele>
        <time>2016-03-22T15:59:06Z</time>
      </trkpt>
      <trkpt lat="45.50342" lon="6.67751">
        <ele>2041.27</ele>
        <time>2016-03-22T15:59:08Z</time>
      </trkpt>
      <trkpt lat="45.50362" lon="6.67764">
        <ele>2036.08</ele>
        <time>2016-03-22T15:59:10Z</time>
      </trkpt>
      <trkpt lat="45.50384" lon="6.67759">
        <ele>2033.79</ele>
        <time>2016-03-22T15:59:12Z</time>
      </trkpt>
      <trkpt lat="45.50405" lon="6.67736">
        <ele>2030.02</ele>
        <time>2016-03-22T15:59:14Z</time>
      </trkpt>
      <trkpt lat="45.50417" lon="6.6771">
        <ele>2026.99</ele>
        <time>2016-03-22T15:59:16Z</time>
      </trkpt>
      <trkpt lat="45.50428" lon="6.67686">
        <ele>2025.75</ele>
        <time>2016-03-22T15:59:18Z</time>
      </trkpt>
      <trkpt lat="45.50441" lon="6.67661">
        <ele>2023.78</ele>
        <time>2016-03-22T15:59:20Z</time>
      </trkpt>
      <trkpt lat="45.50451" lon="6.67637">
        <ele>2021.94</ele>
        <time>2016-03-22T15:59:22Z</time>
      </trkpt>
      <trkpt lat="45.50464" lon="6.67613">
        <ele>2019.79</ele>
        <time>2016-03-22T15:59:24Z</time>
      </trkpt>
      <trkpt lat="45.50474" lon="6.67588">
        <ele>2019.54</ele>
        <time>2016-03-22T15:59:26Z</time>
      </trkpt>
      <trkpt lat="45.50483" lon="6.67564">
        <ele>2019.37</ele>
        <time>2016-03-22T15:59:28Z</time>
      </trkpt>
      <trkpt lat="45.50486" lon="6.67534">
        <ele>2017.39</ele>
        <time>2016-03-22T15:59:31Z</time>
      </trkpt>
      <trkpt lat="45.50486" lon="6.67507">
        <ele>2015.61</ele>
        <time>2016-03-22T15:59:34Z</time>
      </trkpt>
      <trkpt lat="45.50481" lon="6.67481">
        <ele>2009.82</ele>
        <time>2016-03-22T15:59:38Z</time>
      </trkpt>
      <trkpt lat="45.50464" lon="6.67468">
        <ele>1992.78</ele>
        <time>2016-03-22T15:59:52Z</time>
      </trkpt>
      <trkpt lat="45.50458" lon="6.67444">
        <ele>1991.68</ele>
        <time>2016-03-22T16:00:09Z</time>
      </trkpt>
      <trkpt lat="45.50449" lon="6.67421">
        <ele>1987.94</ele>
        <time>2016-03-22T16:01:28Z</time>
      </trkpt>
      <trkpt lat="45.50439" lon="6.67395">
        <ele>1982.62</ele>
        <time>2016-03-22T16:01:35Z</time>
      </trkpt>
      <trkpt lat="45.50432" lon="6.67369">
        <ele>1981.38</ele>
        <time>2016-03-22T16:01:39Z</time>
      </trkpt>
      <trkpt lat="45.50426" lon="6.67341">
        <ele>1983.29</ele>
        <time>2016-03-22T16:01:43Z</time>
      </trkpt>
      <trkpt lat="45.50419" lon="6.67316">
        <ele>1984.33</ele>
        <time>2016-03-22T16:01:47Z</time>
      </trkpt>
      <trkpt lat="45.50411" lon="6.6729">
        <ele>1984.41</ele>
        <time>2016-03-22T16:01:51Z</time>
      </trkpt>
      <trkpt lat="45.50405" lon="6.6726">
        <ele>1988.48</ele>
        <time>2016-03-22T16:01:56Z</time>
      </trkpt>
      <trkpt lat="45.50398" lon="6.67231">
        <ele>1992.48</ele>
        <time>2016-03-22T16:02:01Z</time>
      </trkpt>
      <trkpt lat="45.5039" lon="6.67202">
        <ele>1995.49</ele>
        <time>2016-03-22T16:02:06Z</time>
      </trkpt>
      <trkpt lat="45.50382" lon="6.67174">
        <ele>2000.28</ele>
        <time>2016-03-22T16:02:11Z</time>
      </trkpt>
      <trkpt lat="45.50374" lon="6.67145">
        <ele>2003.48</ele>
        <time>2016-03-22T16:02:16Z</time>
      </trkpt>
      <trkpt lat="45.50366" lon="6.67118">
        <ele>2010.07</ele>
        <time>2016-03-22T16:02:21Z</time>
      </trkpt>
      <trkpt lat="45.50362" lon="6.67092">
        <ele>2022.78</ele>
        <time>2016-03-22T16:02:26Z</time>
      </trkpt>
      <trkpt lat="45.50357" lon="6.67062">
        <ele>2029.51</ele>
        <time>2016-03-22T16:02:31Z</time>
      </trkpt>
      <trkpt lat="45.5035" lon="6.67033">
        <ele>2034.25</ele>
        <time>2016-03-22T16:02:36Z</time>
      </trkpt>
      <trkpt lat="45.50345" lon="6.67004">
        <ele>2046.02</ele>
        <time>2016-03-22T16:02:41Z</time>
      </trkpt>
      <trkpt lat="45.50342" lon="6.66974">
        <ele>2057.62</ele>
        <time>2016-03-22T16:02:46Z</time>
      </trkpt>
      <trkpt lat="45.50335" lon="6.66946">
        <ele>2066.44</ele>
        <time>2016-03-22T16:02:51Z</time>
      </trkpt>
      <trkpt lat="45.5033" lon="6.66918">
        <ele>2078.03</ele>
        <time>2016-03-22T16:02:56Z</time>
      </trkpt>
      <trkpt lat="45.50323" lon="6.66891">
        <ele>2083.28</ele>
        <time>2016-03-22T16:03:01Z</time>
      </trkpt>
      <trkpt lat="45.50316" lon="6.66861">
        <ele>2089.13</ele>
        <time>2016-03-22T16:03:06Z</time>
      </trkpt>
      <trkpt lat="45.5031" lon="6.66832">
        <ele>2096.08</ele>
        <time>2016-03-22T16:03:11Z</time>
      </trkpt>
      <trkpt lat="45.50302" lon="6.66803">
        <ele>2100.51</ele>
        <time>2016-03-22T16:03:16Z</time>
      </trkpt>
      <trkpt lat="45.50294" lon="6.66775">
        <ele>2105.35</ele>
        <time>2016-03-22T16:03:21Z</time>
      </trkpt>
      <trkpt lat="45.50287" lon="6.66746">
        <ele>2111.44</ele>
        <time>2016-03-22T16:03:26Z</time>
      </trkpt>
      <trkpt lat="45.50281" lon="6.66717">
        <ele>2117.24</ele>
        <time>2016-03-22T16:03:31Z</time>
      </trkpt>
      <trkpt lat="45.50276" lon="6.66686">
        <ele>2128.19</ele>
        <time>2016-03-22T16:03:36Z</time>
      </trkpt>
      <trkpt lat="45.5027" lon="6.66656">
        <ele>2135.08</ele>
        <time>2016-03-22T16:03:41Z</time>
      </trkpt>
      <trkpt lat="45.50263" lon="6.66627">
        <ele>2143.03</ele>
        <time>2016-03-22T16:03:46Z</time>
      </trkpt>
      <trkpt lat="45.50256" lon="6.66603">
        <ele>2145.52</ele>
        <time>2016-03-22T16:03:50Z</time>
      </trkpt>
      <trkpt lat="45.50248" lon="6.66574">
        <ele>2153.04</ele>
        <time>2016-03-22T16:03:55Z</time>
      </trkpt>
      <trkpt lat="45.50241" lon="6.66545">
        <ele>2158.47</ele>
        <time>2016-03-22T16:04:00Z</time>
      </trkpt>
      <trkpt lat="45.50236" lon="6.66516">
        <ele>2166.24</ele>
        <time>2016-03-22T16:04:05Z</time>
      </trkpt>
      <trkpt lat="45.50235" lon="6.66487">
        <ele>2177.03</ele>
        <time>2016-03-22T16:04:10Z</time>
      </trkpt>
      <trkpt lat="45.50229" lon="6.66459">
        <ele>2189.06</ele>
        <time>2016-03-22T16:04:15Z</time>
      </trkpt>
      <trkpt lat="45.50221" lon="6.66428">
        <ele>2200.66</ele>
        <time>2016-03-22T16:04:20Z</time>
      </trkpt>
      <trkpt lat="45.50213" lon="6.66401">
        <ele>2209.03</ele>
        <time>2016-03-22T16:04:24Z</time>
      </trkpt>
      <trkpt lat="45.50206" lon="6.66375">
        <ele>2214.08</ele>
        <time>2016-03-22T16:04:28Z</time>
      </trkpt>
      <trkpt lat="45.502" lon="6.66347">
        <ele>2220.24</ele>
        <time>2016-03-22T16:04:32Z</time>
      </trkpt>
      <trkpt lat="45.50194" lon="6.6632">
        <ele>2228.98</ele>
        <time>2016-03-22T16:04:36Z</time>
      </trkpt>
      <trkpt lat="45.50187" lon="6.66293">
        <ele>2235.24</ele>
        <time>2016-03-22T16:04:40Z</time>
      </trkpt>
      <trkpt lat="45.50181" lon="6.66268">
        <ele>2242.04</ele>
        <time>2016-03-22T16:04:44Z</time>
      </trkpt>
      <trkpt lat="45.50175" lon="6.66242">
        <ele>2251.79</ele>
        <time>2016-03-22T16:04:48Z</time>
      </trkpt>
      <trkpt lat="45.5017" lon="6.66216">
        <ele>2262.43</ele>
        <time>2016-03-22T16:04:52Z</time>
      </trkpt>
      <trkpt lat="45.5017" lon="6.66188">
        <ele>2277.35</ele>
        <time>2016-03-22T16:04:56Z</time>
      </trkpt>
      <trkpt lat="45.50172" lon="6.66161">
        <ele>2296.14</ele>
        <time>2016-03-22T16:05:00Z</time>
      </trkpt>
      <trkpt lat="45.50176" lon="6.66132">
        <ele>2312.31</ele>
        <time>2016-03-22T16:05:08Z</time>
      </trkpt>
      <trkpt lat="45.5019" lon="6.66114">
        <ele>2329.36</ele>
        <time>2016-03-22T16:05:45Z</time>
      </trkpt>
      <trkpt lat="45.50208" lon="6.66116">
        <ele>2331.53</ele>
        <time>2016-03-22T16:09:01Z</time>
      </trkpt>
      <trkpt lat="45.5023" lon="6.66118">
        <ele>2329.76</ele>
        <time>2016-03-22T16:09:07Z</time>
      </trkpt>
      <trkpt lat="45.50251" lon="6.66116">
        <ele>2329.53</ele>
        <time>2016-03-22T16:09:11Z</time>
      </trkpt>
      <trkpt lat="45.50269" lon="6.66107">
        <ele>2330.33</ele>
        <time>2016-03-22T16:09:14Z</time>
      </trkpt>
      <trkpt lat="45.50287" lon="6.66098">
        <ele>2328.58</ele>
        <time>2016-03-22T16:09:17Z</time>
      </trkpt>
      <trkpt lat="45.50309" lon="6.66094">
        <ele>2323.54</ele>
        <time>2016-03-22T16:09:20Z</time>
      </trkpt>
      <trkpt lat="45.50333" lon="6.66093">
        <ele>2324.33</ele>
        <time>2016-03-22T16:09:23Z</time>
      </trkpt>
      <trkpt lat="45.50357" lon="6.66088">
        <ele>2322.74</ele>
        <time>2016-03-22T16:09:26Z</time>
      </trkpt>
      <trkpt lat="45.50381" lon="6.66086">
        <ele>2321.73</ele>
        <time>2016-03-22T16:09:29Z</time>
      </trkpt>
      <trkpt lat="45.50403" lon="6.66082">
        <ele>2318.75</ele>
        <time>2016-03-22T16:09:32Z</time>
      </trkpt>
      <trkpt lat="45.50426" lon="6.66082">
        <ele>2316.78</ele>
        <time>2016-03-22T16:09:36Z</time>
      </trkpt>
      <trkpt lat="45.50446" lon="6.66082">
        <ele>2315.57</ele>
        <time>2016-03-22T16:09:40Z</time>
      </trkpt>
      <trkpt lat="45.50464" lon="6.66081">
        <ele>2314.54</ele>
        <time>2016-03-22T16:09:44Z</time>
      </trkpt>
      <trkpt lat="45.50482" lon="6.66081">
        <ele>2311.54</ele>
        <time>2016-03-22T16:09:49Z</time>
      </trkpt>
      <trkpt lat="45.505" lon="6.66086">
        <ele>2307.75</ele>
        <time>2016-03-22T16:09:53Z</time>
      </trkpt>
      <trkpt lat="45.50519" lon="6.66102">
        <ele>2302.03</ele>
        <time>2016-03-22T16:09:56Z</time>
      </trkpt>
      <trkpt lat="45.50546" lon="6.66106">
        <ele>2300.73</ele>
        <time>2016-03-22T16:09:59Z</time>
      </trkpt>
      <trkpt lat="45.50566" lon="6.6611">
        <ele>2299.1</ele>
        <time>2016-03-22T16:10:01Z</time>
      </trkpt>
      <trkpt lat="45.50584" lon="6.66116">
        <ele>2295.99</ele>
        <time>2016-03-22T16:10:03Z</time>
      </trkpt>
      <trkpt lat="45.50602" lon="6.66124">
        <ele>2293.79</ele>
        <time>2016-03-22T16:10:05Z</time>
      </trkpt>
      <trkpt lat="45.5062" lon="6.66132">
        <ele>2289.86</ele>
        <time>2016-03-22T16:10:07Z</time>
      </trkpt>
      <trkpt lat="45.50637" lon="6.66141">
        <ele>2287.78</ele>
        <time>2016-03-22T16:10:09Z</time>
      </trkpt>
      <trkpt lat="45.5066" lon="6.66145">
        <ele>2285.77</ele>
        <time>2016-03-22T16:10:12Z</time>
      </trkpt>
      <trkpt lat="45.50672" lon="6.66164">
        <ele>2283.77</ele>
        <time>2016-03-22T16:10:15Z</time>
      </trkpt>
      <trkpt lat="45.50687" lon="6.6619">
        <ele>2279.79</ele>
        <time>2016-03-22T16:10:18Z</time>
      </trkpt>
      <trkpt lat="45.50689" lon="6.6622">
        <ele>2275.02</ele>
        <time>2016-03-22T16:10:21Z</time>
      </trkpt>
      <trkpt lat="45.50702" lon="6.66241">
        <ele>2271.83</ele>
        <time>2016-03-22T16:10:23Z</time>
      </trkpt>
      <trkpt lat="45.50702" lon="6.66268">
        <ele>2269.74</ele>
        <time>2016-03-22T16:10:26Z</time>
      </trkpt>
      <trkpt lat="45.50715" lon="6.66305">
        <ele>2264.03</ele>
        <time>2016-03-22T16:10:29Z</time>
      </trkpt>
      <trkpt lat="45.50724" lon="6.66335">
        <ele>2259.07</ele>
        <time>2016-03-22T16:10:31Z</time>
      </trkpt>
      <trkpt lat="45.50735" lon="6.6636">
        <ele>2255.83</ele>
        <time>2016-03-22T16:10:33Z</time>
      </trkpt>
      <trkpt lat="45.50754" lon="6.66367">
        <ele>2245.29</ele>
        <time>2016-03-22T16:10:36Z</time>
      </trkpt>
      <trkpt lat="45.50765" lon="6.66394">
        <ele>2237.85</ele>
        <time>2016-03-22T16:10:39Z</time>
      </trkpt>
      <trkpt lat="45.50785" lon="6.66394">
        <ele>2230.46</ele>
        <time>2016-03-22T16:10:42Z</time>
      </trkpt>
      <trkpt lat="45.50807" lon="6.66392">
        <ele>2223.84</ele>
        <time>2016-03-22T16:10:45Z</time>
      </trkpt>
      <trkpt lat="45.50829" lon="6.66399">
        <ele>2213.26</ele>
        <time>2016-03-22T16:10:48Z</time>
      </trkpt>
      <trkpt lat="45.50846" lon="6.6637">
        <ele>2208.79</ele>
        <time>2016-03-22T16:10:51Z</time>
      </trkpt>
      <trkpt lat="45.50868" lon="6.66373">
        <ele>2198.08</ele>
        <time>2016-03-22T16:10:55Z</time>
      </trkpt>
      <trkpt lat="45.50888" lon="6.66395">
        <ele>2192.96</ele>
        <time>2016-03-22T16:10:58Z</time>
      </trkpt>
      <trkpt lat="45.50907" lon="6.66386">
        <ele>2186.95</ele>
        <time>2016-03-22T16:11:00Z</time>
      </trkpt>
      <trkpt lat="45.50929" lon="6.66379">
        <ele>2181.91</ele>
        <time>2016-03-22T16:11:02Z</time>
      </trkpt>
      <trkpt lat="45.5095" lon="6.6638">
        <ele>2178.99</ele>
        <time>2016-03-22T16:11:04Z</time>
      </trkpt>
      <trkpt lat="45.5098" lon="6.66385">
        <ele>2171.99</ele>
        <time>2016-03-22T16:11:06Z</time>
      </trkpt>
      <trkpt lat="45.51003" lon="6.66399">
        <ele>2164.67</ele>
        <time>2016-03-22T16:11:08Z</time>
      </trkpt>
      <trkpt lat="45.51017" lon="6.6642">
        <ele>2158.14</ele>
        <time>2016-03-22T16:11:10Z</time>
      </trkpt>
      <trkpt lat="45.51035" lon="6.66429">
        <ele>2154.84</ele>
        <time>2016-03-22T16:11:12Z</time>
      </trkpt>
      <trkpt lat="45.51058" lon="6.66434">
        <ele>2151.78</ele>
        <time>2016-03-22T16:11:15Z</time>
      </trkpt>
      <trkpt lat="45.51078" lon="6.66445">
        <ele>2145.39</ele>
        <time>2016-03-22T16:11:18Z</time>
      </trkpt>
      <trkpt lat="45.51099" lon="6.66456">
        <ele>2135.64</ele>
        <time>2016-03-22T16:11:21Z</time>
      </trkpt>
      <trkpt lat="45.51115" lon="6.66469">
        <ele>2132.98</ele>
        <time>2016-03-22T16:11:23Z</time>
      </trkpt>
      <trkpt lat="45.51141" lon="6.66473">
        <ele>2127.86</ele>
        <time>2016-03-22T16:11:26Z</time>
      </trkpt>
      <trkpt lat="45.51156" lon="6.6649">
        <ele>2123.06</ele>
        <time>2016-03-22T16:11:28Z</time>
      </trkpt>
      <trkpt lat="45.51175" lon="6.66501">
        <ele>2119.99</ele>
        <time>2016-03-22T16:11:30Z</time>
      </trkpt>
      <trkpt lat="45.51181" lon="6.66527">
        <ele>2116.99</ele>
        <time>2016-03-22T16:11:32Z</time>
      </trkpt>
      <trkpt lat="45.51198" lon="6.66549">
        <ele>2111.86</ele>
        <time>2016-03-22T16:11:35Z</time>
      </trkpt>
      <trkpt lat="45.51216" lon="6.66558">
        <ele>2107.98</ele>
        <time>2016-03-22T16:11:38Z</time>
      </trkpt>
      <trkpt lat="45.51221" lon="6.66591">
        <ele>2100.83</ele>
        <time>2016-03-22T16:11:42Z</time>
      </trkpt>
      <trkpt lat="45.51232" lon="6.66616">
        <ele>2097.65</ele>
        <time>2016-03-22T16:11:45Z</time>
      </trkpt>
      <trkpt lat="45.51228" lon="6.66646">
        <ele>2090.08</ele>
        <time>2016-03-22T16:11:48Z</time>
      </trkpt>
      <trkpt lat="45.51224" lon="6.66676">
        <ele>2088.59</ele>
        <time>2016-03-22T16:11:50Z</time>
      </trkpt>
      <trkpt lat="45.51219" lon="6.66702">
        <ele>2088.05</ele>
        <time>2016-03-22T16:11:52Z</time>
      </trkpt>
    </trkseg>
  </trk>
</gpx>